<?xml version='1.0' encoding='UTF-8'?><gpx version="1.1" creator="JPX - https://github.com/jenetics/jpx" xmlns="http://www.topografix.com/GPX/1/1"><trk><trkseg><trkpt lat="44.3216062" lon="8.3241577"><ele>409.00000000000006</ele><time>2026-04-23T12:40:18.157Z</time></trkpt><trkpt lat="44.3216445" lon="8.3240737"><ele>409.0</ele><time>2026-04-23T12:40:25.157Z</time></trkpt><trkpt lat="44.321742" lon="8.3240259"><ele>409.0</ele><time>2026-04-23T12:40:56.158Z</time></trkpt><trkpt lat="44.3218214" lon="8.3240487"><ele>409.0</ele><time>2026-04-23T12:41:00.157Z</time></trkpt><trkpt lat="44.3218787" lon="8.3241107"><ele>409.00000000000006</ele><time>2026-04-23T12:41:03.157Z</time></trkpt><trkpt lat="44.3219273" lon="8.324169"><ele>409.0</ele><time>2026-04-23T12:41:05.156Z</time></trkpt><trkpt lat="44.3219797" lon="8.3242366"><ele>409.00000000000006</ele><time>2026-04-23T12:41:07.158Z</time></trkpt><trkpt lat="44.3220309" lon="8.3243099"><ele>409.0</ele><time>2026-04-23T12:41:09.158Z</time></trkpt><trkpt lat="44.3220838" lon="8.3243912"><ele>409.0</ele><time>2026-04-23T12:41:11.158Z</time></trkpt><trkpt lat="44.3221394" lon="8.3244787"><ele>409.0</ele><time>2026-04-23T12:41:13.158Z</time></trkpt><trkpt lat="44.3222" lon="8.3245601"><ele>409.00000000000006</ele><time>2026-04-23T12:41:15.158Z</time></trkpt><trkpt lat="44.3222767" lon="8.3246178"><ele>409.0</ele><time>2026-04-23T12:41:17.157Z</time></trkpt><trkpt lat="44.3223532" lon="8.3246387"><ele>409.33333333333337</ele><time>2026-04-23T12:41:19.661Z</time></trkpt><trkpt lat="44.3224341" lon="8.3246575"><ele>409.6666666666667</ele><time>2026-04-23T12:41:21.158Z</time></trkpt><trkpt lat="44.3225173" lon="8.3246491"><ele>410.0</ele><time>2026-04-23T12:41:23.157Z</time></trkpt><trkpt lat="44.3226013" lon="8.3246074"><ele>410.33333333333337</ele><time>2026-04-23T12:41:25.157Z</time></trkpt><trkpt lat="44.3226809" lon="8.3245553"><ele>410.6666666666667</ele><time>2026-04-23T12:41:27.158Z</time></trkpt><trkpt lat="44.3227546" lon="8.3244843"><ele>411.0</ele><time>2026-04-23T12:41:29.157Z</time></trkpt><trkpt lat="44.3228269" lon="8.3244142"><ele>411.0</ele><time>2026-04-23T12:41:31.157Z</time></trkpt><trkpt lat="44.3228977" lon="8.3243436"><ele>411.0</ele><time>2026-04-23T12:41:33.157Z</time></trkpt><trkpt lat="44.3229729" lon="8.3242774"><ele>411.0</ele><time>2026-04-23T12:41:35.157Z</time></trkpt><trkpt lat="44.3230436" lon="8.3241996"><ele>411.0</ele><time>2026-04-23T12:41:37.155Z</time></trkpt><trkpt lat="44.3231205" lon="8.3241189"><ele>411.0</ele><time>2026-04-23T12:41:39.156Z</time></trkpt><trkpt lat="44.3232034" lon="8.3240623"><ele>411.0</ele><time>2026-04-23T12:41:41.156Z</time></trkpt><trkpt lat="44.323299" lon="8.3240122"><ele>411.0</ele><time>2026-04-23T12:41:43.157Z</time></trkpt><trkpt lat="44.3234189" lon="8.3240017"><ele>411.0</ele><time>2026-04-23T12:41:45.158Z</time></trkpt><trkpt lat="44.3235297" lon="8.324013"><ele>411.0</ele><time>2026-04-23T12:41:47.157Z</time></trkpt><trkpt lat="44.3236228" lon="8.3240691"><ele>411.0</ele><time>2026-04-23T12:41:49.158Z</time></trkpt><trkpt lat="44.3237029" lon="8.3241825"><ele>411.0</ele><time>2026-04-23T12:41:51.158Z</time></trkpt><trkpt lat="44.3237677" lon="8.3243186"><ele>411.0</ele><time>2026-04-23T12:41:53.158Z</time></trkpt><trkpt lat="44.3237994" lon="8.3244789"><ele>411.0</ele><time>2026-04-23T12:41:55.158Z</time></trkpt><trkpt lat="44.3238244" lon="8.3246307"><ele>411.0</ele><time>2026-04-23T12:41:57.156Z</time></trkpt><trkpt lat="44.3238442" lon="8.3247625"><ele>411.0</ele><time>2026-04-23T12:41:59.157Z</time></trkpt><trkpt lat="44.3238714" lon="8.3249014"><ele>410.8</ele><time>2026-04-23T12:42:01.157Z</time></trkpt><trkpt lat="44.3239136" lon="8.3250226"><ele>410.6</ele><time>2026-04-23T12:42:03.157Z</time></trkpt><trkpt lat="44.3239421" lon="8.3251739"><ele>410.4</ele><time>2026-04-23T12:42:05.158Z</time></trkpt><trkpt lat="44.3239558" lon="8.3253328"><ele>410.2</ele><time>2026-04-23T12:42:07.158Z</time></trkpt><trkpt lat="44.3239797" lon="8.3254838"><ele>410.0</ele><time>2026-04-23T12:42:09.156Z</time></trkpt><trkpt lat="44.323995" lon="8.3256457"><ele>410.0</ele><time>2026-04-23T12:42:11.157Z</time></trkpt><trkpt lat="44.3240254" lon="8.325806"><ele>410.0</ele><time>2026-04-23T12:42:13.157Z</time></trkpt><trkpt lat="44.3240606" lon="8.3259664"><ele>410.0</ele><time>2026-04-23T12:42:15.157Z</time></trkpt><trkpt lat="44.3240747" lon="8.3260527"><ele>410.0</ele><time>2026-04-23T12:42:16.158Z</time></trkpt><trkpt lat="44.3240883" lon="8.3262195"><ele>410.0</ele><time>2026-04-23T12:42:18.157Z</time></trkpt><trkpt lat="44.3241083" lon="8.326382"><ele>412.16666666666663</ele><time>2026-04-23T12:42:20.157Z</time></trkpt><trkpt lat="44.3241199" lon="8.3264711"><ele>414.3333333333333</ele><time>2026-04-23T12:42:21.158Z</time></trkpt><trkpt lat="44.3241367" lon="8.3265598"><ele>416.5</ele><time>2026-04-23T12:42:22.158Z</time></trkpt><trkpt lat="44.3241629" lon="8.3266506"><ele>418.66666666666663</ele><time>2026-04-23T12:42:23.158Z</time></trkpt><trkpt lat="44.3242216" lon="8.3267929"><ele>420.8333333333333</ele><time>2026-04-23T12:42:25.157Z</time></trkpt><trkpt lat="44.32429" lon="8.3269238"><ele>423.0</ele><time>2026-04-23T12:42:27.157Z</time></trkpt><trkpt lat="44.3243816" lon="8.3270302"><ele>423.0</ele><time>2026-04-23T12:42:29.158Z</time></trkpt><trkpt lat="44.3245002" lon="8.3270597"><ele>423.0</ele><time>2026-04-23T12:42:31.157Z</time></trkpt><trkpt lat="44.3246169" lon="8.3270848"><ele>423.0</ele><time>2026-04-23T12:42:33.158Z</time></trkpt><trkpt lat="44.3247218" lon="8.3271218"><ele>423.0</ele><time>2026-04-23T12:42:35.158Z</time></trkpt><trkpt lat="44.3248344" lon="8.3271528"><ele>419.75</ele><time>2026-04-23T12:42:37.158Z</time></trkpt><trkpt lat="44.3249455" lon="8.3271713"><ele>416.5</ele><time>2026-04-23T12:42:39.157Z</time></trkpt><trkpt lat="44.3250613" lon="8.3271798"><ele>413.25</ele><time>2026-04-23T12:42:41.158Z</time></trkpt><trkpt lat="44.3251784" lon="8.3271865"><ele>410.0</ele><time>2026-04-23T12:42:43.158Z</time></trkpt><trkpt lat="44.3252959" lon="8.3272079"><ele>410.0</ele><time>2026-04-23T12:42:45.157Z</time></trkpt><trkpt lat="44.3254022" lon="8.3272204"><ele>410.0</ele><time>2026-04-23T12:42:47.158Z</time></trkpt><trkpt lat="44.3255149" lon="8.3272304"><ele>410.0</ele><time>2026-04-23T12:42:49.157Z</time></trkpt><trkpt lat="44.3256162" lon="8.3272787"><ele>410.0</ele><time>2026-04-23T12:42:51.157Z</time></trkpt><trkpt lat="44.3257215" lon="8.3273401"><ele>410.0</ele><time>2026-04-23T12:42:53.159Z</time></trkpt><trkpt lat="44.325783" lon="8.3273612"><ele>409.2</ele><time>2026-04-23T12:42:54.156Z</time></trkpt><trkpt lat="44.3258798" lon="8.3274234"><ele>408.4</ele><time>2026-04-23T12:42:56.158Z</time></trkpt><trkpt lat="44.325968" lon="8.3275105"><ele>407.6</ele><time>2026-04-23T12:42:58.158Z</time></trkpt><trkpt lat="44.3260537" lon="8.3275943"><ele>406.8</ele><time>2026-04-23T12:43:00.157Z</time></trkpt><trkpt lat="44.3261252" lon="8.327689"><ele>406.0</ele><time>2026-04-23T12:43:02.158Z</time></trkpt><trkpt lat="44.3261988" lon="8.3278133"><ele>406.0</ele><time>2026-04-23T12:43:04.158Z</time></trkpt><trkpt lat="44.3262404" lon="8.3279904"><ele>406.0</ele><time>2026-04-23T12:43:06.158Z</time></trkpt><trkpt lat="44.326263" lon="8.328112"><ele>406.0</ele><time>2026-04-23T12:43:08.158Z</time></trkpt><trkpt lat="44.3262603" lon="8.3282723"><ele>406.0</ele><time>2026-04-23T12:43:10.156Z</time></trkpt><trkpt lat="44.3262672" lon="8.3284233"><ele>406.0</ele><time>2026-04-23T12:43:12.157Z</time></trkpt><trkpt lat="44.3262644" lon="8.3285671"><ele>406.20000000000005</ele><time>2026-04-23T12:43:14.156Z</time></trkpt><trkpt lat="44.3262696" lon="8.3287189"><ele>406.40000000000003</ele><time>2026-04-23T12:43:16.156Z</time></trkpt><trkpt lat="44.3262656" lon="8.3288521"><ele>406.6</ele><time>2026-04-23T12:43:18.157Z</time></trkpt><trkpt lat="44.3262601" lon="8.328984"><ele>406.8</ele><time>2026-04-23T12:43:20.157Z</time></trkpt><trkpt lat="44.3262692" lon="8.3291283"><ele>407.0</ele><time>2026-04-23T12:43:22.157Z</time></trkpt><trkpt lat="44.326283" lon="8.3292764"><ele>407.0</ele><time>2026-04-23T12:43:24.157Z</time></trkpt><trkpt lat="44.3263048" lon="8.329433"><ele>407.0</ele><time>2026-04-23T12:43:26.157Z</time></trkpt><trkpt lat="44.3263522" lon="8.3295685"><ele>407.0</ele><time>2026-04-23T12:43:28.158Z</time></trkpt><trkpt lat="44.3263936" lon="8.3297106"><ele>407.0</ele><time>2026-04-23T12:43:30.157Z</time></trkpt><trkpt lat="44.3264275" lon="8.3298617"><ele>407.0</ele><time>2026-04-23T12:43:32.158Z</time></trkpt><trkpt lat="44.3264668" lon="8.3300107"><ele>405.8</ele><time>2026-04-23T12:43:34.156Z</time></trkpt><trkpt lat="44.3265011" lon="8.3301586"><ele>404.6</ele><time>2026-04-23T12:43:36.157Z</time></trkpt><trkpt lat="44.3265304" lon="8.3303013"><ele>403.40000000000003</ele><time>2026-04-23T12:43:38.157Z</time></trkpt><trkpt lat="44.3265626" lon="8.3304451"><ele>402.20000000000005</ele><time>2026-04-23T12:43:40.158Z</time></trkpt><trkpt lat="44.3266205" lon="8.3305901"><ele>401.0</ele><time>2026-04-23T12:43:42.157Z</time></trkpt><trkpt lat="44.3266599" lon="8.3307281"><ele>401.0</ele><time>2026-04-23T12:43:44.158Z</time></trkpt><trkpt lat="44.3267077" lon="8.3308702"><ele>401.0</ele><time>2026-04-23T12:43:46.157Z</time></trkpt><trkpt lat="44.3267622" lon="8.3310163"><ele>401.0</ele><time>2026-04-23T12:43:48.157Z</time></trkpt><trkpt lat="44.3268087" lon="8.3311393"><ele>401.0</ele><time>2026-04-23T12:43:50.157Z</time></trkpt><trkpt lat="44.326852" lon="8.3312593"><ele>401.0</ele><time>2026-04-23T12:43:52.157Z</time></trkpt><trkpt lat="44.3268999" lon="8.3313914"><ele>401.20000000000005</ele><time>2026-04-23T12:43:54.156Z</time></trkpt><trkpt lat="44.3269453" lon="8.3315195"><ele>401.40000000000003</ele><time>2026-04-23T12:43:56.157Z</time></trkpt><trkpt lat="44.3269926" lon="8.3316428"><ele>401.6</ele><time>2026-04-23T12:43:58.158Z</time></trkpt><trkpt lat="44.3270445" lon="8.3317566"><ele>401.8</ele><time>2026-04-23T12:44:00.158Z</time></trkpt><trkpt lat="44.3270947" lon="8.3318849"><ele>402.0</ele><time>2026-04-23T12:44:02.157Z</time></trkpt><trkpt lat="44.3271393" lon="8.3320158"><ele>402.0</ele><time>2026-04-23T12:44:04.157Z</time></trkpt><trkpt lat="44.3271664" lon="8.3321473"><ele>402.0</ele><time>2026-04-23T12:44:06.158Z</time></trkpt><trkpt lat="44.3271844" lon="8.3322681"><ele>402.0</ele><time>2026-04-23T12:44:08.157Z</time></trkpt><trkpt lat="44.3272025" lon="8.3323988"><ele>402.0</ele><time>2026-04-23T12:44:10.158Z</time></trkpt><trkpt lat="44.327229" lon="8.3325485"><ele>402.0</ele><time>2026-04-23T12:44:12.158Z</time></trkpt><trkpt lat="44.3272519" lon="8.3326865"><ele>401.40000000000003</ele><time>2026-04-23T12:44:14.156Z</time></trkpt><trkpt lat="44.3272791" lon="8.3328187"><ele>400.8</ele><time>2026-04-23T12:44:16.157Z</time></trkpt><trkpt lat="44.3272932" lon="8.3329454"><ele>400.2</ele><time>2026-04-23T12:44:18.156Z</time></trkpt><trkpt lat="44.3273113" lon="8.3330838"><ele>399.6</ele><time>2026-04-23T12:44:20.157Z</time></trkpt><trkpt lat="44.3273365" lon="8.3332241"><ele>399.0</ele><time>2026-04-23T12:44:22.156Z</time></trkpt><trkpt lat="44.3273495" lon="8.3333627"><ele>399.0</ele><time>2026-04-23T12:44:24.157Z</time></trkpt><trkpt lat="44.3273521" lon="8.3335033"><ele>399.0</ele><time>2026-04-23T12:44:26.157Z</time></trkpt><trkpt lat="44.3273613" lon="8.3336384"><ele>399.0</ele><time>2026-04-23T12:44:28.156Z</time></trkpt><trkpt lat="44.3273758" lon="8.3337731"><ele>399.0</ele><time>2026-04-23T12:44:30.157Z</time></trkpt><trkpt lat="44.3273719" lon="8.3339171"><ele>399.0</ele><time>2026-04-23T12:44:32.157Z</time></trkpt><trkpt lat="44.3273855" lon="8.3340406"><ele>400.3333333333333</ele><time>2026-04-23T12:44:34.155Z</time></trkpt><trkpt lat="44.327431" lon="8.3341596"><ele>401.66666666666663</ele><time>2026-04-23T12:44:36.156Z</time></trkpt><trkpt lat="44.3274572" lon="8.3342616"><ele>403.0</ele><time>2026-04-23T12:44:38.157Z</time></trkpt><trkpt lat="44.3275143" lon="8.3343665"><ele>404.3333333333333</ele><time>2026-04-23T12:44:40.158Z</time></trkpt><trkpt lat="44.3275817" lon="8.3344512"><ele>405.66666666666663</ele><time>2026-04-23T12:44:42.157Z</time></trkpt><trkpt lat="44.3276492" lon="8.3345277"><ele>407.0</ele><time>2026-04-23T12:44:44.158Z</time></trkpt><trkpt lat="44.3277236" lon="8.3345913"><ele>407.0</ele><time>2026-04-23T12:44:46.158Z</time></trkpt><trkpt lat="44.3278001" lon="8.3346538"><ele>407.0</ele><time>2026-04-23T12:44:48.158Z</time></trkpt><trkpt lat="44.3278758" lon="8.3347228"><ele>407.0</ele><time>2026-04-23T12:44:50.157Z</time></trkpt><trkpt lat="44.3279577" lon="8.3347832"><ele>407.0</ele><time>2026-04-23T12:44:52.157Z</time></trkpt><trkpt lat="44.3280438" lon="8.3348406"><ele>407.0</ele><time>2026-04-23T12:44:54.156Z</time></trkpt><trkpt lat="44.3281278" lon="8.3348894"><ele>407.16666666666663</ele><time>2026-04-23T12:44:56.157Z</time></trkpt><trkpt lat="44.3282061" lon="8.3349429"><ele>407.3333333333333</ele><time>2026-04-23T12:44:58.156Z</time></trkpt><trkpt lat="44.328286" lon="8.3349947"><ele>407.5</ele><time>2026-04-23T12:45:00.156Z</time></trkpt><trkpt lat="44.3283622" lon="8.3350488"><ele>407.66666666666663</ele><time>2026-04-23T12:45:02.157Z</time></trkpt><trkpt lat="44.3284412" lon="8.3350955"><ele>407.8333333333333</ele><time>2026-04-23T12:45:04.156Z</time></trkpt><trkpt lat="44.328523" lon="8.3351419"><ele>408.0</ele><time>2026-04-23T12:45:06.156Z</time></trkpt><trkpt lat="44.3286029" lon="8.3351897"><ele>408.0</ele><time>2026-04-23T12:45:08.157Z</time></trkpt><trkpt lat="44.3286834" lon="8.3352372"><ele>408.0</ele><time>2026-04-23T12:45:10.157Z</time></trkpt><trkpt lat="44.3287653" lon="8.3352828"><ele>408.0</ele><time>2026-04-23T12:45:12.157Z</time></trkpt><trkpt lat="44.3288468" lon="8.3353277"><ele>408.0</ele><time>2026-04-23T12:45:14.158Z</time></trkpt><trkpt lat="44.3289298" lon="8.335377"><ele>408.0</ele><time>2026-04-23T12:45:16.158Z</time></trkpt><trkpt lat="44.3290151" lon="8.3354287"><ele>408.0</ele><time>2026-04-23T12:45:18.158Z</time></trkpt><trkpt lat="44.3290955" lon="8.3354599"><ele>407.6666666666667</ele><time>2026-04-23T12:45:20.157Z</time></trkpt><trkpt lat="44.3291768" lon="8.3354882"><ele>407.33333333333337</ele><time>2026-04-23T12:45:22.157Z</time></trkpt><trkpt lat="44.3292502" lon="8.3355121"><ele>407.0</ele><time>2026-04-23T12:45:24.157Z</time></trkpt><trkpt lat="44.3293226" lon="8.33551"><ele>406.6666666666667</ele><time>2026-04-23T12:45:26.158Z</time></trkpt><trkpt lat="44.3294033" lon="8.3354919"><ele>406.33333333333337</ele><time>2026-04-23T12:45:28.157Z</time></trkpt><trkpt lat="44.3294721" lon="8.3354611"><ele>406.0</ele><time>2026-04-23T12:45:30.158Z</time></trkpt><trkpt lat="44.329542" lon="8.3354338"><ele>406.00000000000006</ele><time>2026-04-23T12:45:32.157Z</time></trkpt><trkpt lat="44.3296183" lon="8.3354072"><ele>406.0</ele><time>2026-04-23T12:45:34.157Z</time></trkpt><trkpt lat="44.3297" lon="8.3353876"><ele>406.0</ele><time>2026-04-23T12:45:36.157Z</time></trkpt><trkpt lat="44.3297767" lon="8.3353524"><ele>406.0</ele><time>2026-04-23T12:45:38.157Z</time></trkpt><trkpt lat="44.3298479" lon="8.3353217"><ele>406.00000000000006</ele><time>2026-04-23T12:45:40.156Z</time></trkpt><trkpt lat="44.3299126" lon="8.3352891"><ele>406.0</ele><time>2026-04-23T12:45:42.157Z</time></trkpt><trkpt lat="44.3299739" lon="8.3352612"><ele>407.50000000000006</ele><time>2026-04-23T12:45:44.156Z</time></trkpt><trkpt lat="44.3300402" lon="8.335242"><ele>409.0</ele><time>2026-04-23T12:45:46.156Z</time></trkpt><trkpt lat="44.3301278" lon="8.3352148"><ele>410.5</ele><time>2026-04-23T12:45:49.155Z</time></trkpt><trkpt lat="44.3302116" lon="8.3351756"><ele>412.0</ele><time>2026-04-23T12:45:52.156Z</time></trkpt><trkpt lat="44.3303044" lon="8.3351425"><ele>413.50000000000006</ele><time>2026-04-23T12:45:55.158Z</time></trkpt><trkpt lat="44.3303653" lon="8.3351199"><ele>415.0</ele><time>2026-04-23T12:45:57.157Z</time></trkpt><trkpt lat="44.3304247" lon="8.3350895"><ele>415.00000000000006</ele><time>2026-04-23T12:45:59.158Z</time></trkpt><trkpt lat="44.330513" lon="8.3350519"><ele>415.0</ele><time>2026-04-23T12:46:02.156Z</time></trkpt><trkpt lat="44.3305746" lon="8.3350311"><ele>415.0</ele><time>2026-04-23T12:46:04.158Z</time></trkpt><trkpt lat="44.3306594" lon="8.3349753"><ele>415.0</ele><time>2026-04-23T12:46:07.158Z</time></trkpt><trkpt lat="44.3307125" lon="8.3349195"><ele>415.00000000000006</ele><time>2026-04-23T12:46:09.157Z</time></trkpt><trkpt lat="44.33077" lon="8.3348703"><ele>415.0</ele><time>2026-04-23T12:46:11.158Z</time></trkpt><trkpt lat="44.3308459" lon="8.3347982"><ele>414.42857142857144</ele><time>2026-04-23T12:46:14.157Z</time></trkpt><trkpt lat="44.3309229" lon="8.3347226"><ele>413.8571428571429</ele><time>2026-04-23T12:46:17.156Z</time></trkpt><trkpt lat="44.3309735" lon="8.3346656"><ele>413.2857142857143</ele><time>2026-04-23T12:46:19.156Z</time></trkpt><trkpt lat="44.3310274" lon="8.3346085"><ele>412.7142857142857</ele><time>2026-04-23T12:46:21.157Z</time></trkpt><trkpt lat="44.3310826" lon="8.3345534"><ele>412.1428571428571</ele><time>2026-04-23T12:46:23.157Z</time></trkpt><trkpt lat="44.3311343" lon="8.334497"><ele>411.57142857142856</ele><time>2026-04-23T12:46:25.156Z</time></trkpt><trkpt lat="44.331187" lon="8.3344409"><ele>411.0</ele><time>2026-04-23T12:46:27.157Z</time></trkpt><trkpt lat="44.3312383" lon="8.3343814"><ele>411.0</ele><time>2026-04-23T12:46:29.158Z</time></trkpt><trkpt lat="44.3312871" lon="8.3343193"><ele>411.0</ele><time>2026-04-23T12:46:31.157Z</time></trkpt><trkpt lat="44.3313369" lon="8.334259"><ele>411.0</ele><time>2026-04-23T12:46:33.156Z</time></trkpt><trkpt lat="44.3313839" lon="8.334194"><ele>411.0</ele><time>2026-04-23T12:46:35.155Z</time></trkpt><trkpt lat="44.3314285" lon="8.3341286"><ele>411.0</ele><time>2026-04-23T12:46:37.157Z</time></trkpt><trkpt lat="44.3314728" lon="8.3340548"><ele>411.0</ele><time>2026-04-23T12:46:39.158Z</time></trkpt><trkpt lat="44.3315141" lon="8.333978"><ele>411.0</ele><time>2026-04-23T12:46:41.157Z</time></trkpt><trkpt lat="44.3315591" lon="8.3339106"><ele>411.7142857142857</ele><time>2026-04-23T12:46:43.156Z</time></trkpt><trkpt lat="44.3315956" lon="8.3338309"><ele>412.42857142857144</ele><time>2026-04-23T12:46:45.156Z</time></trkpt><trkpt lat="44.331634" lon="8.3337562"><ele>413.1428571428571</ele><time>2026-04-23T12:46:47.157Z</time></trkpt><trkpt lat="44.331672" lon="8.3336761"><ele>413.8571428571429</ele><time>2026-04-23T12:46:49.158Z</time></trkpt><trkpt lat="44.3317117" lon="8.3335988"><ele>414.5714285714286</ele><time>2026-04-23T12:46:51.156Z</time></trkpt><trkpt lat="44.3317565" lon="8.3335279"><ele>415.2857142857143</ele><time>2026-04-23T12:46:53.155Z</time></trkpt><trkpt lat="44.3318006" lon="8.3334519"><ele>416.0</ele><time>2026-04-23T12:46:55.156Z</time></trkpt><trkpt lat="44.3318502" lon="8.3333786"><ele>416.0</ele><time>2026-04-23T12:46:57.156Z</time></trkpt><trkpt lat="44.3318978" lon="8.3333053"><ele>416.0</ele><time>2026-04-23T12:46:59.157Z</time></trkpt><trkpt lat="44.3319504" lon="8.333232"><ele>416.0</ele><time>2026-04-23T12:47:01.156Z</time></trkpt><trkpt lat="44.3320046" lon="8.3331578"><ele>416.0</ele><time>2026-04-23T12:47:03.157Z</time></trkpt><trkpt lat="44.3320615" lon="8.3330891"><ele>416.0</ele><time>2026-04-23T12:47:05.157Z</time></trkpt><trkpt lat="44.3321191" lon="8.333017"><ele>416.0</ele><time>2026-04-23T12:47:07.155Z</time></trkpt><trkpt lat="44.3321695" lon="8.3329383"><ele>416.0</ele><time>2026-04-23T12:47:09.156Z</time></trkpt><trkpt lat="44.3322231" lon="8.3328601"><ele>418.8</ele><time>2026-04-23T12:47:11.156Z</time></trkpt><trkpt lat="44.3322869" lon="8.3327944"><ele>421.6</ele><time>2026-04-23T12:47:13.157Z</time></trkpt><trkpt lat="44.3323693" lon="8.3327564"><ele>424.4</ele><time>2026-04-23T12:47:15.156Z</time></trkpt><trkpt lat="44.3324646" lon="8.3327781"><ele>427.2</ele><time>2026-04-23T12:47:17.156Z</time></trkpt><trkpt lat="44.3325523" lon="8.3328139"><ele>430.0</ele><time>2026-04-23T12:47:19.158Z</time></trkpt><trkpt lat="44.3326652" lon="8.3329103"><ele>430.00000000000006</ele><time>2026-04-23T12:47:21.156Z</time></trkpt><trkpt lat="44.332732" lon="8.3329462"><ele>430.0</ele><time>2026-04-23T12:47:22.158Z</time></trkpt><trkpt lat="44.3327959" lon="8.3329757"><ele>430.0</ele><time>2026-04-23T12:47:23.157Z</time></trkpt><trkpt lat="44.3328721" lon="8.3329716"><ele>430.0</ele><time>2026-04-23T12:47:24.157Z</time></trkpt><trkpt lat="44.3329735" lon="8.3329616"><ele>430.00000000000006</ele><time>2026-04-23T12:47:25.156Z</time></trkpt><trkpt lat="44.3330568" lon="8.3329559"><ele>430.0</ele><time>2026-04-23T12:47:26.156Z</time></trkpt><trkpt lat="44.333164" lon="8.3329255"><ele>431.2</ele><time>2026-04-23T12:47:27.158Z</time></trkpt><trkpt lat="44.3332568" lon="8.3328971"><ele>432.4</ele><time>2026-04-23T12:47:28.157Z</time></trkpt><trkpt lat="44.3333421" lon="8.3328318"><ele>433.6</ele><time>2026-04-23T12:47:29.157Z</time></trkpt><trkpt lat="44.3334285" lon="8.332786"><ele>434.8</ele><time>2026-04-23T12:47:30.157Z</time></trkpt><trkpt lat="44.3335438" lon="8.3327071"><ele>436.0</ele><time>2026-04-23T12:47:31.156Z</time></trkpt><trkpt lat="44.3336485" lon="8.3326561"><ele>436.0</ele><time>2026-04-23T12:47:32.158Z</time></trkpt><trkpt lat="44.3337465" lon="8.3326196"><ele>436.0</ele><time>2026-04-23T12:47:33.155Z</time></trkpt><trkpt lat="44.3338494" lon="8.3325774"><ele>436.0</ele><time>2026-04-23T12:47:34.158Z</time></trkpt><trkpt lat="44.3339747" lon="8.3325467"><ele>436.0</ele><time>2026-04-23T12:47:35.156Z</time></trkpt><trkpt lat="44.3340745" lon="8.3325285"><ele>436.0</ele><time>2026-04-23T12:47:36.158Z</time></trkpt><trkpt lat="44.3341937" lon="8.332482"><ele>431.75</ele><time>2026-04-23T12:47:37.157Z</time></trkpt><trkpt lat="44.3343128" lon="8.3324293"><ele>427.5</ele><time>2026-04-23T12:47:38.157Z</time></trkpt><trkpt lat="44.3344337" lon="8.3323856"><ele>423.25</ele><time>2026-04-23T12:47:39.157Z</time></trkpt><trkpt lat="44.3345619" lon="8.3323522"><ele>419.0</ele><time>2026-04-23T12:47:40.155Z</time></trkpt><trkpt lat="44.3346912" lon="8.3323289"><ele>416.0</ele><time>2026-04-23T12:47:41.156Z</time></trkpt><trkpt lat="44.334817" lon="8.3323118"><ele>413.0</ele><time>2026-04-23T12:47:42.156Z</time></trkpt><trkpt lat="44.3349324" lon="8.3322822"><ele>410.0</ele><time>2026-04-23T12:47:43.156Z</time></trkpt><trkpt lat="44.3350472" lon="8.3322462"><ele>407.0</ele><time>2026-04-23T12:47:44.158Z</time></trkpt><trkpt lat="44.3351625" lon="8.3322105"><ele>407.0</ele><time>2026-04-23T12:47:45.158Z</time></trkpt><trkpt lat="44.3352737" lon="8.3322184"><ele>407.0</ele><time>2026-04-23T12:47:46.157Z</time></trkpt><trkpt lat="44.335382" lon="8.33223"><ele>407.0</ele><time>2026-04-23T12:47:47.157Z</time></trkpt><trkpt lat="44.3354549" lon="8.3322543"><ele>407.0</ele><time>2026-04-23T12:47:48.157Z</time></trkpt><trkpt lat="44.3355436" lon="8.3322878"><ele>407.0</ele><time>2026-04-23T12:47:49.157Z</time></trkpt><trkpt lat="44.3356087" lon="8.3323546"><ele>404.8</ele><time>2026-04-23T12:47:50.156Z</time></trkpt><trkpt lat="44.3356619" lon="8.3324527"><ele>402.6</ele><time>2026-04-23T12:47:51.157Z</time></trkpt><trkpt lat="44.3356659" lon="8.3325815"><ele>400.40000000000003</ele><time>2026-04-23T12:47:52.156Z</time></trkpt><trkpt lat="44.3356553" lon="8.3326864"><ele>398.20000000000005</ele><time>2026-04-23T12:47:53.157Z</time></trkpt><trkpt lat="44.3356288" lon="8.3328682"><ele>396.0</ele><time>2026-04-23T12:47:55.156Z</time></trkpt><trkpt lat="44.335601" lon="8.3329821"><ele>396.1666666666667</ele><time>2026-04-23T12:47:56.158Z</time></trkpt><trkpt lat="44.3355881" lon="8.3330815"><ele>396.33333333333337</ele><time>2026-04-23T12:47:57.157Z</time></trkpt><trkpt lat="44.3355743" lon="8.3331775"><ele>396.5</ele><time>2026-04-23T12:47:58.158Z</time></trkpt><trkpt lat="44.335564" lon="8.3332704"><ele>396.6666666666667</ele><time>2026-04-23T12:47:59.155Z</time></trkpt><trkpt lat="44.3355534" lon="8.3333606"><ele>396.83333333333337</ele><time>2026-04-23T12:48:00.156Z</time></trkpt><trkpt lat="44.3355343" lon="8.3334466"><ele>397.0</ele><time>2026-04-23T12:48:01.157Z</time></trkpt><trkpt lat="44.3355047" lon="8.3335979"><ele>399.6</ele><time>2026-04-23T12:48:03.157Z</time></trkpt><trkpt lat="44.3354626" lon="8.3336869"><ele>402.20000000000005</ele><time>2026-04-23T12:48:04.156Z</time></trkpt><trkpt lat="44.3353888" lon="8.3338452"><ele>404.8</ele><time>2026-04-23T12:48:06.156Z</time></trkpt><trkpt lat="44.3354018" lon="8.3339749"><ele>407.4</ele><time>2026-04-23T12:48:08.156Z</time></trkpt><trkpt lat="44.3353709" lon="8.334133"><ele>410.0</ele><time>2026-04-23T12:48:10.156Z</time></trkpt><trkpt lat="44.3353511" lon="8.3342607"><ele>410.0</ele><time>2026-04-23T12:48:12.155Z</time></trkpt><trkpt lat="44.3353401" lon="8.3343928"><ele>410.0</ele><time>2026-04-23T12:48:14.156Z</time></trkpt><trkpt lat="44.3352883" lon="8.3345268"><ele>410.0</ele><time>2026-04-23T12:48:16.158Z</time></trkpt><trkpt lat="44.3352512" lon="8.3346427"><ele>410.0</ele><time>2026-04-23T12:48:18.156Z</time></trkpt><trkpt lat="44.3352334" lon="8.3347542"><ele>410.0</ele><time>2026-04-23T12:48:20.157Z</time></trkpt><trkpt lat="44.3352348" lon="8.3348891"><ele>409.6</ele><time>2026-04-23T12:48:22.157Z</time></trkpt><trkpt lat="44.3352128" lon="8.335017"><ele>409.2</ele><time>2026-04-23T12:48:24.156Z</time></trkpt><trkpt lat="44.3351869" lon="8.3351677"><ele>408.79999999999995</ele><time>2026-04-23T12:48:26.158Z</time></trkpt><trkpt lat="44.3351623" lon="8.3353109"><ele>408.4</ele><time>2026-04-23T12:48:28.157Z</time></trkpt><trkpt lat="44.335141" lon="8.3354518"><ele>408.0</ele><time>2026-04-23T12:48:30.158Z</time></trkpt><trkpt lat="44.3351153" lon="8.3355857"><ele>407.2</ele><time>2026-04-23T12:48:32.158Z</time></trkpt><trkpt lat="44.3350872" lon="8.3357149"><ele>406.4</ele><time>2026-04-23T12:48:34.158Z</time></trkpt><trkpt lat="44.3350642" lon="8.3358352"><ele>405.59999999999997</ele><time>2026-04-23T12:48:36.157Z</time></trkpt><trkpt lat="44.3350379" lon="8.3359732"><ele>404.79999999999995</ele><time>2026-04-23T12:48:38.156Z</time></trkpt><trkpt lat="44.3350142" lon="8.336113"><ele>404.0</ele><time>2026-04-23T12:48:40.157Z</time></trkpt><trkpt lat="44.3350023" lon="8.3362414"><ele>404.0</ele><time>2026-04-23T12:48:42.155Z</time></trkpt><trkpt lat="44.3349991" lon="8.3363736"><ele>404.0</ele><time>2026-04-23T12:48:44.158Z</time></trkpt><trkpt lat="44.3350103" lon="8.3365026"><ele>404.0</ele><time>2026-04-23T12:48:46.157Z</time></trkpt><trkpt lat="44.3350274" lon="8.3366321"><ele>404.0</ele><time>2026-04-23T12:48:48.157Z</time></trkpt><trkpt lat="44.3350535" lon="8.3367598"><ele>404.0</ele><time>2026-04-23T12:48:50.157Z</time></trkpt><trkpt lat="44.3350688" lon="8.3368913"><ele>403.8333333333333</ele><time>2026-04-23T12:48:52.156Z</time></trkpt><trkpt lat="44.3350894" lon="8.3370059"><ele>403.66666666666663</ele><time>2026-04-23T12:48:54.157Z</time></trkpt><trkpt lat="44.3350942" lon="8.3371285"><ele>403.5</ele><time>2026-04-23T12:48:56.157Z</time></trkpt><trkpt lat="44.3350898" lon="8.3372468"><ele>403.33333333333337</ele><time>2026-04-23T12:48:58.158Z</time></trkpt><trkpt lat="44.3350846" lon="8.3373532"><ele>403.1666666666667</ele><time>2026-04-23T12:49:00.157Z</time></trkpt><trkpt lat="44.3350749" lon="8.3374602"><ele>403.0</ele><time>2026-04-23T12:49:02.156Z</time></trkpt><trkpt lat="44.3350573" lon="8.3375718"><ele>404.6666666666667</ele><time>2026-04-23T12:49:04.158Z</time></trkpt><trkpt lat="44.3350435" lon="8.3376741"><ele>406.33333333333337</ele><time>2026-04-23T12:49:06.157Z</time></trkpt><trkpt lat="44.3350289" lon="8.3377836"><ele>408.0</ele><time>2026-04-23T12:49:08.157Z</time></trkpt><trkpt lat="44.3350187" lon="8.3378969"><ele>409.66666666666663</ele><time>2026-04-23T12:49:10.157Z</time></trkpt><trkpt lat="44.3350062" lon="8.338009"><ele>411.3333333333333</ele><time>2026-04-23T12:49:12.157Z</time></trkpt><trkpt lat="44.3350008" lon="8.3381268"><ele>413.0</ele><time>2026-04-23T12:49:14.158Z</time></trkpt><trkpt lat="44.3350298" lon="8.3382469"><ele>414.0</ele><time>2026-04-23T12:49:16.157Z</time></trkpt><trkpt lat="44.3350949" lon="8.3383599"><ele>415.0</ele><time>2026-04-23T12:49:18.158Z</time></trkpt><trkpt lat="44.3352111" lon="8.3384593"><ele>416.0</ele><time>2026-04-23T12:49:20.157Z</time></trkpt><trkpt lat="44.3353474" lon="8.3384818"><ele>417.0</ele><time>2026-04-23T12:49:22.158Z</time></trkpt><trkpt lat="44.335412" lon="8.3384748"><ele>418.0</ele><time>2026-04-23T12:49:23.156Z</time></trkpt><trkpt lat="44.3354804" lon="8.3384656"><ele>416.1666666666667</ele><time>2026-04-23T12:49:24.158Z</time></trkpt><trkpt lat="44.3355758" lon="8.3384504"><ele>414.33333333333337</ele><time>2026-04-23T12:49:26.156Z</time></trkpt><trkpt lat="44.3356615" lon="8.3384891"><ele>412.5</ele><time>2026-04-23T12:49:28.155Z</time></trkpt><trkpt lat="44.3357114" lon="8.338574"><ele>410.66666666666663</ele><time>2026-04-23T12:49:31.157Z</time></trkpt><trkpt lat="44.3357154" lon="8.3386716"><ele>408.8333333333333</ele><time>2026-04-23T12:49:33.158Z</time></trkpt><trkpt lat="44.3357256" lon="8.3387791"><ele>407.0</ele><time>2026-04-23T12:49:35.157Z</time></trkpt><trkpt lat="44.3357057" lon="8.3388876"><ele>406.99999999999994</ele><time>2026-04-23T12:49:37.157Z</time></trkpt><trkpt lat="44.3357286" lon="8.3389863"><ele>407.0</ele><time>2026-04-23T12:49:39.156Z</time></trkpt><trkpt lat="44.3357367" lon="8.3390878"><ele>407.0</ele><time>2026-04-23T12:49:41.157Z</time></trkpt><trkpt lat="44.3357456" lon="8.3392362"><ele>407.0</ele><time>2026-04-23T12:49:43.156Z</time></trkpt><trkpt lat="44.3357543" lon="8.339358"><ele>406.99999999999994</ele><time>2026-04-23T12:49:45.157Z</time></trkpt><trkpt lat="44.3357534" lon="8.3394761"><ele>407.0</ele><time>2026-04-23T12:49:47.156Z</time></trkpt><trkpt lat="44.3357547" lon="8.3396117"><ele>407.0</ele><time>2026-04-23T12:49:49.158Z</time></trkpt><trkpt lat="44.3357647" lon="8.3397166"><ele>407.0</ele><time>2026-04-23T12:49:51.158Z</time></trkpt><trkpt lat="44.3357881" lon="8.3398552"><ele>407.0</ele><time>2026-04-23T12:49:53.156Z</time></trkpt><trkpt lat="44.3357968" lon="8.339997"><ele>407.0</ele><time>2026-04-23T12:49:55.156Z</time></trkpt><trkpt lat="44.3358124" lon="8.3401323"><ele>407.0</ele><time>2026-04-23T12:49:57.157Z</time></trkpt><trkpt lat="44.3358259" lon="8.3402576"><ele>407.3333333333333</ele><time>2026-04-23T12:49:59.158Z</time></trkpt><trkpt lat="44.3358069" lon="8.3403841"><ele>407.66666666666663</ele><time>2026-04-23T12:50:01.157Z</time></trkpt><trkpt lat="44.33579" lon="8.3405015"><ele>408.0</ele><time>2026-04-23T12:50:03.157Z</time></trkpt><trkpt lat="44.3357692" lon="8.3405937"><ele>408.33333333333337</ele><time>2026-04-23T12:50:05.156Z</time></trkpt><trkpt lat="44.3358017" lon="8.3406947"><ele>408.6666666666667</ele><time>2026-04-23T12:50:07.156Z</time></trkpt><trkpt lat="44.3358445" lon="8.3407984"><ele>409.0</ele><time>2026-04-23T12:50:09.158Z</time></trkpt><trkpt lat="44.3358779" lon="8.340899"><ele>409.00000000000006</ele><time>2026-04-23T12:50:11.156Z</time></trkpt><trkpt lat="44.335929" lon="8.3409913"><ele>409.0</ele><time>2026-04-23T12:50:13.158Z</time></trkpt><trkpt lat="44.3360054" lon="8.3410877"><ele>409.0</ele><time>2026-04-23T12:50:15.156Z</time></trkpt><trkpt lat="44.3360753" lon="8.3411413"><ele>409.0</ele><time>2026-04-23T12:50:17.156Z</time></trkpt><trkpt lat="44.3361654" lon="8.3411839"><ele>409.00000000000006</ele><time>2026-04-23T12:50:19.156Z</time></trkpt><trkpt lat="44.3362293" lon="8.3412249"><ele>409.0</ele><time>2026-04-23T12:50:21.157Z</time></trkpt><trkpt lat="44.3363072" lon="8.3412774"><ele>408.83333333333337</ele><time>2026-04-23T12:50:23.155Z</time></trkpt><trkpt lat="44.3363872" lon="8.3413201"><ele>408.6666666666667</ele><time>2026-04-23T12:50:25.156Z</time></trkpt><trkpt lat="44.3364642" lon="8.3413715"><ele>408.5</ele><time>2026-04-23T12:50:27.156Z</time></trkpt><trkpt lat="44.336536" lon="8.3414084"><ele>408.33333333333337</ele><time>2026-04-23T12:50:29.157Z</time></trkpt><trkpt lat="44.3366245" lon="8.3414174"><ele>408.1666666666667</ele><time>2026-04-23T12:50:31.157Z</time></trkpt><trkpt lat="44.336722" lon="8.3414208"><ele>408.0</ele><time>2026-04-23T12:50:33.156Z</time></trkpt><trkpt lat="44.336811" lon="8.3414127"><ele>407.8333333333333</ele><time>2026-04-23T12:50:35.157Z</time></trkpt><trkpt lat="44.3368979" lon="8.3414279"><ele>407.66666666666663</ele><time>2026-04-23T12:50:37.157Z</time></trkpt><trkpt lat="44.3369629" lon="8.3414967"><ele>407.5</ele><time>2026-04-23T12:50:39.157Z</time></trkpt><trkpt lat="44.3369994" lon="8.3415835"><ele>407.3333333333333</ele><time>2026-04-23T12:50:41.158Z</time></trkpt><trkpt lat="44.3370346" lon="8.3416608"><ele>407.16666666666663</ele><time>2026-04-23T12:50:43.156Z</time></trkpt><trkpt lat="44.3370817" lon="8.3417425"><ele>407.0</ele><time>2026-04-23T12:50:45.158Z</time></trkpt><trkpt lat="44.3371268" lon="8.3418362"><ele>406.99999999999994</ele><time>2026-04-23T12:50:47.157Z</time></trkpt><trkpt lat="44.3371783" lon="8.341931"><ele>407.0</ele><time>2026-04-23T12:50:49.157Z</time></trkpt><trkpt lat="44.3372349" lon="8.3420209"><ele>407.0</ele><time>2026-04-23T12:50:51.157Z</time></trkpt><trkpt lat="44.3372907" lon="8.3421008"><ele>407.0</ele><time>2026-04-23T12:50:53.157Z</time></trkpt><trkpt lat="44.3373391" lon="8.3421712"><ele>406.99999999999994</ele><time>2026-04-23T12:50:55.158Z</time></trkpt><trkpt lat="44.3373958" lon="8.3422309"><ele>407.0</ele><time>2026-04-23T12:50:57.157Z</time></trkpt><trkpt lat="44.3374545" lon="8.3422755"><ele>408.00000000000006</ele><time>2026-04-23T12:50:59.155Z</time></trkpt><trkpt lat="44.3375095" lon="8.3423252"><ele>409.0</ele><time>2026-04-23T12:51:01.155Z</time></trkpt><trkpt lat="44.3375648" lon="8.3423768"><ele>410.0</ele><time>2026-04-23T12:51:03.157Z</time></trkpt><trkpt lat="44.3376206" lon="8.3424326"><ele>411.0</ele><time>2026-04-23T12:51:05.156Z</time></trkpt><trkpt lat="44.3376687" lon="8.3424983"><ele>412.0</ele><time>2026-04-23T12:51:07.157Z</time></trkpt><trkpt lat="44.3377208" lon="8.3425685"><ele>413.00000000000006</ele><time>2026-04-23T12:51:09.156Z</time></trkpt><trkpt lat="44.3377841" lon="8.3426363"><ele>414.0</ele><time>2026-04-23T12:51:11.157Z</time></trkpt><trkpt lat="44.3378422" lon="8.3427113"><ele>414.0</ele><time>2026-04-23T12:51:13.157Z</time></trkpt><trkpt lat="44.3379014" lon="8.3427762"><ele>414.0</ele><time>2026-04-23T12:51:15.156Z</time></trkpt><trkpt lat="44.3379648" lon="8.3428486"><ele>414.0</ele><time>2026-04-23T12:51:17.156Z</time></trkpt><trkpt lat="44.3380166" lon="8.3429349"><ele>414.0</ele><time>2026-04-23T12:51:19.157Z</time></trkpt><trkpt lat="44.3380503" lon="8.3430322"><ele>414.0</ele><time>2026-04-23T12:51:21.157Z</time></trkpt><trkpt lat="44.3380888" lon="8.3431232"><ele>414.0</ele><time>2026-04-23T12:51:23.156Z</time></trkpt><trkpt lat="44.3381253" lon="8.3432101"><ele>414.14285714285717</ele><time>2026-04-23T12:51:25.156Z</time></trkpt><trkpt lat="44.3381552" lon="8.3433001"><ele>414.2857142857143</ele><time>2026-04-23T12:51:27.157Z</time></trkpt><trkpt lat="44.3381843" lon="8.3433884"><ele>414.42857142857144</ele><time>2026-04-23T12:51:29.156Z</time></trkpt><trkpt lat="44.3382104" lon="8.3434818"><ele>414.57142857142856</ele><time>2026-04-23T12:51:31.156Z</time></trkpt><trkpt lat="44.3382369" lon="8.3435704"><ele>414.7142857142857</ele><time>2026-04-23T12:51:33.157Z</time></trkpt><trkpt lat="44.3382676" lon="8.3436571"><ele>414.8571428571429</ele><time>2026-04-23T12:51:35.157Z</time></trkpt><trkpt lat="44.3383105" lon="8.3437367"><ele>415.0</ele><time>2026-04-23T12:51:37.157Z</time></trkpt><trkpt lat="44.3383537" lon="8.3438168"><ele>415.0</ele><time>2026-04-23T12:51:39.156Z</time></trkpt><trkpt lat="44.3383961" lon="8.3438973"><ele>415.0</ele><time>2026-04-23T12:51:41.155Z</time></trkpt><trkpt lat="44.3384347" lon="8.3439854"><ele>415.0</ele><time>2026-04-23T12:51:43.156Z</time></trkpt><trkpt lat="44.3384772" lon="8.3440738"><ele>415.0</ele><time>2026-04-23T12:51:45.157Z</time></trkpt><trkpt lat="44.3385135" lon="8.3441648"><ele>415.0</ele><time>2026-04-23T12:51:47.156Z</time></trkpt><trkpt lat="44.3385499" lon="8.3442522"><ele>415.0</ele><time>2026-04-23T12:51:49.157Z</time></trkpt><trkpt lat="44.3385864" lon="8.3443378"><ele>415.0</ele><time>2026-04-23T12:51:51.156Z</time></trkpt><trkpt lat="44.3386254" lon="8.3444222"><ele>415.00000000000006</ele><time>2026-04-23T12:51:53.157Z</time></trkpt><trkpt lat="44.3386677" lon="8.344513"><ele>415.0</ele><time>2026-04-23T12:51:55.157Z</time></trkpt><trkpt lat="44.3387122" lon="8.3446032"><ele>415.0</ele><time>2026-04-23T12:51:57.156Z</time></trkpt><trkpt lat="44.3387552" lon="8.3447072"><ele>415.0</ele><time>2026-04-23T12:51:59.155Z</time></trkpt><trkpt lat="44.338806" lon="8.3448106"><ele>415.00000000000006</ele><time>2026-04-23T12:52:01.156Z</time></trkpt><trkpt lat="44.3388549" lon="8.3449158"><ele>415.0</ele><time>2026-04-23T12:52:03.156Z</time></trkpt><trkpt lat="44.3389017" lon="8.3450231"><ele>415.50000000000006</ele><time>2026-04-23T12:52:05.155Z</time></trkpt><trkpt lat="44.3389477" lon="8.3451289"><ele>416.0</ele><time>2026-04-23T12:52:07.157Z</time></trkpt><trkpt lat="44.3389937" lon="8.3452318"><ele>416.5</ele><time>2026-04-23T12:52:09.157Z</time></trkpt><trkpt lat="44.3390372" lon="8.345327"><ele>417.0</ele><time>2026-04-23T12:52:11.156Z</time></trkpt><trkpt lat="44.3390831" lon="8.3454161"><ele>417.50000000000006</ele><time>2026-04-23T12:52:13.157Z</time></trkpt><trkpt lat="44.3391333" lon="8.3455089"><ele>418.0</ele><time>2026-04-23T12:52:15.157Z</time></trkpt><trkpt lat="44.3391833" lon="8.3455976"><ele>418.00000000000006</ele><time>2026-04-23T12:52:17.157Z</time></trkpt><trkpt lat="44.3392379" lon="8.3456794"><ele>418.0</ele><time>2026-04-23T12:52:19.157Z</time></trkpt><trkpt lat="44.3392997" lon="8.3457582"><ele>418.0</ele><time>2026-04-23T12:52:21.157Z</time></trkpt><trkpt lat="44.3393661" lon="8.3458344"><ele>418.0</ele><time>2026-04-23T12:52:23.155Z</time></trkpt><trkpt lat="44.3394337" lon="8.3459022"><ele>418.00000000000006</ele><time>2026-04-23T12:52:25.156Z</time></trkpt><trkpt lat="44.3395061" lon="8.3459702"><ele>418.0</ele><time>2026-04-23T12:52:27.156Z</time></trkpt><trkpt lat="44.3395938" lon="8.3460324"><ele>418.00000000000006</ele><time>2026-04-23T12:52:29.157Z</time></trkpt><trkpt lat="44.3396741" lon="8.3460772"><ele>418.0</ele><time>2026-04-23T12:52:31.156Z</time></trkpt><trkpt lat="44.3397566" lon="8.3460962"><ele>418.0</ele><time>2026-04-23T12:52:33.157Z</time></trkpt><trkpt lat="44.3398517" lon="8.3461083"><ele>418.0</ele><time>2026-04-23T12:52:35.156Z</time></trkpt><trkpt lat="44.3399558" lon="8.3461344"><ele>418.00000000000006</ele><time>2026-04-23T12:52:37.156Z</time></trkpt><trkpt lat="44.3400319" lon="8.3461542"><ele>418.0</ele><time>2026-04-23T12:52:39.157Z</time></trkpt><trkpt lat="44.3401249" lon="8.3461494"><ele>419.50000000000006</ele><time>2026-04-23T12:52:41.156Z</time></trkpt><trkpt lat="44.3401999" lon="8.3461536"><ele>421.0</ele><time>2026-04-23T12:52:43.156Z</time></trkpt><trkpt lat="44.3402666" lon="8.3461577"><ele>422.5</ele><time>2026-04-23T12:52:45.155Z</time></trkpt><trkpt lat="44.3403533" lon="8.3461497"><ele>424.0</ele><time>2026-04-23T12:52:48.155Z</time></trkpt><trkpt lat="44.3404513" lon="8.3461499"><ele>425.50000000000006</ele><time>2026-04-23T12:52:51.156Z</time></trkpt><trkpt lat="44.3405223" lon="8.3461576"><ele>427.0</ele><time>2026-04-23T12:52:53.157Z</time></trkpt><trkpt lat="44.340599" lon="8.3461632"><ele>427.2857142857143</ele><time>2026-04-23T12:52:55.156Z</time></trkpt><trkpt lat="44.3406768" lon="8.3461712"><ele>427.57142857142856</ele><time>2026-04-23T12:52:57.156Z</time></trkpt><trkpt lat="44.3407514" lon="8.3461769"><ele>427.8571428571429</ele><time>2026-04-23T12:52:59.155Z</time></trkpt><trkpt lat="44.3408236" lon="8.3461844"><ele>428.1428571428571</ele><time>2026-04-23T12:53:01.157Z</time></trkpt><trkpt lat="44.3408869" lon="8.3461913"><ele>428.42857142857144</ele><time>2026-04-23T12:53:03.157Z</time></trkpt><trkpt lat="44.3409497" lon="8.3462004"><ele>428.7142857142857</ele><time>2026-04-23T12:53:05.157Z</time></trkpt><trkpt lat="44.3410167" lon="8.3462079"><ele>429.0</ele><time>2026-04-23T12:53:07.155Z</time></trkpt><trkpt lat="44.341085" lon="8.3462151"><ele>429.0</ele><time>2026-04-23T12:53:09.157Z</time></trkpt><trkpt lat="44.3411505" lon="8.3462173"><ele>429.0</ele><time>2026-04-23T12:53:11.156Z</time></trkpt><trkpt lat="44.341215" lon="8.3462173"><ele>429.0</ele><time>2026-04-23T12:53:13.157Z</time></trkpt><trkpt lat="44.3413073" lon="8.3462106"><ele>429.0</ele><time>2026-04-23T12:53:16.155Z</time></trkpt><trkpt lat="44.3413704" lon="8.3462076"><ele>429.0</ele><time>2026-04-23T12:53:18.156Z</time></trkpt><trkpt lat="44.3414375" lon="8.3462228"><ele>429.0</ele><time>2026-04-23T12:53:20.156Z</time></trkpt><trkpt lat="44.3415019" lon="8.3462303"><ele>429.0</ele><time>2026-04-23T12:53:22.156Z</time></trkpt><trkpt lat="44.341573" lon="8.3462318"><ele>428.5</ele><time>2026-04-23T12:53:24.156Z</time></trkpt><trkpt lat="44.341644" lon="8.3462213"><ele>428.0</ele><time>2026-04-23T12:53:26.157Z</time></trkpt><trkpt lat="44.341717" lon="8.3462148"><ele>427.5</ele><time>2026-04-23T12:53:28.157Z</time></trkpt><trkpt lat="44.3417923" lon="8.3462125"><ele>427.0</ele><time>2026-04-23T12:53:30.156Z</time></trkpt><trkpt lat="44.341869" lon="8.3462244"><ele>426.5</ele><time>2026-04-23T12:53:32.157Z</time></trkpt><trkpt lat="44.3419481" lon="8.3462288"><ele>426.0</ele><time>2026-04-23T12:53:34.156Z</time></trkpt><trkpt lat="44.3420222" lon="8.3462419"><ele>426.0</ele><time>2026-04-23T12:53:36.156Z</time></trkpt><trkpt lat="44.3420962" lon="8.3462573"><ele>426.0</ele><time>2026-04-23T12:53:38.156Z</time></trkpt><trkpt lat="44.3421694" lon="8.3462672"><ele>426.0</ele><time>2026-04-23T12:53:40.157Z</time></trkpt><trkpt lat="44.342243" lon="8.3462729"><ele>426.0</ele><time>2026-04-23T12:53:42.155Z</time></trkpt><trkpt lat="44.3423203" lon="8.3462862"><ele>426.0</ele><time>2026-04-23T12:53:44.156Z</time></trkpt><trkpt lat="44.3423951" lon="8.3463057"><ele>426.0</ele><time>2026-04-23T12:53:46.157Z</time></trkpt><trkpt lat="44.3424671" lon="8.3463281"><ele>427.0</ele><time>2026-04-23T12:53:48.157Z</time></trkpt><trkpt lat="44.3425407" lon="8.3463581"><ele>428.0</ele><time>2026-04-23T12:53:50.157Z</time></trkpt><trkpt lat="44.3426148" lon="8.3463908"><ele>429.0</ele><time>2026-04-23T12:53:52.155Z</time></trkpt><trkpt lat="44.3426911" lon="8.3464146"><ele>430.0</ele><time>2026-04-23T12:53:54.157Z</time></trkpt><trkpt lat="44.3427626" lon="8.3464364"><ele>431.0</ele><time>2026-04-23T12:53:56.156Z</time></trkpt><trkpt lat="44.3428345" lon="8.3464588"><ele>432.0</ele><time>2026-04-23T12:53:58.155Z</time></trkpt><trkpt lat="44.3429028" lon="8.3464811"><ele>433.0</ele><time>2026-04-23T12:54:00.156Z</time></trkpt><trkpt lat="44.3429671" lon="8.3465059"><ele>434.0</ele><time>2026-04-23T12:54:02.155Z</time></trkpt><trkpt lat="44.343033" lon="8.3465327"><ele>435.0</ele><time>2026-04-23T12:54:04.156Z</time></trkpt><trkpt lat="44.3430966" lon="8.3465644"><ele>436.0</ele><time>2026-04-23T12:54:06.155Z</time></trkpt><trkpt lat="44.3431643" lon="8.3465939"><ele>437.0</ele><time>2026-04-23T12:54:08.154Z</time></trkpt><trkpt lat="44.3432324" lon="8.3466164"><ele>438.0</ele><time>2026-04-23T12:54:10.157Z</time></trkpt><trkpt lat="44.3432988" lon="8.34664"><ele>439.0</ele><time>2026-04-23T12:54:12.156Z</time></trkpt><trkpt lat="44.3433645" lon="8.3466627"><ele>439.0</ele><time>2026-04-23T12:54:14.156Z</time></trkpt><trkpt lat="44.3434306" lon="8.3466924"><ele>439.0</ele><time>2026-04-23T12:54:16.156Z</time></trkpt><trkpt lat="44.3435029" lon="8.3467083"><ele>439.0</ele><time>2026-04-23T12:54:18.156Z</time></trkpt><trkpt lat="44.3435713" lon="8.3467276"><ele>439.0</ele><time>2026-04-23T12:54:20.157Z</time></trkpt><trkpt lat="44.3436364" lon="8.3467417"><ele>439.0</ele><time>2026-04-23T12:54:22.156Z</time></trkpt><trkpt lat="44.3437038" lon="8.3467499"><ele>439.0</ele><time>2026-04-23T12:54:24.155Z</time></trkpt><trkpt lat="44.3437705" lon="8.3467477"><ele>439.0</ele><time>2026-04-23T12:54:26.155Z</time></trkpt><trkpt lat="44.343862" lon="8.3467739"><ele>438.85714285714283</ele><time>2026-04-23T12:54:29.155Z</time></trkpt><trkpt lat="44.3439305" lon="8.3467853"><ele>438.71428571428567</ele><time>2026-04-23T12:54:31.156Z</time></trkpt><trkpt lat="44.343998" lon="8.3467953"><ele>438.57142857142856</ele><time>2026-04-23T12:54:33.156Z</time></trkpt><trkpt lat="44.3440716" lon="8.3468003"><ele>438.42857142857144</ele><time>2026-04-23T12:54:35.157Z</time></trkpt><trkpt lat="44.344141" lon="8.3467975"><ele>438.2857142857143</ele><time>2026-04-23T12:54:37.155Z</time></trkpt><trkpt lat="44.3442079" lon="8.3468005"><ele>438.14285714285717</ele><time>2026-04-23T12:54:39.156Z</time></trkpt><trkpt lat="44.3443005" lon="8.3468172"><ele>438.0</ele><time>2026-04-23T12:54:42.155Z</time></trkpt><trkpt lat="44.3443662" lon="8.3468207"><ele>438.0</ele><time>2026-04-23T12:54:44.155Z</time></trkpt><trkpt lat="44.3444466" lon="8.34683"><ele>438.0</ele><time>2026-04-23T12:54:47.156Z</time></trkpt><trkpt lat="44.3445317" lon="8.3468417"><ele>438.0</ele><time>2026-04-23T12:54:50.156Z</time></trkpt><trkpt lat="44.3446243" lon="8.3468492"><ele>438.0</ele><time>2026-04-23T12:54:53.155Z</time></trkpt><trkpt lat="44.3447156" lon="8.3468504"><ele>438.0</ele><time>2026-04-23T12:54:56.156Z</time></trkpt><trkpt lat="44.3448073" lon="8.3468408"><ele>438.0</ele><time>2026-04-23T12:54:59.157Z</time></trkpt><trkpt lat="44.3448989" lon="8.3468341"><ele>438.8571428571429</ele><time>2026-04-23T12:55:02.156Z</time></trkpt><trkpt lat="44.3449649" lon="8.3468318"><ele>439.71428571428567</ele><time>2026-04-23T12:55:04.154Z</time></trkpt><trkpt lat="44.3450573" lon="8.3468296"><ele>440.57142857142856</ele><time>2026-04-23T12:55:07.155Z</time></trkpt><trkpt lat="44.3451193" lon="8.346807"><ele>441.42857142857144</ele><time>2026-04-23T12:55:09.155Z</time></trkpt><trkpt lat="44.3451851" lon="8.3467768"><ele>442.28571428571433</ele><time>2026-04-23T12:55:11.155Z</time></trkpt><trkpt lat="44.3452529" lon="8.346747"><ele>443.1428571428571</ele><time>2026-04-23T12:55:13.155Z</time></trkpt><trkpt lat="44.3453184" lon="8.3467133"><ele>444.0</ele><time>2026-04-23T12:55:15.155Z</time></trkpt><trkpt lat="44.3453825" lon="8.3466764"><ele>444.0</ele><time>2026-04-23T12:55:17.155Z</time></trkpt><trkpt lat="44.3454501" lon="8.346638"><ele>444.0</ele><time>2026-04-23T12:55:19.156Z</time></trkpt><trkpt lat="44.3455211" lon="8.3465983"><ele>444.0</ele><time>2026-04-23T12:55:21.154Z</time></trkpt><trkpt lat="44.3455899" lon="8.3465651"><ele>444.0</ele><time>2026-04-23T12:55:23.154Z</time></trkpt><trkpt lat="44.3456713" lon="8.3465211"><ele>444.0</ele><time>2026-04-23T12:55:26.156Z</time></trkpt><trkpt lat="44.3457542" lon="8.3464814"><ele>444.0</ele><time>2026-04-23T12:55:29.156Z</time></trkpt><trkpt lat="44.3458333" lon="8.3464496"><ele>444.6666666666667</ele><time>2026-04-23T12:55:32.156Z</time></trkpt><trkpt lat="44.3459168" lon="8.3464429"><ele>445.33333333333337</ele><time>2026-04-23T12:55:35.154Z</time></trkpt><trkpt lat="44.3460043" lon="8.3464508"><ele>446.0</ele><time>2026-04-23T12:55:38.157Z</time></trkpt><trkpt lat="44.3460845" lon="8.3464703"><ele>446.6666666666667</ele><time>2026-04-23T12:55:41.155Z</time></trkpt><trkpt lat="44.3461473" lon="8.346492"><ele>447.33333333333337</ele><time>2026-04-23T12:55:43.155Z</time></trkpt><trkpt lat="44.3462384" lon="8.3465042"><ele>448.0</ele><time>2026-04-23T12:55:46.156Z</time></trkpt><trkpt lat="44.3463045" lon="8.34648"><ele>448.00000000000006</ele><time>2026-04-23T12:55:49.156Z</time></trkpt><trkpt lat="44.346367" lon="8.3464189"><ele>448.0</ele><time>2026-04-23T12:55:52.157Z</time></trkpt><trkpt lat="44.3464259" lon="8.3463251"><ele>448.0</ele><time>2026-04-23T12:55:55.157Z</time></trkpt><trkpt lat="44.3464691" lon="8.3462118"><ele>448.0</ele><time>2026-04-23T12:55:58.156Z</time></trkpt><trkpt lat="44.3464931" lon="8.346125"><ele>448.00000000000006</ele><time>2026-04-23T12:56:00.155Z</time></trkpt><trkpt lat="44.3465266" lon="8.3460252"><ele>448.0</ele><time>2026-04-23T12:56:03.156Z</time></trkpt><trkpt lat="44.3465777" lon="8.3459664"><ele>449.1428571428571</ele><time>2026-04-23T12:56:06.156Z</time></trkpt><trkpt lat="44.3466442" lon="8.3459231"><ele>450.2857142857143</ele><time>2026-04-23T12:56:09.155Z</time></trkpt><trkpt lat="44.3467007" lon="8.3458809"><ele>451.42857142857144</ele><time>2026-04-23T12:56:11.156Z</time></trkpt><trkpt lat="44.346772" lon="8.3458495"><ele>452.57142857142856</ele><time>2026-04-23T12:56:14.156Z</time></trkpt><trkpt lat="44.3468409" lon="8.3458243"><ele>453.71428571428567</ele><time>2026-04-23T12:56:18.155Z</time></trkpt><trkpt lat="44.3469043" lon="8.3457858"><ele>454.85714285714283</ele><time>2026-04-23T12:56:21.155Z</time></trkpt><trkpt lat="44.3469749" lon="8.3458002"><ele>456.0</ele><time>2026-04-23T12:56:24.156Z</time></trkpt><trkpt lat="44.3470611" lon="8.3457915"><ele>456.0</ele><time>2026-04-23T12:56:28.154Z</time></trkpt><trkpt lat="44.3471235" lon="8.345853"><ele>456.0</ele><time>2026-04-23T12:56:31.154Z</time></trkpt><trkpt lat="44.3471908" lon="8.3459318"><ele>456.0</ele><time>2026-04-23T12:56:34.157Z</time></trkpt><trkpt lat="44.3472577" lon="8.3459664"><ele>456.0</ele><time>2026-04-23T12:56:37.155Z</time></trkpt><trkpt lat="44.3473225" lon="8.345991"><ele>456.0</ele><time>2026-04-23T12:56:40.155Z</time></trkpt><trkpt lat="44.3473931" lon="8.3459744"><ele>456.0</ele><time>2026-04-23T12:56:44.157Z</time></trkpt><trkpt lat="44.347452" lon="8.3458938"><ele>457.0</ele><time>2026-04-23T12:56:47.155Z</time></trkpt><trkpt lat="44.3474839" lon="8.3457795"><ele>458.0</ele><time>2026-04-23T12:56:50.155Z</time></trkpt><trkpt lat="44.3474903" lon="8.3456888"><ele>459.0</ele><time>2026-04-23T12:56:52.155Z</time></trkpt><trkpt lat="44.3475019" lon="8.3455745"><ele>460.0</ele><time>2026-04-23T12:56:55.156Z</time></trkpt><trkpt lat="44.3475052" lon="8.3454535"><ele>461.0</ele><time>2026-04-23T12:56:58.156Z</time></trkpt><trkpt lat="44.3475086" lon="8.3453353"><ele>462.0</ele><time>2026-04-23T12:57:01.155Z</time></trkpt><trkpt lat="44.3475638" lon="8.3452583"><ele>462.8333333333333</ele><time>2026-04-23T12:57:03.155Z</time></trkpt><trkpt lat="44.3476266" lon="8.3451904"><ele>463.66666666666663</ele><time>2026-04-23T12:57:05.154Z</time></trkpt><trkpt lat="44.3476911" lon="8.3451347"><ele>464.5</ele><time>2026-04-23T12:57:07.155Z</time></trkpt><trkpt lat="44.3477528" lon="8.3450667"><ele>465.3333333333333</ele><time>2026-04-23T12:57:09.155Z</time></trkpt><trkpt lat="44.3478154" lon="8.3450062"><ele>466.16666666666663</ele><time>2026-04-23T12:57:11.155Z</time></trkpt><trkpt lat="44.3478818" lon="8.3449643"><ele>467.0</ele><time>2026-04-23T12:57:13.156Z</time></trkpt><trkpt lat="44.3479384" lon="8.3449103"><ele>466.99999999999994</ele><time>2026-04-23T12:57:15.155Z</time></trkpt><trkpt lat="44.3480073" lon="8.3448768"><ele>467.0</ele><time>2026-04-23T12:57:17.156Z</time></trkpt><trkpt lat="44.3480847" lon="8.3448321"><ele>467.0</ele><time>2026-04-23T12:57:20.154Z</time></trkpt><trkpt lat="44.3481588" lon="8.3448131"><ele>467.0</ele><time>2026-04-23T12:57:22.156Z</time></trkpt><trkpt lat="44.3482351" lon="8.3448002"><ele>466.99999999999994</ele><time>2026-04-23T12:57:24.156Z</time></trkpt><trkpt lat="44.3483175" lon="8.3448022"><ele>467.0</ele><time>2026-04-23T12:57:26.155Z</time></trkpt><trkpt lat="44.3484056" lon="8.3448166"><ele>466.8333333333333</ele><time>2026-04-23T12:57:28.156Z</time></trkpt><trkpt lat="44.3484877" lon="8.3448192"><ele>466.66666666666663</ele><time>2026-04-23T12:57:30.155Z</time></trkpt><trkpt lat="44.3485586" lon="8.3447814"><ele>466.5</ele><time>2026-04-23T12:57:33.154Z</time></trkpt><trkpt lat="44.3486154" lon="8.3447003"><ele>466.33333333333337</ele><time>2026-04-23T12:57:35.154Z</time></trkpt><trkpt lat="44.3486483" lon="8.3445945"><ele>466.1666666666667</ele><time>2026-04-23T12:57:37.155Z</time></trkpt><trkpt lat="44.3486893" lon="8.344464"><ele>466.0</ele><time>2026-04-23T12:57:39.154Z</time></trkpt><trkpt lat="44.3487259" lon="8.3442935"><ele>466.4</ele><time>2026-04-23T12:57:41.156Z</time></trkpt><trkpt lat="44.3488022" lon="8.3441272"><ele>466.8</ele><time>2026-04-23T12:57:43.155Z</time></trkpt><trkpt lat="44.3488518" lon="8.3440595"><ele>467.19999999999993</ele><time>2026-04-23T12:57:44.156Z</time></trkpt><trkpt lat="44.3488949" lon="8.3439923"><ele>467.59999999999997</ele><time>2026-04-23T12:57:45.155Z</time></trkpt><trkpt lat="44.3489884" lon="8.3438744"><ele>468.0</ele><time>2026-04-23T12:57:46.155Z</time></trkpt><trkpt lat="44.3490607" lon="8.3438101"><ele>468.4</ele><time>2026-04-23T12:57:47.154Z</time></trkpt><trkpt lat="44.3491288" lon="8.3437403"><ele>468.79999999999995</ele><time>2026-04-23T12:57:48.156Z</time></trkpt><trkpt lat="44.3491957" lon="8.3436705"><ele>469.2</ele><time>2026-04-23T12:57:49.154Z</time></trkpt><trkpt lat="44.3492831" lon="8.3436007"><ele>469.6</ele><time>2026-04-23T12:57:50.154Z</time></trkpt><trkpt lat="44.3493575" lon="8.343548"><ele>470.0</ele><time>2026-04-23T12:57:51.154Z</time></trkpt><trkpt lat="44.3494449" lon="8.3434873"><ele>469.99999999999994</ele><time>2026-04-23T12:57:52.156Z</time></trkpt><trkpt lat="44.3495273" lon="8.3434334"><ele>470.0</ele><time>2026-04-23T12:57:53.156Z</time></trkpt><trkpt lat="44.3496155" lon="8.3433938"><ele>470.0</ele><time>2026-04-23T12:57:54.155Z</time></trkpt><trkpt lat="44.3496985" lon="8.3433968"><ele>470.0</ele><time>2026-04-23T12:57:55.156Z</time></trkpt><trkpt lat="44.3497845" lon="8.3433997"><ele>469.99999999999994</ele><time>2026-04-23T12:57:56.156Z</time></trkpt><trkpt lat="44.3498575" lon="8.3433806"><ele>470.0</ele><time>2026-04-23T12:57:57.155Z</time></trkpt><trkpt lat="44.3499356" lon="8.3434096"><ele>469.3333333333333</ele><time>2026-04-23T12:57:58.155Z</time></trkpt><trkpt lat="44.35001" lon="8.3434692"><ele>468.66666666666663</ele><time>2026-04-23T12:57:59.155Z</time></trkpt><trkpt lat="44.3500797" lon="8.3435278"><ele>468.0</ele><time>2026-04-23T12:58:00.155Z</time></trkpt><trkpt lat="44.3501476" lon="8.3435903"><ele>467.33333333333337</ele><time>2026-04-23T12:58:01.156Z</time></trkpt><trkpt lat="44.3502176" lon="8.3436543"><ele>466.6666666666667</ele><time>2026-04-23T12:58:02.156Z</time></trkpt><trkpt lat="44.3502821" lon="8.3436922"><ele>466.0</ele><time>2026-04-23T12:58:03.156Z</time></trkpt><trkpt lat="44.3503572" lon="8.3436983"><ele>466.0</ele><time>2026-04-23T12:58:04.155Z</time></trkpt><trkpt lat="44.3504206" lon="8.343693"><ele>466.0</ele><time>2026-04-23T12:58:05.156Z</time></trkpt><trkpt lat="44.3504869" lon="8.3436781"><ele>466.0</ele><time>2026-04-23T12:58:06.155Z</time></trkpt><trkpt lat="44.3505615" lon="8.3436629"><ele>466.0</ele><time>2026-04-23T12:58:07.155Z</time></trkpt><trkpt lat="44.3506329" lon="8.3436449"><ele>466.0</ele><time>2026-04-23T12:58:08.156Z</time></trkpt><trkpt lat="44.3507068" lon="8.343633"><ele>466.0</ele><time>2026-04-23T12:58:09.155Z</time></trkpt><trkpt lat="44.3507863" lon="8.3436276"><ele>466.0</ele><time>2026-04-23T12:58:10.156Z</time></trkpt><trkpt lat="44.3508597" lon="8.3436164"><ele>465.6666666666667</ele><time>2026-04-23T12:58:11.156Z</time></trkpt><trkpt lat="44.3509368" lon="8.3436068"><ele>465.33333333333337</ele><time>2026-04-23T12:58:12.156Z</time></trkpt><trkpt lat="44.3510165" lon="8.3435905"><ele>465.0</ele><time>2026-04-23T12:58:13.155Z</time></trkpt><trkpt lat="44.3510956" lon="8.343564"><ele>464.66666666666663</ele><time>2026-04-23T12:58:14.156Z</time></trkpt><trkpt lat="44.3511744" lon="8.3435467"><ele>464.3333333333333</ele><time>2026-04-23T12:58:15.156Z</time></trkpt><trkpt lat="44.3512685" lon="8.3435469"><ele>464.0</ele><time>2026-04-23T12:58:16.156Z</time></trkpt><trkpt lat="44.3513579" lon="8.3435587"><ele>463.2</ele><time>2026-04-23T12:58:17.156Z</time></trkpt><trkpt lat="44.3514724" lon="8.3435625"><ele>462.4</ele><time>2026-04-23T12:58:18.154Z</time></trkpt><trkpt lat="44.3515649" lon="8.3435787"><ele>461.6</ele><time>2026-04-23T12:58:19.155Z</time></trkpt><trkpt lat="44.3516497" lon="8.3436091"><ele>460.8</ele><time>2026-04-23T12:58:20.156Z</time></trkpt><trkpt lat="44.3517386" lon="8.3436349"><ele>460.0</ele><time>2026-04-23T12:58:21.156Z</time></trkpt><trkpt lat="44.3518104" lon="8.343674"><ele>460.00000000000006</ele><time>2026-04-23T12:58:22.157Z</time></trkpt><trkpt lat="44.3518981" lon="8.3436485"><ele>460.0</ele><time>2026-04-23T12:58:23.155Z</time></trkpt><trkpt lat="44.3519708" lon="8.343647"><ele>460.0</ele><time>2026-04-23T12:58:24.155Z</time></trkpt><trkpt lat="44.3520526" lon="8.3436166"><ele>460.0</ele><time>2026-04-23T12:58:25.156Z</time></trkpt><trkpt lat="44.3521377" lon="8.3435818"><ele>460.00000000000006</ele><time>2026-04-23T12:58:26.156Z</time></trkpt><trkpt lat="44.3522149" lon="8.3435622"><ele>460.0</ele><time>2026-04-23T12:58:27.156Z</time></trkpt><trkpt lat="44.3522974" lon="8.3435422"><ele>457.83333333333337</ele><time>2026-04-23T12:58:28.155Z</time></trkpt><trkpt lat="44.352377" lon="8.3435273"><ele>455.6666666666667</ele><time>2026-04-23T12:58:29.155Z</time></trkpt><trkpt lat="44.3524519" lon="8.3435324"><ele>453.5</ele><time>2026-04-23T12:58:30.156Z</time></trkpt><trkpt lat="44.3525283" lon="8.3435776"><ele>451.33333333333337</ele><time>2026-04-23T12:58:31.156Z</time></trkpt><trkpt lat="44.3526068" lon="8.3436256"><ele>449.1666666666667</ele><time>2026-04-23T12:58:32.155Z</time></trkpt><trkpt lat="44.352676" lon="8.3436619"><ele>447.0</ele><time>2026-04-23T12:58:33.154Z</time></trkpt><trkpt lat="44.3527531" lon="8.3437326"><ele>447.0</ele><time>2026-04-23T12:58:34.156Z</time></trkpt><trkpt lat="44.3527386" lon="8.3438578"><ele>447.0</ele><time>2026-04-23T12:58:35.156Z</time></trkpt><trkpt lat="44.3527851" lon="8.3439644"><ele>447.0</ele><time>2026-04-23T12:58:36.155Z</time></trkpt><trkpt lat="44.3528205" lon="8.3440671"><ele>447.0</ele><time>2026-04-23T12:58:37.155Z</time></trkpt><trkpt lat="44.3528728" lon="8.3441637"><ele>447.0</ele><time>2026-04-23T12:58:38.156Z</time></trkpt><trkpt lat="44.3529212" lon="8.344264"><ele>447.0</ele><time>2026-04-23T12:58:39.154Z</time></trkpt><trkpt lat="44.3529966" lon="8.3442776"><ele>447.0</ele><time>2026-04-23T12:58:40.157Z</time></trkpt><trkpt lat="44.3530532" lon="8.3443455"><ele>447.00000000000006</ele><time>2026-04-23T12:58:41.154Z</time></trkpt><trkpt lat="44.3530974" lon="8.3444225"><ele>447.00000000000006</ele><time>2026-04-23T12:58:42.156Z</time></trkpt><trkpt lat="44.3531608" lon="8.3444755"><ele>447.0</ele><time>2026-04-23T12:58:43.153Z</time></trkpt><trkpt lat="44.3532712" lon="8.3445367"><ele>447.0</ele><time>2026-04-23T12:58:45.155Z</time></trkpt><trkpt lat="44.3533745" lon="8.3446159"><ele>447.0</ele><time>2026-04-23T12:58:47.154Z</time></trkpt><trkpt lat="44.3534742" lon="8.3446957"><ele>447.00000000000006</ele><time>2026-04-23T12:58:49.155Z</time></trkpt><trkpt lat="44.353554" lon="8.3447855"><ele>447.00000000000006</ele><time>2026-04-23T12:58:51.153Z</time></trkpt><trkpt lat="44.3536432" lon="8.3448917"><ele>447.0</ele><time>2026-04-23T12:58:53.155Z</time></trkpt><trkpt lat="44.3536957" lon="8.3449586"><ele>447.0</ele><time>2026-04-23T12:58:55.156Z</time></trkpt><trkpt lat="44.3537494" lon="8.3450365"><ele>447.2857142857142</ele><time>2026-04-23T12:58:57.155Z</time></trkpt><trkpt lat="44.3538" lon="8.3450912"><ele>447.57142857142856</ele><time>2026-04-23T12:58:59.155Z</time></trkpt><trkpt lat="44.353871" lon="8.3451594"><ele>447.85714285714283</ele><time>2026-04-23T12:59:02.155Z</time></trkpt><trkpt lat="44.3539434" lon="8.3452263"><ele>448.1428571428571</ele><time>2026-04-23T12:59:05.155Z</time></trkpt><trkpt lat="44.353999" lon="8.345277"><ele>448.4285714285714</ele><time>2026-04-23T12:59:07.156Z</time></trkpt><trkpt lat="44.3540547" lon="8.3453302"><ele>448.71428571428567</ele><time>2026-04-23T12:59:09.154Z</time></trkpt><trkpt lat="44.3541204" lon="8.345379"><ele>449.0</ele><time>2026-04-23T12:59:12.154Z</time></trkpt><trkpt lat="44.3542023" lon="8.3454425"><ele>448.66666666666663</ele><time>2026-04-23T12:59:15.156Z</time></trkpt><trkpt lat="44.3542938" lon="8.3454958"><ele>448.3333333333333</ele><time>2026-04-23T12:59:18.155Z</time></trkpt><trkpt lat="44.354362" lon="8.3455388"><ele>448.0</ele><time>2026-04-23T12:59:20.155Z</time></trkpt><trkpt lat="44.3544264" lon="8.3455835"><ele>447.66666666666663</ele><time>2026-04-23T12:59:22.155Z</time></trkpt><trkpt lat="44.3544777" lon="8.3456429"><ele>447.3333333333333</ele><time>2026-04-23T12:59:24.154Z</time></trkpt><trkpt lat="44.3545384" lon="8.3457094"><ele>447.0</ele><time>2026-04-23T12:59:26.156Z</time></trkpt><trkpt lat="44.3546111" lon="8.3457589"><ele>447.0</ele><time>2026-04-23T12:59:28.154Z</time></trkpt><trkpt lat="44.3546695" lon="8.3457932"><ele>447.0</ele><time>2026-04-23T12:59:30.155Z</time></trkpt><trkpt lat="44.3547513" lon="8.3458555"><ele>447.0</ele><time>2026-04-23T12:59:33.154Z</time></trkpt><trkpt lat="44.3548259" lon="8.3459023"><ele>447.0</ele><time>2026-04-23T12:59:35.155Z</time></trkpt><trkpt lat="44.3548873" lon="8.3459277"><ele>447.0</ele><time>2026-04-23T12:59:37.156Z</time></trkpt><trkpt lat="44.35498" lon="8.3459388"><ele>447.0</ele><time>2026-04-23T12:59:40.156Z</time></trkpt><trkpt lat="44.3550646" lon="8.3459363"><ele>449.0</ele><time>2026-04-23T12:59:43.155Z</time></trkpt><trkpt lat="44.3551504" lon="8.3459391"><ele>451.0</ele><time>2026-04-23T12:59:46.156Z</time></trkpt><trkpt lat="44.3552371" lon="8.3459664"><ele>453.0</ele><time>2026-04-23T12:59:49.156Z</time></trkpt><trkpt lat="44.355318" lon="8.3459921"><ele>455.0</ele><time>2026-04-23T12:59:52.155Z</time></trkpt><trkpt lat="44.3553711" lon="8.3460394"><ele>457.0</ele><time>2026-04-23T12:59:54.154Z</time></trkpt><trkpt lat="44.3554264" lon="8.3460979"><ele>459.0</ele><time>2026-04-23T12:59:57.154Z</time></trkpt><trkpt lat="44.355459" lon="8.3461965"><ele>459.0</ele><time>2026-04-23T13:00:01.156Z</time></trkpt><trkpt lat="44.3554573" lon="8.3462946"><ele>459.0</ele><time>2026-04-23T13:00:05.155Z</time></trkpt><trkpt lat="44.3554625" lon="8.3463881"><ele>459.0</ele><time>2026-04-23T13:00:08.156Z</time></trkpt><trkpt lat="44.3554678" lon="8.3464805"><ele>459.0</ele><time>2026-04-23T13:00:11.154Z</time></trkpt><trkpt lat="44.3554868" lon="8.3466006"><ele>459.0</ele><time>2026-04-23T13:00:14.156Z</time></trkpt><trkpt lat="44.3555179" lon="8.3466866"><ele>459.0</ele><time>2026-04-23T13:00:16.155Z</time></trkpt><trkpt lat="44.3555562" lon="8.3468007"><ele>460.5</ele><time>2026-04-23T13:00:19.154Z</time></trkpt><trkpt lat="44.3556029" lon="8.3468934"><ele>462.0</ele><time>2026-04-23T13:00:21.155Z</time></trkpt><trkpt lat="44.3556564" lon="8.3469799"><ele>463.5</ele><time>2026-04-23T13:00:23.155Z</time></trkpt><trkpt lat="44.3557318" lon="8.3470702"><ele>465.0</ele><time>2026-04-23T13:00:25.156Z</time></trkpt><trkpt lat="44.3557935" lon="8.3471514"><ele>466.5</ele><time>2026-04-23T13:00:27.154Z</time></trkpt><trkpt lat="44.3558239" lon="8.3472314"><ele>468.0</ele><time>2026-04-23T13:00:29.156Z</time></trkpt><trkpt lat="44.3558675" lon="8.347342"><ele>468.0</ele><time>2026-04-23T13:00:32.154Z</time></trkpt><trkpt lat="44.3559394" lon="8.3474352"><ele>468.0</ele><time>2026-04-23T13:00:35.154Z</time></trkpt><trkpt lat="44.3559701" lon="8.3475307"><ele>468.0</ele><time>2026-04-23T13:00:37.154Z</time></trkpt><trkpt lat="44.3560002" lon="8.3476272"><ele>468.0</ele><time>2026-04-23T13:00:39.155Z</time></trkpt><trkpt lat="44.3560218" lon="8.3477297"><ele>468.0</ele><time>2026-04-23T13:00:41.154Z</time></trkpt><trkpt lat="44.3560431" lon="8.3478192"><ele>468.0</ele><time>2026-04-23T13:00:43.155Z</time></trkpt><trkpt lat="44.3560716" lon="8.3478997"><ele>468.0</ele><time>2026-04-23T13:00:45.155Z</time></trkpt><trkpt lat="44.3561162" lon="8.3479846"><ele>468.0</ele><time>2026-04-23T13:00:47.154Z</time></trkpt><trkpt lat="44.356175" lon="8.3480647"><ele>468.0</ele><time>2026-04-23T13:00:49.156Z</time></trkpt><trkpt lat="44.356237" lon="8.3481334"><ele>468.0</ele><time>2026-04-23T13:00:51.154Z</time></trkpt><trkpt lat="44.3562988" lon="8.3482035"><ele>468.0</ele><time>2026-04-23T13:00:53.155Z</time></trkpt><trkpt lat="44.3563607" lon="8.3482677"><ele>468.0</ele><time>2026-04-23T13:00:55.155Z</time></trkpt><trkpt lat="44.3564264" lon="8.3483135"><ele>468.6666666666667</ele><time>2026-04-23T13:00:57.155Z</time></trkpt><trkpt lat="44.3564827" lon="8.3483643"><ele>469.33333333333337</ele><time>2026-04-23T13:00:59.156Z</time></trkpt><trkpt lat="44.3565398" lon="8.3484074"><ele>470.0</ele><time>2026-04-23T13:01:01.157Z</time></trkpt><trkpt lat="44.356608" lon="8.3484473"><ele>470.6666666666667</ele><time>2026-04-23T13:01:03.155Z</time></trkpt><trkpt lat="44.3567082" lon="8.3484817"><ele>471.33333333333337</ele><time>2026-04-23T13:01:06.154Z</time></trkpt><trkpt lat="44.3568216" lon="8.3484752"><ele>472.0</ele><time>2026-04-23T13:01:08.154Z</time></trkpt><trkpt lat="44.3569216" lon="8.3485303"><ele>472.00000000000006</ele><time>2026-04-23T13:01:10.156Z</time></trkpt><trkpt lat="44.3570605" lon="8.3485284"><ele>472.0</ele><time>2026-04-23T13:01:12.153Z</time></trkpt><trkpt lat="44.3571328" lon="8.3485704"><ele>472.0</ele><time>2026-04-23T13:01:14.154Z</time></trkpt><trkpt lat="44.357195" lon="8.3485999"><ele>472.0</ele><time>2026-04-23T13:01:15.155Z</time></trkpt><trkpt lat="44.3572633" lon="8.3486448"><ele>472.00000000000006</ele><time>2026-04-23T13:01:16.156Z</time></trkpt><trkpt lat="44.3573284" lon="8.3486829"><ele>472.0</ele><time>2026-04-23T13:01:17.155Z</time></trkpt><trkpt lat="44.3574046" lon="8.3487282"><ele>471.50000000000006</ele><time>2026-04-23T13:01:18.156Z</time></trkpt><trkpt lat="44.3574681" lon="8.3487888"><ele>471.0</ele><time>2026-04-23T13:01:19.154Z</time></trkpt><trkpt lat="44.3575386" lon="8.348854"><ele>470.5</ele><time>2026-04-23T13:01:20.156Z</time></trkpt><trkpt lat="44.3576118" lon="8.348918"><ele>470.0</ele><time>2026-04-23T13:01:21.154Z</time></trkpt><trkpt lat="44.3576786" lon="8.3490024"><ele>469.50000000000006</ele><time>2026-04-23T13:01:22.154Z</time></trkpt><trkpt lat="44.3577387" lon="8.3490934"><ele>469.0</ele><time>2026-04-23T13:01:23.156Z</time></trkpt><trkpt lat="44.3577943" lon="8.3491842"><ele>467.50000000000006</ele><time>2026-04-23T13:01:24.153Z</time></trkpt><trkpt lat="44.3578368" lon="8.3492696"><ele>466.0</ele><time>2026-04-23T13:01:25.155Z</time></trkpt><trkpt lat="44.3578597" lon="8.3493546"><ele>464.5</ele><time>2026-04-23T13:01:26.155Z</time></trkpt><trkpt lat="44.3579179" lon="8.3494867"><ele>463.0</ele><time>2026-04-23T13:01:28.154Z</time></trkpt><trkpt lat="44.3579651" lon="8.3495797"><ele>461.50000000000006</ele><time>2026-04-23T13:01:30.155Z</time></trkpt><trkpt lat="44.357995" lon="8.3496642"><ele>460.0</ele><time>2026-04-23T13:01:32.155Z</time></trkpt><trkpt lat="44.3580104" lon="8.3497504"><ele>460.00000000000006</ele><time>2026-04-23T13:01:36.154Z</time></trkpt><trkpt lat="44.3580749" lon="8.349727"><ele>460.0</ele><time>2026-04-23T13:01:48.156Z</time></trkpt><trkpt lat="44.3580143" lon="8.3496384"><ele>460.0</ele><time>2026-04-23T13:01:51.156Z</time></trkpt><trkpt lat="44.3579543" lon="8.349547"><ele>460.0</ele><time>2026-04-23T13:01:54.155Z</time></trkpt><trkpt lat="44.3579136" lon="8.349442"><ele>460.00000000000006</ele><time>2026-04-23T13:01:57.155Z</time></trkpt><trkpt lat="44.3578701" lon="8.3493345"><ele>460.0</ele><time>2026-04-23T13:02:00.156Z</time></trkpt><trkpt lat="44.3578316" lon="8.3492645"><ele>460.00000000000006</ele><time>2026-04-23T13:02:02.155Z</time></trkpt><trkpt lat="44.3577877" lon="8.3491797"><ele>460.0</ele><time>2026-04-23T13:02:05.153Z</time></trkpt><trkpt lat="44.3578203" lon="8.3492689"><ele>460.0</ele><time>2026-04-23T13:04:39.155Z</time></trkpt><trkpt lat="44.3577507" lon="8.3491909"><ele>460.0</ele><time>2026-04-23T13:04:45.154Z</time></trkpt><trkpt lat="44.3577102" lon="8.3491014"><ele>460.00000000000006</ele><time>2026-04-23T13:04:47.155Z</time></trkpt><trkpt lat="44.3576585" lon="8.34902"><ele>460.0</ele><time>2026-04-23T13:04:49.155Z</time></trkpt><trkpt lat="44.3575985" lon="8.3489478"><ele>461.50000000000006</ele><time>2026-04-23T13:04:51.154Z</time></trkpt><trkpt lat="44.3575466" lon="8.3488703"><ele>463.0</ele><time>2026-04-23T13:04:53.152Z</time></trkpt><trkpt lat="44.3574741" lon="8.3488089"><ele>464.5</ele><time>2026-04-23T13:04:56.155Z</time></trkpt><trkpt lat="44.3573916" lon="8.3487548"><ele>466.0</ele><time>2026-04-23T13:04:59.154Z</time></trkpt><trkpt lat="44.3573362" lon="8.3487051"><ele>467.50000000000006</ele><time>2026-04-23T13:05:01.154Z</time></trkpt><trkpt lat="44.3572576" lon="8.3486453"><ele>469.0</ele><time>2026-04-23T13:05:04.153Z</time></trkpt><trkpt lat="44.3571794" lon="8.3485869"><ele>469.50000000000006</ele><time>2026-04-23T13:05:07.154Z</time></trkpt><trkpt lat="44.3570964" lon="8.3485351"><ele>470.0</ele><time>2026-04-23T13:05:10.155Z</time></trkpt><trkpt lat="44.3570296" lon="8.3485172"><ele>470.5</ele><time>2026-04-23T13:05:12.154Z</time></trkpt><trkpt lat="44.3569536" lon="8.3484893"><ele>471.0</ele><time>2026-04-23T13:05:14.153Z</time></trkpt><trkpt lat="44.3568768" lon="8.3484715"><ele>471.50000000000006</ele><time>2026-04-23T13:05:16.153Z</time></trkpt><trkpt lat="44.3567929" lon="8.3484705"><ele>472.0</ele><time>2026-04-23T13:05:18.154Z</time></trkpt><trkpt lat="44.3567147" lon="8.3484448"><ele>472.00000000000006</ele><time>2026-04-23T13:05:20.153Z</time></trkpt><trkpt lat="44.3566443" lon="8.3484081"><ele>472.0</ele><time>2026-04-23T13:05:22.154Z</time></trkpt><trkpt lat="44.3565758" lon="8.348373"><ele>472.0</ele><time>2026-04-23T13:05:24.155Z</time></trkpt><trkpt lat="44.3565006" lon="8.3483278"><ele>472.0</ele><time>2026-04-23T13:05:26.154Z</time></trkpt><trkpt lat="44.3564247" lon="8.3482468"><ele>472.00000000000006</ele><time>2026-04-23T13:05:28.153Z</time></trkpt><trkpt lat="44.3563328" lon="8.3481506"><ele>472.0</ele><time>2026-04-23T13:05:30.154Z</time></trkpt><trkpt lat="44.3562446" lon="8.3480826"><ele>471.20000000000005</ele><time>2026-04-23T13:05:32.153Z</time></trkpt><trkpt lat="44.3561707" lon="8.347982"><ele>470.40000000000003</ele><time>2026-04-23T13:05:34.154Z</time></trkpt><trkpt lat="44.3560967" lon="8.3478771"><ele>469.59999999999997</ele><time>2026-04-23T13:05:36.156Z</time></trkpt><trkpt lat="44.3560582" lon="8.3477282"><ele>468.79999999999995</ele><time>2026-04-23T13:05:38.154Z</time></trkpt><trkpt lat="44.356041" lon="8.3476339"><ele>468.0</ele><time>2026-04-23T13:05:39.154Z</time></trkpt><trkpt lat="44.3560038" lon="8.3475475"><ele>468.0</ele><time>2026-04-23T13:05:40.155Z</time></trkpt><trkpt lat="44.3559683" lon="8.3474699"><ele>468.00000000000006</ele><time>2026-04-23T13:05:41.154Z</time></trkpt><trkpt lat="44.3559272" lon="8.3473904"><ele>468.0</ele><time>2026-04-23T13:05:42.154Z</time></trkpt><trkpt lat="44.3558814" lon="8.3473116"><ele>468.0</ele><time>2026-04-23T13:05:43.154Z</time></trkpt><trkpt lat="44.35585" lon="8.347213"><ele>468.00000000000006</ele><time>2026-04-23T13:05:44.153Z</time></trkpt><trkpt lat="44.3558124" lon="8.3471322"><ele>468.0</ele><time>2026-04-23T13:05:45.155Z</time></trkpt><trkpt lat="44.3557601" lon="8.3470736"><ele>468.0</ele><time>2026-04-23T13:05:46.155Z</time></trkpt><trkpt lat="44.3557055" lon="8.3469539"><ele>468.4</ele><time>2026-04-23T13:05:48.154Z</time></trkpt><trkpt lat="44.3556403" lon="8.3468231"><ele>468.79999999999995</ele><time>2026-04-23T13:05:50.154Z</time></trkpt><trkpt lat="44.355606" lon="8.3466979"><ele>469.2</ele><time>2026-04-23T13:05:52.154Z</time></trkpt><trkpt lat="44.3555864" lon="8.3465992"><ele>469.6</ele><time>2026-04-23T13:05:53.154Z</time></trkpt><trkpt lat="44.3555401" lon="8.3465116"><ele>470.0</ele><time>2026-04-23T13:05:55.155Z</time></trkpt><trkpt lat="44.3554975" lon="8.3463873"><ele>467.8</ele><time>2026-04-23T13:05:57.154Z</time></trkpt><trkpt lat="44.3554403" lon="8.3462177"><ele>465.6</ele><time>2026-04-23T13:05:59.153Z</time></trkpt><trkpt lat="44.3554212" lon="8.3461091"><ele>463.4</ele><time>2026-04-23T13:06:00.153Z</time></trkpt><trkpt lat="44.3553663" lon="8.3460224"><ele>461.2</ele><time>2026-04-23T13:06:01.154Z</time></trkpt><trkpt lat="44.3553105" lon="8.3459178"><ele>459.0</ele><time>2026-04-23T13:06:02.154Z</time></trkpt><trkpt lat="44.3552234" lon="8.3458591"><ele>459.0</ele><time>2026-04-23T13:06:03.152Z</time></trkpt><trkpt lat="44.3551327" lon="8.3458095"><ele>459.0</ele><time>2026-04-23T13:06:04.153Z</time></trkpt><trkpt lat="44.3550143" lon="8.3458076"><ele>459.0</ele><time>2026-04-23T13:06:05.155Z</time></trkpt><trkpt lat="44.354912" lon="8.3457996"><ele>459.0</ele><time>2026-04-23T13:06:06.153Z</time></trkpt><trkpt lat="44.3548018" lon="8.345743"><ele>459.0</ele><time>2026-04-23T13:06:07.154Z</time></trkpt><trkpt lat="44.3546886" lon="8.345685"><ele>457.5</ele><time>2026-04-23T13:06:08.155Z</time></trkpt><trkpt lat="44.3545818" lon="8.3456135"><ele>456.0</ele><time>2026-04-23T13:06:09.153Z</time></trkpt><trkpt lat="44.3544645" lon="8.3455556"><ele>454.5</ele><time>2026-04-23T13:06:10.155Z</time></trkpt><trkpt lat="44.3543584" lon="8.3455024"><ele>453.0</ele><time>2026-04-23T13:06:11.154Z</time></trkpt><trkpt lat="44.3542748" lon="8.3454388"><ele>453.0</ele><time>2026-04-23T13:06:12.154Z</time></trkpt><trkpt lat="44.3541731" lon="8.3453785"><ele>452.99999999999994</ele><time>2026-04-23T13:06:13.152Z</time></trkpt><trkpt lat="44.3540767" lon="8.3453192"><ele>452.99999999999994</ele><time>2026-04-23T13:06:14.155Z</time></trkpt><trkpt lat="44.3539892" lon="8.3452576"><ele>453.0</ele><time>2026-04-23T13:06:15.154Z</time></trkpt><trkpt lat="44.3539006" lon="8.3452016"><ele>453.0</ele><time>2026-04-23T13:06:16.154Z</time></trkpt><trkpt lat="44.3538108" lon="8.3451159"><ele>452.2</ele><time>2026-04-23T13:06:17.155Z</time></trkpt><trkpt lat="44.3537208" lon="8.3450173"><ele>451.4</ele><time>2026-04-23T13:06:18.152Z</time></trkpt><trkpt lat="44.3536473" lon="8.3449028"><ele>450.59999999999997</ele><time>2026-04-23T13:06:19.153Z</time></trkpt><trkpt lat="44.3535711" lon="8.3448005"><ele>449.79999999999995</ele><time>2026-04-23T13:06:20.154Z</time></trkpt><trkpt lat="44.3534805" lon="8.3447132"><ele>449.0</ele><time>2026-04-23T13:06:21.154Z</time></trkpt><trkpt lat="44.3533963" lon="8.3446426"><ele>448.6</ele><time>2026-04-23T13:06:22.153Z</time></trkpt><trkpt lat="44.3533121" lon="8.3445823"><ele>448.2</ele><time>2026-04-23T13:06:23.154Z</time></trkpt><trkpt lat="44.3532299" lon="8.3445271"><ele>447.80000000000007</ele><time>2026-04-23T13:06:24.155Z</time></trkpt><trkpt lat="44.3531487" lon="8.3444724"><ele>447.40000000000003</ele><time>2026-04-23T13:06:25.154Z</time></trkpt><trkpt lat="44.3530769" lon="8.3443891"><ele>447.0</ele><time>2026-04-23T13:06:26.154Z</time></trkpt><trkpt lat="44.3530084" lon="8.3443277"><ele>447.0</ele><time>2026-04-23T13:06:27.155Z</time></trkpt><trkpt lat="44.3529359" lon="8.344263"><ele>447.0</ele><time>2026-04-23T13:06:28.155Z</time></trkpt><trkpt lat="44.3528668" lon="8.3441768"><ele>447.0</ele><time>2026-04-23T13:06:29.155Z</time></trkpt><trkpt lat="44.3528386" lon="8.3440662"><ele>447.0</ele><time>2026-04-23T13:06:30.154Z</time></trkpt><trkpt lat="44.3528042" lon="8.3439673"><ele>447.0</ele><time>2026-04-23T13:06:31.152Z</time></trkpt><trkpt lat="44.3527825" lon="8.3438638"><ele>447.0</ele><time>2026-04-23T13:06:32.154Z</time></trkpt><trkpt lat="44.3527357" lon="8.343765"><ele>447.0</ele><time>2026-04-23T13:06:33.153Z</time></trkpt><trkpt lat="44.3526986" lon="8.3436934"><ele>447.0</ele><time>2026-04-23T13:06:34.153Z</time></trkpt><trkpt lat="44.3526019" lon="8.3435945"><ele>447.0</ele><time>2026-04-23T13:06:36.153Z</time></trkpt><trkpt lat="44.3525266" lon="8.3435291"><ele>447.0</ele><time>2026-04-23T13:06:38.155Z</time></trkpt><trkpt lat="44.3524431" lon="8.3434983"><ele>447.0</ele><time>2026-04-23T13:06:41.155Z</time></trkpt><trkpt lat="44.3523627" lon="8.3434538"><ele>447.0</ele><time>2026-04-23T13:06:43.153Z</time></trkpt><trkpt lat="44.352293" lon="8.3434664"><ele>447.0</ele><time>2026-04-23T13:06:45.153Z</time></trkpt><trkpt lat="44.3522098" lon="8.3435136"><ele>447.0</ele><time>2026-04-23T13:06:47.152Z</time></trkpt><trkpt lat="44.3521258" lon="8.3435159"><ele>447.0</ele><time>2026-04-23T13:06:49.154Z</time></trkpt><trkpt lat="44.3520358" lon="8.343545"><ele>447.0</ele><time>2026-04-23T13:06:51.152Z</time></trkpt><trkpt lat="44.3519697" lon="8.3435526"><ele>447.0</ele><time>2026-04-23T13:06:53.154Z</time></trkpt><trkpt lat="44.3519131" lon="8.343593"><ele>447.0</ele><time>2026-04-23T13:06:54.153Z</time></trkpt><trkpt lat="44.3518213" lon="8.3435968"><ele>449.6</ele><time>2026-04-23T13:06:56.152Z</time></trkpt><trkpt lat="44.3517292" lon="8.3436046"><ele>452.20000000000005</ele><time>2026-04-23T13:06:58.153Z</time></trkpt><trkpt lat="44.3516422" lon="8.3435813"><ele>454.8</ele><time>2026-04-23T13:07:00.153Z</time></trkpt><trkpt lat="44.351545" lon="8.3435505"><ele>457.4</ele><time>2026-04-23T13:07:02.153Z</time></trkpt><trkpt lat="44.3514559" lon="8.3435108"><ele>460.0</ele><time>2026-04-23T13:07:04.153Z</time></trkpt><trkpt lat="44.3513681" lon="8.3434926"><ele>460.6666666666667</ele><time>2026-04-23T13:07:06.155Z</time></trkpt><trkpt lat="44.3512946" lon="8.3434704"><ele>461.33333333333337</ele><time>2026-04-23T13:07:08.154Z</time></trkpt><trkpt lat="44.3512152" lon="8.3434748"><ele>462.0</ele><time>2026-04-23T13:07:10.154Z</time></trkpt><trkpt lat="44.351136" lon="8.3434976"><ele>462.66666666666663</ele><time>2026-04-23T13:07:12.155Z</time></trkpt><trkpt lat="44.3510627" lon="8.3435192"><ele>463.3333333333333</ele><time>2026-04-23T13:07:14.154Z</time></trkpt><trkpt lat="44.3509917" lon="8.3435415"><ele>464.0</ele><time>2026-04-23T13:07:16.154Z</time></trkpt><trkpt lat="44.3509125" lon="8.3435425"><ele>463.99999999999994</ele><time>2026-04-23T13:07:18.153Z</time></trkpt><trkpt lat="44.3508339" lon="8.3435487"><ele>464.0</ele><time>2026-04-23T13:07:20.154Z</time></trkpt><trkpt lat="44.3507561" lon="8.3435569"><ele>464.0</ele><time>2026-04-23T13:07:22.152Z</time></trkpt><trkpt lat="44.3506744" lon="8.3435635"><ele>464.0</ele><time>2026-04-23T13:07:24.153Z</time></trkpt><trkpt lat="44.3505917" lon="8.3435788"><ele>463.99999999999994</ele><time>2026-04-23T13:07:26.153Z</time></trkpt><trkpt lat="44.3505039" lon="8.3435924"><ele>464.0</ele><time>2026-04-23T13:07:28.153Z</time></trkpt><trkpt lat="44.3504321" lon="8.3435996"><ele>464.4</ele><time>2026-04-23T13:07:30.154Z</time></trkpt><trkpt lat="44.3503569" lon="8.3435933"><ele>464.79999999999995</ele><time>2026-04-23T13:07:32.152Z</time></trkpt><trkpt lat="44.3502775" lon="8.3435699"><ele>465.20000000000005</ele><time>2026-04-23T13:07:34.154Z</time></trkpt><trkpt lat="44.3501937" lon="8.3435037"><ele>465.6</ele><time>2026-04-23T13:07:36.155Z</time></trkpt><trkpt lat="44.3500967" lon="8.3434278"><ele>466.0</ele><time>2026-04-23T13:07:38.154Z</time></trkpt><trkpt lat="44.3500125" lon="8.3433779"><ele>466.00000000000006</ele><time>2026-04-23T13:07:40.152Z</time></trkpt><trkpt lat="44.3499231" lon="8.343325"><ele>466.0</ele><time>2026-04-23T13:07:42.153Z</time></trkpt><trkpt lat="44.3498482" lon="8.3433002"><ele>466.0</ele><time>2026-04-23T13:07:44.153Z</time></trkpt><trkpt lat="44.3497671" lon="8.3433012"><ele>466.0</ele><time>2026-04-23T13:07:46.154Z</time></trkpt><trkpt lat="44.3496777" lon="8.3433123"><ele>466.00000000000006</ele><time>2026-04-23T13:07:48.154Z</time></trkpt><trkpt lat="44.3495925" lon="8.3433381"><ele>466.0</ele><time>2026-04-23T13:07:50.153Z</time></trkpt><trkpt lat="44.3495032" lon="8.3433726"><ele>466.8</ele><time>2026-04-23T13:07:52.153Z</time></trkpt><trkpt lat="44.3494094" lon="8.3434257"><ele>467.6</ele><time>2026-04-23T13:07:54.154Z</time></trkpt><trkpt lat="44.3493249" lon="8.3434695"><ele>468.4</ele><time>2026-04-23T13:07:56.153Z</time></trkpt><trkpt lat="44.3492429" lon="8.3435411"><ele>469.2</ele><time>2026-04-23T13:07:58.154Z</time></trkpt><trkpt lat="44.3491731" lon="8.3436125"><ele>470.0</ele><time>2026-04-23T13:08:00.154Z</time></trkpt><trkpt lat="44.3491045" lon="8.3436942"><ele>469.99999999999994</ele><time>2026-04-23T13:08:02.154Z</time></trkpt><trkpt lat="44.3490411" lon="8.3437663"><ele>470.0</ele><time>2026-04-23T13:08:04.153Z</time></trkpt><trkpt lat="44.3489773" lon="8.3438385"><ele>470.0</ele><time>2026-04-23T13:08:06.153Z</time></trkpt><trkpt lat="44.3489027" lon="8.3438988"><ele>470.0</ele><time>2026-04-23T13:08:08.153Z</time></trkpt><trkpt lat="44.3488327" lon="8.3439562"><ele>469.99999999999994</ele><time>2026-04-23T13:08:10.154Z</time></trkpt><trkpt lat="44.3487662" lon="8.3440155"><ele>470.0</ele><time>2026-04-23T13:08:12.153Z</time></trkpt><trkpt lat="44.3487125" lon="8.3440986"><ele>469.66666666666663</ele><time>2026-04-23T13:08:14.152Z</time></trkpt><trkpt lat="44.3486678" lon="8.3441936"><ele>469.3333333333333</ele><time>2026-04-23T13:08:16.154Z</time></trkpt><trkpt lat="44.3486244" lon="8.3442907"><ele>469.0</ele><time>2026-04-23T13:08:18.153Z</time></trkpt><trkpt lat="44.3486059" lon="8.3443901"><ele>468.66666666666663</ele><time>2026-04-23T13:08:20.152Z</time></trkpt><trkpt lat="44.3486051" lon="8.34448"><ele>468.3333333333333</ele><time>2026-04-23T13:08:22.154Z</time></trkpt><trkpt lat="44.3485906" lon="8.3446109"><ele>468.0</ele><time>2026-04-23T13:08:25.153Z</time></trkpt><trkpt lat="44.3485487" lon="8.3446845"><ele>468.0</ele><time>2026-04-23T13:08:27.153Z</time></trkpt><trkpt lat="44.3484741" lon="8.3447449"><ele>467.99999999999994</ele><time>2026-04-23T13:08:29.153Z</time></trkpt><trkpt lat="44.3483861" lon="8.3447349"><ele>467.99999999999994</ele><time>2026-04-23T13:08:31.153Z</time></trkpt><trkpt lat="44.3482728" lon="8.3447219"><ele>468.0</ele><time>2026-04-23T13:08:33.154Z</time></trkpt><trkpt lat="44.3481785" lon="8.3447054"><ele>468.0</ele><time>2026-04-23T13:08:35.154Z</time></trkpt><trkpt lat="44.3480664" lon="8.3447662"><ele>467.8333333333333</ele><time>2026-04-23T13:08:37.153Z</time></trkpt><trkpt lat="44.3479763" lon="8.3448483"><ele>467.66666666666663</ele><time>2026-04-23T13:08:39.154Z</time></trkpt><trkpt lat="44.3478796" lon="8.344931"><ele>467.5</ele><time>2026-04-23T13:08:41.154Z</time></trkpt><trkpt lat="44.3478155" lon="8.3449665"><ele>467.3333333333333</ele><time>2026-04-23T13:08:42.154Z</time></trkpt><trkpt lat="44.3477596" lon="8.345013"><ele>467.16666666666663</ele><time>2026-04-23T13:08:43.154Z</time></trkpt><trkpt lat="44.3476945" lon="8.3450564"><ele>467.0</ele><time>2026-04-23T13:08:44.153Z</time></trkpt><trkpt lat="44.3476343" lon="8.3451234"><ele>466.99999999999994</ele><time>2026-04-23T13:08:45.154Z</time></trkpt><trkpt lat="44.3475761" lon="8.3452093"><ele>467.0</ele><time>2026-04-23T13:08:46.154Z</time></trkpt><trkpt lat="44.3475285" lon="8.3453307"><ele>467.0</ele><time>2026-04-23T13:08:47.153Z</time></trkpt><trkpt lat="44.3475043" lon="8.3454505"><ele>467.0</ele><time>2026-04-23T13:08:48.153Z</time></trkpt><trkpt lat="44.3474893" lon="8.3455694"><ele>466.99999999999994</ele><time>2026-04-23T13:08:49.154Z</time></trkpt><trkpt lat="44.347466" lon="8.3456915"><ele>467.0</ele><time>2026-04-23T13:08:50.153Z</time></trkpt><trkpt lat="44.347447" lon="8.3457939"><ele>466.16666666666663</ele><time>2026-04-23T13:08:51.154Z</time></trkpt><trkpt lat="44.3473746" lon="8.3459208"><ele>465.3333333333333</ele><time>2026-04-23T13:08:53.153Z</time></trkpt><trkpt lat="44.3473143" lon="8.3459695"><ele>464.5</ele><time>2026-04-23T13:08:54.153Z</time></trkpt><trkpt lat="44.3472553" lon="8.3459067"><ele>463.66666666666663</ele><time>2026-04-23T13:08:55.154Z</time></trkpt><trkpt lat="44.3471974" lon="8.3458466"><ele>462.8333333333333</ele><time>2026-04-23T13:08:56.153Z</time></trkpt><trkpt lat="44.3471271" lon="8.3458005"><ele>462.0</ele><time>2026-04-23T13:08:57.153Z</time></trkpt><trkpt lat="44.3470523" lon="8.3457646"><ele>460.8</ele><time>2026-04-23T13:08:58.152Z</time></trkpt><trkpt lat="44.3469698" lon="8.3457207"><ele>459.6</ele><time>2026-04-23T13:08:59.153Z</time></trkpt><trkpt lat="44.3468979" lon="8.345704"><ele>458.40000000000003</ele><time>2026-04-23T13:09:00.154Z</time></trkpt><trkpt lat="44.3467776" lon="8.3458439"><ele>457.20000000000005</ele><time>2026-04-23T13:09:01.153Z</time></trkpt><trkpt lat="44.346685" lon="8.3458994"><ele>456.0</ele><time>2026-04-23T13:09:02.154Z</time></trkpt><trkpt lat="44.3465969" lon="8.3459711"><ele>456.0</ele><time>2026-04-23T13:09:03.152Z</time></trkpt><trkpt lat="44.3465355" lon="8.3460792"><ele>456.0</ele><time>2026-04-23T13:09:04.152Z</time></trkpt><trkpt lat="44.3464831" lon="8.3462172"><ele>456.0</ele><time>2026-04-23T13:09:05.153Z</time></trkpt><trkpt lat="44.3464204" lon="8.3463438"><ele>456.0</ele><time>2026-04-23T13:09:06.153Z</time></trkpt><trkpt lat="44.3463644" lon="8.3464299"><ele>456.0</ele><time>2026-04-23T13:09:07.154Z</time></trkpt><trkpt lat="44.3462921" lon="8.3464959"><ele>454.6666666666667</ele><time>2026-04-23T13:09:08.153Z</time></trkpt><trkpt lat="44.3462102" lon="8.3465267"><ele>453.33333333333337</ele><time>2026-04-23T13:09:09.154Z</time></trkpt><trkpt lat="44.3461103" lon="8.3465179"><ele>452.0</ele><time>2026-04-23T13:09:10.153Z</time></trkpt><trkpt lat="44.3460252" lon="8.3465145"><ele>450.6666666666667</ele><time>2026-04-23T13:09:11.154Z</time></trkpt><trkpt lat="44.3459377" lon="8.3464638"><ele>449.33333333333337</ele><time>2026-04-23T13:09:12.152Z</time></trkpt><trkpt lat="44.3458706" lon="8.3464673"><ele>448.0</ele><time>2026-04-23T13:09:13.154Z</time></trkpt><trkpt lat="44.3457682" lon="8.3464919"><ele>448.0</ele><time>2026-04-23T13:09:14.152Z</time></trkpt><trkpt lat="44.3456819" lon="8.3465281"><ele>447.99999999999994</ele><time>2026-04-23T13:09:15.153Z</time></trkpt><trkpt lat="44.3456079" lon="8.3465492"><ele>447.99999999999994</ele><time>2026-04-23T13:09:16.154Z</time></trkpt><trkpt lat="44.3455163" lon="8.3465985"><ele>448.0</ele><time>2026-04-23T13:09:17.154Z</time></trkpt><trkpt lat="44.3454192" lon="8.3466635"><ele>448.0</ele><time>2026-04-23T13:09:18.154Z</time></trkpt><trkpt lat="44.3453109" lon="8.3467027"><ele>447.2</ele><time>2026-04-23T13:09:19.153Z</time></trkpt><trkpt lat="44.3451995" lon="8.3467329"><ele>446.4</ele><time>2026-04-23T13:09:20.154Z</time></trkpt><trkpt lat="44.3451018" lon="8.3467373"><ele>445.59999999999997</ele><time>2026-04-23T13:09:21.152Z</time></trkpt><trkpt lat="44.344987" lon="8.3467421"><ele>444.79999999999995</ele><time>2026-04-23T13:09:22.154Z</time></trkpt><trkpt lat="44.3448811" lon="8.3467388"><ele>444.0</ele><time>2026-04-23T13:09:23.153Z</time></trkpt><trkpt lat="44.344769" lon="8.3467442"><ele>442.79999999999995</ele><time>2026-04-23T13:09:24.154Z</time></trkpt><trkpt lat="44.3446609" lon="8.346748"><ele>441.59999999999997</ele><time>2026-04-23T13:09:25.153Z</time></trkpt><trkpt lat="44.3445506" lon="8.3467361"><ele>440.4</ele><time>2026-04-23T13:09:26.153Z</time></trkpt><trkpt lat="44.3444405" lon="8.3467325"><ele>439.2</ele><time>2026-04-23T13:09:27.153Z</time></trkpt><trkpt lat="44.344331" lon="8.346724"><ele>438.0</ele><time>2026-04-23T13:09:28.154Z</time></trkpt><trkpt lat="44.3442103" lon="8.3467166"><ele>438.0</ele><time>2026-04-23T13:09:29.153Z</time></trkpt><trkpt lat="44.344091" lon="8.346707"><ele>438.0</ele><time>2026-04-23T13:09:30.153Z</time></trkpt><trkpt lat="44.3439822" lon="8.3467003"><ele>438.0</ele><time>2026-04-23T13:09:31.153Z</time></trkpt><trkpt lat="44.3438706" lon="8.3466919"><ele>438.0</ele><time>2026-04-23T13:09:32.154Z</time></trkpt><trkpt lat="44.34375" lon="8.3466739"><ele>438.25</ele><time>2026-04-23T13:09:33.153Z</time></trkpt><trkpt lat="44.343634" lon="8.3466497"><ele>438.5</ele><time>2026-04-23T13:09:34.154Z</time></trkpt><trkpt lat="44.3435287" lon="8.3466232"><ele>438.75</ele><time>2026-04-23T13:09:35.153Z</time></trkpt><trkpt lat="44.3434193" lon="8.3465965"><ele>439.0</ele><time>2026-04-23T13:09:36.154Z</time></trkpt><trkpt lat="44.3433056" lon="8.3465563"><ele>439.0</ele><time>2026-04-23T13:09:37.153Z</time></trkpt><trkpt lat="44.3431997" lon="8.3465228"><ele>439.0</ele><time>2026-04-23T13:09:38.152Z</time></trkpt><trkpt lat="44.3430901" lon="8.3464833"><ele>439.0</ele><time>2026-04-23T13:09:39.153Z</time></trkpt><trkpt lat="44.3429822" lon="8.3464431"><ele>439.0</ele><time>2026-04-23T13:09:40.153Z</time></trkpt><trkpt lat="44.3428808" lon="8.3464078"><ele>439.0</ele><time>2026-04-23T13:09:41.153Z</time></trkpt><trkpt lat="44.3427768" lon="8.3463797"><ele>437.25</ele><time>2026-04-23T13:09:42.152Z</time></trkpt><trkpt lat="44.3426699" lon="8.3463427"><ele>435.5</ele><time>2026-04-23T13:09:43.154Z</time></trkpt><trkpt lat="44.3425607" lon="8.3463091"><ele>433.75</ele><time>2026-04-23T13:09:44.152Z</time></trkpt><trkpt lat="44.3424427" lon="8.3462715"><ele>432.0</ele><time>2026-04-23T13:09:45.154Z</time></trkpt><trkpt lat="44.3423324" lon="8.3462465"><ele>432.0</ele><time>2026-04-23T13:09:46.153Z</time></trkpt><trkpt lat="44.342226" lon="8.3462245"><ele>432.00000000000006</ele><time>2026-04-23T13:09:47.153Z</time></trkpt><trkpt lat="44.342119" lon="8.3462096"><ele>432.00000000000006</ele><time>2026-04-23T13:09:48.154Z</time></trkpt><trkpt lat="44.3420116" lon="8.3461911"><ele>432.0</ele><time>2026-04-23T13:09:49.154Z</time></trkpt><trkpt lat="44.3419053" lon="8.3461777"><ele>432.0</ele><time>2026-04-23T13:09:50.154Z</time></trkpt><trkpt lat="44.3418036" lon="8.3461667"><ele>431.40000000000003</ele><time>2026-04-23T13:09:51.152Z</time></trkpt><trkpt lat="44.3417013" lon="8.3461588"><ele>430.80000000000007</ele><time>2026-04-23T13:09:52.154Z</time></trkpt><trkpt lat="44.3415984" lon="8.3461563"><ele>430.2</ele><time>2026-04-23T13:09:53.154Z</time></trkpt><trkpt lat="44.3414962" lon="8.3461589"><ele>429.6</ele><time>2026-04-23T13:09:54.153Z</time></trkpt><trkpt lat="44.3413977" lon="8.3461612"><ele>429.0</ele><time>2026-04-23T13:09:55.153Z</time></trkpt><trkpt lat="44.3413001" lon="8.346156"><ele>429.0</ele><time>2026-04-23T13:09:56.154Z</time></trkpt><trkpt lat="44.3411965" lon="8.3461562"><ele>429.0</ele><time>2026-04-23T13:09:57.154Z</time></trkpt><trkpt lat="44.3410926" lon="8.3461476"><ele>429.0</ele><time>2026-04-23T13:09:58.152Z</time></trkpt><trkpt lat="44.3409898" lon="8.3461394"><ele>429.0</ele><time>2026-04-23T13:09:59.152Z</time></trkpt><trkpt lat="44.3408886" lon="8.346129"><ele>429.0</ele><time>2026-04-23T13:10:00.153Z</time></trkpt><trkpt lat="44.3407898" lon="8.3461189"><ele>429.0</ele><time>2026-04-23T13:10:01.151Z</time></trkpt><trkpt lat="44.3406832" lon="8.3461137"><ele>429.0</ele><time>2026-04-23T13:10:02.153Z</time></trkpt><trkpt lat="44.3405753" lon="8.3461008"><ele>429.0</ele><time>2026-04-23T13:10:03.153Z</time></trkpt><trkpt lat="44.3404627" lon="8.3460935"><ele>429.0</ele><time>2026-04-23T13:10:04.152Z</time></trkpt><trkpt lat="44.3403461" lon="8.3460808"><ele>429.0</ele><time>2026-04-23T13:10:05.154Z</time></trkpt><trkpt lat="44.3402261" lon="8.3460672"><ele>428.5</ele><time>2026-04-23T13:10:06.153Z</time></trkpt><trkpt lat="44.3401039" lon="8.3460511"><ele>428.0</ele><time>2026-04-23T13:10:07.153Z</time></trkpt><trkpt lat="44.3399876" lon="8.3460356"><ele>427.5</ele><time>2026-04-23T13:10:08.153Z</time></trkpt><trkpt lat="44.3398742" lon="8.3460252"><ele>427.0</ele><time>2026-04-23T13:10:09.153Z</time></trkpt><trkpt lat="44.3397539" lon="8.345994"><ele>425.20000000000005</ele><time>2026-04-23T13:10:10.153Z</time></trkpt><trkpt lat="44.339644" lon="8.3459478"><ele>423.40000000000003</ele><time>2026-04-23T13:10:11.153Z</time></trkpt><trkpt lat="44.3395461" lon="8.3458823"><ele>421.6</ele><time>2026-04-23T13:10:12.153Z</time></trkpt><trkpt lat="44.3394512" lon="8.3458045"><ele>419.79999999999995</ele><time>2026-04-23T13:10:13.154Z</time></trkpt><trkpt lat="44.3393679" lon="8.3457093"><ele>418.0</ele><time>2026-04-23T13:10:14.152Z</time></trkpt><trkpt lat="44.339291" lon="8.3456013"><ele>419.0</ele><time>2026-04-23T13:10:15.153Z</time></trkpt><trkpt lat="44.3392343" lon="8.3454766"><ele>420.0</ele><time>2026-04-23T13:10:16.153Z</time></trkpt><trkpt lat="44.3391656" lon="8.3453715"><ele>421.0</ele><time>2026-04-23T13:10:17.153Z</time></trkpt><trkpt lat="44.3391049" lon="8.3452525"><ele>422.0</ele><time>2026-04-23T13:10:18.154Z</time></trkpt><trkpt lat="44.3390491" lon="8.345133"><ele>423.0</ele><time>2026-04-23T13:10:19.151Z</time></trkpt><trkpt lat="44.3389885" lon="8.3450207"><ele>423.0</ele><time>2026-04-23T13:10:20.154Z</time></trkpt><trkpt lat="44.338929" lon="8.3449141"><ele>423.0</ele><time>2026-04-23T13:10:21.154Z</time></trkpt><trkpt lat="44.3388767" lon="8.3448064"><ele>423.0</ele><time>2026-04-23T13:10:22.153Z</time></trkpt><trkpt lat="44.3388269" lon="8.3446956"><ele>423.0</ele><time>2026-04-23T13:10:23.152Z</time></trkpt><trkpt lat="44.3387768" lon="8.3445961"><ele>423.0</ele><time>2026-04-23T13:10:24.151Z</time></trkpt><trkpt lat="44.3387233" lon="8.344495"><ele>421.6666666666667</ele><time>2026-04-23T13:10:25.153Z</time></trkpt><trkpt lat="44.3386709" lon="8.3444019"><ele>420.33333333333337</ele><time>2026-04-23T13:10:26.153Z</time></trkpt><trkpt lat="44.3386243" lon="8.3443088"><ele>419.0</ele><time>2026-04-23T13:10:27.153Z</time></trkpt><trkpt lat="44.3385718" lon="8.344214"><ele>417.6666666666667</ele><time>2026-04-23T13:10:28.154Z</time></trkpt><trkpt lat="44.3385223" lon="8.3441231"><ele>416.33333333333337</ele><time>2026-04-23T13:10:29.153Z</time></trkpt><trkpt lat="44.338473" lon="8.344031"><ele>415.0</ele><time>2026-04-23T13:10:30.151Z</time></trkpt><trkpt lat="44.3384249" lon="8.3439446"><ele>415.00000000000006</ele><time>2026-04-23T13:10:31.153Z</time></trkpt><trkpt lat="44.3383775" lon="8.3438567"><ele>415.0</ele><time>2026-04-23T13:10:32.153Z</time></trkpt><trkpt lat="44.3383344" lon="8.3437683"><ele>415.0</ele><time>2026-04-23T13:10:33.153Z</time></trkpt><trkpt lat="44.3382931" lon="8.3436786"><ele>415.0</ele><time>2026-04-23T13:10:34.154Z</time></trkpt><trkpt lat="44.3382673" lon="8.3435678"><ele>415.00000000000006</ele><time>2026-04-23T13:10:35.152Z</time></trkpt><trkpt lat="44.3382304" lon="8.3434687"><ele>415.0</ele><time>2026-04-23T13:10:36.153Z</time></trkpt><trkpt lat="44.3382002" lon="8.3433724"><ele>415.00000000000006</ele><time>2026-04-23T13:10:37.154Z</time></trkpt><trkpt lat="44.3381676" lon="8.3432516"><ele>415.0</ele><time>2026-04-23T13:10:38.153Z</time></trkpt><trkpt lat="44.3381304" lon="8.3431528"><ele>415.0</ele><time>2026-04-23T13:10:39.151Z</time></trkpt><trkpt lat="44.3380828" lon="8.3430587"><ele>415.0</ele><time>2026-04-23T13:10:40.154Z</time></trkpt><trkpt lat="44.3380472" lon="8.34296"><ele>415.00000000000006</ele><time>2026-04-23T13:10:41.152Z</time></trkpt><trkpt lat="44.3379954" lon="8.3428765"><ele>415.0</ele><time>2026-04-23T13:10:42.153Z</time></trkpt><trkpt lat="44.3379432" lon="8.342802"><ele>414.83333333333337</ele><time>2026-04-23T13:10:43.152Z</time></trkpt><trkpt lat="44.3378935" lon="8.3427256"><ele>414.6666666666667</ele><time>2026-04-23T13:10:44.152Z</time></trkpt><trkpt lat="44.3378398" lon="8.342652"><ele>414.5</ele><time>2026-04-23T13:10:45.152Z</time></trkpt><trkpt lat="44.337785" lon="8.3425918"><ele>414.33333333333337</ele><time>2026-04-23T13:10:46.153Z</time></trkpt><trkpt lat="44.3377368" lon="8.342534"><ele>414.1666666666667</ele><time>2026-04-23T13:10:47.154Z</time></trkpt><trkpt lat="44.3376323" lon="8.3424183"><ele>414.0</ele><time>2026-04-23T13:10:49.152Z</time></trkpt><trkpt lat="44.3375453" lon="8.3422982"><ele>414.0</ele><time>2026-04-23T13:10:51.153Z</time></trkpt><trkpt lat="44.3374859" lon="8.3422431"><ele>414.0</ele><time>2026-04-23T13:10:52.152Z</time></trkpt><trkpt lat="44.3374195" lon="8.3421951"><ele>414.0</ele><time>2026-04-23T13:10:53.151Z</time></trkpt><trkpt lat="44.337358" lon="8.3421377"><ele>414.0</ele><time>2026-04-23T13:10:54.154Z</time></trkpt><trkpt lat="44.3372975" lon="8.3420718"><ele>414.0</ele><time>2026-04-23T13:10:55.154Z</time></trkpt><trkpt lat="44.337242" lon="8.341994"><ele>414.0</ele><time>2026-04-23T13:10:56.153Z</time></trkpt><trkpt lat="44.3371885" lon="8.3419101"><ele>413.0</ele><time>2026-04-23T13:10:57.151Z</time></trkpt><trkpt lat="44.33714" lon="8.3418157"><ele>412.0</ele><time>2026-04-23T13:10:58.154Z</time></trkpt><trkpt lat="44.3371001" lon="8.3417215"><ele>411.0</ele><time>2026-04-23T13:10:59.153Z</time></trkpt><trkpt lat="44.3370843" lon="8.3416054"><ele>410.0</ele><time>2026-04-23T13:11:00.154Z</time></trkpt><trkpt lat="44.3370526" lon="8.3414994"><ele>409.0</ele><time>2026-04-23T13:11:01.152Z</time></trkpt><trkpt lat="44.3369917" lon="8.3414118"><ele>408.0</ele><time>2026-04-23T13:11:02.152Z</time></trkpt><trkpt lat="44.336924" lon="8.341333"><ele>408.0</ele><time>2026-04-23T13:11:03.154Z</time></trkpt><trkpt lat="44.3368575" lon="8.3413197"><ele>408.0</ele><time>2026-04-23T13:11:04.152Z</time></trkpt><trkpt lat="44.3367641" lon="8.3413697"><ele>408.0</ele><time>2026-04-23T13:11:05.153Z</time></trkpt><trkpt lat="44.3366812" lon="8.3413786"><ele>408.0</ele><time>2026-04-23T13:11:06.153Z</time></trkpt><trkpt lat="44.3365936" lon="8.3413579"><ele>408.0</ele><time>2026-04-23T13:11:07.153Z</time></trkpt><trkpt lat="44.3365201" lon="8.3413136"><ele>408.0</ele><time>2026-04-23T13:11:08.152Z</time></trkpt><trkpt lat="44.3364399" lon="8.3412805"><ele>408.2</ele><time>2026-04-23T13:11:09.154Z</time></trkpt><trkpt lat="44.3363633" lon="8.3412466"><ele>408.4</ele><time>2026-04-23T13:11:10.153Z</time></trkpt><trkpt lat="44.3362569" lon="8.3411754"><ele>408.59999999999997</ele><time>2026-04-23T13:11:12.154Z</time></trkpt><trkpt lat="44.336155" lon="8.3411329"><ele>408.79999999999995</ele><time>2026-04-23T13:11:13.154Z</time></trkpt><trkpt lat="44.3360834" lon="8.3410174"><ele>409.0</ele><time>2026-04-23T13:11:14.151Z</time></trkpt><trkpt lat="44.3360423" lon="8.3409249"><ele>409.00000000000006</ele><time>2026-04-23T13:11:15.153Z</time></trkpt><trkpt lat="44.3359843" lon="8.3408542"><ele>409.0</ele><time>2026-04-23T13:11:16.152Z</time></trkpt><trkpt lat="44.3359246" lon="8.3407939"><ele>409.0</ele><time>2026-04-23T13:11:17.155Z</time></trkpt><trkpt lat="44.3358839" lon="8.3407194"><ele>409.0</ele><time>2026-04-23T13:11:18.153Z</time></trkpt><trkpt lat="44.3358243" lon="8.3406049"><ele>409.00000000000006</ele><time>2026-04-23T13:11:20.152Z</time></trkpt><trkpt lat="44.335766" lon="8.3405571"><ele>409.0</ele><time>2026-04-23T13:11:22.153Z</time></trkpt><trkpt lat="44.3357019" lon="8.3405712"><ele>409.00000000000006</ele><time>2026-04-23T13:11:26.153Z</time></trkpt><trkpt lat="44.335667" lon="8.3406676"><ele>409.0</ele><time>2026-04-23T13:11:28.153Z</time></trkpt><trkpt lat="44.3356453" lon="8.340772"><ele>409.0</ele><time>2026-04-23T13:11:30.152Z</time></trkpt><trkpt lat="44.3356193" lon="8.3408722"><ele>409.0</ele><time>2026-04-23T13:11:32.151Z</time></trkpt><trkpt lat="44.3355941" lon="8.3409879"><ele>409.00000000000006</ele><time>2026-04-23T13:11:34.153Z</time></trkpt><trkpt lat="44.3355652" lon="8.3411078"><ele>409.0</ele><time>2026-04-23T13:11:36.151Z</time></trkpt><trkpt lat="44.3355332" lon="8.3412224"><ele>410.6666666666667</ele><time>2026-04-23T13:11:38.153Z</time></trkpt><trkpt lat="44.3355057" lon="8.3413418"><ele>412.33333333333337</ele><time>2026-04-23T13:11:40.153Z</time></trkpt><trkpt lat="44.3354728" lon="8.3414503"><ele>414.0</ele><time>2026-04-23T13:11:42.152Z</time></trkpt><trkpt lat="44.3354347" lon="8.3415573"><ele>415.66666666666663</ele><time>2026-04-23T13:11:44.153Z</time></trkpt><trkpt lat="44.3354027" lon="8.3416659"><ele>417.3333333333333</ele><time>2026-04-23T13:11:46.153Z</time></trkpt><trkpt lat="44.3353748" lon="8.3417775"><ele>419.0</ele><time>2026-04-23T13:11:48.154Z</time></trkpt><trkpt lat="44.3353451" lon="8.341889"><ele>418.99999999999994</ele><time>2026-04-23T13:11:50.153Z</time></trkpt><trkpt lat="44.3353257" lon="8.3420038"><ele>419.0</ele><time>2026-04-23T13:11:52.151Z</time></trkpt><trkpt lat="44.3353062" lon="8.3421085"><ele>419.0</ele><time>2026-04-23T13:11:54.152Z</time></trkpt><trkpt lat="44.3352803" lon="8.3422098"><ele>419.0</ele><time>2026-04-23T13:11:56.153Z</time></trkpt><trkpt lat="44.3352451" lon="8.3423102"><ele>418.99999999999994</ele><time>2026-04-23T13:11:58.153Z</time></trkpt><trkpt lat="44.3352125" lon="8.3424145"><ele>419.0</ele><time>2026-04-23T13:12:00.151Z</time></trkpt><trkpt lat="44.3351818" lon="8.3425204"><ele>418.49999999999994</ele><time>2026-04-23T13:12:02.151Z</time></trkpt><trkpt lat="44.3351532" lon="8.342627"><ele>418.0</ele><time>2026-04-23T13:12:04.153Z</time></trkpt><trkpt lat="44.3351319" lon="8.3427347"><ele>417.5</ele><time>2026-04-23T13:12:06.154Z</time></trkpt><trkpt lat="44.3351059" lon="8.3428376"><ele>417.0</ele><time>2026-04-23T13:12:08.153Z</time></trkpt><trkpt lat="44.3350786" lon="8.3429442"><ele>416.49999999999994</ele><time>2026-04-23T13:12:10.153Z</time></trkpt><trkpt lat="44.3350326" lon="8.3430488"><ele>416.0</ele><time>2026-04-23T13:12:12.152Z</time></trkpt><trkpt lat="44.3349924" lon="8.3431489"><ele>415.66666666666663</ele><time>2026-04-23T13:12:14.153Z</time></trkpt><trkpt lat="44.3349417" lon="8.3432546"><ele>415.3333333333333</ele><time>2026-04-23T13:12:16.153Z</time></trkpt><trkpt lat="44.33493" lon="8.3433676"><ele>415.0</ele><time>2026-04-23T13:12:18.153Z</time></trkpt><trkpt lat="44.3348856" lon="8.3434612"><ele>414.66666666666663</ele><time>2026-04-23T13:12:20.152Z</time></trkpt><trkpt lat="44.33484" lon="8.3435605"><ele>414.3333333333333</ele><time>2026-04-23T13:12:22.154Z</time></trkpt><trkpt lat="44.3347977" lon="8.3436551"><ele>414.0</ele><time>2026-04-23T13:12:24.153Z</time></trkpt><trkpt lat="44.3347462" lon="8.3437385"><ele>414.5</ele><time>2026-04-23T13:12:26.151Z</time></trkpt><trkpt lat="44.3346923" lon="8.3438204"><ele>415.0</ele><time>2026-04-23T13:12:28.153Z</time></trkpt><trkpt lat="44.3346339" lon="8.3439039"><ele>415.5</ele><time>2026-04-23T13:12:30.154Z</time></trkpt><trkpt lat="44.3345759" lon="8.3439798"><ele>416.0</ele><time>2026-04-23T13:12:32.152Z</time></trkpt><trkpt lat="44.3345236" lon="8.3440548"><ele>416.5</ele><time>2026-04-23T13:12:34.151Z</time></trkpt><trkpt lat="44.3344636" lon="8.3441349"><ele>417.0</ele><time>2026-04-23T13:12:36.151Z</time></trkpt><trkpt lat="44.3344082" lon="8.3442137"><ele>417.0</ele><time>2026-04-23T13:12:38.153Z</time></trkpt><trkpt lat="44.3343532" lon="8.3442888"><ele>417.0</ele><time>2026-04-23T13:12:40.154Z</time></trkpt><trkpt lat="44.3343027" lon="8.3443649"><ele>417.0</ele><time>2026-04-23T13:12:42.152Z</time></trkpt><trkpt lat="44.3342393" lon="8.3444438"><ele>417.0</ele><time>2026-04-23T13:12:44.153Z</time></trkpt><trkpt lat="44.3341709" lon="8.3445224"><ele>417.0</ele><time>2026-04-23T13:12:46.153Z</time></trkpt><trkpt lat="44.3341118" lon="8.3446004"><ele>417.0</ele><time>2026-04-23T13:12:48.153Z</time></trkpt><trkpt lat="44.3340555" lon="8.3446808"><ele>417.6666666666667</ele><time>2026-04-23T13:12:50.152Z</time></trkpt><trkpt lat="44.3339971" lon="8.3447628"><ele>418.33333333333337</ele><time>2026-04-23T13:12:52.153Z</time></trkpt><trkpt lat="44.3339458" lon="8.3448476"><ele>419.0</ele><time>2026-04-23T13:12:54.154Z</time></trkpt><trkpt lat="44.3338953" lon="8.3449313"><ele>419.6666666666667</ele><time>2026-04-23T13:12:56.153Z</time></trkpt><trkpt lat="44.3338457" lon="8.3450137"><ele>420.33333333333337</ele><time>2026-04-23T13:12:58.152Z</time></trkpt><trkpt lat="44.3337895" lon="8.3450978"><ele>421.0</ele><time>2026-04-23T13:13:00.152Z</time></trkpt><trkpt lat="44.333734" lon="8.3451818"><ele>421.1666666666667</ele><time>2026-04-23T13:13:02.153Z</time></trkpt><trkpt lat="44.3336783" lon="8.3452647"><ele>421.33333333333337</ele><time>2026-04-23T13:13:04.151Z</time></trkpt><trkpt lat="44.3336173" lon="8.3453511"><ele>421.5</ele><time>2026-04-23T13:13:06.151Z</time></trkpt><trkpt lat="44.3335618" lon="8.3454338"><ele>421.66666666666663</ele><time>2026-04-23T13:13:08.152Z</time></trkpt><trkpt lat="44.3335103" lon="8.3455177"><ele>421.8333333333333</ele><time>2026-04-23T13:13:10.153Z</time></trkpt><trkpt lat="44.3334551" lon="8.3456042"><ele>422.0</ele><time>2026-04-23T13:13:12.152Z</time></trkpt><trkpt lat="44.3334038" lon="8.345692"><ele>421.66666666666663</ele><time>2026-04-23T13:13:14.152Z</time></trkpt><trkpt lat="44.3333536" lon="8.3457726"><ele>421.3333333333333</ele><time>2026-04-23T13:13:16.152Z</time></trkpt><trkpt lat="44.3333008" lon="8.3458539"><ele>421.0</ele><time>2026-04-23T13:13:18.153Z</time></trkpt><trkpt lat="44.333253" lon="8.3459355"><ele>420.66666666666663</ele><time>2026-04-23T13:13:20.152Z</time></trkpt><trkpt lat="44.3332035" lon="8.346022"><ele>420.3333333333333</ele><time>2026-04-23T13:13:22.154Z</time></trkpt><trkpt lat="44.3331496" lon="8.3461083"><ele>420.0</ele><time>2026-04-23T13:13:24.153Z</time></trkpt><trkpt lat="44.3330976" lon="8.3461929"><ele>421.0</ele><time>2026-04-23T13:13:26.152Z</time></trkpt><trkpt lat="44.3330447" lon="8.3462754"><ele>422.0</ele><time>2026-04-23T13:13:28.152Z</time></trkpt><trkpt lat="44.3329985" lon="8.3463583"><ele>423.0</ele><time>2026-04-23T13:13:30.154Z</time></trkpt><trkpt lat="44.3329509" lon="8.3464376"><ele>424.0</ele><time>2026-04-23T13:13:32.153Z</time></trkpt><trkpt lat="44.3329047" lon="8.3465067"><ele>425.0</ele><time>2026-04-23T13:13:34.152Z</time></trkpt><trkpt lat="44.3328551" lon="8.3465725"><ele>426.0</ele><time>2026-04-23T13:13:36.153Z</time></trkpt><trkpt lat="44.3328032" lon="8.3466425"><ele>427.0</ele><time>2026-04-23T13:13:38.152Z</time></trkpt><trkpt lat="44.3327497" lon="8.3467154"><ele>427.0</ele><time>2026-04-23T13:13:40.151Z</time></trkpt><trkpt lat="44.3326973" lon="8.3467818"><ele>427.0</ele><time>2026-04-23T13:13:42.153Z</time></trkpt><trkpt lat="44.3326477" lon="8.3468479"><ele>427.0</ele><time>2026-04-23T13:13:44.152Z</time></trkpt><trkpt lat="44.332606" lon="8.3469265"><ele>427.0</ele><time>2026-04-23T13:13:46.153Z</time></trkpt><trkpt lat="44.3325527" lon="8.3470012"><ele>427.0</ele><time>2026-04-23T13:13:48.151Z</time></trkpt><trkpt lat="44.3324983" lon="8.3470761"><ele>427.0</ele><time>2026-04-23T13:13:50.153Z</time></trkpt><trkpt lat="44.3324497" lon="8.347155"><ele>427.0</ele><time>2026-04-23T13:13:52.153Z</time></trkpt><trkpt lat="44.3324032" lon="8.3472336"><ele>427.00000000000006</ele><time>2026-04-23T13:13:54.153Z</time></trkpt><trkpt lat="44.3323565" lon="8.3473112"><ele>427.0</ele><time>2026-04-23T13:13:56.153Z</time></trkpt><trkpt lat="44.3323004" lon="8.3473936"><ele>427.0</ele><time>2026-04-23T13:13:58.152Z</time></trkpt><trkpt lat="44.3322461" lon="8.3474746"><ele>427.0</ele><time>2026-04-23T13:14:00.152Z</time></trkpt><trkpt lat="44.3321981" lon="8.34755"><ele>427.00000000000006</ele><time>2026-04-23T13:14:02.152Z</time></trkpt><trkpt lat="44.3321515" lon="8.3476301"><ele>427.0</ele><time>2026-04-23T13:14:04.152Z</time></trkpt><trkpt lat="44.3321053" lon="8.3477132"><ele>428.14285714285717</ele><time>2026-04-23T13:14:06.152Z</time></trkpt><trkpt lat="44.3320591" lon="8.3477919"><ele>429.2857142857143</ele><time>2026-04-23T13:14:08.153Z</time></trkpt><trkpt lat="44.3320068" lon="8.3478626"><ele>430.42857142857144</ele><time>2026-04-23T13:14:10.153Z</time></trkpt><trkpt lat="44.3319551" lon="8.3479318"><ele>431.57142857142856</ele><time>2026-04-23T13:14:12.154Z</time></trkpt><trkpt lat="44.3319111" lon="8.3480113"><ele>432.7142857142857</ele><time>2026-04-23T13:14:14.153Z</time></trkpt><trkpt lat="44.331864" lon="8.34809"><ele>433.8571428571429</ele><time>2026-04-23T13:14:16.153Z</time></trkpt><trkpt lat="44.3318199" lon="8.3481636"><ele>435.0</ele><time>2026-04-23T13:14:18.152Z</time></trkpt><trkpt lat="44.3317596" lon="8.3482505"><ele>435.0</ele><time>2026-04-23T13:14:21.153Z</time></trkpt><trkpt lat="44.3317173" lon="8.3483357"><ele>435.0</ele><time>2026-04-23T13:14:23.152Z</time></trkpt><trkpt lat="44.3316774" lon="8.3484232"><ele>435.0</ele><time>2026-04-23T13:14:25.153Z</time></trkpt><trkpt lat="44.3316352" lon="8.3485137"><ele>435.0</ele><time>2026-04-23T13:14:27.153Z</time></trkpt><trkpt lat="44.3315915" lon="8.3486051"><ele>435.0</ele><time>2026-04-23T13:14:29.152Z</time></trkpt><trkpt lat="44.3315468" lon="8.3487008"><ele>435.0</ele><time>2026-04-23T13:14:31.151Z</time></trkpt><trkpt lat="44.3315039" lon="8.34879"><ele>435.14285714285717</ele><time>2026-04-23T13:14:33.152Z</time></trkpt><trkpt lat="44.3314669" lon="8.3488869"><ele>435.2857142857143</ele><time>2026-04-23T13:14:35.152Z</time></trkpt><trkpt lat="44.3314383" lon="8.3489829"><ele>435.42857142857144</ele><time>2026-04-23T13:14:37.151Z</time></trkpt><trkpt lat="44.3314331" lon="8.3490793"><ele>435.57142857142856</ele><time>2026-04-23T13:14:39.153Z</time></trkpt><trkpt lat="44.3314421" lon="8.3491735"><ele>435.7142857142857</ele><time>2026-04-23T13:14:41.152Z</time></trkpt><trkpt lat="44.3314688" lon="8.3492688"><ele>435.8571428571429</ele><time>2026-04-23T13:14:43.152Z</time></trkpt><trkpt lat="44.3314975" lon="8.3493767"><ele>436.0</ele><time>2026-04-23T13:14:45.154Z</time></trkpt><trkpt lat="44.3315289" lon="8.3494893"><ele>436.00000000000006</ele><time>2026-04-23T13:14:47.153Z</time></trkpt><trkpt lat="44.3315749" lon="8.3495588"><ele>436.0</ele><time>2026-04-23T13:14:49.153Z</time></trkpt><trkpt lat="44.3316342" lon="8.3496121"><ele>436.0</ele><time>2026-04-23T13:14:51.151Z</time></trkpt><trkpt lat="44.3317087" lon="8.3496343"><ele>436.0</ele><time>2026-04-23T13:14:54.153Z</time></trkpt><trkpt lat="44.3317861" lon="8.34959"><ele>436.00000000000006</ele><time>2026-04-23T13:14:57.153Z</time></trkpt><trkpt lat="44.3317856" lon="8.3494798"><ele>436.0</ele><time>2026-04-23T13:14:59.152Z</time></trkpt><trkpt lat="44.3317419" lon="8.3493801"><ele>436.0</ele><time>2026-04-23T13:15:01.153Z</time></trkpt><trkpt lat="44.3317" lon="8.3492796"><ele>436.0</ele><time>2026-04-23T13:15:03.152Z</time></trkpt><trkpt lat="44.3316647" lon="8.3491367"><ele>436.0</ele><time>2026-04-23T13:15:05.152Z</time></trkpt><trkpt lat="44.3316474" lon="8.3489833"><ele>436.0</ele><time>2026-04-23T13:15:07.153Z</time></trkpt><trkpt lat="44.3316451" lon="8.3488174"><ele>436.0</ele><time>2026-04-23T13:15:09.152Z</time></trkpt><trkpt lat="44.3316452" lon="8.3487252"><ele>435.83333333333337</ele><time>2026-04-23T13:15:10.153Z</time></trkpt><trkpt lat="44.3316978" lon="8.3485691"><ele>435.6666666666667</ele><time>2026-04-23T13:15:12.152Z</time></trkpt><trkpt lat="44.3317264" lon="8.3484877"><ele>435.5</ele><time>2026-04-23T13:15:13.153Z</time></trkpt><trkpt lat="44.3317581" lon="8.3483915"><ele>435.33333333333337</ele><time>2026-04-23T13:15:14.152Z</time></trkpt><trkpt lat="44.3318013" lon="8.3483212"><ele>435.1666666666667</ele><time>2026-04-23T13:15:15.152Z</time></trkpt><trkpt lat="44.3318486" lon="8.3482349"><ele>435.0</ele><time>2026-04-23T13:15:16.151Z</time></trkpt><trkpt lat="44.3318863" lon="8.348159"><ele>435.00000000000006</ele><time>2026-04-23T13:15:17.153Z</time></trkpt><trkpt lat="44.3319366" lon="8.3480777"><ele>435.0</ele><time>2026-04-23T13:15:18.152Z</time></trkpt><trkpt lat="44.3319868" lon="8.3480055"><ele>435.0</ele><time>2026-04-23T13:15:19.153Z</time></trkpt><trkpt lat="44.3320213" lon="8.3479263"><ele>435.0</ele><time>2026-04-23T13:15:20.152Z</time></trkpt><trkpt lat="44.3320778" lon="8.3478549"><ele>435.0</ele><time>2026-04-23T13:15:21.152Z</time></trkpt><trkpt lat="44.332125" lon="8.3477858"><ele>435.00000000000006</ele><time>2026-04-23T13:15:22.153Z</time></trkpt><trkpt lat="44.332169" lon="8.3477071"><ele>435.0</ele><time>2026-04-23T13:15:23.151Z</time></trkpt><trkpt lat="44.3322227" lon="8.3476417"><ele>433.6666666666667</ele><time>2026-04-23T13:15:24.151Z</time></trkpt><trkpt lat="44.3322699" lon="8.3475667"><ele>432.33333333333337</ele><time>2026-04-23T13:15:25.153Z</time></trkpt><trkpt lat="44.3323233" lon="8.3474805"><ele>431.0</ele><time>2026-04-23T13:15:26.153Z</time></trkpt><trkpt lat="44.3323763" lon="8.3474155"><ele>429.6666666666667</ele><time>2026-04-23T13:15:27.152Z</time></trkpt><trkpt lat="44.3324356" lon="8.3473393"><ele>428.33333333333337</ele><time>2026-04-23T13:15:28.153Z</time></trkpt><trkpt lat="44.3324801" lon="8.3472557"><ele>427.0</ele><time>2026-04-23T13:15:29.151Z</time></trkpt><trkpt lat="44.3325347" lon="8.3471672"><ele>427.00000000000006</ele><time>2026-04-23T13:15:30.152Z</time></trkpt><trkpt lat="44.3325809" lon="8.3470901"><ele>427.0</ele><time>2026-04-23T13:15:31.153Z</time></trkpt><trkpt lat="44.332635" lon="8.3470128"><ele>427.0</ele><time>2026-04-23T13:15:32.151Z</time></trkpt><trkpt lat="44.332686" lon="8.3469322"><ele>427.0</ele><time>2026-04-23T13:15:33.152Z</time></trkpt><trkpt lat="44.3327383" lon="8.3468572"><ele>427.00000000000006</ele><time>2026-04-23T13:15:34.153Z</time></trkpt><trkpt lat="44.3327921" lon="8.3467823"><ele>427.0</ele><time>2026-04-23T13:15:35.151Z</time></trkpt><trkpt lat="44.3328414" lon="8.3466983"><ele>427.00000000000006</ele><time>2026-04-23T13:15:36.152Z</time></trkpt><trkpt lat="44.3328945" lon="8.3466089"><ele>427.0</ele><time>2026-04-23T13:15:37.153Z</time></trkpt><trkpt lat="44.3329431" lon="8.3465254"><ele>427.0</ele><time>2026-04-23T13:15:38.153Z</time></trkpt><trkpt lat="44.3329941" lon="8.3464375"><ele>427.0</ele><time>2026-04-23T13:15:39.153Z</time></trkpt><trkpt lat="44.3330434" lon="8.3463494"><ele>427.00000000000006</ele><time>2026-04-23T13:15:40.153Z</time></trkpt><trkpt lat="44.3330913" lon="8.3462593"><ele>427.0</ele><time>2026-04-23T13:15:41.152Z</time></trkpt><trkpt lat="44.3331475" lon="8.3461692"><ele>425.83333333333337</ele><time>2026-04-23T13:15:42.15Z</time></trkpt><trkpt lat="44.333205" lon="8.346085"><ele>424.6666666666667</ele><time>2026-04-23T13:15:43.152Z</time></trkpt><trkpt lat="44.3332584" lon="8.3459996"><ele>423.5</ele><time>2026-04-23T13:15:44.153Z</time></trkpt><trkpt lat="44.333312" lon="8.3459154"><ele>422.33333333333337</ele><time>2026-04-23T13:15:45.153Z</time></trkpt><trkpt lat="44.3333746" lon="8.3458309"><ele>421.1666666666667</ele><time>2026-04-23T13:15:46.15Z</time></trkpt><trkpt lat="44.3334257" lon="8.3457514"><ele>420.0</ele><time>2026-04-23T13:15:47.152Z</time></trkpt><trkpt lat="44.3334748" lon="8.3456754"><ele>420.0</ele><time>2026-04-23T13:15:48.153Z</time></trkpt><trkpt lat="44.3335347" lon="8.3456019"><ele>420.0</ele><time>2026-04-23T13:15:49.152Z</time></trkpt><trkpt lat="44.3335922" lon="8.3455199"><ele>420.0</ele><time>2026-04-23T13:15:50.151Z</time></trkpt><trkpt lat="44.3336399" lon="8.3454326"><ele>420.0</ele><time>2026-04-23T13:15:51.152Z</time></trkpt><trkpt lat="44.3336873" lon="8.3453608"><ele>420.0</ele><time>2026-04-23T13:15:52.153Z</time></trkpt><trkpt lat="44.3337358" lon="8.3452825"><ele>420.0</ele><time>2026-04-23T13:15:53.152Z</time></trkpt><trkpt lat="44.3337871" lon="8.3452076"><ele>420.1666666666667</ele><time>2026-04-23T13:15:54.153Z</time></trkpt><trkpt lat="44.3338381" lon="8.3451277"><ele>420.33333333333337</ele><time>2026-04-23T13:15:55.152Z</time></trkpt><trkpt lat="44.3338947" lon="8.3450421"><ele>420.5</ele><time>2026-04-23T13:15:56.152Z</time></trkpt><trkpt lat="44.333947" lon="8.3449561"><ele>420.6666666666667</ele><time>2026-04-23T13:15:57.152Z</time></trkpt><trkpt lat="44.3339975" lon="8.3448736"><ele>420.83333333333337</ele><time>2026-04-23T13:15:58.15Z</time></trkpt><trkpt lat="44.334047" lon="8.3447903"><ele>421.0</ele><time>2026-04-23T13:15:59.153Z</time></trkpt><trkpt lat="44.3340907" lon="8.3447073"><ele>420.33333333333337</ele><time>2026-04-23T13:16:00.153Z</time></trkpt><trkpt lat="44.3341414" lon="8.344635"><ele>419.6666666666667</ele><time>2026-04-23T13:16:01.153Z</time></trkpt><trkpt lat="44.3341909" lon="8.3445652"><ele>419.0</ele><time>2026-04-23T13:16:02.152Z</time></trkpt><trkpt lat="44.3342413" lon="8.3444844"><ele>418.33333333333337</ele><time>2026-04-23T13:16:03.152Z</time></trkpt><trkpt lat="44.3342957" lon="8.3444075"><ele>417.6666666666667</ele><time>2026-04-23T13:16:04.152Z</time></trkpt><trkpt lat="44.3343484" lon="8.3443182"><ele>417.0</ele><time>2026-04-23T13:16:05.153Z</time></trkpt><trkpt lat="44.3344036" lon="8.3442402"><ele>417.0</ele><time>2026-04-23T13:16:06.152Z</time></trkpt><trkpt lat="44.3344579" lon="8.3441563"><ele>417.0</ele><time>2026-04-23T13:16:07.152Z</time></trkpt><trkpt lat="44.3345061" lon="8.3440722"><ele>417.0</ele><time>2026-04-23T13:16:08.152Z</time></trkpt><trkpt lat="44.3345589" lon="8.3439795"><ele>417.0</ele><time>2026-04-23T13:16:09.152Z</time></trkpt><trkpt lat="44.3346138" lon="8.3438908"><ele>417.0</ele><time>2026-04-23T13:16:10.153Z</time></trkpt><trkpt lat="44.3346699" lon="8.3437999"><ele>417.0</ele><time>2026-04-23T13:16:11.153Z</time></trkpt><trkpt lat="44.3347215" lon="8.3437152"><ele>416.5</ele><time>2026-04-23T13:16:12.153Z</time></trkpt><trkpt lat="44.3347772" lon="8.3436346"><ele>416.0</ele><time>2026-04-23T13:16:13.151Z</time></trkpt><trkpt lat="44.3348293" lon="8.3435475"><ele>415.5</ele><time>2026-04-23T13:16:14.151Z</time></trkpt><trkpt lat="44.3348785" lon="8.3434656"><ele>415.0</ele><time>2026-04-23T13:16:15.152Z</time></trkpt><trkpt lat="44.3349339" lon="8.3433778"><ele>414.5</ele><time>2026-04-23T13:16:16.153Z</time></trkpt><trkpt lat="44.3349851" lon="8.3432914"><ele>414.0</ele><time>2026-04-23T13:16:17.153Z</time></trkpt><trkpt lat="44.3350211" lon="8.3431969"><ele>414.0</ele><time>2026-04-23T13:16:18.152Z</time></trkpt><trkpt lat="44.3350582" lon="8.3431042"><ele>414.0</ele><time>2026-04-23T13:16:19.15Z</time></trkpt><trkpt lat="44.3351112" lon="8.342988"><ele>414.0</ele><time>2026-04-23T13:16:20.152Z</time></trkpt><trkpt lat="44.3351473" lon="8.3428856"><ele>414.0</ele><time>2026-04-23T13:16:21.153Z</time></trkpt><trkpt lat="44.3351891" lon="8.3427738"><ele>414.0</ele><time>2026-04-23T13:16:22.152Z</time></trkpt><trkpt lat="44.3352282" lon="8.3426735"><ele>414.0</ele><time>2026-04-23T13:16:23.152Z</time></trkpt><trkpt lat="44.3352565" lon="8.3425802"><ele>414.28571428571433</ele><time>2026-04-23T13:16:24.153Z</time></trkpt><trkpt lat="44.3352764" lon="8.3424908"><ele>414.57142857142856</ele><time>2026-04-23T13:16:25.152Z</time></trkpt><trkpt lat="44.3353054" lon="8.3423927"><ele>414.8571428571429</ele><time>2026-04-23T13:16:26.153Z</time></trkpt><trkpt lat="44.3353291" lon="8.3422965"><ele>415.14285714285717</ele><time>2026-04-23T13:16:27.15Z</time></trkpt><trkpt lat="44.3353605" lon="8.3422053"><ele>415.42857142857144</ele><time>2026-04-23T13:16:28.153Z</time></trkpt><trkpt lat="44.3353849" lon="8.342109"><ele>415.7142857142857</ele><time>2026-04-23T13:16:29.152Z</time></trkpt><trkpt lat="44.3354074" lon="8.3420198"><ele>416.0</ele><time>2026-04-23T13:16:30.151Z</time></trkpt><trkpt lat="44.3354652" lon="8.3418549"><ele>416.49999999999994</ele><time>2026-04-23T13:16:32.151Z</time></trkpt><trkpt lat="44.3354611" lon="8.3417282"><ele>417.0</ele><time>2026-04-23T13:16:33.153Z</time></trkpt><trkpt lat="44.335483" lon="8.3416348"><ele>417.5</ele><time>2026-04-23T13:16:34.152Z</time></trkpt><trkpt lat="44.3355423" lon="8.3415124"><ele>418.0</ele><time>2026-04-23T13:16:36.152Z</time></trkpt><trkpt lat="44.3355523" lon="8.3414102"><ele>418.49999999999994</ele><time>2026-04-23T13:16:37.152Z</time></trkpt><trkpt lat="44.3355722" lon="8.3413241"><ele>419.0</ele><time>2026-04-23T13:16:38.151Z</time></trkpt><trkpt lat="44.3356208" lon="8.3411594"><ele>417.71428571428567</ele><time>2026-04-23T13:16:40.151Z</time></trkpt><trkpt lat="44.3356414" lon="8.3410708"><ele>416.42857142857144</ele><time>2026-04-23T13:16:41.153Z</time></trkpt><trkpt lat="44.3356713" lon="8.3409882"><ele>415.1428571428571</ele><time>2026-04-23T13:16:42.153Z</time></trkpt><trkpt lat="44.3356835" lon="8.3408902"><ele>413.85714285714283</ele><time>2026-04-23T13:16:43.153Z</time></trkpt><trkpt lat="44.3357191" lon="8.3408144"><ele>412.57142857142856</ele><time>2026-04-23T13:16:44.153Z</time></trkpt><trkpt lat="44.3357472" lon="8.3407234"><ele>411.2857142857143</ele><time>2026-04-23T13:16:45.152Z</time></trkpt><trkpt lat="44.3357767" lon="8.3406327"><ele>410.0</ele><time>2026-04-23T13:16:46.151Z</time></trkpt><trkpt lat="44.3358002" lon="8.3405324"><ele>409.99999999999994</ele><time>2026-04-23T13:16:47.151Z</time></trkpt><trkpt lat="44.3358257" lon="8.3403565"><ele>410.0</ele><time>2026-04-23T13:16:49.151Z</time></trkpt><trkpt lat="44.3358386" lon="8.3402525"><ele>410.0</ele><time>2026-04-23T13:16:50.152Z</time></trkpt><trkpt lat="44.3358494" lon="8.3401545"><ele>410.0</ele><time>2026-04-23T13:16:51.153Z</time></trkpt><trkpt lat="44.3358474" lon="8.3400594"><ele>409.99999999999994</ele><time>2026-04-23T13:16:52.154Z</time></trkpt><trkpt lat="44.3358357" lon="8.3399518"><ele>410.0</ele><time>2026-04-23T13:16:53.151Z</time></trkpt><trkpt lat="44.3358342" lon="8.339853"><ele>409.99999999999994</ele><time>2026-04-23T13:16:54.151Z</time></trkpt><trkpt lat="44.335829" lon="8.3397467"><ele>410.0</ele><time>2026-04-23T13:16:55.152Z</time></trkpt><trkpt lat="44.3358029" lon="8.3396542"><ele>410.0</ele><time>2026-04-23T13:16:56.152Z</time></trkpt><trkpt lat="44.335812" lon="8.339466"><ele>410.0</ele><time>2026-04-23T13:16:58.151Z</time></trkpt><trkpt lat="44.3358215" lon="8.3393634"><ele>409.99999999999994</ele><time>2026-04-23T13:16:59.154Z</time></trkpt><trkpt lat="44.335826" lon="8.3392605"><ele>410.0</ele><time>2026-04-23T13:17:00.152Z</time></trkpt><trkpt lat="44.335837" lon="8.3391445"><ele>409.49999999999994</ele><time>2026-04-23T13:17:01.151Z</time></trkpt><trkpt lat="44.3358391" lon="8.3390454"><ele>409.0</ele><time>2026-04-23T13:17:02.151Z</time></trkpt><trkpt lat="44.3358229" lon="8.3389471"><ele>408.5</ele><time>2026-04-23T13:17:03.152Z</time></trkpt><trkpt lat="44.3358229" lon="8.3388343"><ele>408.0</ele><time>2026-04-23T13:17:04.151Z</time></trkpt><trkpt lat="44.335789" lon="8.3387292"><ele>407.49999999999994</ele><time>2026-04-23T13:17:05.151Z</time></trkpt><trkpt lat="44.3357857" lon="8.3386309"><ele>407.0</ele><time>2026-04-23T13:17:06.152Z</time></trkpt><trkpt lat="44.3357764" lon="8.3384735"><ele>406.66666666666663</ele><time>2026-04-23T13:17:08.15Z</time></trkpt><trkpt lat="44.335777" lon="8.3383841"><ele>406.3333333333333</ele><time>2026-04-23T13:17:09.151Z</time></trkpt><trkpt lat="44.3357844" lon="8.3382923"><ele>406.0</ele><time>2026-04-23T13:17:10.151Z</time></trkpt><trkpt lat="44.3357852" lon="8.3382036"><ele>405.66666666666663</ele><time>2026-04-23T13:17:11.151Z</time></trkpt><trkpt lat="44.3357843" lon="8.3380557"><ele>405.3333333333333</ele><time>2026-04-23T13:17:13.151Z</time></trkpt><trkpt lat="44.3357815" lon="8.3378855"><ele>405.0</ele><time>2026-04-23T13:17:15.152Z</time></trkpt><trkpt lat="44.3357736" lon="8.3377148"><ele>405.0</ele><time>2026-04-23T13:17:17.151Z</time></trkpt><trkpt lat="44.335778" lon="8.337623"><ele>405.0</ele><time>2026-04-23T13:17:18.152Z</time></trkpt><trkpt lat="44.3357825" lon="8.3374706"><ele>405.0</ele><time>2026-04-23T13:17:20.152Z</time></trkpt><trkpt lat="44.3358078" lon="8.3373314"><ele>405.0</ele><time>2026-04-23T13:17:22.152Z</time></trkpt><trkpt lat="44.3358372" lon="8.3371973"><ele>405.0</ele><time>2026-04-23T13:17:24.151Z</time></trkpt><trkpt lat="44.3358599" lon="8.3370749"><ele>404.6</ele><time>2026-04-23T13:17:26.151Z</time></trkpt><trkpt lat="44.335893" lon="8.3369492"><ele>404.2</ele><time>2026-04-23T13:17:28.152Z</time></trkpt><trkpt lat="44.3359282" lon="8.336828"><ele>403.79999999999995</ele><time>2026-04-23T13:17:30.15Z</time></trkpt><trkpt lat="44.3359734" lon="8.336696"><ele>403.4</ele><time>2026-04-23T13:17:32.151Z</time></trkpt><trkpt lat="44.3360046" lon="8.336566"><ele>403.0</ele><time>2026-04-23T13:17:34.152Z</time></trkpt><trkpt lat="44.3360372" lon="8.3364349"><ele>402.2</ele><time>2026-04-23T13:17:36.151Z</time></trkpt><trkpt lat="44.3360685" lon="8.3363058"><ele>401.4</ele><time>2026-04-23T13:17:38.15Z</time></trkpt><trkpt lat="44.3360946" lon="8.3361762"><ele>400.59999999999997</ele><time>2026-04-23T13:17:40.15Z</time></trkpt><trkpt lat="44.3361279" lon="8.3360241"><ele>399.79999999999995</ele><time>2026-04-23T13:17:42.152Z</time></trkpt><trkpt lat="44.3361652" lon="8.3359016"><ele>399.0</ele><time>2026-04-23T13:17:44.152Z</time></trkpt><trkpt lat="44.3362015" lon="8.3357772"><ele>399.0</ele><time>2026-04-23T13:17:46.151Z</time></trkpt><trkpt lat="44.3362339" lon="8.3356571"><ele>399.0</ele><time>2026-04-23T13:17:48.153Z</time></trkpt><trkpt lat="44.3362637" lon="8.3355251"><ele>399.0</ele><time>2026-04-23T13:17:50.151Z</time></trkpt><trkpt lat="44.3362917" lon="8.3353892"><ele>399.0</ele><time>2026-04-23T13:17:52.153Z</time></trkpt><trkpt lat="44.3363275" lon="8.3352524"><ele>399.0</ele><time>2026-04-23T13:17:54.152Z</time></trkpt><trkpt lat="44.3363739" lon="8.3351161"><ele>400.2</ele><time>2026-04-23T13:17:56.152Z</time></trkpt><trkpt lat="44.3364019" lon="8.3349701"><ele>401.4</ele><time>2026-04-23T13:17:58.15Z</time></trkpt><trkpt lat="44.336446" lon="8.3348334"><ele>402.6</ele><time>2026-04-23T13:18:00.153Z</time></trkpt><trkpt lat="44.3364824" lon="8.334706"><ele>403.8</ele><time>2026-04-23T13:18:02.15Z</time></trkpt><trkpt lat="44.3365128" lon="8.3345783"><ele>405.0</ele><time>2026-04-23T13:18:04.151Z</time></trkpt><trkpt lat="44.3365396" lon="8.334447"><ele>405.0</ele><time>2026-04-23T13:18:06.153Z</time></trkpt><trkpt lat="44.3365671" lon="8.3343169"><ele>405.0</ele><time>2026-04-23T13:18:08.152Z</time></trkpt><trkpt lat="44.3365997" lon="8.334186"><ele>405.0</ele><time>2026-04-23T13:18:10.153Z</time></trkpt><trkpt lat="44.3366242" lon="8.3340564"><ele>405.0</ele><time>2026-04-23T13:18:12.152Z</time></trkpt><trkpt lat="44.3366552" lon="8.3339173"><ele>405.0</ele><time>2026-04-23T13:18:14.153Z</time></trkpt><trkpt lat="44.3366976" lon="8.3337793"><ele>404.2</ele><time>2026-04-23T13:18:16.152Z</time></trkpt><trkpt lat="44.336745" lon="8.3336411"><ele>403.4</ele><time>2026-04-23T13:18:18.152Z</time></trkpt><trkpt lat="44.3367807" lon="8.3334977"><ele>402.6</ele><time>2026-04-23T13:18:20.152Z</time></trkpt><trkpt lat="44.3368122" lon="8.3333454"><ele>401.8</ele><time>2026-04-23T13:18:22.152Z</time></trkpt><trkpt lat="44.3368553" lon="8.3332255"><ele>401.0</ele><time>2026-04-23T13:18:24.151Z</time></trkpt><trkpt lat="44.336887" lon="8.333085"><ele>400.5</ele><time>2026-04-23T13:18:26.153Z</time></trkpt><trkpt lat="44.3369316" lon="8.3329353"><ele>400.0</ele><time>2026-04-23T13:18:28.152Z</time></trkpt><trkpt lat="44.336945" lon="8.3327775"><ele>399.5</ele><time>2026-04-23T13:18:30.152Z</time></trkpt><trkpt lat="44.33697" lon="8.3326116"><ele>399.0</ele><time>2026-04-23T13:18:32.152Z</time></trkpt><trkpt lat="44.3369987" lon="8.3324501"><ele>399.0</ele><time>2026-04-23T13:18:34.151Z</time></trkpt><trkpt lat="44.3370105" lon="8.3323625"><ele>399.0</ele><time>2026-04-23T13:18:35.153Z</time></trkpt><trkpt lat="44.3370275" lon="8.3322668"><ele>399.0</ele><time>2026-04-23T13:18:36.153Z</time></trkpt><trkpt lat="44.3370371" lon="8.3321782"><ele>399.0</ele><time>2026-04-23T13:18:37.152Z</time></trkpt><trkpt lat="44.3370483" lon="8.3320882"><ele>399.0</ele><time>2026-04-23T13:18:38.151Z</time></trkpt><trkpt lat="44.3370661" lon="8.3319957"><ele>399.0</ele><time>2026-04-23T13:18:39.151Z</time></trkpt><trkpt lat="44.3370777" lon="8.3319076"><ele>399.0</ele><time>2026-04-23T13:18:40.152Z</time></trkpt><trkpt lat="44.3371031" lon="8.3318255"><ele>398.42857142857144</ele><time>2026-04-23T13:18:41.153Z</time></trkpt><trkpt lat="44.3371171" lon="8.331734"><ele>397.8571428571429</ele><time>2026-04-23T13:18:42.151Z</time></trkpt><trkpt lat="44.3371347" lon="8.3316337"><ele>397.2857142857143</ele><time>2026-04-23T13:18:43.152Z</time></trkpt><trkpt lat="44.3371431" lon="8.3315339"><ele>396.7142857142857</ele><time>2026-04-23T13:18:44.151Z</time></trkpt><trkpt lat="44.3371522" lon="8.3314287"><ele>396.14285714285717</ele><time>2026-04-23T13:18:45.153Z</time></trkpt><trkpt lat="44.3371616" lon="8.331325"><ele>395.57142857142856</ele><time>2026-04-23T13:18:46.15Z</time></trkpt><trkpt lat="44.3371763" lon="8.3312246"><ele>395.0</ele><time>2026-04-23T13:18:47.152Z</time></trkpt><trkpt lat="44.3371865" lon="8.3311239"><ele>394.66666666666663</ele><time>2026-04-23T13:18:48.153Z</time></trkpt><trkpt lat="44.3372034" lon="8.3310164"><ele>394.3333333333333</ele><time>2026-04-23T13:18:49.152Z</time></trkpt><trkpt lat="44.337222" lon="8.330915"><ele>394.0</ele><time>2026-04-23T13:18:50.151Z</time></trkpt><trkpt lat="44.3372386" lon="8.3308156"><ele>393.66666666666663</ele><time>2026-04-23T13:18:51.152Z</time></trkpt><trkpt lat="44.3372553" lon="8.3307152"><ele>393.3333333333333</ele><time>2026-04-23T13:18:52.153Z</time></trkpt><trkpt lat="44.3372736" lon="8.3306127"><ele>393.0</ele><time>2026-04-23T13:18:53.15Z</time></trkpt><trkpt lat="44.3372873" lon="8.3305036"><ele>393.0</ele><time>2026-04-23T13:18:54.152Z</time></trkpt><trkpt lat="44.3372961" lon="8.3304001"><ele>393.0</ele><time>2026-04-23T13:18:55.15Z</time></trkpt><trkpt lat="44.3373092" lon="8.3302936"><ele>393.0</ele><time>2026-04-23T13:18:56.152Z</time></trkpt><trkpt lat="44.337327" lon="8.3302009"><ele>393.0</ele><time>2026-04-23T13:18:57.151Z</time></trkpt><trkpt lat="44.3373405" lon="8.3300973"><ele>393.0</ele><time>2026-04-23T13:18:58.153Z</time></trkpt><trkpt lat="44.3373666" lon="8.330008"><ele>393.0</ele><time>2026-04-23T13:18:59.152Z</time></trkpt><trkpt lat="44.3374069" lon="8.3299023"><ele>393.0</ele><time>2026-04-23T13:19:00.152Z</time></trkpt><trkpt lat="44.3374417" lon="8.3298163"><ele>393.0</ele><time>2026-04-23T13:19:01.15Z</time></trkpt><trkpt lat="44.3375088" lon="8.3296748"><ele>393.0</ele><time>2026-04-23T13:19:03.153Z</time></trkpt><trkpt lat="44.3375528" lon="8.329488"><ele>393.0</ele><time>2026-04-23T13:19:05.151Z</time></trkpt><trkpt lat="44.3375944" lon="8.3294217"><ele>393.0</ele><time>2026-04-23T13:19:06.152Z</time></trkpt><trkpt lat="44.3376627" lon="8.329293"><ele>392.2</ele><time>2026-04-23T13:19:08.151Z</time></trkpt><trkpt lat="44.3377545" lon="8.3291976"><ele>391.4</ele><time>2026-04-23T13:19:10.151Z</time></trkpt><trkpt lat="44.3378204" lon="8.3290898"><ele>390.59999999999997</ele><time>2026-04-23T13:19:12.152Z</time></trkpt><trkpt lat="44.3378812" lon="8.3289617"><ele>389.79999999999995</ele><time>2026-04-23T13:19:14.15Z</time></trkpt><trkpt lat="44.3379559" lon="8.3288275"><ele>389.0</ele><time>2026-04-23T13:19:16.153Z</time></trkpt><trkpt lat="44.3380377" lon="8.3287039"><ele>388.75</ele><time>2026-04-23T13:19:18.152Z</time></trkpt><trkpt lat="44.338115" lon="8.3285892"><ele>388.5</ele><time>2026-04-23T13:19:20.152Z</time></trkpt><trkpt lat="44.3382026" lon="8.3284887"><ele>388.25</ele><time>2026-04-23T13:19:22.151Z</time></trkpt><trkpt lat="44.3382953" lon="8.3283844"><ele>388.0</ele><time>2026-04-23T13:19:24.151Z</time></trkpt><trkpt lat="44.3384072" lon="8.3282999"><ele>388.0</ele><time>2026-04-23T13:19:26.152Z</time></trkpt><trkpt lat="44.3384978" lon="8.3282086"><ele>388.0</ele><time>2026-04-23T13:19:28.151Z</time></trkpt><trkpt lat="44.3386028" lon="8.3281334"><ele>388.0</ele><time>2026-04-23T13:19:30.152Z</time></trkpt><trkpt lat="44.3386907" lon="8.3280248"><ele>388.0</ele><time>2026-04-23T13:19:32.151Z</time></trkpt><trkpt lat="44.3387816" lon="8.3279202"><ele>388.0</ele><time>2026-04-23T13:19:34.151Z</time></trkpt><trkpt lat="44.3388821" lon="8.3278421"><ele>388.0</ele><time>2026-04-23T13:19:36.151Z</time></trkpt><trkpt lat="44.3389384" lon="8.327796"><ele>388.0</ele><time>2026-04-23T13:19:37.152Z</time></trkpt><trkpt lat="44.3390372" lon="8.3277026"><ele>388.0</ele><time>2026-04-23T13:19:39.151Z</time></trkpt><trkpt lat="44.3391231" lon="8.3275937"><ele>388.0</ele><time>2026-04-23T13:19:41.152Z</time></trkpt><trkpt lat="44.3391729" lon="8.3275397"><ele>388.0</ele><time>2026-04-23T13:19:42.15Z</time></trkpt><trkpt lat="44.3392683" lon="8.3274476"><ele>388.0</ele><time>2026-04-23T13:19:44.151Z</time></trkpt><trkpt lat="44.3393458" lon="8.3273581"><ele>388.0</ele><time>2026-04-23T13:19:46.151Z</time></trkpt><trkpt lat="44.3394431" lon="8.3272851"><ele>388.0</ele><time>2026-04-23T13:19:48.153Z</time></trkpt><trkpt lat="44.33951" lon="8.3271788"><ele>388.0</ele><time>2026-04-23T13:19:50.151Z</time></trkpt><trkpt lat="44.3395972" lon="8.3270894"><ele>387.50000000000006</ele><time>2026-04-23T13:19:52.151Z</time></trkpt><trkpt lat="44.3396608" lon="8.3270494"><ele>387.0</ele><time>2026-04-23T13:19:53.152Z</time></trkpt><trkpt lat="44.3397284" lon="8.327"><ele>386.5</ele><time>2026-04-23T13:19:54.151Z</time></trkpt><trkpt lat="44.3397755" lon="8.3269388"><ele>386.0</ele><time>2026-04-23T13:19:55.151Z</time></trkpt><trkpt lat="44.339844" lon="8.3268867"><ele>385.50000000000006</ele><time>2026-04-23T13:19:56.152Z</time></trkpt><trkpt lat="44.3399095" lon="8.3268074"><ele>385.0</ele><time>2026-04-23T13:19:58.15Z</time></trkpt><trkpt lat="44.3399972" lon="8.3267334"><ele>385.0</ele><time>2026-04-23T13:20:00.151Z</time></trkpt><trkpt lat="44.3401092" lon="8.3266319"><ele>385.0</ele><time>2026-04-23T13:20:02.152Z</time></trkpt><trkpt lat="44.3401976" lon="8.3265425"><ele>385.0</ele><time>2026-04-23T13:20:04.151Z</time></trkpt><trkpt lat="44.3402691" lon="8.326455"><ele>385.0</ele><time>2026-04-23T13:20:06.151Z</time></trkpt><trkpt lat="44.3403206" lon="8.3264013"><ele>385.0</ele><time>2026-04-23T13:20:07.151Z</time></trkpt><trkpt lat="44.3403753" lon="8.3263514"><ele>384.6</ele><time>2026-04-23T13:20:08.151Z</time></trkpt><trkpt lat="44.3404613" lon="8.3262748"><ele>384.2</ele><time>2026-04-23T13:20:10.151Z</time></trkpt><trkpt lat="44.3405168" lon="8.3261745"><ele>383.79999999999995</ele><time>2026-04-23T13:20:12.15Z</time></trkpt><trkpt lat="44.3405058" lon="8.3260449"><ele>383.4</ele><time>2026-04-23T13:20:14.152Z</time></trkpt><trkpt lat="44.3404305" lon="8.3259574"><ele>383.0</ele><time>2026-04-23T13:20:16.152Z</time></trkpt><trkpt lat="44.3403349" lon="8.3258684"><ele>383.0</ele><time>2026-04-23T13:20:18.152Z</time></trkpt><trkpt lat="44.3402447" lon="8.3257997"><ele>383.0</ele><time>2026-04-23T13:20:20.15Z</time></trkpt><trkpt lat="44.3401617" lon="8.325726"><ele>383.0</ele><time>2026-04-23T13:20:22.151Z</time></trkpt><trkpt lat="44.3400675" lon="8.3257057"><ele>383.0</ele><time>2026-04-23T13:20:24.151Z</time></trkpt><trkpt lat="44.3399753" lon="8.32569"><ele>383.0</ele><time>2026-04-23T13:20:26.15Z</time></trkpt><trkpt lat="44.339902" lon="8.3256758"><ele>383.0</ele><time>2026-04-23T13:20:28.152Z</time></trkpt><trkpt lat="44.3398202" lon="8.3256249"><ele>383.0</ele><time>2026-04-23T13:20:31.151Z</time></trkpt><trkpt lat="44.3397772" lon="8.3255454"><ele>383.0</ele><time>2026-04-23T13:20:33.152Z</time></trkpt><trkpt lat="44.3397514" lon="8.3254468"><ele>383.0</ele><time>2026-04-23T13:20:35.151Z</time></trkpt><trkpt lat="44.3397297" lon="8.3253639"><ele>383.0</ele><time>2026-04-23T13:20:37.15Z</time></trkpt><trkpt lat="44.3396978" lon="8.3252768"><ele>383.0</ele><time>2026-04-23T13:20:39.153Z</time></trkpt><trkpt lat="44.339623" lon="8.3252218"><ele>383.0</ele><time>2026-04-23T13:20:41.151Z</time></trkpt><trkpt lat="44.3395392" lon="8.3252216"><ele>383.0</ele><time>2026-04-23T13:20:43.152Z</time></trkpt><trkpt lat="44.3394682" lon="8.3252676"><ele>383.0</ele><time>2026-04-23T13:20:45.151Z</time></trkpt><trkpt lat="44.3394067" lon="8.3253229"><ele>383.0</ele><time>2026-04-23T13:20:47.152Z</time></trkpt><trkpt lat="44.3393451" lon="8.3253888"><ele>383.0</ele><time>2026-04-23T13:20:49.152Z</time></trkpt><trkpt lat="44.3392873" lon="8.3254585"><ele>383.0</ele><time>2026-04-23T13:20:51.151Z</time></trkpt><trkpt lat="44.3392253" lon="8.3255199"><ele>383.2857142857143</ele><time>2026-04-23T13:20:53.152Z</time></trkpt><trkpt lat="44.3391648" lon="8.3255748"><ele>383.57142857142856</ele><time>2026-04-23T13:20:55.152Z</time></trkpt><trkpt lat="44.3391062" lon="8.3256363"><ele>383.8571428571429</ele><time>2026-04-23T13:20:57.151Z</time></trkpt><trkpt lat="44.3390492" lon="8.3257007"><ele>384.1428571428571</ele><time>2026-04-23T13:20:59.151Z</time></trkpt><trkpt lat="44.3389875" lon="8.3257654"><ele>384.42857142857144</ele><time>2026-04-23T13:21:01.151Z</time></trkpt><trkpt lat="44.3389268" lon="8.3258306"><ele>384.7142857142857</ele><time>2026-04-23T13:21:03.151Z</time></trkpt><trkpt lat="44.3388705" lon="8.3258919"><ele>385.0</ele><time>2026-04-23T13:21:05.151Z</time></trkpt><trkpt lat="44.3388162" lon="8.3259583"><ele>385.85714285714283</ele><time>2026-04-23T13:21:07.152Z</time></trkpt><trkpt lat="44.3387591" lon="8.3260129"><ele>386.7142857142857</ele><time>2026-04-23T13:21:09.152Z</time></trkpt><trkpt lat="44.3386679" lon="8.3260272"><ele>387.57142857142856</ele><time>2026-04-23T13:21:12.151Z</time></trkpt><trkpt lat="44.338607" lon="8.3259895"><ele>388.42857142857144</ele><time>2026-04-23T13:21:14.151Z</time></trkpt><trkpt lat="44.3385414" lon="8.3259806"><ele>389.2857142857143</ele><time>2026-04-23T13:21:16.152Z</time></trkpt><trkpt lat="44.3384616" lon="8.3259807"><ele>390.1428571428571</ele><time>2026-04-23T13:21:19.15Z</time></trkpt><trkpt lat="44.338418" lon="8.326049"><ele>391.0</ele><time>2026-04-23T13:21:22.151Z</time></trkpt><trkpt lat="44.33839" lon="8.3261656"><ele>391.00000000000006</ele><time>2026-04-23T13:21:25.15Z</time></trkpt><trkpt lat="44.3383693" lon="8.3262579"><ele>391.0</ele><time>2026-04-23T13:21:27.151Z</time></trkpt><trkpt lat="44.3383471" lon="8.3263558"><ele>391.0</ele><time>2026-04-23T13:21:29.15Z</time></trkpt><trkpt lat="44.3383197" lon="8.3264537"><ele>391.0</ele><time>2026-04-23T13:21:31.15Z</time></trkpt><trkpt lat="44.3382922" lon="8.3265585"><ele>391.00000000000006</ele><time>2026-04-23T13:21:33.152Z</time></trkpt><trkpt lat="44.3382499" lon="8.3266541"><ele>391.0</ele><time>2026-04-23T13:21:35.151Z</time></trkpt><trkpt lat="44.338178" lon="8.326739"><ele>391.00000000000006</ele><time>2026-04-23T13:21:37.15Z</time></trkpt><trkpt lat="44.3381005" lon="8.3268198"><ele>391.0</ele><time>2026-04-23T13:21:39.151Z</time></trkpt><trkpt lat="44.3380246" lon="8.3269117"><ele>391.0</ele><time>2026-04-23T13:21:41.15Z</time></trkpt><trkpt lat="44.3379607" lon="8.3270021"><ele>391.0</ele><time>2026-04-23T13:21:43.15Z</time></trkpt><trkpt lat="44.3379026" lon="8.3270443"><ele>391.00000000000006</ele><time>2026-04-23T13:21:45.152Z</time></trkpt><trkpt lat="44.3378288" lon="8.3270969"><ele>391.0</ele><time>2026-04-23T13:21:48.149Z</time></trkpt><trkpt lat="44.3377676" lon="8.3271785"><ele>392.20000000000005</ele><time>2026-04-23T13:21:50.15Z</time></trkpt><trkpt lat="44.3377211" lon="8.3272672"><ele>393.40000000000003</ele><time>2026-04-23T13:21:51.151Z</time></trkpt><trkpt lat="44.3377072" lon="8.3274095"><ele>394.6</ele><time>2026-04-23T13:21:53.149Z</time></trkpt><trkpt lat="44.3376423" lon="8.3275407"><ele>395.8</ele><time>2026-04-23T13:21:55.151Z</time></trkpt><trkpt lat="44.3375686" lon="8.3276214"><ele>397.0</ele><time>2026-04-23T13:21:57.15Z</time></trkpt><trkpt lat="44.3374793" lon="8.3276814"><ele>397.0</ele><time>2026-04-23T13:21:59.152Z</time></trkpt><trkpt lat="44.3373957" lon="8.3276951"><ele>397.0</ele><time>2026-04-23T13:22:01.152Z</time></trkpt><trkpt lat="44.3373021" lon="8.3277486"><ele>397.0</ele><time>2026-04-23T13:22:03.151Z</time></trkpt><trkpt lat="44.3372197" lon="8.3278209"><ele>397.0</ele><time>2026-04-23T13:22:05.152Z</time></trkpt><trkpt lat="44.3371367" lon="8.327906"><ele>397.0</ele><time>2026-04-23T13:22:07.151Z</time></trkpt><trkpt lat="44.3370565" lon="8.3279923"><ele>399.0</ele><time>2026-04-23T13:22:09.15Z</time></trkpt><trkpt lat="44.3369823" lon="8.3281156"><ele>401.0</ele><time>2026-04-23T13:22:11.151Z</time></trkpt><trkpt lat="44.336919" lon="8.3282374"><ele>403.0</ele><time>2026-04-23T13:22:13.149Z</time></trkpt><trkpt lat="44.3368506" lon="8.3283364"><ele>405.0</ele><time>2026-04-23T13:22:15.152Z</time></trkpt><trkpt lat="44.3368015" lon="8.3284387"><ele>407.0</ele><time>2026-04-23T13:22:17.151Z</time></trkpt><trkpt lat="44.3367662" lon="8.3285573"><ele>407.0</ele><time>2026-04-23T13:22:19.152Z</time></trkpt><trkpt lat="44.3367282" lon="8.3286925"><ele>407.0</ele><time>2026-04-23T13:22:21.152Z</time></trkpt><trkpt lat="44.3367214" lon="8.3288417"><ele>407.0</ele><time>2026-04-23T13:22:23.15Z</time></trkpt><trkpt lat="44.336719" lon="8.3289985"><ele>407.0</ele><time>2026-04-23T13:22:25.151Z</time></trkpt><trkpt lat="44.3366993" lon="8.3291313"><ele>407.0</ele><time>2026-04-23T13:22:27.151Z</time></trkpt><trkpt lat="44.3366685" lon="8.3292718"><ele>405.40000000000003</ele><time>2026-04-23T13:22:29.15Z</time></trkpt><trkpt lat="44.3366218" lon="8.3294117"><ele>403.8</ele><time>2026-04-23T13:22:31.151Z</time></trkpt><trkpt lat="44.3365704" lon="8.3295536"><ele>402.2</ele><time>2026-04-23T13:22:33.153Z</time></trkpt><trkpt lat="44.3365083" lon="8.3296756"><ele>400.6</ele><time>2026-04-23T13:22:35.15Z</time></trkpt><trkpt lat="44.3364537" lon="8.3297857"><ele>399.0</ele><time>2026-04-23T13:22:37.152Z</time></trkpt><trkpt lat="44.3363965" lon="8.3298889"><ele>402.0</ele><time>2026-04-23T13:22:39.15Z</time></trkpt><trkpt lat="44.3363343" lon="8.3299843"><ele>405.0</ele><time>2026-04-23T13:22:41.152Z</time></trkpt><trkpt lat="44.3362682" lon="8.3300751"><ele>408.0</ele><time>2026-04-23T13:22:43.151Z</time></trkpt><trkpt lat="44.3362039" lon="8.3301629"><ele>411.0</ele><time>2026-04-23T13:22:45.151Z</time></trkpt><trkpt lat="44.3361357" lon="8.3302445"><ele>414.0</ele><time>2026-04-23T13:22:47.151Z</time></trkpt><trkpt lat="44.3360715" lon="8.3303462"><ele>414.0</ele><time>2026-04-23T13:22:49.15Z</time></trkpt><trkpt lat="44.3360026" lon="8.3304457"><ele>414.0</ele><time>2026-04-23T13:22:51.152Z</time></trkpt><trkpt lat="44.3359234" lon="8.3305253"><ele>414.0</ele><time>2026-04-23T13:22:53.151Z</time></trkpt><trkpt lat="44.335836" lon="8.3305842"><ele>414.0</ele><time>2026-04-23T13:22:55.152Z</time></trkpt><trkpt lat="44.3357525" lon="8.330629"><ele>414.0</ele><time>2026-04-23T13:22:57.151Z</time></trkpt><trkpt lat="44.3356715" lon="8.3306983"><ele>415.0</ele><time>2026-04-23T13:22:59.152Z</time></trkpt><trkpt lat="44.3356079" lon="8.3307827"><ele>416.0</ele><time>2026-04-23T13:23:01.151Z</time></trkpt><trkpt lat="44.335555" lon="8.3308926"><ele>417.0</ele><time>2026-04-23T13:23:03.151Z</time></trkpt><trkpt lat="44.3355227" lon="8.3309768"><ele>418.0</ele><time>2026-04-23T13:23:05.15Z</time></trkpt><trkpt lat="44.3354866" lon="8.3310867"><ele>419.0</ele><time>2026-04-23T13:23:07.149Z</time></trkpt><trkpt lat="44.3354438" lon="8.3311934"><ele>420.0</ele><time>2026-04-23T13:23:09.15Z</time></trkpt><trkpt lat="44.3353919" lon="8.3313177"><ele>417.8333333333333</ele><time>2026-04-23T13:23:11.151Z</time></trkpt><trkpt lat="44.3353552" lon="8.3314035"><ele>415.66666666666663</ele><time>2026-04-23T13:23:13.151Z</time></trkpt><trkpt lat="44.3353218" lon="8.331527"><ele>413.5</ele><time>2026-04-23T13:23:15.15Z</time></trkpt><trkpt lat="44.3352971" lon="8.3316332"><ele>411.3333333333333</ele><time>2026-04-23T13:23:17.15Z</time></trkpt><trkpt lat="44.3352705" lon="8.3317528"><ele>409.16666666666663</ele><time>2026-04-23T13:23:19.152Z</time></trkpt><trkpt lat="44.3352481" lon="8.3318711"><ele>407.0</ele><time>2026-04-23T13:23:21.15Z</time></trkpt><trkpt lat="44.3352213" lon="8.3319944"><ele>406.99999999999994</ele><time>2026-04-23T13:23:23.152Z</time></trkpt><trkpt lat="44.3351953" lon="8.3320951"><ele>407.0</ele><time>2026-04-23T13:23:26.151Z</time></trkpt><trkpt lat="44.335135" lon="8.33214"><ele>407.0</ele><time>2026-04-23T13:23:29.152Z</time></trkpt><trkpt lat="44.3350542" lon="8.3321634"><ele>407.0</ele><time>2026-04-23T13:23:32.149Z</time></trkpt><trkpt lat="44.3349824" lon="8.3322018"><ele>406.99999999999994</ele><time>2026-04-23T13:23:37.151Z</time></trkpt><trkpt lat="44.3348975" lon="8.3322002"><ele>407.0</ele><time>2026-04-23T13:23:40.151Z</time></trkpt><trkpt lat="44.3348224" lon="8.3322333"><ele>406.8333333333333</ele><time>2026-04-23T13:23:43.151Z</time></trkpt><trkpt lat="44.3347412" lon="8.3322622"><ele>406.66666666666663</ele><time>2026-04-23T13:23:46.152Z</time></trkpt><trkpt lat="44.3346658" lon="8.3322692"><ele>406.5</ele><time>2026-04-23T13:23:49.151Z</time></trkpt><trkpt lat="44.3345917" lon="8.3322935"><ele>406.33333333333337</ele><time>2026-04-23T13:23:52.15Z</time></trkpt><trkpt lat="44.3345153" lon="8.332306"><ele>406.1666666666667</ele><time>2026-04-23T13:23:55.151Z</time></trkpt><trkpt lat="44.3344443" lon="8.3323448"><ele>406.0</ele><time>2026-04-23T13:23:58.15Z</time></trkpt><trkpt lat="44.3343726" lon="8.3323833"><ele>407.85714285714283</ele><time>2026-04-23T13:24:01.151Z</time></trkpt><trkpt lat="44.3343057" lon="8.3324192"><ele>409.7142857142857</ele><time>2026-04-23T13:24:04.149Z</time></trkpt><trkpt lat="44.3342375" lon="8.3324512"><ele>411.57142857142856</ele><time>2026-04-23T13:24:07.15Z</time></trkpt><trkpt lat="44.3341657" lon="8.3324819"><ele>413.42857142857144</ele><time>2026-04-23T13:24:10.152Z</time></trkpt><trkpt lat="44.3340908" lon="8.3325024"><ele>415.2857142857143</ele><time>2026-04-23T13:24:13.152Z</time></trkpt><trkpt lat="44.3340148" lon="8.3325174"><ele>417.1428571428571</ele><time>2026-04-23T13:24:16.151Z</time></trkpt><trkpt lat="44.3339435" lon="8.3325275"><ele>419.0</ele><time>2026-04-23T13:24:19.152Z</time></trkpt><trkpt lat="44.3338738" lon="8.3325481"><ele>421.4285714285714</ele><time>2026-04-23T13:24:22.152Z</time></trkpt><trkpt lat="44.3338096" lon="8.3325789"><ele>423.85714285714283</ele><time>2026-04-23T13:24:25.151Z</time></trkpt><trkpt lat="44.333745" lon="8.3325995"><ele>426.2857142857143</ele><time>2026-04-23T13:24:28.151Z</time></trkpt><trkpt lat="44.3336735" lon="8.3326191"><ele>428.71428571428567</ele><time>2026-04-23T13:24:31.15Z</time></trkpt><trkpt lat="44.3336048" lon="8.3326625"><ele>431.14285714285717</ele><time>2026-04-23T13:24:34.15Z</time></trkpt><trkpt lat="44.3335404" lon="8.3327147"><ele>433.57142857142856</ele><time>2026-04-23T13:24:37.15Z</time></trkpt><trkpt lat="44.3334743" lon="8.3327613"><ele>436.0</ele><time>2026-04-23T13:24:40.152Z</time></trkpt><trkpt lat="44.3334119" lon="8.3328123"><ele>436.0</ele><time>2026-04-23T13:24:43.15Z</time></trkpt><trkpt lat="44.3333439" lon="8.3328505"><ele>436.0</ele><time>2026-04-23T13:24:46.152Z</time></trkpt><trkpt lat="44.3332762" lon="8.3328901"><ele>436.0</ele><time>2026-04-23T13:24:49.151Z</time></trkpt><trkpt lat="44.3332097" lon="8.3329225"><ele>436.0</ele><time>2026-04-23T13:24:52.151Z</time></trkpt><trkpt lat="44.3331434" lon="8.3329444"><ele>436.0</ele><time>2026-04-23T13:24:55.15Z</time></trkpt><trkpt lat="44.3330723" lon="8.3329495"><ele>436.0</ele><time>2026-04-23T13:24:58.152Z</time></trkpt><trkpt lat="44.3330012" lon="8.3329575"><ele>436.0</ele><time>2026-04-23T13:25:01.151Z</time></trkpt><trkpt lat="44.3329288" lon="8.3329726"><ele>435.14285714285717</ele><time>2026-04-23T13:25:04.15Z</time></trkpt><trkpt lat="44.3328549" lon="8.3329753"><ele>434.28571428571433</ele><time>2026-04-23T13:25:07.151Z</time></trkpt><trkpt lat="44.3327802" lon="8.332954"><ele>433.42857142857144</ele><time>2026-04-23T13:25:10.15Z</time></trkpt><trkpt lat="44.3327103" lon="8.3329253"><ele>432.57142857142856</ele><time>2026-04-23T13:25:13.151Z</time></trkpt><trkpt lat="44.3326522" lon="8.3328873"><ele>431.7142857142857</ele><time>2026-04-23T13:25:16.149Z</time></trkpt><trkpt lat="44.3325921" lon="8.3328408"><ele>430.85714285714283</ele><time>2026-04-23T13:25:19.15Z</time></trkpt><trkpt lat="44.3325178" lon="8.3327932"><ele>430.0</ele><time>2026-04-23T13:25:22.15Z</time></trkpt><trkpt lat="44.3324464" lon="8.3327542"><ele>430.00000000000006</ele><time>2026-04-23T13:25:25.151Z</time></trkpt><trkpt lat="44.3323501" lon="8.3327557"><ele>430.0</ele><time>2026-04-23T13:25:28.152Z</time></trkpt><trkpt lat="44.3322865" lon="8.3327723"><ele>430.0</ele><time>2026-04-23T13:25:30.151Z</time></trkpt><trkpt lat="44.3322172" lon="8.3328307"><ele>430.0</ele><time>2026-04-23T13:25:33.151Z</time></trkpt><trkpt lat="44.332163" lon="8.332922"><ele>430.00000000000006</ele><time>2026-04-23T13:25:36.15Z</time></trkpt><trkpt lat="44.3321068" lon="8.3330305"><ele>430.0</ele><time>2026-04-23T13:25:39.149Z</time></trkpt><trkpt lat="44.3320653" lon="8.3331023"><ele>427.6666666666667</ele><time>2026-04-23T13:25:41.15Z</time></trkpt><trkpt lat="44.3320237" lon="8.3331756"><ele>425.33333333333337</ele><time>2026-04-23T13:25:43.149Z</time></trkpt><trkpt lat="44.3319672" lon="8.3332553"><ele>423.0</ele><time>2026-04-23T13:25:45.151Z</time></trkpt><trkpt lat="44.331897" lon="8.3333488"><ele>420.66666666666663</ele><time>2026-04-23T13:25:47.152Z</time></trkpt><trkpt lat="44.3318243" lon="8.3334137"><ele>418.3333333333333</ele><time>2026-04-23T13:25:49.151Z</time></trkpt><trkpt lat="44.3317546" lon="8.333523"><ele>416.0</ele><time>2026-04-23T13:25:51.15Z</time></trkpt><trkpt lat="44.3317125" lon="8.3335911"><ele>415.99999999999994</ele><time>2026-04-23T13:25:52.15Z</time></trkpt><trkpt lat="44.3316678" lon="8.3336572"><ele>416.0</ele><time>2026-04-23T13:25:53.151Z</time></trkpt><trkpt lat="44.3315719" lon="8.3337975"><ele>416.0</ele><time>2026-04-23T13:25:55.15Z</time></trkpt><trkpt lat="44.331518" lon="8.3338639"><ele>416.0</ele><time>2026-04-23T13:25:56.149Z</time></trkpt><trkpt lat="44.3314663" lon="8.3339295"><ele>415.99999999999994</ele><time>2026-04-23T13:25:57.15Z</time></trkpt><trkpt lat="44.3314078" lon="8.3340066"><ele>416.0</ele><time>2026-04-23T13:25:58.15Z</time></trkpt><trkpt lat="44.3313835" lon="8.3340981"><ele>415.16666666666663</ele><time>2026-04-23T13:25:59.15Z</time></trkpt><trkpt lat="44.3313304" lon="8.3341693"><ele>414.3333333333333</ele><time>2026-04-23T13:26:00.15Z</time></trkpt><trkpt lat="44.3312778" lon="8.3342506"><ele>413.5</ele><time>2026-04-23T13:26:01.151Z</time></trkpt><trkpt lat="44.3312294" lon="8.3343446"><ele>412.66666666666663</ele><time>2026-04-23T13:26:02.15Z</time></trkpt><trkpt lat="44.3311557" lon="8.3343943"><ele>411.8333333333333</ele><time>2026-04-23T13:26:03.151Z</time></trkpt><trkpt lat="44.3310833" lon="8.3344569"><ele>411.0</ele><time>2026-04-23T13:26:04.149Z</time></trkpt><trkpt lat="44.3310211" lon="8.3345291"><ele>411.0</ele><time>2026-04-23T13:26:05.149Z</time></trkpt><trkpt lat="44.3309601" lon="8.3345994"><ele>411.0</ele><time>2026-04-23T13:26:06.151Z</time></trkpt><trkpt lat="44.3308872" lon="8.3346706"><ele>411.0</ele><time>2026-04-23T13:26:07.15Z</time></trkpt><trkpt lat="44.3308051" lon="8.334745"><ele>411.0</ele><time>2026-04-23T13:26:08.15Z</time></trkpt><trkpt lat="44.3307326" lon="8.3348302"><ele>411.0</ele><time>2026-04-23T13:26:09.151Z</time></trkpt><trkpt lat="44.3306644" lon="8.3348961"><ele>411.0</ele><time>2026-04-23T13:26:10.151Z</time></trkpt><trkpt lat="44.3305818" lon="8.3349566"><ele>411.8</ele><time>2026-04-23T13:26:11.15Z</time></trkpt><trkpt lat="44.3304938" lon="8.3350125"><ele>412.6</ele><time>2026-04-23T13:26:12.151Z</time></trkpt><trkpt lat="44.3304039" lon="8.3350514"><ele>413.4</ele><time>2026-04-23T13:26:13.15Z</time></trkpt><trkpt lat="44.3303198" lon="8.3350796"><ele>414.2</ele><time>2026-04-23T13:26:14.15Z</time></trkpt><trkpt lat="44.3302265" lon="8.3351442"><ele>415.0</ele><time>2026-04-23T13:26:15.151Z</time></trkpt><trkpt lat="44.3301082" lon="8.3351831"><ele>415.0</ele><time>2026-04-23T13:26:16.15Z</time></trkpt><trkpt lat="44.3299997" lon="8.3351817"><ele>415.0</ele><time>2026-04-23T13:26:17.151Z</time></trkpt><trkpt lat="44.3299004" lon="8.3352311"><ele>415.0</ele><time>2026-04-23T13:26:18.151Z</time></trkpt><trkpt lat="44.3298063" lon="8.3352718"><ele>415.0</ele><time>2026-04-23T13:26:19.151Z</time></trkpt><trkpt lat="44.3297027" lon="8.3353179"><ele>415.0</ele><time>2026-04-23T13:26:20.15Z</time></trkpt><trkpt lat="44.3296012" lon="8.3353554"><ele>413.2</ele><time>2026-04-23T13:26:21.151Z</time></trkpt><trkpt lat="44.3295117" lon="8.3353699"><ele>411.4</ele><time>2026-04-23T13:26:22.15Z</time></trkpt><trkpt lat="44.3294013" lon="8.3354077"><ele>409.6</ele><time>2026-04-23T13:26:23.151Z</time></trkpt><trkpt lat="44.3292867" lon="8.3354196"><ele>407.8</ele><time>2026-04-23T13:26:24.151Z</time></trkpt><trkpt lat="44.3291785" lon="8.3353972"><ele>406.0</ele><time>2026-04-23T13:26:25.15Z</time></trkpt><trkpt lat="44.3290849" lon="8.3353483"><ele>406.0</ele><time>2026-04-23T13:26:26.15Z</time></trkpt><trkpt lat="44.3289893" lon="8.3353015"><ele>406.0</ele><time>2026-04-23T13:26:27.151Z</time></trkpt><trkpt lat="44.328909" lon="8.3352494"><ele>406.0</ele><time>2026-04-23T13:26:28.151Z</time></trkpt><trkpt lat="44.3288247" lon="8.3351959"><ele>406.0</ele><time>2026-04-23T13:26:29.15Z</time></trkpt><trkpt lat="44.3287411" lon="8.3351402"><ele>406.0</ele><time>2026-04-23T13:26:30.15Z</time></trkpt><trkpt lat="44.3286451" lon="8.3350867"><ele>406.33333333333337</ele><time>2026-04-23T13:26:31.151Z</time></trkpt><trkpt lat="44.3285619" lon="8.3350366"><ele>406.6666666666667</ele><time>2026-04-23T13:26:32.15Z</time></trkpt><trkpt lat="44.3284823" lon="8.3349852"><ele>407.0</ele><time>2026-04-23T13:26:33.151Z</time></trkpt><trkpt lat="44.3284058" lon="8.3349469"><ele>407.33333333333337</ele><time>2026-04-23T13:26:34.15Z</time></trkpt><trkpt lat="44.3283254" lon="8.3348936"><ele>407.6666666666667</ele><time>2026-04-23T13:26:35.151Z</time></trkpt><trkpt lat="44.3282495" lon="8.3348454"><ele>408.0</ele><time>2026-04-23T13:26:36.15Z</time></trkpt><trkpt lat="44.3281736" lon="8.3348023"><ele>408.0</ele><time>2026-04-23T13:26:37.149Z</time></trkpt><trkpt lat="44.3280961" lon="8.3347609"><ele>408.0</ele><time>2026-04-23T13:26:38.151Z</time></trkpt><trkpt lat="44.32802" lon="8.3347113"><ele>408.0</ele><time>2026-04-23T13:26:39.149Z</time></trkpt><trkpt lat="44.3279518" lon="8.3346572"><ele>408.0</ele><time>2026-04-23T13:26:40.149Z</time></trkpt><trkpt lat="44.3278871" lon="8.3346176"><ele>408.0</ele><time>2026-04-23T13:26:41.15Z</time></trkpt><trkpt lat="44.327818" lon="8.3345758"><ele>408.0</ele><time>2026-04-23T13:26:42.151Z</time></trkpt><trkpt lat="44.327749" lon="8.33453"><ele>407.8571428571429</ele><time>2026-04-23T13:26:43.151Z</time></trkpt><trkpt lat="44.3276914" lon="8.3344742"><ele>407.7142857142857</ele><time>2026-04-23T13:26:44.15Z</time></trkpt><trkpt lat="44.3276425" lon="8.3344073"><ele>407.57142857142856</ele><time>2026-04-23T13:26:45.149Z</time></trkpt><trkpt lat="44.3275839" lon="8.3343352"><ele>407.42857142857144</ele><time>2026-04-23T13:26:46.151Z</time></trkpt><trkpt lat="44.3275422" lon="8.3342562"><ele>407.2857142857143</ele><time>2026-04-23T13:26:47.149Z</time></trkpt><trkpt lat="44.3275079" lon="8.3341589"><ele>407.14285714285717</ele><time>2026-04-23T13:26:48.15Z</time></trkpt><trkpt lat="44.3274749" lon="8.3340648"><ele>407.0</ele><time>2026-04-23T13:26:49.149Z</time></trkpt><trkpt lat="44.3274533" lon="8.3339792"><ele>405.66666666666663</ele><time>2026-04-23T13:26:50.15Z</time></trkpt><trkpt lat="44.3274421" lon="8.3338742"><ele>404.3333333333333</ele><time>2026-04-23T13:26:51.149Z</time></trkpt><trkpt lat="44.32743" lon="8.3337281"><ele>403.0</ele><time>2026-04-23T13:26:53.15Z</time></trkpt><trkpt lat="44.3274373" lon="8.3336122"><ele>401.66666666666663</ele><time>2026-04-23T13:26:54.15Z</time></trkpt><trkpt lat="44.3274378" lon="8.3335195"><ele>400.3333333333333</ele><time>2026-04-23T13:26:55.15Z</time></trkpt><trkpt lat="44.3274178" lon="8.3334224"><ele>399.0</ele><time>2026-04-23T13:26:56.151Z</time></trkpt><trkpt lat="44.3274028" lon="8.333258"><ele>399.0</ele><time>2026-04-23T13:26:58.149Z</time></trkpt><trkpt lat="44.3274001" lon="8.3331587"><ele>399.0</ele><time>2026-04-23T13:26:59.149Z</time></trkpt><trkpt lat="44.3274015" lon="8.3330622"><ele>399.0</ele><time>2026-04-23T13:27:00.151Z</time></trkpt><trkpt lat="44.3273966" lon="8.3329705"><ele>399.0</ele><time>2026-04-23T13:27:01.149Z</time></trkpt><trkpt lat="44.3273717" lon="8.3328299"><ele>399.0</ele><time>2026-04-23T13:27:03.151Z</time></trkpt><trkpt lat="44.3273249" lon="8.3326818"><ele>399.0</ele><time>2026-04-23T13:27:05.151Z</time></trkpt><trkpt lat="44.3272842" lon="8.3325357"><ele>398.6666666666667</ele><time>2026-04-23T13:27:07.149Z</time></trkpt><trkpt lat="44.3272717" lon="8.3324481"><ele>398.33333333333337</ele><time>2026-04-23T13:27:08.15Z</time></trkpt><trkpt lat="44.3272518" lon="8.3323635"><ele>398.0</ele><time>2026-04-23T13:27:09.151Z</time></trkpt><trkpt lat="44.3272368" lon="8.3322769"><ele>397.6666666666667</ele><time>2026-04-23T13:27:10.15Z</time></trkpt><trkpt lat="44.3272171" lon="8.3321859"><ele>397.33333333333337</ele><time>2026-04-23T13:27:11.15Z</time></trkpt><trkpt lat="44.3271833" lon="8.3320183"><ele>397.0</ele><time>2026-04-23T13:27:13.149Z</time></trkpt><trkpt lat="44.3271401" lon="8.3318663"><ele>398.0</ele><time>2026-04-23T13:27:15.15Z</time></trkpt><trkpt lat="44.3270932" lon="8.3317169"><ele>399.0</ele><time>2026-04-23T13:27:17.15Z</time></trkpt><trkpt lat="44.3270519" lon="8.3315624"><ele>400.0</ele><time>2026-04-23T13:27:19.15Z</time></trkpt><trkpt lat="44.3270051" lon="8.3314207"><ele>401.0</ele><time>2026-04-23T13:27:21.149Z</time></trkpt><trkpt lat="44.3269528" lon="8.3312737"><ele>401.0</ele><time>2026-04-23T13:27:23.149Z</time></trkpt><trkpt lat="44.3269018" lon="8.3311246"><ele>401.0</ele><time>2026-04-23T13:27:25.151Z</time></trkpt><trkpt lat="44.3268404" lon="8.3309769"><ele>401.0</ele><time>2026-04-23T13:27:27.151Z</time></trkpt><trkpt lat="44.3267808" lon="8.3308451"><ele>401.0</ele><time>2026-04-23T13:27:29.151Z</time></trkpt><trkpt lat="44.3267355" lon="8.330704"><ele>401.0</ele><time>2026-04-23T13:27:31.149Z</time></trkpt><trkpt lat="44.3266791" lon="8.3305674"><ele>401.0</ele><time>2026-04-23T13:27:33.15Z</time></trkpt><trkpt lat="44.3266262" lon="8.3304227"><ele>401.0</ele><time>2026-04-23T13:27:35.15Z</time></trkpt><trkpt lat="44.3265764" lon="8.3302793"><ele>401.0</ele><time>2026-04-23T13:27:37.151Z</time></trkpt><trkpt lat="44.3265327" lon="8.3301424"><ele>400.4</ele><time>2026-04-23T13:27:39.149Z</time></trkpt><trkpt lat="44.3265071" lon="8.329997"><ele>399.8</ele><time>2026-04-23T13:27:41.151Z</time></trkpt><trkpt lat="44.3264717" lon="8.3298466"><ele>399.2</ele><time>2026-04-23T13:27:43.15Z</time></trkpt><trkpt lat="44.3264397" lon="8.3296894"><ele>398.59999999999997</ele><time>2026-04-23T13:27:45.151Z</time></trkpt><trkpt lat="44.3264063" lon="8.3295425"><ele>398.0</ele><time>2026-04-23T13:27:47.15Z</time></trkpt><trkpt lat="44.326385" lon="8.3293871"><ele>399.79999999999995</ele><time>2026-04-23T13:27:49.15Z</time></trkpt><trkpt lat="44.3263673" lon="8.3292304"><ele>401.6</ele><time>2026-04-23T13:27:51.15Z</time></trkpt><trkpt lat="44.3263462" lon="8.3290854"><ele>403.4</ele><time>2026-04-23T13:27:53.151Z</time></trkpt><trkpt lat="44.3263436" lon="8.3289407"><ele>405.20000000000005</ele><time>2026-04-23T13:27:55.15Z</time></trkpt><trkpt lat="44.3263502" lon="8.3288142"><ele>407.0</ele><time>2026-04-23T13:27:57.15Z</time></trkpt><trkpt lat="44.3263495" lon="8.3286628"><ele>406.8</ele><time>2026-04-23T13:27:59.151Z</time></trkpt><trkpt lat="44.3263431" lon="8.3285227"><ele>406.6</ele><time>2026-04-23T13:28:01.15Z</time></trkpt><trkpt lat="44.3263317" lon="8.3283714"><ele>406.40000000000003</ele><time>2026-04-23T13:28:03.15Z</time></trkpt><trkpt lat="44.3263284" lon="8.3282058"><ele>406.20000000000005</ele><time>2026-04-23T13:28:05.149Z</time></trkpt><trkpt lat="44.3263199" lon="8.3280609"><ele>406.0</ele><time>2026-04-23T13:28:07.149Z</time></trkpt><trkpt lat="44.3263018" lon="8.3279124"><ele>406.0</ele><time>2026-04-23T13:28:09.15Z</time></trkpt><trkpt lat="44.3262616" lon="8.3277903"><ele>406.0</ele><time>2026-04-23T13:28:11.15Z</time></trkpt><trkpt lat="44.3261942" lon="8.3276744"><ele>406.0</ele><time>2026-04-23T13:28:13.151Z</time></trkpt><trkpt lat="44.3261014" lon="8.3275761"><ele>406.0</ele><time>2026-04-23T13:28:15.15Z</time></trkpt><trkpt lat="44.326006" lon="8.3274797"><ele>406.0</ele><time>2026-04-23T13:28:17.15Z</time></trkpt><trkpt lat="44.3259508" lon="8.3274277"><ele>406.00000000000006</ele><time>2026-04-23T13:28:18.148Z</time></trkpt><trkpt lat="44.3258957" lon="8.3273821"><ele>406.0</ele><time>2026-04-23T13:28:19.149Z</time></trkpt><trkpt lat="44.325788" lon="8.3273208"><ele>406.0</ele><time>2026-04-23T13:28:21.149Z</time></trkpt><trkpt lat="44.3257286" lon="8.3272881"><ele>406.0</ele><time>2026-04-23T13:28:22.15Z</time></trkpt><trkpt lat="44.32563" lon="8.3272195"><ele>406.00000000000006</ele><time>2026-04-23T13:28:24.149Z</time></trkpt><trkpt lat="44.325564" lon="8.3272052"><ele>406.0</ele><time>2026-04-23T13:28:25.149Z</time></trkpt><trkpt lat="44.3254695" lon="8.3271711"><ele>406.8</ele><time>2026-04-23T13:28:27.149Z</time></trkpt><trkpt lat="44.3253753" lon="8.3271463"><ele>407.6</ele><time>2026-04-23T13:28:29.15Z</time></trkpt><trkpt lat="44.3252839" lon="8.327141"><ele>408.4</ele><time>2026-04-23T13:28:31.151Z</time></trkpt><trkpt lat="44.3251926" lon="8.3271398"><ele>409.2</ele><time>2026-04-23T13:28:34.149Z</time></trkpt><trkpt lat="44.3251037" lon="8.3271329"><ele>410.0</ele><time>2026-04-23T13:28:36.15Z</time></trkpt><trkpt lat="44.3250115" lon="8.3271325"><ele>409.99999999999994</ele><time>2026-04-23T13:28:38.15Z</time></trkpt><trkpt lat="44.324946" lon="8.3271162"><ele>410.0</ele><time>2026-04-23T13:28:39.151Z</time></trkpt><trkpt lat="44.3248523" lon="8.3271022"><ele>410.0</ele><time>2026-04-23T13:28:41.151Z</time></trkpt><trkpt lat="44.3247893" lon="8.3270568"><ele>410.0</ele><time>2026-04-23T13:28:42.149Z</time></trkpt><trkpt lat="44.3247015" lon="8.3270586"><ele>409.99999999999994</ele><time>2026-04-23T13:28:44.15Z</time></trkpt><trkpt lat="44.3246026" lon="8.3270226"><ele>410.0</ele><time>2026-04-23T13:28:46.15Z</time></trkpt><trkpt lat="44.3245066" lon="8.3269838"><ele>412.6</ele><time>2026-04-23T13:28:48.151Z</time></trkpt><trkpt lat="44.3243914" lon="8.3269663"><ele>415.2</ele><time>2026-04-23T13:28:50.149Z</time></trkpt><trkpt lat="44.3243273" lon="8.3268871"><ele>417.79999999999995</ele><time>2026-04-23T13:28:52.151Z</time></trkpt><trkpt lat="44.3242677" lon="8.3268009"><ele>420.4</ele><time>2026-04-23T13:28:54.15Z</time></trkpt><trkpt lat="44.3241928" lon="8.32671"><ele>423.0</ele><time>2026-04-23T13:28:56.15Z</time></trkpt><trkpt lat="44.324148" lon="8.3265993"><ele>423.0</ele><time>2026-04-23T13:28:58.149Z</time></trkpt><trkpt lat="44.3241116" lon="8.3264715"><ele>423.0</ele><time>2026-04-23T13:29:00.149Z</time></trkpt><trkpt lat="44.3240804" lon="8.3263414"><ele>423.0</ele><time>2026-04-23T13:29:02.15Z</time></trkpt><trkpt lat="44.32406" lon="8.3262515"><ele>423.0</ele><time>2026-04-23T13:29:03.15Z</time></trkpt><trkpt lat="44.324055" lon="8.3261238"><ele>423.0</ele><time>2026-04-23T13:29:05.149Z</time></trkpt><trkpt lat="44.3240427" lon="8.3259841"><ele>420.8333333333333</ele><time>2026-04-23T13:29:07.15Z</time></trkpt><trkpt lat="44.3240183" lon="8.3258508"><ele>418.66666666666663</ele><time>2026-04-23T13:29:09.15Z</time></trkpt><trkpt lat="44.3239913" lon="8.3257106"><ele>416.5</ele><time>2026-04-23T13:29:11.148Z</time></trkpt><trkpt lat="44.3239743" lon="8.3256093"><ele>414.3333333333333</ele><time>2026-04-23T13:29:13.151Z</time></trkpt><trkpt lat="44.3239665" lon="8.3255102"><ele>412.16666666666663</ele><time>2026-04-23T13:29:15.15Z</time></trkpt><trkpt lat="44.323946" lon="8.3253917"><ele>410.0</ele><time>2026-04-23T13:29:17.151Z</time></trkpt><trkpt lat="44.3239331" lon="8.3252775"><ele>410.2</ele><time>2026-04-23T13:29:19.151Z</time></trkpt><trkpt lat="44.3239181" lon="8.3251545"><ele>410.4</ele><time>2026-04-23T13:29:21.15Z</time></trkpt><trkpt lat="44.3238878" lon="8.3250295"><ele>410.6</ele><time>2026-04-23T13:29:23.15Z</time></trkpt><trkpt lat="44.3238667" lon="8.3248916"><ele>410.8</ele><time>2026-04-23T13:29:25.15Z</time></trkpt><trkpt lat="44.3238533" lon="8.3247597"><ele>411.0</ele><time>2026-04-23T13:29:27.149Z</time></trkpt><trkpt lat="44.3238404" lon="8.3246236"><ele>411.0</ele><time>2026-04-23T13:29:29.15Z</time></trkpt><trkpt lat="44.3238218" lon="8.3244882"><ele>411.0</ele><time>2026-04-23T13:29:31.148Z</time></trkpt><trkpt lat="44.3238006" lon="8.3243721"><ele>411.0</ele><time>2026-04-23T13:29:33.15Z</time></trkpt><trkpt lat="44.3237568" lon="8.3242457"><ele>411.0</ele><time>2026-04-23T13:29:35.15Z</time></trkpt><trkpt lat="44.3236984" lon="8.3241444"><ele>411.0</ele><time>2026-04-23T13:29:37.148Z</time></trkpt><trkpt lat="44.3236393" lon="8.3240519"><ele>411.0</ele><time>2026-04-23T13:29:39.148Z</time></trkpt><trkpt lat="44.3235797" lon="8.3239852"><ele>411.0</ele><time>2026-04-23T13:29:41.15Z</time></trkpt><trkpt lat="44.323489" lon="8.3239287"><ele>411.0</ele><time>2026-04-23T13:29:43.15Z</time></trkpt><trkpt lat="44.3234084" lon="8.323906"><ele>411.0</ele><time>2026-04-23T13:29:45.149Z</time></trkpt><trkpt lat="44.3233255" lon="8.3239021"><ele>411.0</ele><time>2026-04-23T13:29:47.151Z</time></trkpt><trkpt lat="44.3232423" lon="8.3239533"><ele>411.0</ele><time>2026-04-23T13:29:49.15Z</time></trkpt><trkpt lat="44.3231737" lon="8.3239828"><ele>411.0</ele><time>2026-04-23T13:29:51.15Z</time></trkpt><trkpt lat="44.3231002" lon="8.3240605"><ele>411.0</ele><time>2026-04-23T13:29:53.15Z</time></trkpt><trkpt lat="44.3230026" lon="8.3241484"><ele>411.0</ele><time>2026-04-23T13:29:55.149Z</time></trkpt><trkpt lat="44.322932" lon="8.3242378"><ele>411.0</ele><time>2026-04-23T13:29:57.149Z</time></trkpt><trkpt lat="44.3228564" lon="8.3243328"><ele>411.0</ele><time>2026-04-23T13:29:59.15Z</time></trkpt><trkpt lat="44.3227955" lon="8.3244211"><ele>411.0</ele><time>2026-04-23T13:30:01.15Z</time></trkpt><trkpt lat="44.3227102" lon="8.3245027"><ele>411.0</ele><time>2026-04-23T13:30:03.149Z</time></trkpt><trkpt lat="44.3226511" lon="8.3245673"><ele>411.0</ele><time>2026-04-23T13:30:05.149Z</time></trkpt><trkpt lat="44.3225721" lon="8.3245994"><ele>411.0</ele><time>2026-04-23T13:30:07.151Z</time></trkpt><trkpt lat="44.3224897" lon="8.3246246"><ele>411.0</ele><time>2026-04-23T13:30:09.15Z</time></trkpt><trkpt lat="44.3224007" lon="8.3246211"><ele>411.0</ele><time>2026-04-23T13:30:11.151Z</time></trkpt><trkpt lat="44.3223029" lon="8.3245806"><ele>410.6</ele><time>2026-04-23T13:30:13.15Z</time></trkpt><trkpt lat="44.3222088" lon="8.3245058"><ele>410.20000000000005</ele><time>2026-04-23T13:30:15.15Z</time></trkpt><trkpt lat="44.3221455" lon="8.3244255"><ele>409.79999999999995</ele><time>2026-04-23T13:30:17.15Z</time></trkpt><trkpt lat="44.3220813" lon="8.324327"><ele>409.4</ele><time>2026-04-23T13:30:19.15Z</time></trkpt><trkpt lat="44.3220421" lon="8.324218"><ele>409.0</ele><time>2026-04-23T13:30:21.148Z</time></trkpt><trkpt lat="44.3219753" lon="8.32413"><ele>409.0</ele><time>2026-04-23T13:30:23.15Z</time></trkpt><trkpt lat="44.3219161" lon="8.3240307"><ele>409.0</ele><time>2026-04-23T13:30:25.151Z</time></trkpt><trkpt lat="44.3218378" lon="8.3239525"><ele>409.0</ele><time>2026-04-23T13:30:27.15Z</time></trkpt><trkpt lat="44.3217589" lon="8.3238924"><ele>409.0</ele><time>2026-04-23T13:30:29.15Z</time></trkpt><trkpt lat="44.3216794" lon="8.3238372"><ele>409.0</ele><time>2026-04-23T13:30:31.151Z</time></trkpt><trkpt lat="44.3215874" lon="8.3237877"><ele>409.0</ele><time>2026-04-23T13:30:33.149Z</time></trkpt><trkpt lat="44.3214975" lon="8.3237523"><ele>409.0</ele><time>2026-04-23T13:30:35.151Z</time></trkpt><trkpt lat="44.3214141" lon="8.3237059"><ele>409.0</ele><time>2026-04-23T13:30:37.148Z</time></trkpt><trkpt lat="44.321328" lon="8.3236604"><ele>409.0</ele><time>2026-04-23T13:30:39.149Z</time></trkpt><trkpt lat="44.3212432" lon="8.3236259"><ele>409.0</ele><time>2026-04-23T13:30:41.149Z</time></trkpt><trkpt lat="44.3211484" lon="8.3235907"><ele>409.2</ele><time>2026-04-23T13:30:43.15Z</time></trkpt><trkpt lat="44.3210565" lon="8.323551"><ele>409.4</ele><time>2026-04-23T13:30:45.149Z</time></trkpt><trkpt lat="44.3209618" lon="8.3235039"><ele>409.6</ele><time>2026-04-23T13:30:47.151Z</time></trkpt><trkpt lat="44.3208876" lon="8.3234631"><ele>409.8</ele><time>2026-04-23T13:30:49.149Z</time></trkpt><trkpt lat="44.3208032" lon="8.3234261"><ele>410.0</ele><time>2026-04-23T13:30:51.148Z</time></trkpt><trkpt lat="44.3207054" lon="8.3233908"><ele>409.99999999999994</ele><time>2026-04-23T13:30:53.15Z</time></trkpt><trkpt lat="44.3206208" lon="8.3233492"><ele>410.0</ele><time>2026-04-23T13:30:55.149Z</time></trkpt><trkpt lat="44.3205329" lon="8.3233315"><ele>410.0</ele><time>2026-04-23T13:30:57.151Z</time></trkpt><trkpt lat="44.3204485" lon="8.3232834"><ele>410.0</ele><time>2026-04-23T13:30:59.15Z</time></trkpt><trkpt lat="44.3203658" lon="8.3232359"><ele>409.99999999999994</ele><time>2026-04-23T13:31:01.148Z</time></trkpt><trkpt lat="44.3202893" lon="8.3231887"><ele>410.0</ele><time>2026-04-23T13:31:03.15Z</time></trkpt><trkpt lat="44.3202112" lon="8.3231525"><ele>410.16666666666663</ele><time>2026-04-23T13:31:05.149Z</time></trkpt><trkpt lat="44.3201469" lon="8.3231144"><ele>410.3333333333333</ele><time>2026-04-23T13:31:07.15Z</time></trkpt><trkpt lat="44.3200619" lon="8.3230704"><ele>410.5</ele><time>2026-04-23T13:31:09.149Z</time></trkpt><trkpt lat="44.3199846" lon="8.3230311"><ele>410.66666666666663</ele><time>2026-04-23T13:31:11.149Z</time></trkpt><trkpt lat="44.319896" lon="8.3229748"><ele>410.8333333333333</ele><time>2026-04-23T13:31:13.148Z</time></trkpt><trkpt lat="44.319815" lon="8.3229098"><ele>411.0</ele><time>2026-04-23T13:31:15.15Z</time></trkpt><trkpt lat="44.3197349" lon="8.3228419"><ele>412.0</ele><time>2026-04-23T13:31:17.149Z</time></trkpt><trkpt lat="44.3196672" lon="8.3227573"><ele>413.0</ele><time>2026-04-23T13:31:19.149Z</time></trkpt><trkpt lat="44.3196016" lon="8.3226766"><ele>414.0</ele><time>2026-04-23T13:31:21.149Z</time></trkpt><trkpt lat="44.3195371" lon="8.3225883"><ele>415.0</ele><time>2026-04-23T13:31:23.149Z</time></trkpt><trkpt lat="44.3194711" lon="8.322509"><ele>416.0</ele><time>2026-04-23T13:31:25.149Z</time></trkpt><trkpt lat="44.3194053" lon="8.3224273"><ele>417.0</ele><time>2026-04-23T13:31:27.15Z</time></trkpt><trkpt lat="44.3193417" lon="8.3223431"><ele>417.0</ele><time>2026-04-23T13:31:29.151Z</time></trkpt><trkpt lat="44.3192829" lon="8.32226"><ele>417.0</ele><time>2026-04-23T13:31:31.151Z</time></trkpt><trkpt lat="44.3192195" lon="8.3221769"><ele>417.0</ele><time>2026-04-23T13:31:33.15Z</time></trkpt><trkpt lat="44.3191547" lon="8.3221031"><ele>417.0</ele><time>2026-04-23T13:31:35.15Z</time></trkpt><trkpt lat="44.3190899" lon="8.3220226"><ele>417.0</ele><time>2026-04-23T13:31:37.149Z</time></trkpt><trkpt lat="44.319023" lon="8.3219498"><ele>417.0</ele><time>2026-04-23T13:31:39.15Z</time></trkpt><trkpt lat="44.3189646" lon="8.3218705"><ele>417.1666666666667</ele><time>2026-04-23T13:31:41.15Z</time></trkpt><trkpt lat="44.318916" lon="8.321782"><ele>417.33333333333337</ele><time>2026-04-23T13:31:43.149Z</time></trkpt><trkpt lat="44.3188685" lon="8.3216902"><ele>417.5</ele><time>2026-04-23T13:31:45.15Z</time></trkpt><trkpt lat="44.3188316" lon="8.3215827"><ele>417.6666666666667</ele><time>2026-04-23T13:31:47.15Z</time></trkpt><trkpt lat="44.3187973" lon="8.3214743"><ele>417.83333333333337</ele><time>2026-04-23T13:31:49.149Z</time></trkpt><trkpt lat="44.3187665" lon="8.321373"><ele>418.0</ele><time>2026-04-23T13:31:51.149Z</time></trkpt><trkpt lat="44.3187321" lon="8.321273"><ele>418.00000000000006</ele><time>2026-04-23T13:31:53.149Z</time></trkpt><trkpt lat="44.3186958" lon="8.3211691"><ele>418.0</ele><time>2026-04-23T13:31:55.15Z</time></trkpt><trkpt lat="44.3186579" lon="8.3210701"><ele>418.0</ele><time>2026-04-23T13:31:57.15Z</time></trkpt><trkpt lat="44.3186281" lon="8.3209631"><ele>418.0</ele><time>2026-04-23T13:31:59.149Z</time></trkpt><trkpt lat="44.3185949" lon="8.3208618"><ele>418.00000000000006</ele><time>2026-04-23T13:32:01.151Z</time></trkpt><trkpt lat="44.3185536" lon="8.3207677"><ele>418.0</ele><time>2026-04-23T13:32:03.15Z</time></trkpt><trkpt lat="44.3185069" lon="8.3206738"><ele>418.00000000000006</ele><time>2026-04-23T13:32:05.15Z</time></trkpt><trkpt lat="44.3184699" lon="8.3205691"><ele>418.0</ele><time>2026-04-23T13:32:07.15Z</time></trkpt><trkpt lat="44.3184316" lon="8.3204689"><ele>418.0</ele><time>2026-04-23T13:32:09.149Z</time></trkpt><trkpt lat="44.318388" lon="8.3203763"><ele>418.0</ele><time>2026-04-23T13:32:11.149Z</time></trkpt><trkpt lat="44.3183343" lon="8.3202923"><ele>418.00000000000006</ele><time>2026-04-23T13:32:13.15Z</time></trkpt><trkpt lat="44.3182661" lon="8.3202223"><ele>418.0</ele><time>2026-04-23T13:32:15.15Z</time></trkpt><trkpt lat="44.3181885" lon="8.3201837"><ele>418.33333333333337</ele><time>2026-04-23T13:32:17.149Z</time></trkpt><trkpt lat="44.3181066" lon="8.3201635"><ele>418.6666666666667</ele><time>2026-04-23T13:32:19.15Z</time></trkpt><trkpt lat="44.3180257" lon="8.3201457"><ele>419.0</ele><time>2026-04-23T13:32:21.149Z</time></trkpt><trkpt lat="44.3179457" lon="8.3201401"><ele>419.33333333333337</ele><time>2026-04-23T13:32:23.15Z</time></trkpt><trkpt lat="44.3178555" lon="8.3201183"><ele>419.6666666666667</ele><time>2026-04-23T13:32:25.148Z</time></trkpt><trkpt lat="44.3177642" lon="8.3201075"><ele>420.0</ele><time>2026-04-23T13:32:27.15Z</time></trkpt><trkpt lat="44.3176806" lon="8.3201043"><ele>420.0</ele><time>2026-04-23T13:32:29.149Z</time></trkpt><trkpt lat="44.3176068" lon="8.3200941"><ele>420.0</ele><time>2026-04-23T13:32:31.149Z</time></trkpt><trkpt lat="44.3175329" lon="8.3200744"><ele>420.0</ele><time>2026-04-23T13:32:33.149Z</time></trkpt><trkpt lat="44.3174646" lon="8.3200502"><ele>420.0</ele><time>2026-04-23T13:32:35.149Z</time></trkpt><trkpt lat="44.3173765" lon="8.3199981"><ele>420.0</ele><time>2026-04-23T13:32:38.149Z</time></trkpt><trkpt lat="44.3173156" lon="8.3199387"><ele>420.0</ele><time>2026-04-23T13:32:40.15Z</time></trkpt><trkpt lat="44.3172613" lon="8.3198642"><ele>421.1666666666667</ele><time>2026-04-23T13:32:42.149Z</time></trkpt><trkpt lat="44.3172164" lon="8.3197748"><ele>422.33333333333337</ele><time>2026-04-23T13:32:44.15Z</time></trkpt><trkpt lat="44.3171717" lon="8.3196739"><ele>423.5</ele><time>2026-04-23T13:32:46.15Z</time></trkpt><trkpt lat="44.317126" lon="8.3195849"><ele>424.6666666666667</ele><time>2026-04-23T13:32:48.15Z</time></trkpt><trkpt lat="44.3170789" lon="8.3195044"><ele>425.83333333333337</ele><time>2026-04-23T13:32:50.149Z</time></trkpt><trkpt lat="44.3170316" lon="8.3194195"><ele>427.0</ele><time>2026-04-23T13:32:52.15Z</time></trkpt><trkpt lat="44.3169816" lon="8.319339"><ele>427.00000000000006</ele><time>2026-04-23T13:32:54.15Z</time></trkpt><trkpt lat="44.3169295" lon="8.3192567"><ele>427.0</ele><time>2026-04-23T13:32:56.15Z</time></trkpt><trkpt lat="44.3168795" lon="8.3191716"><ele>427.0</ele><time>2026-04-23T13:32:58.149Z</time></trkpt><trkpt lat="44.3168351" lon="8.3190797"><ele>427.0</ele><time>2026-04-23T13:33:00.149Z</time></trkpt><trkpt lat="44.3167886" lon="8.3189859"><ele>427.00000000000006</ele><time>2026-04-23T13:33:02.149Z</time></trkpt><trkpt lat="44.3167444" lon="8.318898"><ele>427.0</ele><time>2026-04-23T13:33:04.148Z</time></trkpt><trkpt lat="44.3166985" lon="8.3188223"><ele>425.50000000000006</ele><time>2026-04-23T13:33:06.148Z</time></trkpt><trkpt lat="44.3166519" lon="8.3187529"><ele>424.0</ele><time>2026-04-23T13:33:08.148Z</time></trkpt><trkpt lat="44.3166032" lon="8.3186811"><ele>422.5</ele><time>2026-04-23T13:33:10.149Z</time></trkpt><trkpt lat="44.3165521" lon="8.3185965"><ele>421.0</ele><time>2026-04-23T13:33:12.149Z</time></trkpt><trkpt lat="44.3164968" lon="8.318513"><ele>419.50000000000006</ele><time>2026-04-23T13:33:14.148Z</time></trkpt><trkpt lat="44.3164484" lon="8.3184342"><ele>418.0</ele><time>2026-04-23T13:33:16.15Z</time></trkpt><trkpt lat="44.3163912" lon="8.3183344"><ele>418.1428571428571</ele><time>2026-04-23T13:33:19.15Z</time></trkpt><trkpt lat="44.3163645" lon="8.3182257"><ele>418.2857142857143</ele><time>2026-04-23T13:33:22.15Z</time></trkpt><trkpt lat="44.3163653" lon="8.3181335"><ele>418.42857142857144</ele><time>2026-04-23T13:33:24.149Z</time></trkpt><trkpt lat="44.3163761" lon="8.3180389"><ele>418.57142857142856</ele><time>2026-04-23T13:33:26.149Z</time></trkpt><trkpt lat="44.3163928" lon="8.3179297"><ele>418.7142857142857</ele><time>2026-04-23T13:33:29.15Z</time></trkpt><trkpt lat="44.3164145" lon="8.3178402"><ele>418.85714285714283</ele><time>2026-04-23T13:33:31.15Z</time></trkpt><trkpt lat="44.3164403" lon="8.3177457"><ele>419.0</ele><time>2026-04-23T13:33:33.149Z</time></trkpt><trkpt lat="44.3164617" lon="8.3176454"><ele>418.99999999999994</ele><time>2026-04-23T13:33:35.149Z</time></trkpt><trkpt lat="44.3164774" lon="8.317547"><ele>419.0</ele><time>2026-04-23T13:33:37.149Z</time></trkpt><trkpt lat="44.3164883" lon="8.3174429"><ele>419.0</ele><time>2026-04-23T13:33:39.148Z</time></trkpt><trkpt lat="44.3164962" lon="8.3173411"><ele>419.0</ele><time>2026-04-23T13:33:41.149Z</time></trkpt><trkpt lat="44.316511" lon="8.3172532"><ele>419.0</ele><time>2026-04-23T13:33:43.15Z</time></trkpt><trkpt lat="44.3165166" lon="8.3171588"><ele>418.99999999999994</ele><time>2026-04-23T13:33:45.148Z</time></trkpt><trkpt lat="44.3165177" lon="8.3170615"><ele>419.0</ele><time>2026-04-23T13:33:47.149Z</time></trkpt><trkpt lat="44.3165219" lon="8.3169617"><ele>419.99999999999994</ele><time>2026-04-23T13:33:49.15Z</time></trkpt><trkpt lat="44.3165289" lon="8.3168591"><ele>421.0</ele><time>2026-04-23T13:33:51.149Z</time></trkpt><trkpt lat="44.316542" lon="8.3167391"><ele>422.0</ele><time>2026-04-23T13:33:53.148Z</time></trkpt><trkpt lat="44.3165545" lon="8.3166142"><ele>423.0</ele><time>2026-04-23T13:33:55.15Z</time></trkpt><trkpt lat="44.3165663" lon="8.3164965"><ele>423.99999999999994</ele><time>2026-04-23T13:33:57.149Z</time></trkpt><trkpt lat="44.3165845" lon="8.3163686"><ele>425.0</ele><time>2026-04-23T13:33:59.149Z</time></trkpt><trkpt lat="44.3165979" lon="8.3162576"><ele>425.42857142857144</ele><time>2026-04-23T13:34:01.148Z</time></trkpt><trkpt lat="44.3166021" lon="8.3161586"><ele>425.85714285714283</ele><time>2026-04-23T13:34:03.148Z</time></trkpt><trkpt lat="44.3166007" lon="8.3160554"><ele>426.28571428571433</ele><time>2026-04-23T13:34:05.15Z</time></trkpt><trkpt lat="44.3165968" lon="8.3159632"><ele>426.7142857142857</ele><time>2026-04-23T13:34:07.148Z</time></trkpt><trkpt lat="44.3165894" lon="8.3158627"><ele>427.14285714285717</ele><time>2026-04-23T13:34:09.15Z</time></trkpt><trkpt lat="44.3165881" lon="8.3157511"><ele>427.5714285714286</ele><time>2026-04-23T13:34:11.148Z</time></trkpt><trkpt lat="44.3165859" lon="8.3156383"><ele>428.0</ele><time>2026-04-23T13:34:13.149Z</time></trkpt><trkpt lat="44.3165846" lon="8.3155317"><ele>428.00000000000006</ele><time>2026-04-23T13:34:15.148Z</time></trkpt><trkpt lat="44.3165899" lon="8.3154338"><ele>428.0</ele><time>2026-04-23T13:34:17.149Z</time></trkpt><trkpt lat="44.3165874" lon="8.3153322"><ele>428.0</ele><time>2026-04-23T13:34:19.149Z</time></trkpt><trkpt lat="44.316581" lon="8.3152314"><ele>428.0</ele><time>2026-04-23T13:34:21.148Z</time></trkpt><trkpt lat="44.3165736" lon="8.3151336"><ele>428.0</ele><time>2026-04-23T13:34:23.15Z</time></trkpt><trkpt lat="44.3165647" lon="8.3150345"><ele>428.00000000000006</ele><time>2026-04-23T13:34:25.15Z</time></trkpt><trkpt lat="44.3165526" lon="8.3149245"><ele>428.0</ele><time>2026-04-23T13:34:27.148Z</time></trkpt><trkpt lat="44.3165424" lon="8.3148255"><ele>428.14285714285717</ele><time>2026-04-23T13:34:29.149Z</time></trkpt><trkpt lat="44.3165305" lon="8.3147357"><ele>428.2857142857143</ele><time>2026-04-23T13:34:31.15Z</time></trkpt><trkpt lat="44.31652" lon="8.3146319"><ele>428.42857142857144</ele><time>2026-04-23T13:34:33.149Z</time></trkpt><trkpt lat="44.3165154" lon="8.3145269"><ele>428.57142857142856</ele><time>2026-04-23T13:34:35.148Z</time></trkpt><trkpt lat="44.3165092" lon="8.314422"><ele>428.7142857142857</ele><time>2026-04-23T13:34:37.148Z</time></trkpt><trkpt lat="44.3164885" lon="8.3143205"><ele>428.8571428571429</ele><time>2026-04-23T13:34:39.149Z</time></trkpt><trkpt lat="44.3164597" lon="8.3142288"><ele>429.0</ele><time>2026-04-23T13:34:41.148Z</time></trkpt><trkpt lat="44.3164337" lon="8.3141247"><ele>429.0</ele><time>2026-04-23T13:34:43.148Z</time></trkpt><trkpt lat="44.3164049" lon="8.3140209"><ele>429.0</ele><time>2026-04-23T13:34:45.149Z</time></trkpt><trkpt lat="44.3163625" lon="8.3139263"><ele>429.0</ele><time>2026-04-23T13:34:47.148Z</time></trkpt><trkpt lat="44.3163119" lon="8.3138393"><ele>429.0</ele><time>2026-04-23T13:34:49.148Z</time></trkpt><trkpt lat="44.3162335" lon="8.3137652"><ele>429.0</ele><time>2026-04-23T13:34:51.148Z</time></trkpt><trkpt lat="44.3161728" lon="8.3136995"><ele>429.0</ele><time>2026-04-23T13:34:53.149Z</time></trkpt><trkpt lat="44.3161076" lon="8.3136699"><ele>428.79999999999995</ele><time>2026-04-23T13:34:55.15Z</time></trkpt><trkpt lat="44.3160232" lon="8.3136774"><ele>428.59999999999997</ele><time>2026-04-23T13:34:57.149Z</time></trkpt><trkpt lat="44.3159314" lon="8.3136558"><ele>428.4</ele><time>2026-04-23T13:34:59.148Z</time></trkpt><trkpt lat="44.315855" lon="8.3136979"><ele>428.2</ele><time>2026-04-23T13:35:01.149Z</time></trkpt><trkpt lat="44.3157541" lon="8.3137216"><ele>428.0</ele><time>2026-04-23T13:35:03.149Z</time></trkpt><trkpt lat="44.3156669" lon="8.3137423"><ele>427.4</ele><time>2026-04-23T13:35:05.15Z</time></trkpt><trkpt lat="44.3155695" lon="8.3137722"><ele>426.79999999999995</ele><time>2026-04-23T13:35:07.148Z</time></trkpt><trkpt lat="44.3154628" lon="8.3137952"><ele>426.2</ele><time>2026-04-23T13:35:09.149Z</time></trkpt><trkpt lat="44.3153586" lon="8.3138005"><ele>425.6</ele><time>2026-04-23T13:35:11.15Z</time></trkpt><trkpt lat="44.3152732" lon="8.3138466"><ele>425.0</ele><time>2026-04-23T13:35:13.15Z</time></trkpt><trkpt lat="44.3151705" lon="8.3138841"><ele>429.2</ele><time>2026-04-23T13:35:15.148Z</time></trkpt><trkpt lat="44.3150678" lon="8.3139362"><ele>433.4</ele><time>2026-04-23T13:35:17.148Z</time></trkpt><trkpt lat="44.3149595" lon="8.3139807"><ele>437.6</ele><time>2026-04-23T13:35:19.148Z</time></trkpt><trkpt lat="44.3148576" lon="8.3139988"><ele>441.8</ele><time>2026-04-23T13:35:21.15Z</time></trkpt><trkpt lat="44.3147497" lon="8.3139747"><ele>446.0</ele><time>2026-04-23T13:35:23.149Z</time></trkpt><trkpt lat="44.3146647" lon="8.3139401"><ele>441.20000000000005</ele><time>2026-04-23T13:35:25.15Z</time></trkpt><trkpt lat="44.3145694" lon="8.313885"><ele>436.40000000000003</ele><time>2026-04-23T13:35:27.149Z</time></trkpt><trkpt lat="44.3144795" lon="8.3138373"><ele>431.6</ele><time>2026-04-23T13:35:29.149Z</time></trkpt><trkpt lat="44.3143964" lon="8.3137928"><ele>426.8</ele><time>2026-04-23T13:35:31.15Z</time></trkpt><trkpt lat="44.3142984" lon="8.3137844"><ele>422.0</ele><time>2026-04-23T13:35:33.148Z</time></trkpt><trkpt lat="44.3141909" lon="8.3138068"><ele>422.0</ele><time>2026-04-23T13:35:35.149Z</time></trkpt><trkpt lat="44.3140627" lon="8.3138414"><ele>422.0</ele><time>2026-04-23T13:35:37.148Z</time></trkpt><trkpt lat="44.3139521" lon="8.3138334"><ele>422.0</ele><time>2026-04-23T13:35:39.148Z</time></trkpt><trkpt lat="44.313847" lon="8.3138306"><ele>422.0</ele><time>2026-04-23T13:35:41.149Z</time></trkpt><trkpt lat="44.3137595" lon="8.3138081"><ele>422.0</ele><time>2026-04-23T13:35:43.148Z</time></trkpt><trkpt lat="44.3136993" lon="8.3137752"><ele>425.0</ele><time>2026-04-23T13:35:44.148Z</time></trkpt><trkpt lat="44.3136173" lon="8.3137529"><ele>428.0</ele><time>2026-04-23T13:35:46.148Z</time></trkpt><trkpt lat="44.3135532" lon="8.3136517"><ele>431.00000000000006</ele><time>2026-04-23T13:35:48.148Z</time></trkpt><trkpt lat="44.3134699" lon="8.3135776"><ele>434.0</ele><time>2026-04-23T13:35:50.148Z</time></trkpt><trkpt lat="44.3133702" lon="8.3134494"><ele>437.0</ele><time>2026-04-23T13:35:52.149Z</time></trkpt><trkpt lat="44.3132786" lon="8.3133727"><ele>436.99999999999994</ele><time>2026-04-23T13:35:54.15Z</time></trkpt><trkpt lat="44.3132248" lon="8.3132961"><ele>437.0</ele><time>2026-04-23T13:35:55.149Z</time></trkpt><trkpt lat="44.31319" lon="8.3132098"><ele>437.0</ele><time>2026-04-23T13:35:57.148Z</time></trkpt><trkpt lat="44.3131444" lon="8.3131048"><ele>437.0</ele><time>2026-04-23T13:35:59.148Z</time></trkpt><trkpt lat="44.3130959" lon="8.3130273"><ele>436.99999999999994</ele><time>2026-04-23T13:36:02.148Z</time></trkpt><trkpt lat="44.313033" lon="8.3129085"><ele>437.0</ele><time>2026-04-23T13:36:04.149Z</time></trkpt><trkpt lat="44.3129923" lon="8.3127975"><ele>435.49999999999994</ele><time>2026-04-23T13:36:06.148Z</time></trkpt><trkpt lat="44.3129473" lon="8.3126776"><ele>434.0</ele><time>2026-04-23T13:36:08.148Z</time></trkpt><trkpt lat="44.3128869" lon="8.3126039"><ele>432.5</ele><time>2026-04-23T13:36:10.149Z</time></trkpt><trkpt lat="44.3128431" lon="8.3125015"><ele>431.0</ele><time>2026-04-23T13:36:12.148Z</time></trkpt><trkpt lat="44.3127854" lon="8.3124623"><ele>429.49999999999994</ele><time>2026-04-23T13:36:14.148Z</time></trkpt><trkpt lat="44.3126874" lon="8.312434"><ele>428.0</ele><time>2026-04-23T13:36:16.15Z</time></trkpt><trkpt lat="44.3125861" lon="8.3124335"><ele>428.0</ele><time>2026-04-23T13:36:18.149Z</time></trkpt><trkpt lat="44.3124919" lon="8.3124664"><ele>427.99999999999994</ele><time>2026-04-23T13:36:20.147Z</time></trkpt><trkpt lat="44.3123969" lon="8.312517"><ele>427.99999999999994</ele><time>2026-04-23T13:36:22.148Z</time></trkpt><trkpt lat="44.3123243" lon="8.3125856"><ele>428.0</ele><time>2026-04-23T13:36:24.149Z</time></trkpt><trkpt lat="44.3122457" lon="8.312641"><ele>428.0</ele><time>2026-04-23T13:36:26.149Z</time></trkpt><trkpt lat="44.3121737" lon="8.3127211"><ele>427.0</ele><time>2026-04-23T13:36:28.148Z</time></trkpt><trkpt lat="44.3120861" lon="8.3128312"><ele>425.99999999999994</ele><time>2026-04-23T13:36:31.149Z</time></trkpt><trkpt lat="44.3119876" lon="8.3129175"><ele>425.0</ele><time>2026-04-23T13:36:33.149Z</time></trkpt><trkpt lat="44.3119124" lon="8.3129755"><ele>424.0</ele><time>2026-04-23T13:36:35.149Z</time></trkpt><trkpt lat="44.3118333" lon="8.3130407"><ele>423.0</ele><time>2026-04-23T13:36:37.149Z</time></trkpt><trkpt lat="44.311748" lon="8.3131181"><ele>424.3333333333333</ele><time>2026-04-23T13:36:39.15Z</time></trkpt><trkpt lat="44.3116661" lon="8.3131598"><ele>425.66666666666663</ele><time>2026-04-23T13:36:41.148Z</time></trkpt><trkpt lat="44.3115957" lon="8.3132295"><ele>427.0</ele><time>2026-04-23T13:36:43.148Z</time></trkpt><trkpt lat="44.3114923" lon="8.3132446"><ele>428.3333333333333</ele><time>2026-04-23T13:36:45.149Z</time></trkpt><trkpt lat="44.3114388" lon="8.3133116"><ele>429.66666666666663</ele><time>2026-04-23T13:36:47.147Z</time></trkpt><trkpt lat="44.311355" lon="8.3133445"><ele>431.0</ele><time>2026-04-23T13:36:49.149Z</time></trkpt><trkpt lat="44.3112704" lon="8.3133513"><ele>430.99999999999994</ele><time>2026-04-23T13:36:51.147Z</time></trkpt><trkpt lat="44.3111926" lon="8.3133572"><ele>431.0</ele><time>2026-04-23T13:36:53.149Z</time></trkpt><trkpt lat="44.3111129" lon="8.3133599"><ele>431.0</ele><time>2026-04-23T13:36:55.148Z</time></trkpt><trkpt lat="44.3110377" lon="8.3133659"><ele>431.0</ele><time>2026-04-23T13:36:57.149Z</time></trkpt><trkpt lat="44.3109637" lon="8.3133634"><ele>430.99999999999994</ele><time>2026-04-23T13:36:59.148Z</time></trkpt><trkpt lat="44.3108904" lon="8.3133608"><ele>431.0</ele><time>2026-04-23T13:37:01.148Z</time></trkpt><trkpt lat="44.3108209" lon="8.3133537"><ele>431.0</ele><time>2026-04-23T13:37:03.148Z</time></trkpt><trkpt lat="44.3107542" lon="8.3133513"><ele>431.0</ele><time>2026-04-23T13:37:05.148Z</time></trkpt><trkpt lat="44.3106829" lon="8.3133548"><ele>431.0</ele><time>2026-04-23T13:37:07.148Z</time></trkpt><trkpt lat="44.3106136" lon="8.3133521"><ele>431.0</ele><time>2026-04-23T13:37:09.147Z</time></trkpt><trkpt lat="44.3105431" lon="8.3133514"><ele>431.0</ele><time>2026-04-23T13:37:11.148Z</time></trkpt><trkpt lat="44.310469" lon="8.3133509"><ele>431.0</ele><time>2026-04-23T13:37:13.148Z</time></trkpt><trkpt lat="44.3103963" lon="8.3133506"><ele>431.0</ele><time>2026-04-23T13:37:15.148Z</time></trkpt><trkpt lat="44.3103225" lon="8.3133606"><ele>431.0</ele><time>2026-04-23T13:37:17.148Z</time></trkpt><trkpt lat="44.3102482" lon="8.3133602"><ele>431.0</ele><time>2026-04-23T13:37:19.149Z</time></trkpt><trkpt lat="44.3101769" lon="8.3133495"><ele>431.0</ele><time>2026-04-23T13:37:21.148Z</time></trkpt><trkpt lat="44.3101062" lon="8.3133159"><ele>431.0</ele><time>2026-04-23T13:37:23.148Z</time></trkpt><trkpt lat="44.3100448" lon="8.3132599"><ele>431.0</ele><time>2026-04-23T13:37:25.148Z</time></trkpt><trkpt lat="44.3099866" lon="8.3132081"><ele>431.0</ele><time>2026-04-23T13:37:27.148Z</time></trkpt><trkpt lat="44.3099357" lon="8.3131368"><ele>431.0</ele><time>2026-04-23T13:37:29.148Z</time></trkpt><trkpt lat="44.3098922" lon="8.3130496"><ele>430.99999999999994</ele><time>2026-04-23T13:37:31.149Z</time></trkpt><trkpt lat="44.3098527" lon="8.3129566"><ele>431.0</ele><time>2026-04-23T13:37:33.148Z</time></trkpt><trkpt lat="44.3098142" lon="8.3128667"><ele>431.0</ele><time>2026-04-23T13:37:35.149Z</time></trkpt><trkpt lat="44.3097833" lon="8.312776"><ele>431.0</ele><time>2026-04-23T13:37:37.149Z</time></trkpt><trkpt lat="44.3097464" lon="8.3126791"><ele>430.99999999999994</ele><time>2026-04-23T13:37:39.147Z</time></trkpt><trkpt lat="44.3097084" lon="8.3125786"><ele>431.0</ele><time>2026-04-23T13:37:41.148Z</time></trkpt><trkpt lat="44.3096862" lon="8.3124858"><ele>434.57142857142856</ele><time>2026-04-23T13:37:43.148Z</time></trkpt><trkpt lat="44.3096647" lon="8.3123838"><ele>438.1428571428571</ele><time>2026-04-23T13:37:45.149Z</time></trkpt><trkpt lat="44.3096533" lon="8.3122812"><ele>441.71428571428567</ele><time>2026-04-23T13:37:47.149Z</time></trkpt><trkpt lat="44.3096558" lon="8.3121711"><ele>445.2857142857143</ele><time>2026-04-23T13:37:49.148Z</time></trkpt><trkpt lat="44.3096683" lon="8.3120656"><ele>448.8571428571428</ele><time>2026-04-23T13:37:51.146Z</time></trkpt><trkpt lat="44.3096964" lon="8.3119649"><ele>452.4285714285714</ele><time>2026-04-23T13:37:53.149Z</time></trkpt><trkpt lat="44.309722" lon="8.3118813"><ele>456.0</ele><time>2026-04-23T13:37:55.148Z</time></trkpt><trkpt lat="44.3097386" lon="8.3117522"><ele>453.85714285714283</ele><time>2026-04-23T13:37:58.148Z</time></trkpt><trkpt lat="44.3097595" lon="8.3116401"><ele>451.71428571428567</ele><time>2026-04-23T13:38:01.148Z</time></trkpt><trkpt lat="44.3097834" lon="8.3115221"><ele>449.57142857142856</ele><time>2026-04-23T13:38:04.149Z</time></trkpt><trkpt lat="44.3097985" lon="8.3114366"><ele>447.42857142857144</ele><time>2026-04-23T13:38:06.147Z</time></trkpt><trkpt lat="44.3098086" lon="8.3113345"><ele>445.2857142857143</ele><time>2026-04-23T13:38:08.149Z</time></trkpt><trkpt lat="44.3098049" lon="8.3112328"><ele>443.1428571428571</ele><time>2026-04-23T13:38:10.148Z</time></trkpt><trkpt lat="44.3097968" lon="8.3111392"><ele>441.0</ele><time>2026-04-23T13:38:12.148Z</time></trkpt><trkpt lat="44.3097778" lon="8.3110533"><ele>441.0</ele><time>2026-04-23T13:38:14.148Z</time></trkpt><trkpt lat="44.3097458" lon="8.3109691"><ele>441.0</ele><time>2026-04-23T13:38:16.149Z</time></trkpt><trkpt lat="44.3097101" lon="8.3108966"><ele>441.0</ele><time>2026-04-23T13:38:18.148Z</time></trkpt><trkpt lat="44.3096642" lon="8.3108183"><ele>441.0</ele><time>2026-04-23T13:38:20.147Z</time></trkpt><trkpt lat="44.3096185" lon="8.310739"><ele>441.0</ele><time>2026-04-23T13:38:22.149Z</time></trkpt><trkpt lat="44.3095768" lon="8.3106602"><ele>441.0</ele><time>2026-04-23T13:38:24.149Z</time></trkpt><trkpt lat="44.3095313" lon="8.3105834"><ele>441.0</ele><time>2026-04-23T13:38:26.148Z</time></trkpt><trkpt lat="44.3094808" lon="8.3105199"><ele>440.5</ele><time>2026-04-23T13:38:28.149Z</time></trkpt><trkpt lat="44.3094244" lon="8.3104493"><ele>440.0</ele><time>2026-04-23T13:38:30.148Z</time></trkpt><trkpt lat="44.3093732" lon="8.3103734"><ele>439.5</ele><time>2026-04-23T13:38:32.148Z</time></trkpt><trkpt lat="44.3093286" lon="8.3102916"><ele>439.0</ele><time>2026-04-23T13:38:34.149Z</time></trkpt><trkpt lat="44.3092734" lon="8.3102231"><ele>438.5</ele><time>2026-04-23T13:38:36.147Z</time></trkpt><trkpt lat="44.3092101" lon="8.3101457"><ele>438.0</ele><time>2026-04-23T13:38:38.148Z</time></trkpt><trkpt lat="44.3091322" lon="8.3100784"><ele>438.0</ele><time>2026-04-23T13:38:40.146Z</time></trkpt><trkpt lat="44.3090642" lon="8.3100103"><ele>438.0</ele><time>2026-04-23T13:38:42.148Z</time></trkpt><trkpt lat="44.3089929" lon="8.3099322"><ele>438.0</ele><time>2026-04-23T13:38:44.148Z</time></trkpt><trkpt lat="44.3089374" lon="8.3098684"><ele>438.0</ele><time>2026-04-23T13:38:46.149Z</time></trkpt><trkpt lat="44.3088873" lon="8.3098039"><ele>438.0</ele><time>2026-04-23T13:38:48.149Z</time></trkpt><trkpt lat="44.308835" lon="8.3097362"><ele>438.0</ele><time>2026-04-23T13:38:50.147Z</time></trkpt><trkpt lat="44.3087803" lon="8.3096692"><ele>438.7142857142857</ele><time>2026-04-23T13:38:52.148Z</time></trkpt><trkpt lat="44.308727" lon="8.3095996"><ele>439.4285714285714</ele><time>2026-04-23T13:38:54.148Z</time></trkpt><trkpt lat="44.3086743" lon="8.3095293"><ele>440.1428571428571</ele><time>2026-04-23T13:38:56.148Z</time></trkpt><trkpt lat="44.3085987" lon="8.3094499"><ele>440.8571428571429</ele><time>2026-04-23T13:38:59.148Z</time></trkpt><trkpt lat="44.3085456" lon="8.3094025"><ele>441.57142857142856</ele><time>2026-04-23T13:39:01.147Z</time></trkpt><trkpt lat="44.308486" lon="8.3093537"><ele>442.2857142857143</ele><time>2026-04-23T13:39:03.147Z</time></trkpt><trkpt lat="44.3084213" lon="8.3093147"><ele>443.0</ele><time>2026-04-23T13:39:05.149Z</time></trkpt><trkpt lat="44.3083583" lon="8.3092818"><ele>443.0</ele><time>2026-04-23T13:39:07.148Z</time></trkpt><trkpt lat="44.3082921" lon="8.3092441"><ele>443.0</ele><time>2026-04-23T13:39:09.148Z</time></trkpt><trkpt lat="44.3082257" lon="8.3092166"><ele>443.0</ele><time>2026-04-23T13:39:11.147Z</time></trkpt><trkpt lat="44.308163" lon="8.3091819"><ele>443.0</ele><time>2026-04-23T13:39:13.148Z</time></trkpt><trkpt lat="44.3080917" lon="8.3091491"><ele>443.0</ele><time>2026-04-23T13:39:15.149Z</time></trkpt><trkpt lat="44.3080292" lon="8.3091109"><ele>443.0</ele><time>2026-04-23T13:39:17.148Z</time></trkpt><trkpt lat="44.3079684" lon="8.3090688"><ele>443.0</ele><time>2026-04-23T13:39:19.149Z</time></trkpt><trkpt lat="44.307899" lon="8.3090448"><ele>442.14285714285717</ele><time>2026-04-23T13:39:21.148Z</time></trkpt><trkpt lat="44.3078315" lon="8.3090161"><ele>441.28571428571433</ele><time>2026-04-23T13:39:23.147Z</time></trkpt><trkpt lat="44.3077677" lon="8.3089885"><ele>440.42857142857144</ele><time>2026-04-23T13:39:25.149Z</time></trkpt><trkpt lat="44.3077047" lon="8.3089552"><ele>439.57142857142856</ele><time>2026-04-23T13:39:27.148Z</time></trkpt><trkpt lat="44.3076436" lon="8.3089109"><ele>438.7142857142857</ele><time>2026-04-23T13:39:29.148Z</time></trkpt><trkpt lat="44.3075765" lon="8.3088632"><ele>437.85714285714283</ele><time>2026-04-23T13:39:31.149Z</time></trkpt><trkpt lat="44.30751" lon="8.3088111"><ele>437.0</ele><time>2026-04-23T13:39:33.149Z</time></trkpt><trkpt lat="44.3074473" lon="8.3087587"><ele>437.0</ele><time>2026-04-23T13:39:35.149Z</time></trkpt><trkpt lat="44.307386" lon="8.3087183"><ele>437.0</ele><time>2026-04-23T13:39:37.148Z</time></trkpt><trkpt lat="44.3073254" lon="8.3086859"><ele>437.0</ele><time>2026-04-23T13:39:39.148Z</time></trkpt><trkpt lat="44.3072424" lon="8.308647"><ele>437.0</ele><time>2026-04-23T13:39:42.148Z</time></trkpt><trkpt lat="44.3071774" lon="8.3086135"><ele>437.0</ele><time>2026-04-23T13:39:44.148Z</time></trkpt><trkpt lat="44.3071084" lon="8.3085869"><ele>437.0</ele><time>2026-04-23T13:39:46.149Z</time></trkpt><trkpt lat="44.3070325" lon="8.3085589"><ele>437.0</ele><time>2026-04-23T13:39:48.147Z</time></trkpt><trkpt lat="44.3069607" lon="8.3085324"><ele>440.49999999999994</ele><time>2026-04-23T13:39:50.147Z</time></trkpt><trkpt lat="44.3068914" lon="8.3084975"><ele>444.0</ele><time>2026-04-23T13:39:52.148Z</time></trkpt><trkpt lat="44.3068273" lon="8.3084574"><ele>447.5</ele><time>2026-04-23T13:39:54.148Z</time></trkpt><trkpt lat="44.3067352" lon="8.3084124"><ele>451.0</ele><time>2026-04-23T13:39:57.147Z</time></trkpt><trkpt lat="44.306668" lon="8.308365"><ele>454.49999999999994</ele><time>2026-04-23T13:39:59.149Z</time></trkpt><trkpt lat="44.306604" lon="8.3083024"><ele>458.0</ele><time>2026-04-23T13:40:01.148Z</time></trkpt><trkpt lat="44.3065435" lon="8.30822"><ele>457.99999999999994</ele><time>2026-04-23T13:40:03.147Z</time></trkpt><trkpt lat="44.3064893" lon="8.3081203"><ele>458.0</ele><time>2026-04-23T13:40:05.148Z</time></trkpt><trkpt lat="44.306445" lon="8.3080042"><ele>458.0</ele><time>2026-04-23T13:40:07.147Z</time></trkpt><trkpt lat="44.3064189" lon="8.3078905"><ele>458.0</ele><time>2026-04-23T13:40:09.147Z</time></trkpt><trkpt lat="44.3064033" lon="8.3077707"><ele>457.99999999999994</ele><time>2026-04-23T13:40:11.147Z</time></trkpt><trkpt lat="44.3064005" lon="8.3076487"><ele>458.0</ele><time>2026-04-23T13:40:13.146Z</time></trkpt><trkpt lat="44.3063994" lon="8.3075302"><ele>462.16666666666663</ele><time>2026-04-23T13:40:15.148Z</time></trkpt><trkpt lat="44.3063962" lon="8.3074151"><ele>466.3333333333333</ele><time>2026-04-23T13:40:17.148Z</time></trkpt><trkpt lat="44.3063938" lon="8.3072977"><ele>470.5</ele><time>2026-04-23T13:40:19.148Z</time></trkpt><trkpt lat="44.3063936" lon="8.3071843"><ele>474.66666666666663</ele><time>2026-04-23T13:40:21.149Z</time></trkpt><trkpt lat="44.3063874" lon="8.3070646"><ele>478.8333333333333</ele><time>2026-04-23T13:40:23.148Z</time></trkpt><trkpt lat="44.3063905" lon="8.3069429"><ele>483.0</ele><time>2026-04-23T13:40:25.148Z</time></trkpt><trkpt lat="44.3063857" lon="8.3068292"><ele>483.1666666666667</ele><time>2026-04-23T13:40:27.147Z</time></trkpt><trkpt lat="44.3063813" lon="8.3067086"><ele>483.33333333333337</ele><time>2026-04-23T13:40:29.148Z</time></trkpt><trkpt lat="44.306379" lon="8.306593"><ele>483.5</ele><time>2026-04-23T13:40:31.148Z</time></trkpt><trkpt lat="44.3063765" lon="8.3064742"><ele>483.6666666666667</ele><time>2026-04-23T13:40:33.146Z</time></trkpt><trkpt lat="44.306377" lon="8.3063633"><ele>483.83333333333337</ele><time>2026-04-23T13:40:35.147Z</time></trkpt><trkpt lat="44.3063733" lon="8.3062504"><ele>484.0</ele><time>2026-04-23T13:40:37.147Z</time></trkpt><trkpt lat="44.3063667" lon="8.3061431"><ele>484.00000000000006</ele><time>2026-04-23T13:40:39.149Z</time></trkpt><trkpt lat="44.3063645" lon="8.3060315"><ele>484.0</ele><time>2026-04-23T13:40:41.147Z</time></trkpt><trkpt lat="44.306369" lon="8.3059218"><ele>484.0</ele><time>2026-04-23T13:40:43.148Z</time></trkpt><trkpt lat="44.3063708" lon="8.3058107"><ele>484.0</ele><time>2026-04-23T13:40:45.149Z</time></trkpt><trkpt lat="44.3063742" lon="8.3057001"><ele>484.00000000000006</ele><time>2026-04-23T13:40:47.147Z</time></trkpt><trkpt lat="44.3063726" lon="8.3055882"><ele>484.0</ele><time>2026-04-23T13:40:49.148Z</time></trkpt><trkpt lat="44.3063714" lon="8.3054897"><ele>483.85714285714283</ele><time>2026-04-23T13:40:51.146Z</time></trkpt><trkpt lat="44.3063675" lon="8.3053952"><ele>483.71428571428567</ele><time>2026-04-23T13:40:53.148Z</time></trkpt><trkpt lat="44.306361" lon="8.3052909"><ele>483.57142857142856</ele><time>2026-04-23T13:40:55.147Z</time></trkpt><trkpt lat="44.3063556" lon="8.3051771"><ele>483.42857142857144</ele><time>2026-04-23T13:40:57.148Z</time></trkpt><trkpt lat="44.3063491" lon="8.3050692"><ele>483.2857142857143</ele><time>2026-04-23T13:40:59.149Z</time></trkpt><trkpt lat="44.3063426" lon="8.3049613"><ele>483.1428571428571</ele><time>2026-04-23T13:41:01.149Z</time></trkpt><trkpt lat="44.3063445" lon="8.3048633"><ele>483.0</ele><time>2026-04-23T13:41:03.147Z</time></trkpt><trkpt lat="44.3063357" lon="8.3047709"><ele>481.5</ele><time>2026-04-23T13:41:05.147Z</time></trkpt><trkpt lat="44.30632" lon="8.3046604"><ele>480.0</ele><time>2026-04-23T13:41:07.149Z</time></trkpt><trkpt lat="44.3062986" lon="8.3045527"><ele>478.5</ele><time>2026-04-23T13:41:09.149Z</time></trkpt><trkpt lat="44.3062774" lon="8.3044508"><ele>477.0</ele><time>2026-04-23T13:41:11.149Z</time></trkpt><trkpt lat="44.3062535" lon="8.3043455"><ele>475.5</ele><time>2026-04-23T13:41:13.146Z</time></trkpt><trkpt lat="44.306228" lon="8.3042476"><ele>474.0</ele><time>2026-04-23T13:41:15.148Z</time></trkpt><trkpt lat="44.3061922" lon="8.3041523"><ele>474.0</ele><time>2026-04-23T13:41:17.147Z</time></trkpt><trkpt lat="44.3061574" lon="8.3040522"><ele>474.0</ele><time>2026-04-23T13:41:19.147Z</time></trkpt><trkpt lat="44.3061159" lon="8.303952"><ele>474.0</ele><time>2026-04-23T13:41:21.147Z</time></trkpt><trkpt lat="44.3060654" lon="8.3038499"><ele>474.0</ele><time>2026-04-23T13:41:23.147Z</time></trkpt><trkpt lat="44.305999" lon="8.3037541"><ele>474.0</ele><time>2026-04-23T13:41:25.148Z</time></trkpt><trkpt lat="44.3059254" lon="8.3036892"><ele>474.0</ele><time>2026-04-23T13:41:27.147Z</time></trkpt><trkpt lat="44.3058526" lon="8.3035949"><ele>473.2</ele><time>2026-04-23T13:41:29.148Z</time></trkpt><trkpt lat="44.3057703" lon="8.3034995"><ele>472.4</ele><time>2026-04-23T13:41:31.146Z</time></trkpt><trkpt lat="44.3056956" lon="8.3034117"><ele>471.6</ele><time>2026-04-23T13:41:33.147Z</time></trkpt><trkpt lat="44.3056267" lon="8.303322"><ele>470.8</ele><time>2026-04-23T13:41:35.147Z</time></trkpt><trkpt lat="44.3055457" lon="8.3032292"><ele>470.0</ele><time>2026-04-23T13:41:37.147Z</time></trkpt><trkpt lat="44.3054803" lon="8.3031771"><ele>470.0</ele><time>2026-04-23T13:41:39.148Z</time></trkpt><trkpt lat="44.3054076" lon="8.3030959"><ele>470.0</ele><time>2026-04-23T13:41:41.149Z</time></trkpt><trkpt lat="44.3053428" lon="8.3030135"><ele>470.0</ele><time>2026-04-23T13:41:43.148Z</time></trkpt><trkpt lat="44.3052795" lon="8.3029307"><ele>470.0</ele><time>2026-04-23T13:41:45.147Z</time></trkpt><trkpt lat="44.3052022" lon="8.3028336"><ele>470.0</ele><time>2026-04-23T13:41:47.147Z</time></trkpt><trkpt lat="44.3051415" lon="8.3027312"><ele>467.0</ele><time>2026-04-23T13:41:49.147Z</time></trkpt><trkpt lat="44.3050862" lon="8.3026539"><ele>464.0</ele><time>2026-04-23T13:41:51.147Z</time></trkpt><trkpt lat="44.3050096" lon="8.3025535"><ele>461.0</ele><time>2026-04-23T13:41:53.148Z</time></trkpt><trkpt lat="44.3049424" lon="8.302454"><ele>458.0</ele><time>2026-04-23T13:41:55.146Z</time></trkpt><trkpt lat="44.3048773" lon="8.3023353"><ele>455.0</ele><time>2026-04-23T13:41:57.146Z</time></trkpt><trkpt lat="44.3048231" lon="8.3022492"><ele>455.66666666666663</ele><time>2026-04-23T13:41:59.149Z</time></trkpt><trkpt lat="44.3047764" lon="8.3021466"><ele>456.3333333333333</ele><time>2026-04-23T13:42:01.147Z</time></trkpt><trkpt lat="44.3047306" lon="8.3020483"><ele>457.0</ele><time>2026-04-23T13:42:03.149Z</time></trkpt><trkpt lat="44.3046918" lon="8.3019565"><ele>457.66666666666663</ele><time>2026-04-23T13:42:05.147Z</time></trkpt><trkpt lat="44.3046406" lon="8.3018686"><ele>458.3333333333333</ele><time>2026-04-23T13:42:07.146Z</time></trkpt><trkpt lat="44.3045954" lon="8.3017841"><ele>459.0</ele><time>2026-04-23T13:42:09.147Z</time></trkpt><trkpt lat="44.3045411" lon="8.3017008"><ele>459.0</ele><time>2026-04-23T13:42:11.149Z</time></trkpt><trkpt lat="44.3044712" lon="8.3016364"><ele>459.0</ele><time>2026-04-23T13:42:13.148Z</time></trkpt><trkpt lat="44.304397" lon="8.3016008"><ele>459.0</ele><time>2026-04-23T13:42:15.147Z</time></trkpt><trkpt lat="44.3042982" lon="8.3016018"><ele>459.0</ele><time>2026-04-23T13:42:17.148Z</time></trkpt><trkpt lat="44.3041998" lon="8.3015852"><ele>459.0</ele><time>2026-04-23T13:42:19.148Z</time></trkpt><trkpt lat="44.3041001" lon="8.3015658"><ele>459.0</ele><time>2026-04-23T13:42:21.147Z</time></trkpt><trkpt lat="44.3040018" lon="8.3015349"><ele>459.0</ele><time>2026-04-23T13:42:23.148Z</time></trkpt><trkpt lat="44.3039118" lon="8.3015152"><ele>459.0</ele><time>2026-04-23T13:42:25.148Z</time></trkpt><trkpt lat="44.3038038" lon="8.3014975"><ele>459.0</ele><time>2026-04-23T13:42:27.147Z</time></trkpt><trkpt lat="44.3036907" lon="8.3014558"><ele>459.0</ele><time>2026-04-23T13:42:29.148Z</time></trkpt><trkpt lat="44.3035794" lon="8.3014057"><ele>458.0</ele><time>2026-04-23T13:42:31.147Z</time></trkpt><trkpt lat="44.3035183" lon="8.3013783"><ele>457.0</ele><time>2026-04-23T13:42:32.148Z</time></trkpt><trkpt lat="44.3033994" lon="8.3013284"><ele>456.0</ele><time>2026-04-23T13:42:34.147Z</time></trkpt><trkpt lat="44.3032783" lon="8.3013363"><ele>455.0</ele><time>2026-04-23T13:42:36.147Z</time></trkpt><trkpt lat="44.3032186" lon="8.301376"><ele>454.0</ele><time>2026-04-23T13:42:37.148Z</time></trkpt><trkpt lat="44.3031421" lon="8.301494"><ele>454.0</ele><time>2026-04-23T13:42:39.148Z</time></trkpt><trkpt lat="44.303087" lon="8.3016477"><ele>454.0</ele><time>2026-04-23T13:42:41.147Z</time></trkpt><trkpt lat="44.3030596" lon="8.3017354"><ele>454.0</ele><time>2026-04-23T13:42:42.148Z</time></trkpt><trkpt lat="44.3030109" lon="8.3019001"><ele>454.0</ele><time>2026-04-23T13:42:44.146Z</time></trkpt><trkpt lat="44.3029987" lon="8.3019915"><ele>454.0</ele><time>2026-04-23T13:42:45.147Z</time></trkpt><trkpt lat="44.3029699" lon="8.3020767"><ele>452.79999999999995</ele><time>2026-04-23T13:42:46.147Z</time></trkpt><trkpt lat="44.3029047" lon="8.302232"><ele>451.59999999999997</ele><time>2026-04-23T13:42:48.148Z</time></trkpt><trkpt lat="44.302871" lon="8.3023261"><ele>450.4</ele><time>2026-04-23T13:42:49.147Z</time></trkpt><trkpt lat="44.3028367" lon="8.3024204"><ele>449.2</ele><time>2026-04-23T13:42:50.146Z</time></trkpt><trkpt lat="44.302801" lon="8.3025893"><ele>448.0</ele><time>2026-04-23T13:42:52.147Z</time></trkpt><trkpt lat="44.3027776" lon="8.3026852"><ele>447.6666666666667</ele><time>2026-04-23T13:42:53.148Z</time></trkpt><trkpt lat="44.3027427" lon="8.3027819"><ele>447.33333333333337</ele><time>2026-04-23T13:42:54.147Z</time></trkpt><trkpt lat="44.3027022" lon="8.3028653"><ele>447.0</ele><time>2026-04-23T13:42:55.146Z</time></trkpt><trkpt lat="44.3026652" lon="8.3029553"><ele>446.66666666666663</ele><time>2026-04-23T13:42:56.148Z</time></trkpt><trkpt lat="44.3026513" lon="8.3030454"><ele>446.3333333333333</ele><time>2026-04-23T13:42:57.147Z</time></trkpt><trkpt lat="44.3026025" lon="8.3031079"><ele>446.0</ele><time>2026-04-23T13:42:58.147Z</time></trkpt><trkpt lat="44.302538" lon="8.3032395"><ele>446.42857142857144</ele><time>2026-04-23T13:43:00.147Z</time></trkpt><trkpt lat="44.3024928" lon="8.3033028"><ele>446.85714285714283</ele><time>2026-04-23T13:43:01.148Z</time></trkpt><trkpt lat="44.3024278" lon="8.3033619"><ele>447.2857142857143</ele><time>2026-04-23T13:43:02.147Z</time></trkpt><trkpt lat="44.302373" lon="8.3034072"><ele>447.71428571428567</ele><time>2026-04-23T13:43:03.147Z</time></trkpt><trkpt lat="44.30231" lon="8.3034478"><ele>448.1428571428571</ele><time>2026-04-23T13:43:04.148Z</time></trkpt><trkpt lat="44.3022447" lon="8.303476"><ele>448.57142857142856</ele><time>2026-04-23T13:43:05.147Z</time></trkpt><trkpt lat="44.3021685" lon="8.3035155"><ele>449.0</ele><time>2026-04-23T13:43:06.147Z</time></trkpt><trkpt lat="44.3020994" lon="8.3035175"><ele>449.0</ele><time>2026-04-23T13:43:07.148Z</time></trkpt><trkpt lat="44.3020239" lon="8.3035196"><ele>448.99999999999994</ele><time>2026-04-23T13:43:08.148Z</time></trkpt><trkpt lat="44.301948" lon="8.3035172"><ele>449.0</ele><time>2026-04-23T13:43:09.147Z</time></trkpt><trkpt lat="44.3018793" lon="8.3035087"><ele>449.0</ele><time>2026-04-23T13:43:10.148Z</time></trkpt><trkpt lat="44.3018082" lon="8.3035042"><ele>448.99999999999994</ele><time>2026-04-23T13:43:11.148Z</time></trkpt><trkpt lat="44.3017378" lon="8.3034936"><ele>449.0</ele><time>2026-04-23T13:43:12.147Z</time></trkpt><trkpt lat="44.3016681" lon="8.3034754"><ele>449.0</ele><time>2026-04-23T13:43:13.147Z</time></trkpt><trkpt lat="44.301599" lon="8.3034622"><ele>449.0</ele><time>2026-04-23T13:43:14.147Z</time></trkpt><trkpt lat="44.3015246" lon="8.303456"><ele>449.0</ele><time>2026-04-23T13:43:15.148Z</time></trkpt><trkpt lat="44.3014053" lon="8.3034438"><ele>449.0</ele><time>2026-04-23T13:43:17.147Z</time></trkpt><trkpt lat="44.3013417" lon="8.3034204"><ele>449.0</ele><time>2026-04-23T13:43:18.148Z</time></trkpt><trkpt lat="44.3012241" lon="8.3034395"><ele>449.0</ele><time>2026-04-23T13:43:20.147Z</time></trkpt><trkpt lat="44.3011399" lon="8.303522"><ele>448.79999999999995</ele><time>2026-04-23T13:43:22.147Z</time></trkpt><trkpt lat="44.3010493" lon="8.3036013"><ele>448.59999999999997</ele><time>2026-04-23T13:43:24.147Z</time></trkpt><trkpt lat="44.3009606" lon="8.3036705"><ele>448.4</ele><time>2026-04-23T13:43:26.147Z</time></trkpt><trkpt lat="44.3008653" lon="8.3037665"><ele>448.2</ele><time>2026-04-23T13:43:28.147Z</time></trkpt><trkpt lat="44.3007519" lon="8.3038137"><ele>448.0</ele><time>2026-04-23T13:43:30.148Z</time></trkpt><trkpt lat="44.3006626" lon="8.3038332"><ele>447.50000000000006</ele><time>2026-04-23T13:43:32.148Z</time></trkpt><trkpt lat="44.3005657" lon="8.3038437"><ele>447.0</ele><time>2026-04-23T13:43:34.148Z</time></trkpt><trkpt lat="44.3004841" lon="8.3038458"><ele>446.5</ele><time>2026-04-23T13:43:36.148Z</time></trkpt><trkpt lat="44.3003904" lon="8.3038705"><ele>446.0</ele><time>2026-04-23T13:43:39.147Z</time></trkpt><trkpt lat="44.3003207" lon="8.3038924"><ele>445.50000000000006</ele><time>2026-04-23T13:43:41.147Z</time></trkpt><trkpt lat="44.3002437" lon="8.3038765"><ele>445.0</ele><time>2026-04-23T13:43:43.148Z</time></trkpt><trkpt lat="44.3001561" lon="8.3038487"><ele>445.00000000000006</ele><time>2026-04-23T13:43:45.148Z</time></trkpt><trkpt lat="44.300067" lon="8.3038183"><ele>445.0</ele><time>2026-04-23T13:43:47.146Z</time></trkpt><trkpt lat="44.2999827" lon="8.3037861"><ele>445.0</ele><time>2026-04-23T13:43:49.146Z</time></trkpt><trkpt lat="44.2999008" lon="8.303754"><ele>445.0</ele><time>2026-04-23T13:43:51.148Z</time></trkpt><trkpt lat="44.2998224" lon="8.3037384"><ele>445.00000000000006</ele><time>2026-04-23T13:43:53.148Z</time></trkpt><trkpt lat="44.2997444" lon="8.3037283"><ele>445.0</ele><time>2026-04-23T13:43:55.147Z</time></trkpt><trkpt lat="44.2996585" lon="8.3037343"><ele>445.33333333333337</ele><time>2026-04-23T13:43:57.147Z</time></trkpt><trkpt lat="44.2995761" lon="8.3037617"><ele>445.6666666666667</ele><time>2026-04-23T13:43:59.147Z</time></trkpt><trkpt lat="44.2994962" lon="8.303813"><ele>446.0</ele><time>2026-04-23T13:44:01.148Z</time></trkpt><trkpt lat="44.2994114" lon="8.3038533"><ele>446.33333333333337</ele><time>2026-04-23T13:44:03.148Z</time></trkpt><trkpt lat="44.2993319" lon="8.3038942"><ele>446.6666666666667</ele><time>2026-04-23T13:44:05.146Z</time></trkpt><trkpt lat="44.299253" lon="8.3039285"><ele>447.0</ele><time>2026-04-23T13:44:07.146Z</time></trkpt><trkpt lat="44.2991773" lon="8.3039554"><ele>448.0</ele><time>2026-04-23T13:44:09.147Z</time></trkpt><trkpt lat="44.2990988" lon="8.3039714"><ele>449.0</ele><time>2026-04-23T13:44:11.146Z</time></trkpt><trkpt lat="44.2990225" lon="8.3039729"><ele>450.0</ele><time>2026-04-23T13:44:13.147Z</time></trkpt><trkpt lat="44.2989448" lon="8.3039703"><ele>451.0</ele><time>2026-04-23T13:44:15.147Z</time></trkpt><trkpt lat="44.2988709" lon="8.3039692"><ele>452.0</ele><time>2026-04-23T13:44:17.146Z</time></trkpt><trkpt lat="44.2987942" lon="8.3039635"><ele>453.0</ele><time>2026-04-23T13:44:19.148Z</time></trkpt><trkpt lat="44.2987145" lon="8.3039638"><ele>453.5</ele><time>2026-04-23T13:44:21.147Z</time></trkpt><trkpt lat="44.2986293" lon="8.3039617"><ele>454.0</ele><time>2026-04-23T13:44:23.147Z</time></trkpt><trkpt lat="44.2985474" lon="8.3039666"><ele>454.5</ele><time>2026-04-23T13:44:25.147Z</time></trkpt><trkpt lat="44.2984689" lon="8.3039732"><ele>455.0</ele><time>2026-04-23T13:44:27.147Z</time></trkpt><trkpt lat="44.2983876" lon="8.3039815"><ele>455.5</ele><time>2026-04-23T13:44:29.146Z</time></trkpt><trkpt lat="44.2983017" lon="8.3040021"><ele>456.0</ele><time>2026-04-23T13:44:31.148Z</time></trkpt><trkpt lat="44.2982199" lon="8.3040248"><ele>456.0</ele><time>2026-04-23T13:44:33.147Z</time></trkpt><trkpt lat="44.2981406" lon="8.3040477"><ele>456.0</ele><time>2026-04-23T13:44:35.147Z</time></trkpt><trkpt lat="44.2980637" lon="8.3040712"><ele>456.0</ele><time>2026-04-23T13:44:37.146Z</time></trkpt><trkpt lat="44.2979789" lon="8.3040848"><ele>456.0</ele><time>2026-04-23T13:44:39.147Z</time></trkpt><trkpt lat="44.2978939" lon="8.3040789"><ele>456.0</ele><time>2026-04-23T13:44:41.146Z</time></trkpt><trkpt lat="44.2978144" lon="8.3040576"><ele>456.0</ele><time>2026-04-23T13:44:43.148Z</time></trkpt><trkpt lat="44.2977433" lon="8.3040301"><ele>456.1666666666667</ele><time>2026-04-23T13:44:45.147Z</time></trkpt><trkpt lat="44.2976723" lon="8.3039931"><ele>456.33333333333337</ele><time>2026-04-23T13:44:47.146Z</time></trkpt><trkpt lat="44.2976053" lon="8.3039425"><ele>456.5</ele><time>2026-04-23T13:44:49.148Z</time></trkpt><trkpt lat="44.2975503" lon="8.3038808"><ele>456.6666666666667</ele><time>2026-04-23T13:44:51.148Z</time></trkpt><trkpt lat="44.2974858" lon="8.3038159"><ele>456.83333333333337</ele><time>2026-04-23T13:44:53.147Z</time></trkpt><trkpt lat="44.2974207" lon="8.303756"><ele>457.0</ele><time>2026-04-23T13:44:55.147Z</time></trkpt><trkpt lat="44.2973742" lon="8.3036634"><ele>455.6</ele><time>2026-04-23T13:44:57.148Z</time></trkpt><trkpt lat="44.2973446" lon="8.3035502"><ele>454.20000000000005</ele><time>2026-04-23T13:44:59.147Z</time></trkpt><trkpt lat="44.2973394" lon="8.3034329"><ele>452.8</ele><time>2026-04-23T13:45:01.147Z</time></trkpt><trkpt lat="44.2973563" lon="8.3033126"><ele>451.4</ele><time>2026-04-23T13:45:03.147Z</time></trkpt><trkpt lat="44.2973713" lon="8.3031868"><ele>450.0</ele><time>2026-04-23T13:45:05.147Z</time></trkpt><trkpt lat="44.2973886" lon="8.3030433"><ele>449.6</ele><time>2026-04-23T13:45:07.148Z</time></trkpt><trkpt lat="44.2974139" lon="8.3028898"><ele>449.2</ele><time>2026-04-23T13:45:09.147Z</time></trkpt><trkpt lat="44.2974475" lon="8.3027275"><ele>448.79999999999995</ele><time>2026-04-23T13:45:11.148Z</time></trkpt><trkpt lat="44.2974651" lon="8.3026348"><ele>448.4</ele><time>2026-04-23T13:45:12.147Z</time></trkpt><trkpt lat="44.297489" lon="8.3025437"><ele>448.0</ele><time>2026-04-23T13:45:13.147Z</time></trkpt><trkpt lat="44.297517" lon="8.302368"><ele>448.0</ele><time>2026-04-23T13:45:15.147Z</time></trkpt><trkpt lat="44.2975312" lon="8.3022724"><ele>448.0</ele><time>2026-04-23T13:45:16.146Z</time></trkpt><trkpt lat="44.2975445" lon="8.3021792"><ele>448.0</ele><time>2026-04-23T13:45:17.147Z</time></trkpt><trkpt lat="44.2975597" lon="8.3020802"><ele>448.0</ele><time>2026-04-23T13:45:18.148Z</time></trkpt><trkpt lat="44.2975853" lon="8.3019863"><ele>448.0</ele><time>2026-04-23T13:45:19.146Z</time></trkpt><trkpt lat="44.2975968" lon="8.3018788"><ele>448.0</ele><time>2026-04-23T13:45:20.147Z</time></trkpt><trkpt lat="44.2976156" lon="8.3017784"><ele>448.0</ele><time>2026-04-23T13:45:21.146Z</time></trkpt><trkpt lat="44.297639" lon="8.3016708"><ele>447.85714285714283</ele><time>2026-04-23T13:45:22.148Z</time></trkpt><trkpt lat="44.2976641" lon="8.3015621"><ele>447.7142857142857</ele><time>2026-04-23T13:45:23.146Z</time></trkpt><trkpt lat="44.2976848" lon="8.3014577"><ele>447.57142857142856</ele><time>2026-04-23T13:45:24.147Z</time></trkpt><trkpt lat="44.297713" lon="8.3013546"><ele>447.42857142857144</ele><time>2026-04-23T13:45:25.147Z</time></trkpt><trkpt lat="44.2977383" lon="8.3012717"><ele>447.2857142857143</ele><time>2026-04-23T13:45:26.146Z</time></trkpt><trkpt lat="44.2977538" lon="8.301171"><ele>447.1428571428571</ele><time>2026-04-23T13:45:27.147Z</time></trkpt><trkpt lat="44.2977697" lon="8.3010784"><ele>447.0</ele><time>2026-04-23T13:45:28.147Z</time></trkpt><trkpt lat="44.2977879" lon="8.3009773"><ele>447.0</ele><time>2026-04-23T13:45:29.147Z</time></trkpt><trkpt lat="44.2978019" lon="8.3008788"><ele>447.0</ele><time>2026-04-23T13:45:30.147Z</time></trkpt><trkpt lat="44.2978179" lon="8.3007863"><ele>447.0</ele><time>2026-04-23T13:45:31.147Z</time></trkpt><trkpt lat="44.2978291" lon="8.3006859"><ele>447.0</ele><time>2026-04-23T13:45:32.146Z</time></trkpt><trkpt lat="44.2978354" lon="8.300592"><ele>447.0</ele><time>2026-04-23T13:45:33.147Z</time></trkpt><trkpt lat="44.2978161" lon="8.300418"><ele>447.0</ele><time>2026-04-23T13:45:35.146Z</time></trkpt><trkpt lat="44.2977666" lon="8.3002769"><ele>448.0</ele><time>2026-04-23T13:45:37.148Z</time></trkpt><trkpt lat="44.2977131" lon="8.3001754"><ele>449.0</ele><time>2026-04-23T13:45:39.147Z</time></trkpt><trkpt lat="44.2976598" lon="8.3000935"><ele>450.0</ele><time>2026-04-23T13:45:41.146Z</time></trkpt><trkpt lat="44.2976062" lon="8.300031"><ele>451.0</ele><time>2026-04-23T13:45:43.147Z</time></trkpt><trkpt lat="44.2975557" lon="8.2999672"><ele>452.0</ele><time>2026-04-23T13:45:45.147Z</time></trkpt><trkpt lat="44.2975096" lon="8.2999052"><ele>453.0</ele><time>2026-04-23T13:45:47.148Z</time></trkpt><trkpt lat="44.2974441" lon="8.2998178"><ele>453.8333333333333</ele><time>2026-04-23T13:45:50.147Z</time></trkpt><trkpt lat="44.2973917" lon="8.2997481"><ele>454.66666666666663</ele><time>2026-04-23T13:45:52.146Z</time></trkpt><trkpt lat="44.2973431" lon="8.2996902"><ele>455.5</ele><time>2026-04-23T13:45:54.146Z</time></trkpt><trkpt lat="44.2972698" lon="8.2996218"><ele>456.3333333333333</ele><time>2026-04-23T13:45:57.148Z</time></trkpt><trkpt lat="44.2972128" lon="8.2995617"><ele>457.16666666666663</ele><time>2026-04-23T13:46:00.148Z</time></trkpt><trkpt lat="44.2971418" lon="8.2994793"><ele>458.0</ele><time>2026-04-23T13:46:03.146Z</time></trkpt><trkpt lat="44.2970859" lon="8.2994191"><ele>458.0</ele><time>2026-04-23T13:46:05.146Z</time></trkpt><trkpt lat="44.2970303" lon="8.2993619"><ele>458.0</ele><time>2026-04-23T13:46:07.146Z</time></trkpt><trkpt lat="44.2969739" lon="8.2993089"><ele>458.0</ele><time>2026-04-23T13:46:09.146Z</time></trkpt><trkpt lat="44.2969174" lon="8.2992602"><ele>458.0</ele><time>2026-04-23T13:46:11.148Z</time></trkpt><trkpt lat="44.2968631" lon="8.2992024"><ele>458.0</ele><time>2026-04-23T13:46:13.146Z</time></trkpt><trkpt lat="44.2968051" lon="8.2991432"><ele>458.0</ele><time>2026-04-23T13:46:15.145Z</time></trkpt><trkpt lat="44.2967519" lon="8.2990773"><ele>458.0</ele><time>2026-04-23T13:46:17.146Z</time></trkpt><trkpt lat="44.2966956" lon="8.2990158"><ele>458.0</ele><time>2026-04-23T13:46:19.147Z</time></trkpt><trkpt lat="44.2966332" lon="8.2989466"><ele>457.99999999999994</ele><time>2026-04-23T13:46:21.147Z</time></trkpt><trkpt lat="44.2965631" lon="8.2988518"><ele>457.99999999999994</ele><time>2026-04-23T13:46:23.147Z</time></trkpt><trkpt lat="44.2964986" lon="8.2987541"><ele>458.0</ele><time>2026-04-23T13:46:25.147Z</time></trkpt><trkpt lat="44.2964257" lon="8.298665"><ele>458.0</ele><time>2026-04-23T13:46:27.145Z</time></trkpt><trkpt lat="44.2963369" lon="8.2985981"><ele>459.4</ele><time>2026-04-23T13:46:29.147Z</time></trkpt><trkpt lat="44.2962477" lon="8.2985461"><ele>460.79999999999995</ele><time>2026-04-23T13:46:31.147Z</time></trkpt><trkpt lat="44.2961508" lon="8.2984851"><ele>462.2</ele><time>2026-04-23T13:46:33.147Z</time></trkpt><trkpt lat="44.2960363" lon="8.29842"><ele>463.6</ele><time>2026-04-23T13:46:35.147Z</time></trkpt><trkpt lat="44.29593" lon="8.2983677"><ele>465.0</ele><time>2026-04-23T13:46:37.146Z</time></trkpt><trkpt lat="44.2958337" lon="8.2983219"><ele>465.0</ele><time>2026-04-23T13:46:39.148Z</time></trkpt><trkpt lat="44.295748" lon="8.29827"><ele>465.0</ele><time>2026-04-23T13:46:41.146Z</time></trkpt><trkpt lat="44.2956559" lon="8.2982141"><ele>465.0</ele><time>2026-04-23T13:46:43.147Z</time></trkpt><trkpt lat="44.2955561" lon="8.29818"><ele>465.0</ele><time>2026-04-23T13:46:45.146Z</time></trkpt><trkpt lat="44.2954794" lon="8.2981437"><ele>465.0</ele><time>2026-04-23T13:46:47.146Z</time></trkpt><trkpt lat="44.2953906" lon="8.298097"><ele>467.8</ele><time>2026-04-23T13:46:49.146Z</time></trkpt><trkpt lat="44.2953169" lon="8.2980095"><ele>470.6</ele><time>2026-04-23T13:46:51.147Z</time></trkpt><trkpt lat="44.2952318" lon="8.297944"><ele>473.4</ele><time>2026-04-23T13:46:53.147Z</time></trkpt><trkpt lat="44.2951383" lon="8.2978988"><ele>476.2</ele><time>2026-04-23T13:46:55.146Z</time></trkpt><trkpt lat="44.2950618" lon="8.2978378"><ele>479.0</ele><time>2026-04-23T13:46:57.146Z</time></trkpt><trkpt lat="44.2949751" lon="8.2977921"><ele>479.0</ele><time>2026-04-23T13:46:59.146Z</time></trkpt><trkpt lat="44.2948936" lon="8.2977554"><ele>479.0</ele><time>2026-04-23T13:47:01.147Z</time></trkpt><trkpt lat="44.2947933" lon="8.2977326"><ele>479.0</ele><time>2026-04-23T13:47:03.146Z</time></trkpt><trkpt lat="44.2947053" lon="8.2976838"><ele>479.0</ele><time>2026-04-23T13:47:05.147Z</time></trkpt><trkpt lat="44.2946011" lon="8.2976461"><ele>479.0</ele><time>2026-04-23T13:47:07.147Z</time></trkpt><trkpt lat="44.2945076" lon="8.2975796"><ele>476.6</ele><time>2026-04-23T13:47:09.145Z</time></trkpt><trkpt lat="44.2944174" lon="8.2975015"><ele>474.2</ele><time>2026-04-23T13:47:11.147Z</time></trkpt><trkpt lat="44.2943289" lon="8.2973833"><ele>471.80000000000007</ele><time>2026-04-23T13:47:13.147Z</time></trkpt><trkpt lat="44.2942422" lon="8.2972661"><ele>469.40000000000003</ele><time>2026-04-23T13:47:15.146Z</time></trkpt><trkpt lat="44.2941864" lon="8.297217"><ele>467.0</ele><time>2026-04-23T13:47:16.148Z</time></trkpt><trkpt lat="44.2941279" lon="8.2971646"><ele>466.99999999999994</ele><time>2026-04-23T13:47:17.147Z</time></trkpt><trkpt lat="44.2940736" lon="8.2971181"><ele>467.0</ele><time>2026-04-23T13:47:18.147Z</time></trkpt><trkpt lat="44.2940197" lon="8.2970652"><ele>467.0</ele><time>2026-04-23T13:47:19.147Z</time></trkpt><trkpt lat="44.2939623" lon="8.2970179"><ele>467.0</ele><time>2026-04-23T13:47:20.146Z</time></trkpt><trkpt lat="44.2938561" lon="8.2969415"><ele>466.99999999999994</ele><time>2026-04-23T13:47:22.147Z</time></trkpt><trkpt lat="44.2937535" lon="8.2968782"><ele>467.0</ele><time>2026-04-23T13:47:24.146Z</time></trkpt><trkpt lat="44.2936681" lon="8.2968194"><ele>464.6</ele><time>2026-04-23T13:47:26.146Z</time></trkpt><trkpt lat="44.2935932" lon="8.2967578"><ele>462.20000000000005</ele><time>2026-04-23T13:47:28.146Z</time></trkpt><trkpt lat="44.2935004" lon="8.2967072"><ele>459.8</ele><time>2026-04-23T13:47:30.147Z</time></trkpt><trkpt lat="44.2934194" lon="8.2966417"><ele>457.4</ele><time>2026-04-23T13:47:32.147Z</time></trkpt><trkpt lat="44.2933235" lon="8.2965986"><ele>455.0</ele><time>2026-04-23T13:47:34.147Z</time></trkpt><trkpt lat="44.293237" lon="8.296537"><ele>455.0</ele><time>2026-04-23T13:47:36.146Z</time></trkpt><trkpt lat="44.2931459" lon="8.296489"><ele>455.0</ele><time>2026-04-23T13:47:38.146Z</time></trkpt><trkpt lat="44.2930554" lon="8.2964347"><ele>455.0</ele><time>2026-04-23T13:47:40.145Z</time></trkpt><trkpt lat="44.2929772" lon="8.2963788"><ele>455.0</ele><time>2026-04-23T13:47:42.147Z</time></trkpt><trkpt lat="44.2928877" lon="8.2963172"><ele>455.0</ele><time>2026-04-23T13:47:44.147Z</time></trkpt><trkpt lat="44.2928084" lon="8.296243"><ele>454.6</ele><time>2026-04-23T13:47:46.146Z</time></trkpt><trkpt lat="44.292732" lon="8.2961755"><ele>454.2</ele><time>2026-04-23T13:47:48.146Z</time></trkpt><trkpt lat="44.2926394" lon="8.2961213"><ele>453.79999999999995</ele><time>2026-04-23T13:47:50.147Z</time></trkpt><trkpt lat="44.2925488" lon="8.2960756"><ele>453.4</ele><time>2026-04-23T13:47:52.147Z</time></trkpt><trkpt lat="44.2924592" lon="8.2960121"><ele>453.0</ele><time>2026-04-23T13:47:54.147Z</time></trkpt><trkpt lat="44.292383" lon="8.2959498"><ele>453.0</ele><time>2026-04-23T13:47:56.146Z</time></trkpt><trkpt lat="44.2923059" lon="8.2958819"><ele>453.0</ele><time>2026-04-23T13:47:58.147Z</time></trkpt><trkpt lat="44.292234" lon="8.2958065"><ele>453.0</ele><time>2026-04-23T13:48:00.146Z</time></trkpt><trkpt lat="44.2921658" lon="8.2957403"><ele>453.0</ele><time>2026-04-23T13:48:02.147Z</time></trkpt><trkpt lat="44.292098" lon="8.295676"><ele>453.0</ele><time>2026-04-23T13:48:04.146Z</time></trkpt><trkpt lat="44.2920331" lon="8.2956004"><ele>453.0</ele><time>2026-04-23T13:48:06.147Z</time></trkpt><trkpt lat="44.2919687" lon="8.2955063"><ele>453.3333333333333</ele><time>2026-04-23T13:48:08.146Z</time></trkpt><trkpt lat="44.2918981" lon="8.2954124"><ele>453.66666666666663</ele><time>2026-04-23T13:48:10.147Z</time></trkpt><trkpt lat="44.2918295" lon="8.2953139"><ele>454.0</ele><time>2026-04-23T13:48:12.146Z</time></trkpt><trkpt lat="44.2917726" lon="8.2952113"><ele>454.3333333333333</ele><time>2026-04-23T13:48:14.147Z</time></trkpt><trkpt lat="44.2917311" lon="8.2951128"><ele>454.66666666666663</ele><time>2026-04-23T13:48:16.146Z</time></trkpt><trkpt lat="44.2917" lon="8.295024"><ele>455.0</ele><time>2026-04-23T13:48:18.145Z</time></trkpt><trkpt lat="44.2916747" lon="8.2949307"><ele>454.99999999999994</ele><time>2026-04-23T13:48:20.146Z</time></trkpt><trkpt lat="44.2916569" lon="8.2948264"><ele>455.0</ele><time>2026-04-23T13:48:22.146Z</time></trkpt><trkpt lat="44.2916479" lon="8.2947162"><ele>455.0</ele><time>2026-04-23T13:48:24.145Z</time></trkpt><trkpt lat="44.2916401" lon="8.294611"><ele>455.0</ele><time>2026-04-23T13:48:26.146Z</time></trkpt><trkpt lat="44.2916322" lon="8.2945127"><ele>454.99999999999994</ele><time>2026-04-23T13:48:28.146Z</time></trkpt><trkpt lat="44.2916287" lon="8.2944195"><ele>455.0</ele><time>2026-04-23T13:48:30.146Z</time></trkpt><trkpt lat="44.2916306" lon="8.2942996"><ele>455.16666666666663</ele><time>2026-04-23T13:48:33.146Z</time></trkpt><trkpt lat="44.291637" lon="8.2941771"><ele>455.3333333333333</ele><time>2026-04-23T13:48:36.146Z</time></trkpt><trkpt lat="44.2916251" lon="8.294083"><ele>455.5</ele><time>2026-04-23T13:48:38.147Z</time></trkpt><trkpt lat="44.2916294" lon="8.2939837"><ele>455.66666666666663</ele><time>2026-04-23T13:48:40.147Z</time></trkpt><trkpt lat="44.291634" lon="8.293878"><ele>455.8333333333333</ele><time>2026-04-23T13:48:42.145Z</time></trkpt><trkpt lat="44.2916434" lon="8.2937757"><ele>456.0</ele><time>2026-04-23T13:48:44.147Z</time></trkpt><trkpt lat="44.291652" lon="8.2936683"><ele>456.1666666666667</ele><time>2026-04-23T13:48:46.146Z</time></trkpt><trkpt lat="44.2916584" lon="8.2935585"><ele>456.33333333333337</ele><time>2026-04-23T13:48:48.145Z</time></trkpt><trkpt lat="44.2916749" lon="8.2934456"><ele>456.5</ele><time>2026-04-23T13:48:50.146Z</time></trkpt><trkpt lat="44.2916886" lon="8.2933238"><ele>456.6666666666667</ele><time>2026-04-23T13:48:52.146Z</time></trkpt><trkpt lat="44.2917122" lon="8.2932124"><ele>456.83333333333337</ele><time>2026-04-23T13:48:54.145Z</time></trkpt><trkpt lat="44.2917467" lon="8.2930993"><ele>457.0</ele><time>2026-04-23T13:48:56.145Z</time></trkpt><trkpt lat="44.2917828" lon="8.2929957"><ele>457.1666666666667</ele><time>2026-04-23T13:48:58.147Z</time></trkpt><trkpt lat="44.2918157" lon="8.2928928"><ele>457.33333333333337</ele><time>2026-04-23T13:49:00.144Z</time></trkpt><trkpt lat="44.2918581" lon="8.2927946"><ele>457.5</ele><time>2026-04-23T13:49:02.147Z</time></trkpt><trkpt lat="44.2919017" lon="8.2926974"><ele>457.66666666666663</ele><time>2026-04-23T13:49:04.145Z</time></trkpt><trkpt lat="44.2919453" lon="8.2926054"><ele>457.8333333333333</ele><time>2026-04-23T13:49:06.146Z</time></trkpt><trkpt lat="44.2919835" lon="8.2925189"><ele>458.0</ele><time>2026-04-23T13:49:08.147Z</time></trkpt><trkpt lat="44.2920144" lon="8.2924321"><ele>457.99999999999994</ele><time>2026-04-23T13:49:10.147Z</time></trkpt><trkpt lat="44.2920481" lon="8.2923429"><ele>458.0</ele><time>2026-04-23T13:49:12.145Z</time></trkpt><trkpt lat="44.292083" lon="8.2922504"><ele>458.0</ele><time>2026-04-23T13:49:14.145Z</time></trkpt><trkpt lat="44.2921208" lon="8.2921574"><ele>458.0</ele><time>2026-04-23T13:49:16.147Z</time></trkpt><trkpt lat="44.2921592" lon="8.2920615"><ele>457.99999999999994</ele><time>2026-04-23T13:49:18.146Z</time></trkpt><trkpt lat="44.2921931" lon="8.2919629"><ele>458.0</ele><time>2026-04-23T13:49:20.146Z</time></trkpt><trkpt lat="44.292232" lon="8.291869"><ele>458.85714285714283</ele><time>2026-04-23T13:49:22.146Z</time></trkpt><trkpt lat="44.2922744" lon="8.2917763"><ele>459.7142857142858</ele><time>2026-04-23T13:49:24.147Z</time></trkpt><trkpt lat="44.2923149" lon="8.2916856"><ele>460.5714285714286</ele><time>2026-04-23T13:49:26.147Z</time></trkpt><trkpt lat="44.2923566" lon="8.2916108"><ele>461.42857142857144</ele><time>2026-04-23T13:49:28.145Z</time></trkpt><trkpt lat="44.2923952" lon="8.2915236"><ele>462.28571428571433</ele><time>2026-04-23T13:49:30.146Z</time></trkpt><trkpt lat="44.2924307" lon="8.2914345"><ele>463.1428571428572</ele><time>2026-04-23T13:49:32.147Z</time></trkpt><trkpt lat="44.2924594" lon="8.2913465"><ele>464.00000000000006</ele><time>2026-04-23T13:49:34.145Z</time></trkpt><trkpt lat="44.292485" lon="8.2912598"><ele>464.00000000000006</ele><time>2026-04-23T13:49:36.146Z</time></trkpt><trkpt lat="44.2925063" lon="8.2911738"><ele>464.0</ele><time>2026-04-23T13:49:38.147Z</time></trkpt><trkpt lat="44.2925217" lon="8.2910815"><ele>464.00000000000006</ele><time>2026-04-23T13:49:40.147Z</time></trkpt><trkpt lat="44.2925307" lon="8.2909811"><ele>464.00000000000006</ele><time>2026-04-23T13:49:42.146Z</time></trkpt><trkpt lat="44.2925424" lon="8.2908665"><ele>464.0</ele><time>2026-04-23T13:49:44.146Z</time></trkpt><trkpt lat="44.2925528" lon="8.2907555"><ele>464.00000000000006</ele><time>2026-04-23T13:49:46.146Z</time></trkpt><trkpt lat="44.2925613" lon="8.2906505"><ele>464.00000000000006</ele><time>2026-04-23T13:49:48.146Z</time></trkpt><trkpt lat="44.2925674" lon="8.2905396"><ele>464.16666666666663</ele><time>2026-04-23T13:49:50.145Z</time></trkpt><trkpt lat="44.2925776" lon="8.2904354"><ele>464.3333333333333</ele><time>2026-04-23T13:49:52.147Z</time></trkpt><trkpt lat="44.2925779" lon="8.290329"><ele>464.5</ele><time>2026-04-23T13:49:54.146Z</time></trkpt><trkpt lat="44.292574" lon="8.2902189"><ele>464.66666666666663</ele><time>2026-04-23T13:49:56.147Z</time></trkpt><trkpt lat="44.2925771" lon="8.2901138"><ele>464.8333333333333</ele><time>2026-04-23T13:49:58.146Z</time></trkpt><trkpt lat="44.2925835" lon="8.2900124"><ele>465.0</ele><time>2026-04-23T13:50:00.147Z</time></trkpt><trkpt lat="44.2925858" lon="8.2899054"><ele>465.0</ele><time>2026-04-23T13:50:02.146Z</time></trkpt><trkpt lat="44.2925872" lon="8.2897951"><ele>465.0</ele><time>2026-04-23T13:50:04.147Z</time></trkpt><trkpt lat="44.2925886" lon="8.2896879"><ele>465.0</ele><time>2026-04-23T13:50:06.146Z</time></trkpt><trkpt lat="44.2925907" lon="8.2895764"><ele>465.0</ele><time>2026-04-23T13:50:08.146Z</time></trkpt><trkpt lat="44.2925978" lon="8.2894624"><ele>465.0</ele><time>2026-04-23T13:50:10.145Z</time></trkpt><trkpt lat="44.2925998" lon="8.2893499"><ele>465.0</ele><time>2026-04-23T13:50:12.145Z</time></trkpt><trkpt lat="44.2926019" lon="8.2892383"><ele>465.0</ele><time>2026-04-23T13:50:14.145Z</time></trkpt><trkpt lat="44.292604" lon="8.2891288"><ele>465.0</ele><time>2026-04-23T13:50:16.145Z</time></trkpt><trkpt lat="44.2926129" lon="8.2890169"><ele>465.0</ele><time>2026-04-23T13:50:18.145Z</time></trkpt><trkpt lat="44.2926279" lon="8.2889011"><ele>465.0</ele><time>2026-04-23T13:50:20.145Z</time></trkpt><trkpt lat="44.2926465" lon="8.2887927"><ele>465.0</ele><time>2026-04-23T13:50:22.145Z</time></trkpt><trkpt lat="44.2926615" lon="8.2886922"><ele>465.0</ele><time>2026-04-23T13:50:24.147Z</time></trkpt><trkpt lat="44.2926786" lon="8.2885873"><ele>465.0</ele><time>2026-04-23T13:50:26.147Z</time></trkpt><trkpt lat="44.2927082" lon="8.2884954"><ele>465.0</ele><time>2026-04-23T13:50:28.146Z</time></trkpt><trkpt lat="44.2927519" lon="8.2883964"><ele>465.0</ele><time>2026-04-23T13:50:30.146Z</time></trkpt><trkpt lat="44.2927941" lon="8.2882929"><ele>465.0</ele><time>2026-04-23T13:50:32.146Z</time></trkpt><trkpt lat="44.292838" lon="8.2881917"><ele>465.0</ele><time>2026-04-23T13:50:34.145Z</time></trkpt><trkpt lat="44.2928826" lon="8.28808"><ele>465.0</ele><time>2026-04-23T13:50:36.146Z</time></trkpt><trkpt lat="44.2929315" lon="8.2879736"><ele>464.8</ele><time>2026-04-23T13:50:38.146Z</time></trkpt><trkpt lat="44.2929796" lon="8.2878468"><ele>464.6</ele><time>2026-04-23T13:50:40.145Z</time></trkpt><trkpt lat="44.2930318" lon="8.2877302"><ele>464.4</ele><time>2026-04-23T13:50:42.145Z</time></trkpt><trkpt lat="44.2930878" lon="8.2876042"><ele>464.2</ele><time>2026-04-23T13:50:44.145Z</time></trkpt><trkpt lat="44.2931456" lon="8.2874754"><ele>464.0</ele><time>2026-04-23T13:50:46.146Z</time></trkpt><trkpt lat="44.2931932" lon="8.2873536"><ele>466.16666666666663</ele><time>2026-04-23T13:50:48.146Z</time></trkpt><trkpt lat="44.2932425" lon="8.2872536"><ele>468.3333333333333</ele><time>2026-04-23T13:50:50.147Z</time></trkpt><trkpt lat="44.2932841" lon="8.2871635"><ele>470.5</ele><time>2026-04-23T13:50:52.145Z</time></trkpt><trkpt lat="44.293307" lon="8.2870588"><ele>472.66666666666663</ele><time>2026-04-23T13:50:54.146Z</time></trkpt><trkpt lat="44.293322" lon="8.2869444"><ele>474.8333333333333</ele><time>2026-04-23T13:50:56.146Z</time></trkpt><trkpt lat="44.2933369" lon="8.2868245"><ele>477.0</ele><time>2026-04-23T13:50:58.147Z</time></trkpt><trkpt lat="44.2933483" lon="8.2866984"><ele>477.0</ele><time>2026-04-23T13:51:00.147Z</time></trkpt><trkpt lat="44.2933514" lon="8.2865732"><ele>477.0</ele><time>2026-04-23T13:51:02.146Z</time></trkpt><trkpt lat="44.2933457" lon="8.2864519"><ele>477.0</ele><time>2026-04-23T13:51:04.147Z</time></trkpt><trkpt lat="44.2933456" lon="8.2863346"><ele>477.0</ele><time>2026-04-23T13:51:06.145Z</time></trkpt><trkpt lat="44.2933378" lon="8.2862186"><ele>477.0</ele><time>2026-04-23T13:51:08.146Z</time></trkpt><trkpt lat="44.2933214" lon="8.2861075"><ele>477.0</ele><time>2026-04-23T13:51:10.145Z</time></trkpt><trkpt lat="44.2933044" lon="8.2859925"><ele>478.20000000000005</ele><time>2026-04-23T13:51:12.145Z</time></trkpt><trkpt lat="44.2932883" lon="8.2858835"><ele>479.40000000000003</ele><time>2026-04-23T13:51:14.145Z</time></trkpt><trkpt lat="44.2932693" lon="8.285773"><ele>480.59999999999997</ele><time>2026-04-23T13:51:16.147Z</time></trkpt><trkpt lat="44.2932334" lon="8.2856584"><ele>481.79999999999995</ele><time>2026-04-23T13:51:18.146Z</time></trkpt><trkpt lat="44.2931752" lon="8.2855449"><ele>483.0</ele><time>2026-04-23T13:51:20.146Z</time></trkpt><trkpt lat="44.2931084" lon="8.2854331"><ele>481.1666666666667</ele><time>2026-04-23T13:51:22.147Z</time></trkpt><trkpt lat="44.2930401" lon="8.28533"><ele>479.33333333333337</ele><time>2026-04-23T13:51:24.145Z</time></trkpt><trkpt lat="44.29299" lon="8.2852307"><ele>477.5</ele><time>2026-04-23T13:51:26.145Z</time></trkpt><trkpt lat="44.2929447" lon="8.2851559"><ele>475.6666666666667</ele><time>2026-04-23T13:51:28.147Z</time></trkpt><trkpt lat="44.2928907" lon="8.2850709"><ele>473.83333333333337</ele><time>2026-04-23T13:51:30.147Z</time></trkpt><trkpt lat="44.2928255" lon="8.2849776"><ele>472.0</ele><time>2026-04-23T13:51:32.146Z</time></trkpt><trkpt lat="44.2927612" lon="8.2848796"><ele>472.0</ele><time>2026-04-23T13:51:34.146Z</time></trkpt><trkpt lat="44.292698" lon="8.2847791"><ele>472.00000000000006</ele><time>2026-04-23T13:51:36.144Z</time></trkpt><trkpt lat="44.2926282" lon="8.2846699"><ele>472.00000000000006</ele><time>2026-04-23T13:51:38.146Z</time></trkpt><trkpt lat="44.2925534" lon="8.2845619"><ele>472.0</ele><time>2026-04-23T13:51:40.144Z</time></trkpt><trkpt lat="44.2924882" lon="8.2844407"><ele>472.0</ele><time>2026-04-23T13:51:42.146Z</time></trkpt><trkpt lat="44.2924218" lon="8.2843352"><ele>472.8</ele><time>2026-04-23T13:51:44.146Z</time></trkpt><trkpt lat="44.2923557" lon="8.2842345"><ele>473.6</ele><time>2026-04-23T13:51:46.147Z</time></trkpt><trkpt lat="44.2922799" lon="8.2841184"><ele>474.40000000000003</ele><time>2026-04-23T13:51:48.146Z</time></trkpt><trkpt lat="44.2922065" lon="8.2839981"><ele>475.20000000000005</ele><time>2026-04-23T13:51:50.146Z</time></trkpt><trkpt lat="44.2921303" lon="8.2838909"><ele>476.0</ele><time>2026-04-23T13:51:52.145Z</time></trkpt><trkpt lat="44.2920538" lon="8.2837904"><ele>476.6</ele><time>2026-04-23T13:51:54.144Z</time></trkpt><trkpt lat="44.2919768" lon="8.2837137"><ele>477.20000000000005</ele><time>2026-04-23T13:51:56.145Z</time></trkpt><trkpt lat="44.2918994" lon="8.2836354"><ele>477.79999999999995</ele><time>2026-04-23T13:51:58.146Z</time></trkpt><trkpt lat="44.291823" lon="8.2835462"><ele>478.4</ele><time>2026-04-23T13:52:00.146Z</time></trkpt><trkpt lat="44.2917485" lon="8.2834597"><ele>479.0</ele><time>2026-04-23T13:52:02.145Z</time></trkpt><trkpt lat="44.2916755" lon="8.2833732"><ele>479.0</ele><time>2026-04-23T13:52:04.145Z</time></trkpt><trkpt lat="44.2915958" lon="8.2832905"><ele>479.0</ele><time>2026-04-23T13:52:06.146Z</time></trkpt><trkpt lat="44.2915097" lon="8.2832192"><ele>479.0</ele><time>2026-04-23T13:52:08.145Z</time></trkpt><trkpt lat="44.2914128" lon="8.2831561"><ele>479.0</ele><time>2026-04-23T13:52:10.146Z</time></trkpt><trkpt lat="44.2913266" lon="8.2830854"><ele>479.0</ele><time>2026-04-23T13:52:12.146Z</time></trkpt><trkpt lat="44.291231" lon="8.2830208"><ele>479.79999999999995</ele><time>2026-04-23T13:52:14.146Z</time></trkpt><trkpt lat="44.2911418" lon="8.2829306"><ele>480.59999999999997</ele><time>2026-04-23T13:52:16.146Z</time></trkpt><trkpt lat="44.2910616" lon="8.2828529"><ele>481.4</ele><time>2026-04-23T13:52:18.145Z</time></trkpt><trkpt lat="44.2909798" lon="8.2827796"><ele>482.2</ele><time>2026-04-23T13:52:20.145Z</time></trkpt><trkpt lat="44.2909036" lon="8.2827134"><ele>483.0</ele><time>2026-04-23T13:52:22.145Z</time></trkpt><trkpt lat="44.2908297" lon="8.2826396"><ele>483.0</ele><time>2026-04-23T13:52:24.144Z</time></trkpt><trkpt lat="44.2907587" lon="8.2825752"><ele>483.0</ele><time>2026-04-23T13:52:26.145Z</time></trkpt><trkpt lat="44.2906885" lon="8.2825066"><ele>483.0</ele><time>2026-04-23T13:52:28.145Z</time></trkpt><trkpt lat="44.2906125" lon="8.2824252"><ele>483.0</ele><time>2026-04-23T13:52:30.145Z</time></trkpt><trkpt lat="44.2905375" lon="8.2823516"><ele>483.0</ele><time>2026-04-23T13:52:32.146Z</time></trkpt><trkpt lat="44.2904666" lon="8.2822768"><ele>483.0</ele><time>2026-04-23T13:52:34.147Z</time></trkpt><trkpt lat="44.2903932" lon="8.2821973"><ele>483.0</ele><time>2026-04-23T13:52:36.145Z</time></trkpt><trkpt lat="44.290318" lon="8.2821401"><ele>483.0</ele><time>2026-04-23T13:52:38.145Z</time></trkpt><trkpt lat="44.2902455" lon="8.2820789"><ele>483.0</ele><time>2026-04-23T13:52:40.146Z</time></trkpt><trkpt lat="44.2901702" lon="8.2820123"><ele>483.0</ele><time>2026-04-23T13:52:42.145Z</time></trkpt><trkpt lat="44.2900947" lon="8.2819504"><ele>483.0</ele><time>2026-04-23T13:52:44.146Z</time></trkpt><trkpt lat="44.29002" lon="8.2818882"><ele>483.0</ele><time>2026-04-23T13:52:46.145Z</time></trkpt><trkpt lat="44.2899534" lon="8.2818018"><ele>483.0</ele><time>2026-04-23T13:52:48.147Z</time></trkpt><trkpt lat="44.2898907" lon="8.2817223"><ele>483.0</ele><time>2026-04-23T13:52:50.145Z</time></trkpt><trkpt lat="44.2898305" lon="8.2816534"><ele>483.0</ele><time>2026-04-23T13:52:52.144Z</time></trkpt><trkpt lat="44.2897699" lon="8.2815804"><ele>483.0</ele><time>2026-04-23T13:52:54.145Z</time></trkpt><trkpt lat="44.2897094" lon="8.2814999"><ele>483.0</ele><time>2026-04-23T13:52:56.145Z</time></trkpt><trkpt lat="44.2896471" lon="8.2814121"><ele>483.0</ele><time>2026-04-23T13:52:58.147Z</time></trkpt><trkpt lat="44.289581" lon="8.2813281"><ele>484.0</ele><time>2026-04-23T13:53:00.145Z</time></trkpt><trkpt lat="44.2895146" lon="8.2812549"><ele>485.0</ele><time>2026-04-23T13:53:02.146Z</time></trkpt><trkpt lat="44.289444" lon="8.2811965"><ele>486.0</ele><time>2026-04-23T13:53:04.146Z</time></trkpt><trkpt lat="44.2893663" lon="8.2811466"><ele>487.0</ele><time>2026-04-23T13:53:06.145Z</time></trkpt><trkpt lat="44.2892892" lon="8.2810973"><ele>488.0</ele><time>2026-04-23T13:53:08.146Z</time></trkpt><trkpt lat="44.2892133" lon="8.28105"><ele>489.0</ele><time>2026-04-23T13:53:10.145Z</time></trkpt><trkpt lat="44.289141" lon="8.2810041"><ele>489.0</ele><time>2026-04-23T13:53:12.145Z</time></trkpt><trkpt lat="44.2890627" lon="8.2809696"><ele>489.0</ele><time>2026-04-23T13:53:14.145Z</time></trkpt><trkpt lat="44.288984" lon="8.2809404"><ele>489.0</ele><time>2026-04-23T13:53:16.146Z</time></trkpt><trkpt lat="44.2889028" lon="8.2809098"><ele>489.0</ele><time>2026-04-23T13:53:18.145Z</time></trkpt><trkpt lat="44.2888194" lon="8.2808782"><ele>489.0</ele><time>2026-04-23T13:53:20.146Z</time></trkpt><trkpt lat="44.2887314" lon="8.2808432"><ele>489.0</ele><time>2026-04-23T13:53:22.146Z</time></trkpt><trkpt lat="44.2886476" lon="8.2807887"><ele>490.0</ele><time>2026-04-23T13:53:24.145Z</time></trkpt><trkpt lat="44.2885599" lon="8.2807451"><ele>491.0</ele><time>2026-04-23T13:53:26.145Z</time></trkpt><trkpt lat="44.2884737" lon="8.2806961"><ele>492.0</ele><time>2026-04-23T13:53:28.145Z</time></trkpt><trkpt lat="44.2883737" lon="8.2806378"><ele>493.0</ele><time>2026-04-23T13:53:30.145Z</time></trkpt><trkpt lat="44.2882873" lon="8.2805822"><ele>494.0</ele><time>2026-04-23T13:53:32.146Z</time></trkpt><trkpt lat="44.2882004" lon="8.2805384"><ele>493.99999999999994</ele><time>2026-04-23T13:53:34.144Z</time></trkpt><trkpt lat="44.2881153" lon="8.2804948"><ele>494.0</ele><time>2026-04-23T13:53:36.145Z</time></trkpt><trkpt lat="44.2880329" lon="8.2804373"><ele>494.0</ele><time>2026-04-23T13:53:38.146Z</time></trkpt><trkpt lat="44.2879547" lon="8.2803862"><ele>494.0</ele><time>2026-04-23T13:53:40.144Z</time></trkpt><trkpt lat="44.2878794" lon="8.2803343"><ele>493.99999999999994</ele><time>2026-04-23T13:53:42.146Z</time></trkpt><trkpt lat="44.2877985" lon="8.2802929"><ele>494.0</ele><time>2026-04-23T13:53:44.146Z</time></trkpt><trkpt lat="44.2877258" lon="8.2802437"><ele>492.16666666666663</ele><time>2026-04-23T13:53:46.144Z</time></trkpt><trkpt lat="44.2876506" lon="8.2801993"><ele>490.3333333333333</ele><time>2026-04-23T13:53:48.146Z</time></trkpt><trkpt lat="44.2875721" lon="8.2801636"><ele>488.5</ele><time>2026-04-23T13:53:50.146Z</time></trkpt><trkpt lat="44.2874964" lon="8.2801237"><ele>486.66666666666663</ele><time>2026-04-23T13:53:52.144Z</time></trkpt><trkpt lat="44.2874273" lon="8.280078"><ele>484.8333333333333</ele><time>2026-04-23T13:53:54.144Z</time></trkpt><trkpt lat="44.2873625" lon="8.2800255"><ele>483.0</ele><time>2026-04-23T13:53:56.145Z</time></trkpt><trkpt lat="44.2872916" lon="8.2799674"><ele>483.0</ele><time>2026-04-23T13:53:58.146Z</time></trkpt><trkpt lat="44.2872168" lon="8.2799226"><ele>483.0</ele><time>2026-04-23T13:54:00.146Z</time></trkpt><trkpt lat="44.2871434" lon="8.2798572"><ele>483.0</ele><time>2026-04-23T13:54:02.144Z</time></trkpt><trkpt lat="44.2870873" lon="8.2797805"><ele>483.0</ele><time>2026-04-23T13:54:04.146Z</time></trkpt><trkpt lat="44.2870427" lon="8.2796825"><ele>483.0</ele><time>2026-04-23T13:54:06.146Z</time></trkpt><trkpt lat="44.2870123" lon="8.279578"><ele>483.0</ele><time>2026-04-23T13:54:08.144Z</time></trkpt><trkpt lat="44.2869861" lon="8.2794775"><ele>483.0</ele><time>2026-04-23T13:54:10.145Z</time></trkpt><trkpt lat="44.2869503" lon="8.279376"><ele>483.0</ele><time>2026-04-23T13:54:12.145Z</time></trkpt><trkpt lat="44.2869183" lon="8.2792688"><ele>483.0</ele><time>2026-04-23T13:54:14.145Z</time></trkpt><trkpt lat="44.2868846" lon="8.2791597"><ele>483.0</ele><time>2026-04-23T13:54:16.146Z</time></trkpt><trkpt lat="44.286849" lon="8.2790531"><ele>483.0</ele><time>2026-04-23T13:54:18.145Z</time></trkpt><trkpt lat="44.2868158" lon="8.2789435"><ele>483.0</ele><time>2026-04-23T13:54:20.145Z</time></trkpt><trkpt lat="44.2867771" lon="8.2788383"><ele>484.1666666666667</ele><time>2026-04-23T13:54:22.145Z</time></trkpt><trkpt lat="44.2867408" lon="8.2787336"><ele>485.33333333333337</ele><time>2026-04-23T13:54:24.146Z</time></trkpt><trkpt lat="44.2867066" lon="8.2786367"><ele>486.5</ele><time>2026-04-23T13:54:26.145Z</time></trkpt><trkpt lat="44.2866861" lon="8.2785291"><ele>487.6666666666667</ele><time>2026-04-23T13:54:28.146Z</time></trkpt><trkpt lat="44.2866615" lon="8.2784226"><ele>488.83333333333337</ele><time>2026-04-23T13:54:30.144Z</time></trkpt><trkpt lat="44.2866302" lon="8.2783136"><ele>490.0</ele><time>2026-04-23T13:54:32.146Z</time></trkpt><trkpt lat="44.2865983" lon="8.2782005"><ele>489.33333333333337</ele><time>2026-04-23T13:54:34.144Z</time></trkpt><trkpt lat="44.2865629" lon="8.2781014"><ele>488.6666666666667</ele><time>2026-04-23T13:54:36.145Z</time></trkpt><trkpt lat="44.2865296" lon="8.2780086"><ele>488.0</ele><time>2026-04-23T13:54:38.145Z</time></trkpt><trkpt lat="44.2864968" lon="8.277917"><ele>487.33333333333337</ele><time>2026-04-23T13:54:40.145Z</time></trkpt><trkpt lat="44.2864638" lon="8.2778228"><ele>486.6666666666667</ele><time>2026-04-23T13:54:42.144Z</time></trkpt><trkpt lat="44.286444" lon="8.2777067"><ele>486.0</ele><time>2026-04-23T13:54:44.144Z</time></trkpt><trkpt lat="44.2864133" lon="8.2775838"><ele>486.0</ele><time>2026-04-23T13:54:46.146Z</time></trkpt><trkpt lat="44.2863973" lon="8.2774643"><ele>486.0</ele><time>2026-04-23T13:54:48.145Z</time></trkpt><trkpt lat="44.2863693" lon="8.277352"><ele>486.0</ele><time>2026-04-23T13:54:50.146Z</time></trkpt><trkpt lat="44.2863372" lon="8.2772284"><ele>486.0</ele><time>2026-04-23T13:54:52.144Z</time></trkpt><trkpt lat="44.2863237" lon="8.2771122"><ele>486.0</ele><time>2026-04-23T13:54:54.146Z</time></trkpt><trkpt lat="44.2862982" lon="8.2769981"><ele>486.0</ele><time>2026-04-23T13:54:56.146Z</time></trkpt><trkpt lat="44.2862579" lon="8.2768864"><ele>486.6</ele><time>2026-04-23T13:54:58.145Z</time></trkpt><trkpt lat="44.2862393" lon="8.2767719"><ele>487.20000000000005</ele><time>2026-04-23T13:55:00.144Z</time></trkpt><trkpt lat="44.2862014" lon="8.2766609"><ele>487.79999999999995</ele><time>2026-04-23T13:55:02.145Z</time></trkpt><trkpt lat="44.2861597" lon="8.2765452"><ele>488.4</ele><time>2026-04-23T13:55:04.145Z</time></trkpt><trkpt lat="44.2861236" lon="8.2764242"><ele>489.0</ele><time>2026-04-23T13:55:06.145Z</time></trkpt><trkpt lat="44.2860929" lon="8.2763023"><ele>489.5</ele><time>2026-04-23T13:55:08.144Z</time></trkpt><trkpt lat="44.2860635" lon="8.2761892"><ele>490.0</ele><time>2026-04-23T13:55:10.145Z</time></trkpt><trkpt lat="44.2860267" lon="8.2760722"><ele>490.5</ele><time>2026-04-23T13:55:12.145Z</time></trkpt><trkpt lat="44.2860051" lon="8.2759523"><ele>491.0</ele><time>2026-04-23T13:55:14.145Z</time></trkpt><trkpt lat="44.2859933" lon="8.2758346"><ele>491.5</ele><time>2026-04-23T13:55:16.144Z</time></trkpt><trkpt lat="44.2859783" lon="8.2757267"><ele>492.0</ele><time>2026-04-23T13:55:18.143Z</time></trkpt><trkpt lat="44.2859712" lon="8.2756229"><ele>492.6666666666667</ele><time>2026-04-23T13:55:20.145Z</time></trkpt><trkpt lat="44.2859649" lon="8.2755149"><ele>493.33333333333337</ele><time>2026-04-23T13:55:22.145Z</time></trkpt><trkpt lat="44.2859597" lon="8.2753997"><ele>494.0</ele><time>2026-04-23T13:55:24.146Z</time></trkpt><trkpt lat="44.2859575" lon="8.275278"><ele>494.6666666666667</ele><time>2026-04-23T13:55:26.144Z</time></trkpt><trkpt lat="44.2859565" lon="8.2751563"><ele>495.33333333333337</ele><time>2026-04-23T13:55:28.144Z</time></trkpt><trkpt lat="44.285954" lon="8.2750335"><ele>496.0</ele><time>2026-04-23T13:55:30.144Z</time></trkpt><trkpt lat="44.2859533" lon="8.2749138"><ele>496.00000000000006</ele><time>2026-04-23T13:55:32.146Z</time></trkpt><trkpt lat="44.2859519" lon="8.2747906"><ele>496.0</ele><time>2026-04-23T13:55:34.146Z</time></trkpt><trkpt lat="44.285955" lon="8.2746649"><ele>496.0</ele><time>2026-04-23T13:55:36.144Z</time></trkpt><trkpt lat="44.2859529" lon="8.2745438"><ele>496.0</ele><time>2026-04-23T13:55:38.144Z</time></trkpt><trkpt lat="44.2859505" lon="8.2744323"><ele>496.00000000000006</ele><time>2026-04-23T13:55:40.147Z</time></trkpt><trkpt lat="44.2859538" lon="8.2743246"><ele>496.0</ele><time>2026-04-23T13:55:42.146Z</time></trkpt><trkpt lat="44.2859535" lon="8.2742174"><ele>497.00000000000006</ele><time>2026-04-23T13:55:44.145Z</time></trkpt><trkpt lat="44.2859563" lon="8.2741133"><ele>498.0</ele><time>2026-04-23T13:55:46.145Z</time></trkpt><trkpt lat="44.2859557" lon="8.2740209"><ele>499.0</ele><time>2026-04-23T13:55:48.144Z</time></trkpt><trkpt lat="44.2859556" lon="8.2738994"><ele>500.0</ele><time>2026-04-23T13:55:51.145Z</time></trkpt><trkpt lat="44.2859211" lon="8.2738113"><ele>501.00000000000006</ele><time>2026-04-23T13:55:54.146Z</time></trkpt><trkpt lat="44.2859308" lon="8.2739287"><ele>502.0</ele><time>2026-04-23T13:55:57.145Z</time></trkpt><trkpt lat="44.2859649" lon="8.2740676"><ele>501.99999999999994</ele><time>2026-04-23T13:55:59.145Z</time></trkpt><trkpt lat="44.2859798" lon="8.2741715"><ele>502.0</ele><time>2026-04-23T13:56:00.144Z</time></trkpt><trkpt lat="44.286002" lon="8.2742602"><ele>501.99999999999994</ele><time>2026-04-23T13:56:01.144Z</time></trkpt><trkpt lat="44.2859746" lon="8.2743489"><ele>501.99999999999994</ele><time>2026-04-23T13:56:02.146Z</time></trkpt><trkpt lat="44.2859836" lon="8.2744448"><ele>502.0</ele><time>2026-04-23T13:56:03.145Z</time></trkpt><trkpt lat="44.2859911" lon="8.2745399"><ele>501.99999999999994</ele><time>2026-04-23T13:56:04.145Z</time></trkpt><trkpt lat="44.2859808" lon="8.2746374"><ele>501.99999999999994</ele><time>2026-04-23T13:56:05.144Z</time></trkpt><trkpt lat="44.2859769" lon="8.2747492"><ele>501.1428571428571</ele><time>2026-04-23T13:56:06.145Z</time></trkpt><trkpt lat="44.2859519" lon="8.2748602"><ele>500.2857142857143</ele><time>2026-04-23T13:56:07.146Z</time></trkpt><trkpt lat="44.2859424" lon="8.2749612"><ele>499.42857142857144</ele><time>2026-04-23T13:56:08.144Z</time></trkpt><trkpt lat="44.2859429" lon="8.2750631"><ele>498.57142857142856</ele><time>2026-04-23T13:56:09.144Z</time></trkpt><trkpt lat="44.2859617" lon="8.2751478"><ele>497.7142857142858</ele><time>2026-04-23T13:56:10.145Z</time></trkpt><trkpt lat="44.2859601" lon="8.2752444"><ele>496.8571428571429</ele><time>2026-04-23T13:56:11.145Z</time></trkpt><trkpt lat="44.28596" lon="8.2753349"><ele>496.0</ele><time>2026-04-23T13:56:12.145Z</time></trkpt><trkpt lat="44.2859557" lon="8.275424"><ele>496.0</ele><time>2026-04-23T13:56:13.145Z</time></trkpt><trkpt lat="44.2859733" lon="8.2755157"><ele>496.0</ele><time>2026-04-23T13:56:14.146Z</time></trkpt><trkpt lat="44.2859704" lon="8.2756895"><ele>496.0</ele><time>2026-04-23T13:56:16.145Z</time></trkpt><trkpt lat="44.2859764" lon="8.2758511"><ele>496.0</ele><time>2026-04-23T13:56:18.145Z</time></trkpt><trkpt lat="44.2859982" lon="8.276"><ele>496.0</ele><time>2026-04-23T13:56:20.145Z</time></trkpt><trkpt lat="44.2860327" lon="8.2761464"><ele>495.20000000000005</ele><time>2026-04-23T13:56:22.145Z</time></trkpt><trkpt lat="44.2860641" lon="8.2762847"><ele>494.40000000000003</ele><time>2026-04-23T13:56:24.144Z</time></trkpt><trkpt lat="44.2861014" lon="8.2764297"><ele>493.6</ele><time>2026-04-23T13:56:26.145Z</time></trkpt><trkpt lat="44.2861406" lon="8.2765486"><ele>492.8</ele><time>2026-04-23T13:56:28.145Z</time></trkpt><trkpt lat="44.2861699" lon="8.2766924"><ele>492.0</ele><time>2026-04-23T13:56:30.144Z</time></trkpt><trkpt lat="44.2861993" lon="8.2768238"><ele>491.40000000000003</ele><time>2026-04-23T13:56:32.144Z</time></trkpt><trkpt lat="44.2862444" lon="8.2769802"><ele>490.80000000000007</ele><time>2026-04-23T13:56:34.145Z</time></trkpt><trkpt lat="44.2862809" lon="8.277135"><ele>490.2</ele><time>2026-04-23T13:56:36.145Z</time></trkpt><trkpt lat="44.2863062" lon="8.2772203"><ele>489.6</ele><time>2026-04-23T13:56:37.145Z</time></trkpt><trkpt lat="44.2863442" lon="8.2773874"><ele>489.0</ele><time>2026-04-23T13:56:39.144Z</time></trkpt><trkpt lat="44.2863671" lon="8.2774695"><ele>488.25</ele><time>2026-04-23T13:56:40.144Z</time></trkpt><trkpt lat="44.2864087" lon="8.2776248"><ele>487.5</ele><time>2026-04-23T13:56:42.145Z</time></trkpt><trkpt lat="44.2864605" lon="8.2777681"><ele>486.75</ele><time>2026-04-23T13:56:44.145Z</time></trkpt><trkpt lat="44.286501" lon="8.2779109"><ele>486.0</ele><time>2026-04-23T13:56:46.146Z</time></trkpt><trkpt lat="44.2865507" lon="8.2780552"><ele>486.8</ele><time>2026-04-23T13:56:48.145Z</time></trkpt><trkpt lat="44.2866027" lon="8.2781979"><ele>487.6</ele><time>2026-04-23T13:56:50.144Z</time></trkpt><trkpt lat="44.2866192" lon="8.2782937"><ele>488.4</ele><time>2026-04-23T13:56:51.145Z</time></trkpt><trkpt lat="44.2866604" lon="8.2783789"><ele>489.2</ele><time>2026-04-23T13:56:52.143Z</time></trkpt><trkpt lat="44.2866921" lon="8.2784673"><ele>490.0</ele><time>2026-04-23T13:56:53.143Z</time></trkpt><trkpt lat="44.2867331" lon="8.2786286"><ele>490.0</ele><time>2026-04-23T13:56:55.144Z</time></trkpt><trkpt lat="44.286765" lon="8.278712"><ele>490.0</ele><time>2026-04-23T13:56:56.144Z</time></trkpt><trkpt lat="44.2867841" lon="8.2788039"><ele>490.0</ele><time>2026-04-23T13:56:57.146Z</time></trkpt><trkpt lat="44.2868149" lon="8.2788885"><ele>490.0</ele><time>2026-04-23T13:56:58.145Z</time></trkpt><trkpt lat="44.2868452" lon="8.2789781"><ele>490.0</ele><time>2026-04-23T13:56:59.145Z</time></trkpt><trkpt lat="44.2868704" lon="8.2790673"><ele>490.0</ele><time>2026-04-23T13:57:00.145Z</time></trkpt><trkpt lat="44.2868958" lon="8.2791635"><ele>490.0</ele><time>2026-04-23T13:57:01.145Z</time></trkpt><trkpt lat="44.2869238" lon="8.279254"><ele>489.0</ele><time>2026-04-23T13:57:02.144Z</time></trkpt><trkpt lat="44.2869492" lon="8.2793589"><ele>488.0</ele><time>2026-04-23T13:57:03.146Z</time></trkpt><trkpt lat="44.2869792" lon="8.2794483"><ele>487.0</ele><time>2026-04-23T13:57:04.144Z</time></trkpt><trkpt lat="44.287007" lon="8.2795382"><ele>486.0</ele><time>2026-04-23T13:57:05.144Z</time></trkpt><trkpt lat="44.287035" lon="8.2796334"><ele>485.0</ele><time>2026-04-23T13:57:06.145Z</time></trkpt><trkpt lat="44.2870715" lon="8.2797336"><ele>484.0</ele><time>2026-04-23T13:57:07.145Z</time></trkpt><trkpt lat="44.2871176" lon="8.2798127"><ele>483.0</ele><time>2026-04-23T13:57:08.144Z</time></trkpt><trkpt lat="44.2871577" lon="8.2798833"><ele>483.0</ele><time>2026-04-23T13:57:09.144Z</time></trkpt><trkpt lat="44.2872124" lon="8.2799418"><ele>483.0</ele><time>2026-04-23T13:57:10.145Z</time></trkpt><trkpt lat="44.287319" lon="8.2800295"><ele>483.0</ele><time>2026-04-23T13:57:12.144Z</time></trkpt><trkpt lat="44.2873762" lon="8.2800723"><ele>483.0</ele><time>2026-04-23T13:57:13.145Z</time></trkpt><trkpt lat="44.287436" lon="8.2801065"><ele>483.0</ele><time>2026-04-23T13:57:14.145Z</time></trkpt><trkpt lat="44.2874956" lon="8.2801376"><ele>483.0</ele><time>2026-04-23T13:57:15.145Z</time></trkpt><trkpt lat="44.2876021" lon="8.2801942"><ele>483.0</ele><time>2026-04-23T13:57:17.144Z</time></trkpt><trkpt lat="44.2876589" lon="8.2802368"><ele>482.99999999999994</ele><time>2026-04-23T13:57:18.145Z</time></trkpt><trkpt lat="44.2877541" lon="8.2802976"><ele>482.99999999999994</ele><time>2026-04-23T13:57:20.144Z</time></trkpt><trkpt lat="44.2878543" lon="8.2803559"><ele>483.0</ele><time>2026-04-23T13:57:22.145Z</time></trkpt><trkpt lat="44.2879471" lon="8.2804253"><ele>483.0</ele><time>2026-04-23T13:57:24.145Z</time></trkpt><trkpt lat="44.2880419" lon="8.2804819"><ele>482.2</ele><time>2026-04-23T13:57:26.144Z</time></trkpt><trkpt lat="44.2881434" lon="8.2805456"><ele>481.4</ele><time>2026-04-23T13:57:28.146Z</time></trkpt><trkpt lat="44.2882407" lon="8.2806012"><ele>480.59999999999997</ele><time>2026-04-23T13:57:30.145Z</time></trkpt><trkpt lat="44.2883379" lon="8.280662"><ele>479.79999999999995</ele><time>2026-04-23T13:57:32.144Z</time></trkpt><trkpt lat="44.2884353" lon="8.2807135"><ele>479.0</ele><time>2026-04-23T13:57:34.143Z</time></trkpt><trkpt lat="44.2885302" lon="8.2807831"><ele>479.0</ele><time>2026-04-23T13:57:36.143Z</time></trkpt><trkpt lat="44.288629" lon="8.2808401"><ele>479.0</ele><time>2026-04-23T13:57:38.145Z</time></trkpt><trkpt lat="44.2887349" lon="8.2808871"><ele>479.0</ele><time>2026-04-23T13:57:40.144Z</time></trkpt><trkpt lat="44.2888432" lon="8.280932"><ele>479.0</ele><time>2026-04-23T13:57:42.144Z</time></trkpt><trkpt lat="44.288961" lon="8.2809681"><ele>481.0</ele><time>2026-04-23T13:57:44.144Z</time></trkpt><trkpt lat="44.2890684" lon="8.2810085"><ele>483.0</ele><time>2026-04-23T13:57:46.145Z</time></trkpt><trkpt lat="44.289159" lon="8.2810673"><ele>485.0</ele><time>2026-04-23T13:57:48.145Z</time></trkpt><trkpt lat="44.289261" lon="8.2811336"><ele>487.0</ele><time>2026-04-23T13:57:50.143Z</time></trkpt><trkpt lat="44.2893606" lon="8.2812086"><ele>489.0</ele><time>2026-04-23T13:57:52.144Z</time></trkpt><trkpt lat="44.2894555" lon="8.2812899"><ele>489.0</ele><time>2026-04-23T13:57:54.143Z</time></trkpt><trkpt lat="44.2895482" lon="8.2813764"><ele>489.0</ele><time>2026-04-23T13:57:56.143Z</time></trkpt><trkpt lat="44.2896351" lon="8.2814656"><ele>489.0</ele><time>2026-04-23T13:57:58.145Z</time></trkpt><trkpt lat="44.2897094" lon="8.2815647"><ele>489.0</ele><time>2026-04-23T13:58:00.144Z</time></trkpt><trkpt lat="44.2897985" lon="8.2816673"><ele>489.0</ele><time>2026-04-23T13:58:02.144Z</time></trkpt><trkpt lat="44.2898846" lon="8.2817596"><ele>488.0</ele><time>2026-04-23T13:58:04.144Z</time></trkpt><trkpt lat="44.2899832" lon="8.2818599"><ele>487.0</ele><time>2026-04-23T13:58:06.144Z</time></trkpt><trkpt lat="44.290039" lon="8.281917"><ele>486.0</ele><time>2026-04-23T13:58:07.143Z</time></trkpt><trkpt lat="44.2901085" lon="8.281974"><ele>485.0</ele><time>2026-04-23T13:58:08.145Z</time></trkpt><trkpt lat="44.2901642" lon="8.2820239"><ele>484.0</ele><time>2026-04-23T13:58:09.144Z</time></trkpt><trkpt lat="44.2902221" lon="8.2820736"><ele>483.0</ele><time>2026-04-23T13:58:10.145Z</time></trkpt><trkpt lat="44.2902789" lon="8.2821227"><ele>483.0</ele><time>2026-04-23T13:58:11.144Z</time></trkpt><trkpt lat="44.2903354" lon="8.2821714"><ele>483.0</ele><time>2026-04-23T13:58:12.144Z</time></trkpt><trkpt lat="44.2903973" lon="8.2822303"><ele>483.0</ele><time>2026-04-23T13:58:13.144Z</time></trkpt><trkpt lat="44.2904553" lon="8.282289"><ele>483.0</ele><time>2026-04-23T13:58:14.145Z</time></trkpt><trkpt lat="44.2905039" lon="8.2823495"><ele>483.0</ele><time>2026-04-23T13:58:15.144Z</time></trkpt><trkpt lat="44.2905644" lon="8.2824147"><ele>483.0</ele><time>2026-04-23T13:58:16.145Z</time></trkpt><trkpt lat="44.2906241" lon="8.2824639"><ele>483.0</ele><time>2026-04-23T13:58:17.145Z</time></trkpt><trkpt lat="44.2906803" lon="8.2825237"><ele>483.0</ele><time>2026-04-23T13:58:18.144Z</time></trkpt><trkpt lat="44.2907441" lon="8.2825855"><ele>483.0</ele><time>2026-04-23T13:58:19.145Z</time></trkpt><trkpt lat="44.2908029" lon="8.2826467"><ele>483.0</ele><time>2026-04-23T13:58:20.144Z</time></trkpt><trkpt lat="44.2908649" lon="8.2827084"><ele>483.0</ele><time>2026-04-23T13:58:21.145Z</time></trkpt><trkpt lat="44.2909282" lon="8.2827837"><ele>483.0</ele><time>2026-04-23T13:58:22.144Z</time></trkpt><trkpt lat="44.2909828" lon="8.2828458"><ele>483.0</ele><time>2026-04-23T13:58:23.145Z</time></trkpt><trkpt lat="44.2910438" lon="8.2829015"><ele>483.0</ele><time>2026-04-23T13:58:24.145Z</time></trkpt><trkpt lat="44.2911018" lon="8.2829634"><ele>483.0</ele><time>2026-04-23T13:58:25.143Z</time></trkpt><trkpt lat="44.2911707" lon="8.2830302"><ele>483.0</ele><time>2026-04-23T13:58:26.144Z</time></trkpt><trkpt lat="44.2912335" lon="8.2830889"><ele>483.0</ele><time>2026-04-23T13:58:27.145Z</time></trkpt><trkpt lat="44.291292" lon="8.2831406"><ele>483.0</ele><time>2026-04-23T13:58:28.144Z</time></trkpt><trkpt lat="44.2913563" lon="8.2831899"><ele>483.0</ele><time>2026-04-23T13:58:29.143Z</time></trkpt><trkpt lat="44.2914195" lon="8.2832419"><ele>483.0</ele><time>2026-04-23T13:58:30.145Z</time></trkpt><trkpt lat="44.291478" lon="8.2832919"><ele>482.42857142857144</ele><time>2026-04-23T13:58:31.145Z</time></trkpt><trkpt lat="44.2915367" lon="8.2833533"><ele>481.8571428571429</ele><time>2026-04-23T13:58:32.145Z</time></trkpt><trkpt lat="44.2915996" lon="8.2834021"><ele>481.2857142857143</ele><time>2026-04-23T13:58:33.144Z</time></trkpt><trkpt lat="44.2916526" lon="8.2834544"><ele>480.7142857142857</ele><time>2026-04-23T13:58:34.145Z</time></trkpt><trkpt lat="44.291707" lon="8.2835036"><ele>480.14285714285717</ele><time>2026-04-23T13:58:35.145Z</time></trkpt><trkpt lat="44.2917586" lon="8.2835608"><ele>479.57142857142856</ele><time>2026-04-23T13:58:36.144Z</time></trkpt><trkpt lat="44.2918124" lon="8.283617"><ele>479.0</ele><time>2026-04-23T13:58:37.146Z</time></trkpt><trkpt lat="44.2919046" lon="8.2837225"><ele>479.0</ele><time>2026-04-23T13:58:39.144Z</time></trkpt><trkpt lat="44.2919928" lon="8.2838286"><ele>479.0</ele><time>2026-04-23T13:58:41.144Z</time></trkpt><trkpt lat="44.2920834" lon="8.2839245"><ele>479.0</ele><time>2026-04-23T13:58:43.145Z</time></trkpt><trkpt lat="44.2921617" lon="8.2840293"><ele>479.0</ele><time>2026-04-23T13:58:45.145Z</time></trkpt><trkpt lat="44.2922274" lon="8.2841349"><ele>479.0</ele><time>2026-04-23T13:58:47.145Z</time></trkpt><trkpt lat="44.292297" lon="8.2842469"><ele>478.25</ele><time>2026-04-23T13:58:49.144Z</time></trkpt><trkpt lat="44.2923647" lon="8.2843618"><ele>477.5</ele><time>2026-04-23T13:58:51.145Z</time></trkpt><trkpt lat="44.292438" lon="8.2844795"><ele>476.75</ele><time>2026-04-23T13:58:53.145Z</time></trkpt><trkpt lat="44.2925145" lon="8.2845953"><ele>476.0</ele><time>2026-04-23T13:58:55.145Z</time></trkpt><trkpt lat="44.2926017" lon="8.2847138"><ele>475.20000000000005</ele><time>2026-04-23T13:58:57.145Z</time></trkpt><trkpt lat="44.2926395" lon="8.2847864"><ele>474.40000000000003</ele><time>2026-04-23T13:58:58.144Z</time></trkpt><trkpt lat="44.2927233" lon="8.2849061"><ele>473.6</ele><time>2026-04-23T13:59:00.145Z</time></trkpt><trkpt lat="44.2927926" lon="8.2850189"><ele>472.8</ele><time>2026-04-23T13:59:02.144Z</time></trkpt><trkpt lat="44.2928705" lon="8.2851332"><ele>472.0</ele><time>2026-04-23T13:59:04.145Z</time></trkpt><trkpt lat="44.2929476" lon="8.285255"><ele>472.0</ele><time>2026-04-23T13:59:06.145Z</time></trkpt><trkpt lat="44.2930187" lon="8.285377"><ele>472.00000000000006</ele><time>2026-04-23T13:59:08.144Z</time></trkpt><trkpt lat="44.2930579" lon="8.2854493"><ele>472.00000000000006</ele><time>2026-04-23T13:59:09.144Z</time></trkpt><trkpt lat="44.2931294" lon="8.285585"><ele>472.0</ele><time>2026-04-23T13:59:11.144Z</time></trkpt><trkpt lat="44.2931814" lon="8.2857291"><ele>472.0</ele><time>2026-04-23T13:59:13.144Z</time></trkpt><trkpt lat="44.2932501" lon="8.2858764"><ele>473.0</ele><time>2026-04-23T13:59:15.144Z</time></trkpt><trkpt lat="44.2932829" lon="8.2860028"><ele>474.00000000000006</ele><time>2026-04-23T13:59:17.144Z</time></trkpt><trkpt lat="44.2933071" lon="8.2861287"><ele>475.00000000000006</ele><time>2026-04-23T13:59:19.145Z</time></trkpt><trkpt lat="44.2933134" lon="8.2862742"><ele>476.0</ele><time>2026-04-23T13:59:21.145Z</time></trkpt><trkpt lat="44.2933201" lon="8.2864134"><ele>477.0</ele><time>2026-04-23T13:59:23.145Z</time></trkpt><trkpt lat="44.2933129" lon="8.2865784"><ele>477.0</ele><time>2026-04-23T13:59:25.145Z</time></trkpt><trkpt lat="44.2933039" lon="8.286733"><ele>477.0</ele><time>2026-04-23T13:59:27.145Z</time></trkpt><trkpt lat="44.2932922" lon="8.2868918"><ele>477.0</ele><time>2026-04-23T13:59:29.144Z</time></trkpt><trkpt lat="44.293279" lon="8.2870511"><ele>477.0</ele><time>2026-04-23T13:59:31.145Z</time></trkpt><trkpt lat="44.2932369" lon="8.2872045"><ele>476.40000000000003</ele><time>2026-04-23T13:59:33.143Z</time></trkpt><trkpt lat="44.2931824" lon="8.2873505"><ele>475.80000000000007</ele><time>2026-04-23T13:59:35.144Z</time></trkpt><trkpt lat="44.2931331" lon="8.2874632"><ele>475.2</ele><time>2026-04-23T13:59:37.145Z</time></trkpt><trkpt lat="44.293072" lon="8.2875868"><ele>474.6</ele><time>2026-04-23T13:59:39.144Z</time></trkpt><trkpt lat="44.2929849" lon="8.2877152"><ele>474.0</ele><time>2026-04-23T13:59:41.144Z</time></trkpt><trkpt lat="44.2929231" lon="8.2878367"><ele>472.2</ele><time>2026-04-23T13:59:43.144Z</time></trkpt><trkpt lat="44.2928694" lon="8.2879575"><ele>470.4</ele><time>2026-04-23T13:59:45.143Z</time></trkpt><trkpt lat="44.2928021" lon="8.2880916"><ele>468.6</ele><time>2026-04-23T13:59:47.143Z</time></trkpt><trkpt lat="44.2927566" lon="8.2882273"><ele>466.8</ele><time>2026-04-23T13:59:49.144Z</time></trkpt><trkpt lat="44.2927239" lon="8.2883032"><ele>465.0</ele><time>2026-04-23T13:59:50.144Z</time></trkpt><trkpt lat="44.2926759" lon="8.2884542"><ele>465.0</ele><time>2026-04-23T13:59:52.144Z</time></trkpt><trkpt lat="44.2926439" lon="8.2885305"><ele>465.0</ele><time>2026-04-23T13:59:53.144Z</time></trkpt><trkpt lat="44.2926097" lon="8.288694"><ele>465.0</ele><time>2026-04-23T13:59:55.144Z</time></trkpt><trkpt lat="44.2925806" lon="8.2888545"><ele>465.0</ele><time>2026-04-23T13:59:57.145Z</time></trkpt><trkpt lat="44.2925732" lon="8.2890127"><ele>465.0</ele><time>2026-04-23T13:59:59.145Z</time></trkpt><trkpt lat="44.2925659" lon="8.2891844"><ele>465.0</ele><time>2026-04-23T14:00:01.145Z</time></trkpt><trkpt lat="44.2925608" lon="8.28934"><ele>465.0</ele><time>2026-04-23T14:00:03.145Z</time></trkpt><trkpt lat="44.292554" lon="8.2894916"><ele>465.0</ele><time>2026-04-23T14:00:05.145Z</time></trkpt><trkpt lat="44.2925487" lon="8.2896561"><ele>465.0</ele><time>2026-04-23T14:00:07.143Z</time></trkpt><trkpt lat="44.2925334" lon="8.2898135"><ele>465.0</ele><time>2026-04-23T14:00:09.145Z</time></trkpt><trkpt lat="44.2925294" lon="8.2899701"><ele>465.0</ele><time>2026-04-23T14:00:11.144Z</time></trkpt><trkpt lat="44.2925218" lon="8.2901438"><ele>465.0</ele><time>2026-04-23T14:00:13.144Z</time></trkpt><trkpt lat="44.2925252" lon="8.2903176"><ele>465.0</ele><time>2026-04-23T14:00:15.145Z</time></trkpt><trkpt lat="44.2925197" lon="8.2904133"><ele>465.0</ele><time>2026-04-23T14:00:16.144Z</time></trkpt><trkpt lat="44.2925144" lon="8.2905858"><ele>464.8</ele><time>2026-04-23T14:00:18.142Z</time></trkpt><trkpt lat="44.2925072" lon="8.2907579"><ele>464.6</ele><time>2026-04-23T14:00:20.145Z</time></trkpt><trkpt lat="44.2925035" lon="8.290846"><ele>464.4</ele><time>2026-04-23T14:00:21.143Z</time></trkpt><trkpt lat="44.2924813" lon="8.2910135"><ele>464.2</ele><time>2026-04-23T14:00:23.144Z</time></trkpt><trkpt lat="44.2924495" lon="8.2911757"><ele>464.0</ele><time>2026-04-23T14:00:25.143Z</time></trkpt><trkpt lat="44.292431" lon="8.2912673"><ele>464.00000000000006</ele><time>2026-04-23T14:00:26.145Z</time></trkpt><trkpt lat="44.2924027" lon="8.2913557"><ele>464.0</ele><time>2026-04-23T14:00:27.143Z</time></trkpt><trkpt lat="44.2923769" lon="8.2914412"><ele>464.00000000000006</ele><time>2026-04-23T14:00:28.144Z</time></trkpt><trkpt lat="44.2923468" lon="8.2915287"><ele>464.00000000000006</ele><time>2026-04-23T14:00:29.144Z</time></trkpt><trkpt lat="44.2923051" lon="8.2916201"><ele>464.0</ele><time>2026-04-23T14:00:30.145Z</time></trkpt><trkpt lat="44.2922656" lon="8.2917144"><ele>464.00000000000006</ele><time>2026-04-23T14:00:31.143Z</time></trkpt><trkpt lat="44.2922242" lon="8.2918034"><ele>464.00000000000006</ele><time>2026-04-23T14:00:32.144Z</time></trkpt><trkpt lat="44.2921943" lon="8.2919035"><ele>463.3333333333333</ele><time>2026-04-23T14:00:33.145Z</time></trkpt><trkpt lat="44.2921621" lon="8.2919973"><ele>462.66666666666663</ele><time>2026-04-23T14:00:34.144Z</time></trkpt><trkpt lat="44.2921291" lon="8.2920921"><ele>462.0</ele><time>2026-04-23T14:00:35.144Z</time></trkpt><trkpt lat="44.2920878" lon="8.2921839"><ele>461.33333333333337</ele><time>2026-04-23T14:00:36.144Z</time></trkpt><trkpt lat="44.2920474" lon="8.2922803"><ele>460.6666666666667</ele><time>2026-04-23T14:00:37.145Z</time></trkpt><trkpt lat="44.2920123" lon="8.2923792"><ele>460.0</ele><time>2026-04-23T14:00:38.145Z</time></trkpt><trkpt lat="44.2919728" lon="8.2924765"><ele>459.6666666666667</ele><time>2026-04-23T14:00:39.145Z</time></trkpt><trkpt lat="44.2919314" lon="8.2925772"><ele>459.33333333333337</ele><time>2026-04-23T14:00:40.143Z</time></trkpt><trkpt lat="44.291881" lon="8.2926736"><ele>459.0</ele><time>2026-04-23T14:00:41.145Z</time></trkpt><trkpt lat="44.2918413" lon="8.2927728"><ele>458.66666666666663</ele><time>2026-04-23T14:00:42.142Z</time></trkpt><trkpt lat="44.2917981" lon="8.2928545"><ele>458.3333333333333</ele><time>2026-04-23T14:00:43.144Z</time></trkpt><trkpt lat="44.2917687" lon="8.2929468"><ele>458.0</ele><time>2026-04-23T14:00:44.144Z</time></trkpt><trkpt lat="44.2917367" lon="8.2930566"><ele>457.85714285714283</ele><time>2026-04-23T14:00:45.142Z</time></trkpt><trkpt lat="44.2917015" lon="8.2931421"><ele>457.7142857142858</ele><time>2026-04-23T14:00:46.144Z</time></trkpt><trkpt lat="44.2916776" lon="8.293226"><ele>457.5714285714286</ele><time>2026-04-23T14:00:47.145Z</time></trkpt><trkpt lat="44.2916512" lon="8.2933196"><ele>457.42857142857144</ele><time>2026-04-23T14:00:48.144Z</time></trkpt><trkpt lat="44.2916319" lon="8.2934174"><ele>457.28571428571433</ele><time>2026-04-23T14:00:49.144Z</time></trkpt><trkpt lat="44.2916172" lon="8.2935177"><ele>457.1428571428572</ele><time>2026-04-23T14:00:50.144Z</time></trkpt><trkpt lat="44.2916089" lon="8.2936132"><ele>457.00000000000006</ele><time>2026-04-23T14:00:51.143Z</time></trkpt><trkpt lat="44.291598" lon="8.293711"><ele>457.0</ele><time>2026-04-23T14:00:52.145Z</time></trkpt><trkpt lat="44.291599" lon="8.2938041"><ele>457.00000000000006</ele><time>2026-04-23T14:00:53.145Z</time></trkpt><trkpt lat="44.2915876" lon="8.2939771"><ele>457.00000000000006</ele><time>2026-04-23T14:00:55.144Z</time></trkpt><trkpt lat="44.2915645" lon="8.2941349"><ele>457.0</ele><time>2026-04-23T14:00:57.143Z</time></trkpt><trkpt lat="44.2915226" lon="8.2942841"><ele>457.0</ele><time>2026-04-23T14:00:59.145Z</time></trkpt><trkpt lat="44.291454" lon="8.2943849"><ele>458.1666666666667</ele><time>2026-04-23T14:01:01.143Z</time></trkpt><trkpt lat="44.2914152" lon="8.2944546"><ele>459.33333333333337</ele><time>2026-04-23T14:01:02.143Z</time></trkpt><trkpt lat="44.2913502" lon="8.294581"><ele>460.5</ele><time>2026-04-23T14:01:04.143Z</time></trkpt><trkpt lat="44.2912749" lon="8.2946883"><ele>461.66666666666663</ele><time>2026-04-23T14:01:06.144Z</time></trkpt><trkpt lat="44.2912268" lon="8.2947464"><ele>462.8333333333333</ele><time>2026-04-23T14:01:07.144Z</time></trkpt><trkpt lat="44.2911806" lon="8.2948145"><ele>464.0</ele><time>2026-04-23T14:01:08.144Z</time></trkpt><trkpt lat="44.2911083" lon="8.2949162"><ele>464.49999999999994</ele><time>2026-04-23T14:01:10.145Z</time></trkpt><trkpt lat="44.291057" lon="8.2949706"><ele>465.0</ele><time>2026-04-23T14:01:11.143Z</time></trkpt><trkpt lat="44.2909727" lon="8.2950389"><ele>465.5</ele><time>2026-04-23T14:01:13.145Z</time></trkpt><trkpt lat="44.2908993" lon="8.2951342"><ele>466.0</ele><time>2026-04-23T14:01:15.144Z</time></trkpt><trkpt lat="44.2908359" lon="8.2952002"><ele>466.49999999999994</ele><time>2026-04-23T14:01:17.144Z</time></trkpt><trkpt lat="44.2907636" lon="8.2952702"><ele>467.0</ele><time>2026-04-23T14:01:19.143Z</time></trkpt><trkpt lat="44.2907384" lon="8.2953521"><ele>466.99999999999994</ele><time>2026-04-23T14:01:21.142Z</time></trkpt><trkpt lat="44.2906591" lon="8.2954535"><ele>467.0</ele><time>2026-04-23T14:01:23.143Z</time></trkpt><trkpt lat="44.2905735" lon="8.2955239"><ele>467.0</ele><time>2026-04-23T14:01:25.144Z</time></trkpt><trkpt lat="44.2905068" lon="8.2955215"><ele>467.0</ele><time>2026-04-23T14:01:26.143Z</time></trkpt><trkpt lat="44.2904046" lon="8.2955535"><ele>466.99999999999994</ele><time>2026-04-23T14:01:28.144Z</time></trkpt><trkpt lat="44.2903401" lon="8.2955648"><ele>467.0</ele><time>2026-04-23T14:01:29.146Z</time></trkpt><trkpt lat="44.290238" lon="8.295599"><ele>467.0</ele><time>2026-04-23T14:01:31.144Z</time></trkpt><trkpt lat="44.290133" lon="8.2956362"><ele>467.00000000000006</ele><time>2026-04-23T14:01:33.144Z</time></trkpt><trkpt lat="44.290029" lon="8.2956588"><ele>467.00000000000006</ele><time>2026-04-23T14:01:35.144Z</time></trkpt><trkpt lat="44.2899475" lon="8.2956956"><ele>467.0</ele><time>2026-04-23T14:01:37.144Z</time></trkpt><trkpt lat="44.2898454" lon="8.2957112"><ele>467.0</ele><time>2026-04-23T14:01:39.142Z</time></trkpt><trkpt lat="44.289753" lon="8.2957161"><ele>467.99999999999994</ele><time>2026-04-23T14:01:41.144Z</time></trkpt><trkpt lat="44.2896759" lon="8.2957214"><ele>469.0</ele><time>2026-04-23T14:01:43.144Z</time></trkpt><trkpt lat="44.2895959" lon="8.295787"><ele>470.0</ele><time>2026-04-23T14:01:45.145Z</time></trkpt><trkpt lat="44.2895218" lon="8.2958014"><ele>471.0</ele><time>2026-04-23T14:01:47.144Z</time></trkpt><trkpt lat="44.2894478" lon="8.2958096"><ele>471.99999999999994</ele><time>2026-04-23T14:01:49.143Z</time></trkpt><trkpt lat="44.2893831" lon="8.2958116"><ele>473.0</ele><time>2026-04-23T14:01:51.144Z</time></trkpt><trkpt lat="44.2892955" lon="8.2958556"><ele>473.0</ele><time>2026-04-23T14:01:53.144Z</time></trkpt><trkpt lat="44.2891703" lon="8.2958693"><ele>472.99999999999994</ele><time>2026-04-23T14:01:55.145Z</time></trkpt><trkpt lat="44.2890664" lon="8.2958835"><ele>472.99999999999994</ele><time>2026-04-23T14:01:57.143Z</time></trkpt><trkpt lat="44.2889661" lon="8.2959087"><ele>473.0</ele><time>2026-04-23T14:01:59.143Z</time></trkpt><trkpt lat="44.2888655" lon="8.295946"><ele>473.0</ele><time>2026-04-23T14:02:01.144Z</time></trkpt><trkpt lat="44.2887665" lon="8.2959858"><ele>475.4</ele><time>2026-04-23T14:02:03.144Z</time></trkpt><trkpt lat="44.2886688" lon="8.2960173"><ele>477.79999999999995</ele><time>2026-04-23T14:02:05.143Z</time></trkpt><trkpt lat="44.2885709" lon="8.2960435"><ele>480.2</ele><time>2026-04-23T14:02:07.143Z</time></trkpt><trkpt lat="44.2884748" lon="8.296042"><ele>482.6</ele><time>2026-04-23T14:02:09.143Z</time></trkpt><trkpt lat="44.2883764" lon="8.2960386"><ele>485.0</ele><time>2026-04-23T14:02:11.145Z</time></trkpt><trkpt lat="44.288277" lon="8.2960352"><ele>485.0</ele><time>2026-04-23T14:02:13.143Z</time></trkpt><trkpt lat="44.2881683" lon="8.296043"><ele>485.0</ele><time>2026-04-23T14:02:15.144Z</time></trkpt><trkpt lat="44.2880813" lon="8.2960778"><ele>485.0</ele><time>2026-04-23T14:02:17.143Z</time></trkpt><trkpt lat="44.2879714" lon="8.2960673"><ele>485.0</ele><time>2026-04-23T14:02:19.145Z</time></trkpt><trkpt lat="44.287844" lon="8.2960465"><ele>485.0</ele><time>2026-04-23T14:02:21.144Z</time></trkpt><trkpt lat="44.2877673" lon="8.2960485"><ele>486.8</ele><time>2026-04-23T14:02:23.145Z</time></trkpt><trkpt lat="44.287667" lon="8.2960576"><ele>488.6</ele><time>2026-04-23T14:02:25.143Z</time></trkpt><trkpt lat="44.2875853" lon="8.2960323"><ele>490.4</ele><time>2026-04-23T14:02:27.145Z</time></trkpt><trkpt lat="44.2874912" lon="8.296038"><ele>492.2</ele><time>2026-04-23T14:02:29.144Z</time></trkpt><trkpt lat="44.2873766" lon="8.2960701"><ele>494.0</ele><time>2026-04-23T14:02:31.143Z</time></trkpt><trkpt lat="44.2872628" lon="8.2960952"><ele>492.5</ele><time>2026-04-23T14:02:33.145Z</time></trkpt><trkpt lat="44.287147" lon="8.2961348"><ele>491.0</ele><time>2026-04-23T14:02:35.142Z</time></trkpt><trkpt lat="44.2870264" lon="8.29615"><ele>489.5</ele><time>2026-04-23T14:02:37.143Z</time></trkpt><trkpt lat="44.286911" lon="8.2961574"><ele>488.0</ele><time>2026-04-23T14:02:39.145Z</time></trkpt><trkpt lat="44.2867955" lon="8.2961623"><ele>488.0</ele><time>2026-04-23T14:02:41.144Z</time></trkpt><trkpt lat="44.2866897" lon="8.2961754"><ele>487.99999999999994</ele><time>2026-04-23T14:02:43.143Z</time></trkpt><trkpt lat="44.2865813" lon="8.2961796"><ele>487.99999999999994</ele><time>2026-04-23T14:02:45.142Z</time></trkpt><trkpt lat="44.2864763" lon="8.2961855"><ele>488.0</ele><time>2026-04-23T14:02:47.143Z</time></trkpt><trkpt lat="44.2863797" lon="8.296213"><ele>488.0</ele><time>2026-04-23T14:02:49.144Z</time></trkpt><trkpt lat="44.2862838" lon="8.2962566"><ele>487.0</ele><time>2026-04-23T14:02:51.143Z</time></trkpt><trkpt lat="44.2861856" lon="8.2962959"><ele>485.99999999999994</ele><time>2026-04-23T14:02:53.142Z</time></trkpt><trkpt lat="44.286116" lon="8.296283"><ele>484.99999999999994</ele><time>2026-04-23T14:02:54.144Z</time></trkpt><trkpt lat="44.28602" lon="8.2962945"><ele>484.0</ele><time>2026-04-23T14:02:56.144Z</time></trkpt><trkpt lat="44.2859313" lon="8.296327"><ele>483.0</ele><time>2026-04-23T14:02:58.145Z</time></trkpt><trkpt lat="44.2858282" lon="8.2963389"><ele>483.0</ele><time>2026-04-23T14:03:00.145Z</time></trkpt><trkpt lat="44.2857321" lon="8.2963461"><ele>482.99999999999994</ele><time>2026-04-23T14:03:02.142Z</time></trkpt><trkpt lat="44.2856466" lon="8.2963412"><ele>482.99999999999994</ele><time>2026-04-23T14:03:04.145Z</time></trkpt><trkpt lat="44.2855387" lon="8.2963464"><ele>483.0</ele><time>2026-04-23T14:03:06.144Z</time></trkpt><trkpt lat="44.2854301" lon="8.296335"><ele>483.0</ele><time>2026-04-23T14:03:08.143Z</time></trkpt><trkpt lat="44.2853241" lon="8.2963485"><ele>483.79999999999995</ele><time>2026-04-23T14:03:10.144Z</time></trkpt><trkpt lat="44.2852075" lon="8.2963384"><ele>484.59999999999997</ele><time>2026-04-23T14:03:12.144Z</time></trkpt><trkpt lat="44.285094" lon="8.2963415"><ele>485.40000000000003</ele><time>2026-04-23T14:03:14.143Z</time></trkpt><trkpt lat="44.2850309" lon="8.2963517"><ele>486.20000000000005</ele><time>2026-04-23T14:03:15.143Z</time></trkpt><trkpt lat="44.284916" lon="8.296373"><ele>487.0</ele><time>2026-04-23T14:03:17.144Z</time></trkpt><trkpt lat="44.2848017" lon="8.2963883"><ele>485.40000000000003</ele><time>2026-04-23T14:03:19.143Z</time></trkpt><trkpt lat="44.2846917" lon="8.2964115"><ele>483.80000000000007</ele><time>2026-04-23T14:03:21.143Z</time></trkpt><trkpt lat="44.2845966" lon="8.2964222"><ele>482.2</ele><time>2026-04-23T14:03:23.144Z</time></trkpt><trkpt lat="44.2844952" lon="8.2964242"><ele>480.6</ele><time>2026-04-23T14:03:25.143Z</time></trkpt><trkpt lat="44.2844138" lon="8.2964373"><ele>479.0</ele><time>2026-04-23T14:03:27.145Z</time></trkpt><trkpt lat="44.2843227" lon="8.2964144"><ele>479.0</ele><time>2026-04-23T14:03:29.143Z</time></trkpt><trkpt lat="44.2842264" lon="8.2964179"><ele>479.0</ele><time>2026-04-23T14:03:31.143Z</time></trkpt><trkpt lat="44.2841109" lon="8.2963847"><ele>479.0</ele><time>2026-04-23T14:03:33.144Z</time></trkpt><trkpt lat="44.2839986" lon="8.2963757"><ele>479.0</ele><time>2026-04-23T14:03:35.145Z</time></trkpt><trkpt lat="44.2838863" lon="8.2963785"><ele>479.0</ele><time>2026-04-23T14:03:37.144Z</time></trkpt><trkpt lat="44.2837911" lon="8.2964014"><ele>478.49999999999994</ele><time>2026-04-23T14:03:39.144Z</time></trkpt><trkpt lat="44.2837047" lon="8.2964205"><ele>478.0</ele><time>2026-04-23T14:03:41.145Z</time></trkpt><trkpt lat="44.2836302" lon="8.296426"><ele>477.5</ele><time>2026-04-23T14:03:43.145Z</time></trkpt><trkpt lat="44.2835529" lon="8.2964276"><ele>477.0</ele><time>2026-04-23T14:03:45.144Z</time></trkpt><trkpt lat="44.2834738" lon="8.2964322"><ele>476.49999999999994</ele><time>2026-04-23T14:03:47.142Z</time></trkpt><trkpt lat="44.2833965" lon="8.2963973"><ele>476.0</ele><time>2026-04-23T14:03:49.144Z</time></trkpt><trkpt lat="44.2833207" lon="8.2963378"><ele>475.99999999999994</ele><time>2026-04-23T14:03:51.145Z</time></trkpt><trkpt lat="44.283236" lon="8.2962806"><ele>476.0</ele><time>2026-04-23T14:03:53.143Z</time></trkpt><trkpt lat="44.2831578" lon="8.2962442"><ele>476.0</ele><time>2026-04-23T14:03:55.143Z</time></trkpt><trkpt lat="44.2830808" lon="8.2962224"><ele>476.0</ele><time>2026-04-23T14:03:57.143Z</time></trkpt><trkpt lat="44.2830043" lon="8.2962105"><ele>475.99999999999994</ele><time>2026-04-23T14:03:59.143Z</time></trkpt><trkpt lat="44.2829176" lon="8.2962046"><ele>476.0</ele><time>2026-04-23T14:04:01.143Z</time></trkpt><trkpt lat="44.2828172" lon="8.2962854"><ele>475.8</ele><time>2026-04-23T14:04:03.144Z</time></trkpt><trkpt lat="44.2827132" lon="8.2963544"><ele>475.6</ele><time>2026-04-23T14:04:06.144Z</time></trkpt><trkpt lat="44.2826178" lon="8.296394"><ele>475.4</ele><time>2026-04-23T14:04:08.143Z</time></trkpt><trkpt lat="44.2825524" lon="8.2964018"><ele>475.2</ele><time>2026-04-23T14:04:09.144Z</time></trkpt><trkpt lat="44.2824685" lon="8.2964626"><ele>475.0</ele><time>2026-04-23T14:04:11.144Z</time></trkpt><trkpt lat="44.2823613" lon="8.2964788"><ele>475.00000000000006</ele><time>2026-04-23T14:04:13.144Z</time></trkpt><trkpt lat="44.2822755" lon="8.2964951"><ele>475.0</ele><time>2026-04-23T14:04:15.142Z</time></trkpt><trkpt lat="44.2821945" lon="8.296517"><ele>475.0</ele><time>2026-04-23T14:04:17.143Z</time></trkpt><trkpt lat="44.2821252" lon="8.2965257"><ele>475.0</ele><time>2026-04-23T14:04:19.144Z</time></trkpt><trkpt lat="44.2820573" lon="8.2965488"><ele>475.00000000000006</ele><time>2026-04-23T14:04:21.144Z</time></trkpt><trkpt lat="44.281988" lon="8.2965786"><ele>475.0</ele><time>2026-04-23T14:04:23.143Z</time></trkpt><trkpt lat="44.2819157" lon="8.2966042"><ele>475.6666666666667</ele><time>2026-04-23T14:04:25.144Z</time></trkpt><trkpt lat="44.281844" lon="8.2966156"><ele>476.33333333333337</ele><time>2026-04-23T14:04:27.143Z</time></trkpt><trkpt lat="44.2817748" lon="8.2966298"><ele>477.0</ele><time>2026-04-23T14:04:29.144Z</time></trkpt><trkpt lat="44.2816962" lon="8.2966664"><ele>477.66666666666663</ele><time>2026-04-23T14:04:32.144Z</time></trkpt><trkpt lat="44.2817097" lon="8.2967571"><ele>478.3333333333333</ele><time>2026-04-23T14:04:34.144Z</time></trkpt><trkpt lat="44.2817947" lon="8.2968098"><ele>479.0</ele><time>2026-04-23T14:04:36.143Z</time></trkpt><trkpt lat="44.2818962" lon="8.2968442"><ele>479.0</ele><time>2026-04-23T14:04:38.143Z</time></trkpt><trkpt lat="44.2819946" lon="8.2968746"><ele>479.0</ele><time>2026-04-23T14:04:40.143Z</time></trkpt><trkpt lat="44.2821051" lon="8.2969252"><ele>479.0</ele><time>2026-04-23T14:04:42.143Z</time></trkpt><trkpt lat="44.2822094" lon="8.2969786"><ele>479.0</ele><time>2026-04-23T14:04:44.142Z</time></trkpt><trkpt lat="44.2823114" lon="8.2970255"><ele>479.0</ele><time>2026-04-23T14:04:46.144Z</time></trkpt><trkpt lat="44.2824106" lon="8.297069"><ele>478.2</ele><time>2026-04-23T14:04:48.145Z</time></trkpt><trkpt lat="44.2824975" lon="8.2971059"><ele>477.4</ele><time>2026-04-23T14:04:50.143Z</time></trkpt><trkpt lat="44.2826038" lon="8.2971567"><ele>476.6</ele><time>2026-04-23T14:04:52.144Z</time></trkpt><trkpt lat="44.2827129" lon="8.2971868"><ele>475.8</ele><time>2026-04-23T14:04:54.142Z</time></trkpt><trkpt lat="44.2828173" lon="8.2972267"><ele>475.0</ele><time>2026-04-23T14:04:56.143Z</time></trkpt><trkpt lat="44.2829205" lon="8.2972675"><ele>474.5</ele><time>2026-04-23T14:04:58.143Z</time></trkpt><trkpt lat="44.2830283" lon="8.2973212"><ele>474.0</ele><time>2026-04-23T14:05:00.144Z</time></trkpt><trkpt lat="44.2831363" lon="8.2973597"><ele>473.5</ele><time>2026-04-23T14:05:02.144Z</time></trkpt><trkpt lat="44.2832528" lon="8.2973948"><ele>473.0</ele><time>2026-04-23T14:05:04.143Z</time></trkpt><trkpt lat="44.2833697" lon="8.2974271"><ele>473.0</ele><time>2026-04-23T14:05:06.144Z</time></trkpt><trkpt lat="44.2834812" lon="8.2974529"><ele>472.99999999999994</ele><time>2026-04-23T14:05:08.144Z</time></trkpt><trkpt lat="44.2835924" lon="8.2974616"><ele>472.99999999999994</ele><time>2026-04-23T14:05:10.143Z</time></trkpt><trkpt lat="44.2836549" lon="8.2974865"><ele>473.0</ele><time>2026-04-23T14:05:11.144Z</time></trkpt><trkpt lat="44.2837664" lon="8.2975062"><ele>473.0</ele><time>2026-04-23T14:05:13.143Z</time></trkpt><trkpt lat="44.2838694" lon="8.2975321"><ele>472.2</ele><time>2026-04-23T14:05:15.144Z</time></trkpt><trkpt lat="44.2839759" lon="8.2975628"><ele>471.4</ele><time>2026-04-23T14:05:17.142Z</time></trkpt><trkpt lat="44.284089" lon="8.2975899"><ele>470.59999999999997</ele><time>2026-04-23T14:05:19.143Z</time></trkpt><trkpt lat="44.2841979" lon="8.2976244"><ele>469.79999999999995</ele><time>2026-04-23T14:05:21.143Z</time></trkpt><trkpt lat="44.284306" lon="8.2976553"><ele>469.0</ele><time>2026-04-23T14:05:23.143Z</time></trkpt><trkpt lat="44.2844286" lon="8.2976723"><ele>469.00000000000006</ele><time>2026-04-23T14:05:25.142Z</time></trkpt><trkpt lat="44.2845491" lon="8.2977032"><ele>469.0</ele><time>2026-04-23T14:05:27.144Z</time></trkpt><trkpt lat="44.2846132" lon="8.2977179"><ele>469.0</ele><time>2026-04-23T14:05:28.144Z</time></trkpt><trkpt lat="44.2846766" lon="8.2977241"><ele>469.0</ele><time>2026-04-23T14:05:29.144Z</time></trkpt><trkpt lat="44.2847401" lon="8.2977422"><ele>469.00000000000006</ele><time>2026-04-23T14:05:30.143Z</time></trkpt><trkpt lat="44.2848039" lon="8.2977519"><ele>469.0</ele><time>2026-04-23T14:05:31.144Z</time></trkpt><trkpt lat="44.28493" lon="8.2977684"><ele>469.0</ele><time>2026-04-23T14:05:33.143Z</time></trkpt><trkpt lat="44.2850537" lon="8.2977518"><ele>469.0</ele><time>2026-04-23T14:05:35.144Z</time></trkpt><trkpt lat="44.2851245" lon="8.2977394"><ele>469.0</ele><time>2026-04-23T14:05:36.142Z</time></trkpt><trkpt lat="44.2851876" lon="8.297737"><ele>469.0</ele><time>2026-04-23T14:05:37.143Z</time></trkpt><trkpt lat="44.2853191" lon="8.297742"><ele>469.0</ele><time>2026-04-23T14:05:39.143Z</time></trkpt><trkpt lat="44.2853839" lon="8.2977409"><ele>469.0</ele><time>2026-04-23T14:05:40.144Z</time></trkpt><trkpt lat="44.2855056" lon="8.2977316"><ele>469.0</ele><time>2026-04-23T14:05:42.143Z</time></trkpt><trkpt lat="44.2855687" lon="8.2977252"><ele>469.0</ele><time>2026-04-23T14:05:43.142Z</time></trkpt><trkpt lat="44.2856832" lon="8.2977288"><ele>469.0</ele><time>2026-04-23T14:05:45.143Z</time></trkpt><trkpt lat="44.2858031" lon="8.2977232"><ele>469.0</ele><time>2026-04-23T14:05:47.143Z</time></trkpt><trkpt lat="44.2859251" lon="8.2977237"><ele>468.5</ele><time>2026-04-23T14:05:49.143Z</time></trkpt><trkpt lat="44.2860433" lon="8.2977346"><ele>468.0</ele><time>2026-04-23T14:05:51.143Z</time></trkpt><trkpt lat="44.2861643" lon="8.2977409"><ele>467.5</ele><time>2026-04-23T14:05:53.143Z</time></trkpt><trkpt lat="44.2862771" lon="8.297739"><ele>467.0</ele><time>2026-04-23T14:05:55.142Z</time></trkpt><trkpt lat="44.2863875" lon="8.2977408"><ele>466.6</ele><time>2026-04-23T14:05:57.143Z</time></trkpt><trkpt lat="44.2864889" lon="8.2977346"><ele>466.20000000000005</ele><time>2026-04-23T14:05:59.143Z</time></trkpt><trkpt lat="44.2865926" lon="8.2977322"><ele>465.8</ele><time>2026-04-23T14:06:01.144Z</time></trkpt><trkpt lat="44.2867016" lon="8.2977345"><ele>465.4</ele><time>2026-04-23T14:06:03.144Z</time></trkpt><trkpt lat="44.2868061" lon="8.2977285"><ele>465.0</ele><time>2026-04-23T14:06:05.142Z</time></trkpt><trkpt lat="44.2869182" lon="8.297731"><ele>465.0</ele><time>2026-04-23T14:06:07.143Z</time></trkpt><trkpt lat="44.2870297" lon="8.2977311"><ele>465.0</ele><time>2026-04-23T14:06:09.143Z</time></trkpt><trkpt lat="44.2871313" lon="8.2977308"><ele>465.0</ele><time>2026-04-23T14:06:11.144Z</time></trkpt><trkpt lat="44.2872442" lon="8.2977147"><ele>465.0</ele><time>2026-04-23T14:06:13.142Z</time></trkpt><trkpt lat="44.2873467" lon="8.2977008"><ele>465.0</ele><time>2026-04-23T14:06:15.143Z</time></trkpt><trkpt lat="44.2874581" lon="8.2976948"><ele>464.5</ele><time>2026-04-23T14:06:17.143Z</time></trkpt><trkpt lat="44.2875811" lon="8.2976917"><ele>464.0</ele><time>2026-04-23T14:06:19.142Z</time></trkpt><trkpt lat="44.2876447" lon="8.2976852"><ele>463.5</ele><time>2026-04-23T14:06:20.143Z</time></trkpt><trkpt lat="44.2877666" lon="8.2976699"><ele>463.0</ele><time>2026-04-23T14:06:22.142Z</time></trkpt><trkpt lat="44.2878315" lon="8.2976631"><ele>462.5</ele><time>2026-04-23T14:06:23.143Z</time></trkpt><trkpt lat="44.287895" lon="8.297664"><ele>462.0</ele><time>2026-04-23T14:06:24.144Z</time></trkpt><trkpt lat="44.2880124" lon="8.2976653"><ele>461.75</ele><time>2026-04-23T14:06:26.144Z</time></trkpt><trkpt lat="44.2881403" lon="8.2976556"><ele>461.5</ele><time>2026-04-23T14:06:28.142Z</time></trkpt><trkpt lat="44.2882549" lon="8.297646"><ele>461.25</ele><time>2026-04-23T14:06:30.144Z</time></trkpt><trkpt lat="44.2883598" lon="8.2976312"><ele>461.0</ele><time>2026-04-23T14:06:32.144Z</time></trkpt><trkpt lat="44.2884739" lon="8.2976307"><ele>460.99999999999994</ele><time>2026-04-23T14:06:34.144Z</time></trkpt><trkpt lat="44.2885854" lon="8.2976204"><ele>461.0</ele><time>2026-04-23T14:06:36.142Z</time></trkpt><trkpt lat="44.2886935" lon="8.2976084"><ele>461.0</ele><time>2026-04-23T14:06:38.144Z</time></trkpt><trkpt lat="44.2887875" lon="8.2975942"><ele>461.0</ele><time>2026-04-23T14:06:40.144Z</time></trkpt><trkpt lat="44.2888471" lon="8.2976306"><ele>460.99999999999994</ele><time>2026-04-23T14:06:42.143Z</time></trkpt><trkpt lat="44.2888761" lon="8.29771"><ele>461.0</ele><time>2026-04-23T14:06:45.144Z</time></trkpt><trkpt lat="44.2888787" lon="8.2978305"><ele>461.0</ele><time>2026-04-23T14:06:49.143Z</time></trkpt><trkpt lat="44.2888613" lon="8.2979701"><ele>461.0</ele><time>2026-04-23T14:06:52.143Z</time></trkpt><trkpt lat="44.2888614" lon="8.2980979"><ele>461.0</ele><time>2026-04-23T14:06:54.143Z</time></trkpt><trkpt lat="44.2889002" lon="8.2982469"><ele>461.0</ele><time>2026-04-23T14:06:56.144Z</time></trkpt><trkpt lat="44.2889855" lon="8.2983796"><ele>461.0</ele><time>2026-04-23T14:06:58.143Z</time></trkpt><trkpt lat="44.2890407" lon="8.2984352"><ele>460.8333333333333</ele><time>2026-04-23T14:06:59.144Z</time></trkpt><trkpt lat="44.2891001" lon="8.2984869"><ele>460.66666666666663</ele><time>2026-04-23T14:07:00.143Z</time></trkpt><trkpt lat="44.2891625" lon="8.2985243"><ele>460.5</ele><time>2026-04-23T14:07:01.143Z</time></trkpt><trkpt lat="44.2892295" lon="8.2985455"><ele>460.33333333333337</ele><time>2026-04-23T14:07:02.143Z</time></trkpt><trkpt lat="44.2893472" lon="8.2985488"><ele>460.1666666666667</ele><time>2026-04-23T14:07:04.143Z</time></trkpt><trkpt lat="44.2894705" lon="8.2985507"><ele>460.0</ele><time>2026-04-23T14:07:06.143Z</time></trkpt><trkpt lat="44.2895895" lon="8.2985296"><ele>460.0</ele><time>2026-04-23T14:07:08.144Z</time></trkpt><trkpt lat="44.2897041" lon="8.298505"><ele>460.0</ele><time>2026-04-23T14:07:10.144Z</time></trkpt><trkpt lat="44.289808" lon="8.2984746"><ele>460.0</ele><time>2026-04-23T14:07:12.143Z</time></trkpt><trkpt lat="44.2899148" lon="8.2984792"><ele>460.0</ele><time>2026-04-23T14:07:14.143Z</time></trkpt><trkpt lat="44.2900149" lon="8.2984887"><ele>460.0</ele><time>2026-04-23T14:07:16.142Z</time></trkpt><trkpt lat="44.2901182" lon="8.2984826"><ele>459.8</ele><time>2026-04-23T14:07:18.143Z</time></trkpt><trkpt lat="44.2902193" lon="8.2984596"><ele>459.6</ele><time>2026-04-23T14:07:20.143Z</time></trkpt><trkpt lat="44.2903192" lon="8.298415"><ele>459.4</ele><time>2026-04-23T14:07:22.142Z</time></trkpt><trkpt lat="44.2904164" lon="8.2983783"><ele>459.2</ele><time>2026-04-23T14:07:24.143Z</time></trkpt><trkpt lat="44.2904906" lon="8.2983008"><ele>459.0</ele><time>2026-04-23T14:07:26.143Z</time></trkpt><trkpt lat="44.2905805" lon="8.2982228"><ele>458.6</ele><time>2026-04-23T14:07:28.143Z</time></trkpt><trkpt lat="44.2906537" lon="8.2981738"><ele>458.2</ele><time>2026-04-23T14:07:30.144Z</time></trkpt><trkpt lat="44.2907452" lon="8.2981759"><ele>457.80000000000007</ele><time>2026-04-23T14:07:33.142Z</time></trkpt><trkpt lat="44.2907914" lon="8.2982941"><ele>457.40000000000003</ele><time>2026-04-23T14:07:36.143Z</time></trkpt><trkpt lat="44.2908169" lon="8.2984134"><ele>457.0</ele><time>2026-04-23T14:07:38.144Z</time></trkpt><trkpt lat="44.2908613" lon="8.2985414"><ele>457.00000000000006</ele><time>2026-04-23T14:07:40.144Z</time></trkpt><trkpt lat="44.290918" lon="8.2986858"><ele>457.0</ele><time>2026-04-23T14:07:42.143Z</time></trkpt><trkpt lat="44.2909881" lon="8.2988095"><ele>457.0</ele><time>2026-04-23T14:07:44.142Z</time></trkpt><trkpt lat="44.2910347" lon="8.2988874"><ele>457.0</ele><time>2026-04-23T14:07:45.143Z</time></trkpt><trkpt lat="44.2910862" lon="8.2989499"><ele>457.00000000000006</ele><time>2026-04-23T14:07:46.142Z</time></trkpt><trkpt lat="44.291134" lon="8.2990117"><ele>457.0</ele><time>2026-04-23T14:07:47.144Z</time></trkpt><trkpt lat="44.2911858" lon="8.2990705"><ele>457.6666666666667</ele><time>2026-04-23T14:07:48.142Z</time></trkpt><trkpt lat="44.2912386" lon="8.2991328"><ele>458.33333333333337</ele><time>2026-04-23T14:07:49.143Z</time></trkpt><trkpt lat="44.2912971" lon="8.2991852"><ele>459.0</ele><time>2026-04-23T14:07:50.143Z</time></trkpt><trkpt lat="44.2914097" lon="8.2992685"><ele>459.66666666666663</ele><time>2026-04-23T14:07:52.144Z</time></trkpt><trkpt lat="44.2914733" lon="8.2992957"><ele>460.3333333333333</ele><time>2026-04-23T14:07:53.144Z</time></trkpt><trkpt lat="44.2915367" lon="8.2993221"><ele>461.0</ele><time>2026-04-23T14:07:54.144Z</time></trkpt><trkpt lat="44.2916485" lon="8.2993593"><ele>461.0</ele><time>2026-04-23T14:07:56.144Z</time></trkpt><trkpt lat="44.2917639" lon="8.2993814"><ele>461.0</ele><time>2026-04-23T14:07:58.142Z</time></trkpt><trkpt lat="44.2918678" lon="8.2993939"><ele>461.0</ele><time>2026-04-23T14:08:00.143Z</time></trkpt><trkpt lat="44.2919813" lon="8.2993903"><ele>461.0</ele><time>2026-04-23T14:08:02.142Z</time></trkpt><trkpt lat="44.2920848" lon="8.2993869"><ele>461.0</ele><time>2026-04-23T14:08:04.143Z</time></trkpt><trkpt lat="44.2921901" lon="8.2993915"><ele>460.6</ele><time>2026-04-23T14:08:06.142Z</time></trkpt><trkpt lat="44.2922925" lon="8.2993988"><ele>460.20000000000005</ele><time>2026-04-23T14:08:08.143Z</time></trkpt><trkpt lat="44.2923999" lon="8.299388"><ele>459.79999999999995</ele><time>2026-04-23T14:08:10.142Z</time></trkpt><trkpt lat="44.2925037" lon="8.2993871"><ele>459.4</ele><time>2026-04-23T14:08:12.144Z</time></trkpt><trkpt lat="44.2926003" lon="8.2993888"><ele>459.0</ele><time>2026-04-23T14:08:14.144Z</time></trkpt><trkpt lat="44.2927018" lon="8.299399"><ele>459.0</ele><time>2026-04-23T14:08:16.142Z</time></trkpt><trkpt lat="44.2928014" lon="8.2994199"><ele>459.0</ele><time>2026-04-23T14:08:18.142Z</time></trkpt><trkpt lat="44.2928993" lon="8.2994442"><ele>459.0</ele><time>2026-04-23T14:08:20.143Z</time></trkpt><trkpt lat="44.2929894" lon="8.2994993"><ele>459.0</ele><time>2026-04-23T14:08:22.143Z</time></trkpt><trkpt lat="44.2930701" lon="8.2995681"><ele>459.0</ele><time>2026-04-23T14:08:24.144Z</time></trkpt><trkpt lat="44.2931524" lon="8.2996578"><ele>459.0</ele><time>2026-04-23T14:08:26.143Z</time></trkpt><trkpt lat="44.29323" lon="8.2997576"><ele>459.0</ele><time>2026-04-23T14:08:28.142Z</time></trkpt><trkpt lat="44.2933094" lon="8.2998775"><ele>459.0</ele><time>2026-04-23T14:08:30.143Z</time></trkpt><trkpt lat="44.2933749" lon="8.3000033"><ele>459.0</ele><time>2026-04-23T14:08:32.142Z</time></trkpt><trkpt lat="44.2934403" lon="8.3001329"><ele>459.0</ele><time>2026-04-23T14:08:34.143Z</time></trkpt><trkpt lat="44.2935021" lon="8.3002496"><ele>459.0</ele><time>2026-04-23T14:08:36.141Z</time></trkpt><trkpt lat="44.293562" lon="8.3003868"><ele>459.0</ele><time>2026-04-23T14:08:38.144Z</time></trkpt><trkpt lat="44.2936268" lon="8.3005179"><ele>459.0</ele><time>2026-04-23T14:08:40.143Z</time></trkpt><trkpt lat="44.2936872" lon="8.3006449"><ele>459.0</ele><time>2026-04-23T14:08:42.143Z</time></trkpt><trkpt lat="44.2937576" lon="8.3007739"><ele>458.2</ele><time>2026-04-23T14:08:44.142Z</time></trkpt><trkpt lat="44.293808" lon="8.3009111"><ele>457.4</ele><time>2026-04-23T14:08:46.143Z</time></trkpt><trkpt lat="44.293869" lon="8.3010296"><ele>456.6</ele><time>2026-04-23T14:08:48.142Z</time></trkpt><trkpt lat="44.2939455" lon="8.3011547"><ele>455.8</ele><time>2026-04-23T14:08:50.143Z</time></trkpt><trkpt lat="44.294009" lon="8.3012681"><ele>455.0</ele><time>2026-04-23T14:08:52.143Z</time></trkpt><trkpt lat="44.2940876" lon="8.301363"><ele>458.0</ele><time>2026-04-23T14:08:54.144Z</time></trkpt><trkpt lat="44.2941875" lon="8.3014329"><ele>461.0</ele><time>2026-04-23T14:08:56.144Z</time></trkpt><trkpt lat="44.2942885" lon="8.3014893"><ele>464.0</ele><time>2026-04-23T14:08:58.144Z</time></trkpt><trkpt lat="44.2943832" lon="8.3015661"><ele>467.0</ele><time>2026-04-23T14:09:00.143Z</time></trkpt><trkpt lat="44.2944391" lon="8.3016219"><ele>470.0</ele><time>2026-04-23T14:09:01.143Z</time></trkpt><trkpt lat="44.2944922" lon="8.3016787"><ele>470.0</ele><time>2026-04-23T14:09:02.144Z</time></trkpt><trkpt lat="44.294586" lon="8.3017501"><ele>470.0</ele><time>2026-04-23T14:09:04.143Z</time></trkpt><trkpt lat="44.2946699" lon="8.3018236"><ele>470.0</ele><time>2026-04-23T14:09:06.142Z</time></trkpt><trkpt lat="44.2947313" lon="8.30192"><ele>470.0</ele><time>2026-04-23T14:09:08.143Z</time></trkpt><trkpt lat="44.294809" lon="8.3020044"><ele>470.0</ele><time>2026-04-23T14:09:10.143Z</time></trkpt><trkpt lat="44.294884" lon="8.3020872"><ele>470.4</ele><time>2026-04-23T14:09:12.143Z</time></trkpt><trkpt lat="44.2949811" lon="8.3021545"><ele>470.8</ele><time>2026-04-23T14:09:14.143Z</time></trkpt><trkpt lat="44.2950772" lon="8.3022168"><ele>471.20000000000005</ele><time>2026-04-23T14:09:16.143Z</time></trkpt><trkpt lat="44.2951698" lon="8.3022674"><ele>471.6</ele><time>2026-04-23T14:09:18.143Z</time></trkpt><trkpt lat="44.2952726" lon="8.3022923"><ele>472.0</ele><time>2026-04-23T14:09:20.144Z</time></trkpt><trkpt lat="44.295385" lon="8.3023143"><ele>472.0</ele><time>2026-04-23T14:09:22.142Z</time></trkpt><trkpt lat="44.2954905" lon="8.3023358"><ele>472.00000000000006</ele><time>2026-04-23T14:09:24.144Z</time></trkpt><trkpt lat="44.2955969" lon="8.302336"><ele>472.00000000000006</ele><time>2026-04-23T14:09:26.143Z</time></trkpt><trkpt lat="44.2957079" lon="8.3023564"><ele>472.0</ele><time>2026-04-23T14:09:28.144Z</time></trkpt><trkpt lat="44.2958058" lon="8.3023955"><ele>472.0</ele><time>2026-04-23T14:09:30.142Z</time></trkpt><trkpt lat="44.2958982" lon="8.3024674"><ele>468.25</ele><time>2026-04-23T14:09:32.143Z</time></trkpt><trkpt lat="44.2959852" lon="8.3025512"><ele>464.5</ele><time>2026-04-23T14:09:34.143Z</time></trkpt><trkpt lat="44.2960731" lon="8.3026327"><ele>460.75</ele><time>2026-04-23T14:09:36.143Z</time></trkpt><trkpt lat="44.2961899" lon="8.3027253"><ele>457.0</ele><time>2026-04-23T14:09:38.144Z</time></trkpt><trkpt lat="44.2962907" lon="8.3028122"><ele>457.0</ele><time>2026-04-23T14:09:40.142Z</time></trkpt><trkpt lat="44.2963449" lon="8.3028672"><ele>457.00000000000006</ele><time>2026-04-23T14:09:41.142Z</time></trkpt><trkpt lat="44.296449" lon="8.3029581"><ele>457.00000000000006</ele><time>2026-04-23T14:09:43.143Z</time></trkpt><trkpt lat="44.2965507" lon="8.3030506"><ele>457.0</ele><time>2026-04-23T14:09:45.143Z</time></trkpt><trkpt lat="44.2966067" lon="8.3030937"><ele>457.0</ele><time>2026-04-23T14:09:46.144Z</time></trkpt><trkpt lat="44.2967138" lon="8.3031788"><ele>457.00000000000006</ele><time>2026-04-23T14:09:48.143Z</time></trkpt><trkpt lat="44.29677" lon="8.3032249"><ele>457.0</ele><time>2026-04-23T14:09:49.142Z</time></trkpt><trkpt lat="44.2968245" lon="8.3032707"><ele>457.00000000000006</ele><time>2026-04-23T14:09:50.142Z</time></trkpt><trkpt lat="44.2968804" lon="8.3033202"><ele>457.00000000000006</ele><time>2026-04-23T14:09:51.143Z</time></trkpt><trkpt lat="44.2969372" lon="8.3033711"><ele>457.0</ele><time>2026-04-23T14:09:52.142Z</time></trkpt><trkpt lat="44.2969981" lon="8.3034324"><ele>457.00000000000006</ele><time>2026-04-23T14:09:53.142Z</time></trkpt><trkpt lat="44.2970551" lon="8.3034817"><ele>457.00000000000006</ele><time>2026-04-23T14:09:54.143Z</time></trkpt><trkpt lat="44.2971133" lon="8.3035304"><ele>457.00000000000006</ele><time>2026-04-23T14:09:55.142Z</time></trkpt><trkpt lat="44.297171" lon="8.3035757"><ele>457.0</ele><time>2026-04-23T14:09:56.142Z</time></trkpt><trkpt lat="44.2972244" lon="8.3036292"><ele>457.00000000000006</ele><time>2026-04-23T14:09:57.142Z</time></trkpt><trkpt lat="44.2972848" lon="8.3036815"><ele>457.00000000000006</ele><time>2026-04-23T14:09:58.143Z</time></trkpt><trkpt lat="44.2973413" lon="8.303733"><ele>457.0</ele><time>2026-04-23T14:09:59.143Z</time></trkpt><trkpt lat="44.2973935" lon="8.3037835"><ele>457.00000000000006</ele><time>2026-04-23T14:10:00.143Z</time></trkpt><trkpt lat="44.2974526" lon="8.3038246"><ele>457.00000000000006</ele><time>2026-04-23T14:10:01.144Z</time></trkpt><trkpt lat="44.2975129" lon="8.3038619"><ele>457.00000000000006</ele><time>2026-04-23T14:10:02.142Z</time></trkpt><trkpt lat="44.2975699" lon="8.3039073"><ele>457.0</ele><time>2026-04-23T14:10:03.143Z</time></trkpt><trkpt lat="44.2976286" lon="8.3039408"><ele>457.0</ele><time>2026-04-23T14:10:04.143Z</time></trkpt><trkpt lat="44.2977269" lon="8.3040165"><ele>457.0</ele><time>2026-04-23T14:10:06.143Z</time></trkpt><trkpt lat="44.2977806" lon="8.3040805"><ele>457.00000000000006</ele><time>2026-04-23T14:10:07.142Z</time></trkpt><trkpt lat="44.2978737" lon="8.304127"><ele>457.0</ele><time>2026-04-23T14:10:09.143Z</time></trkpt><trkpt lat="44.2979833" lon="8.3041335"><ele>456.83333333333337</ele><time>2026-04-23T14:10:11.142Z</time></trkpt><trkpt lat="44.2980968" lon="8.3041192"><ele>456.6666666666667</ele><time>2026-04-23T14:10:13.141Z</time></trkpt><trkpt lat="44.2982162" lon="8.3040877"><ele>456.5</ele><time>2026-04-23T14:10:15.142Z</time></trkpt><trkpt lat="44.2982824" lon="8.3040647"><ele>456.33333333333337</ele><time>2026-04-23T14:10:16.142Z</time></trkpt><trkpt lat="44.2983458" lon="8.3040409"><ele>456.1666666666667</ele><time>2026-04-23T14:10:17.142Z</time></trkpt><trkpt lat="44.2984118" lon="8.3040312"><ele>456.0</ele><time>2026-04-23T14:10:18.142Z</time></trkpt><trkpt lat="44.2985421" lon="8.3040255"><ele>456.0</ele><time>2026-04-23T14:10:20.141Z</time></trkpt><trkpt lat="44.2986082" lon="8.3040171"><ele>455.99999999999994</ele><time>2026-04-23T14:10:21.144Z</time></trkpt><trkpt lat="44.298679" lon="8.3040113"><ele>456.0</ele><time>2026-04-23T14:10:22.143Z</time></trkpt><trkpt lat="44.2987457" lon="8.3040068"><ele>456.0</ele><time>2026-04-23T14:10:23.144Z</time></trkpt><trkpt lat="44.2988165" lon="8.3039947"><ele>455.99999999999994</ele><time>2026-04-23T14:10:24.141Z</time></trkpt><trkpt lat="44.2988927" lon="8.3040157"><ele>456.0</ele><time>2026-04-23T14:10:25.143Z</time></trkpt><trkpt lat="44.2989659" lon="8.3040097"><ele>456.0</ele><time>2026-04-23T14:10:26.142Z</time></trkpt><trkpt lat="44.2990422" lon="8.3040029"><ele>455.57142857142856</ele><time>2026-04-23T14:10:27.142Z</time></trkpt><trkpt lat="44.299115" lon="8.3040003"><ele>455.1428571428571</ele><time>2026-04-23T14:10:28.143Z</time></trkpt><trkpt lat="44.299182" lon="8.3039871"><ele>454.71428571428567</ele><time>2026-04-23T14:10:29.141Z</time></trkpt><trkpt lat="44.2992554" lon="8.3039783"><ele>454.2857142857142</ele><time>2026-04-23T14:10:30.143Z</time></trkpt><trkpt lat="44.2993185" lon="8.3039537"><ele>453.85714285714283</ele><time>2026-04-23T14:10:31.144Z</time></trkpt><trkpt lat="44.2993847" lon="8.3039208"><ele>453.42857142857133</ele><time>2026-04-23T14:10:32.142Z</time></trkpt><trkpt lat="44.2994486" lon="8.3038825"><ele>452.99999999999994</ele><time>2026-04-23T14:10:33.143Z</time></trkpt><trkpt lat="44.2995126" lon="8.3038459"><ele>452.14285714285705</ele><time>2026-04-23T14:10:34.141Z</time></trkpt><trkpt lat="44.2995774" lon="8.3038065"><ele>451.2857142857143</ele><time>2026-04-23T14:10:35.141Z</time></trkpt><trkpt lat="44.2996407" lon="8.3037738"><ele>450.4285714285714</ele><time>2026-04-23T14:10:36.143Z</time></trkpt><trkpt lat="44.2997075" lon="8.3037651"><ele>449.57142857142856</ele><time>2026-04-23T14:10:37.142Z</time></trkpt><trkpt lat="44.2997766" lon="8.3037647"><ele>448.71428571428567</ele><time>2026-04-23T14:10:38.142Z</time></trkpt><trkpt lat="44.299844" lon="8.3037756"><ele>447.85714285714283</ele><time>2026-04-23T14:10:39.142Z</time></trkpt><trkpt lat="44.2999037" lon="8.3038069"><ele>447.0</ele><time>2026-04-23T14:10:40.142Z</time></trkpt><trkpt lat="44.2999697" lon="8.303818"><ele>446.71428571428567</ele><time>2026-04-23T14:10:41.142Z</time></trkpt><trkpt lat="44.3000389" lon="8.3038324"><ele>446.42857142857144</ele><time>2026-04-23T14:10:42.143Z</time></trkpt><trkpt lat="44.3001069" lon="8.303843"><ele>446.1428571428571</ele><time>2026-04-23T14:10:43.142Z</time></trkpt><trkpt lat="44.3001702" lon="8.3038614"><ele>445.85714285714283</ele><time>2026-04-23T14:10:44.142Z</time></trkpt><trkpt lat="44.3002386" lon="8.3038672"><ele>445.57142857142856</ele><time>2026-04-23T14:10:45.143Z</time></trkpt><trkpt lat="44.3003053" lon="8.3038774"><ele>445.2857142857143</ele><time>2026-04-23T14:10:46.142Z</time></trkpt><trkpt lat="44.3003729" lon="8.3038868"><ele>445.0</ele><time>2026-04-23T14:10:47.142Z</time></trkpt><trkpt lat="44.3004389" lon="8.3038868"><ele>445.00000000000006</ele><time>2026-04-23T14:10:48.143Z</time></trkpt><trkpt lat="44.3005054" lon="8.3038816"><ele>445.0</ele><time>2026-04-23T14:10:49.143Z</time></trkpt><trkpt lat="44.3005693" lon="8.3038758"><ele>445.0</ele><time>2026-04-23T14:10:50.141Z</time></trkpt><trkpt lat="44.3006935" lon="8.3038418"><ele>445.0</ele><time>2026-04-23T14:10:52.144Z</time></trkpt><trkpt lat="44.3008127" lon="8.3037932"><ele>445.00000000000006</ele><time>2026-04-23T14:10:54.142Z</time></trkpt><trkpt lat="44.3008762" lon="8.3037654"><ele>445.0</ele><time>2026-04-23T14:10:55.142Z</time></trkpt><trkpt lat="44.3009351" lon="8.3037322"><ele>445.42857142857144</ele><time>2026-04-23T14:10:56.144Z</time></trkpt><trkpt lat="44.3009984" lon="8.3036873"><ele>445.85714285714283</ele><time>2026-04-23T14:10:57.143Z</time></trkpt><trkpt lat="44.3010577" lon="8.3036356"><ele>446.2857142857143</ele><time>2026-04-23T14:10:58.143Z</time></trkpt><trkpt lat="44.3011163" lon="8.3035765"><ele>446.7142857142857</ele><time>2026-04-23T14:10:59.141Z</time></trkpt><trkpt lat="44.3011774" lon="8.3035332"><ele>447.1428571428571</ele><time>2026-04-23T14:11:00.142Z</time></trkpt><trkpt lat="44.3012405" lon="8.3035048"><ele>447.57142857142856</ele><time>2026-04-23T14:11:01.142Z</time></trkpt><trkpt lat="44.3012996" lon="8.3034688"><ele>448.0</ele><time>2026-04-23T14:11:02.142Z</time></trkpt><trkpt lat="44.3014154" lon="8.3034631"><ele>448.2</ele><time>2026-04-23T14:11:04.142Z</time></trkpt><trkpt lat="44.3014786" lon="8.3034699"><ele>448.4</ele><time>2026-04-23T14:11:05.143Z</time></trkpt><trkpt lat="44.3015984" lon="8.3034916"><ele>448.59999999999997</ele><time>2026-04-23T14:11:07.142Z</time></trkpt><trkpt lat="44.3017152" lon="8.3035185"><ele>448.79999999999995</ele><time>2026-04-23T14:11:09.142Z</time></trkpt><trkpt lat="44.3018371" lon="8.3035399"><ele>449.0</ele><time>2026-04-23T14:11:11.143Z</time></trkpt><trkpt lat="44.3019589" lon="8.3035543"><ele>449.0</ele><time>2026-04-23T14:11:13.143Z</time></trkpt><trkpt lat="44.3020742" lon="8.3035302"><ele>449.0</ele><time>2026-04-23T14:11:15.143Z</time></trkpt><trkpt lat="44.3021898" lon="8.3034763"><ele>449.0</ele><time>2026-04-23T14:11:17.143Z</time></trkpt><trkpt lat="44.3022477" lon="8.3034273"><ele>449.0</ele><time>2026-04-23T14:11:18.143Z</time></trkpt><trkpt lat="44.3023076" lon="8.3033797"><ele>449.0</ele><time>2026-04-23T14:11:19.142Z</time></trkpt><trkpt lat="44.3024085" lon="8.3032703"><ele>448.4</ele><time>2026-04-23T14:11:21.141Z</time></trkpt><trkpt lat="44.3025033" lon="8.3031497"><ele>447.79999999999995</ele><time>2026-04-23T14:11:23.142Z</time></trkpt><trkpt lat="44.3025883" lon="8.3030343"><ele>447.20000000000005</ele><time>2026-04-23T14:11:25.143Z</time></trkpt><trkpt lat="44.3026334" lon="8.3029665"><ele>446.6</ele><time>2026-04-23T14:11:26.143Z</time></trkpt><trkpt lat="44.3027129" lon="8.3028329"><ele>446.0</ele><time>2026-04-23T14:11:28.142Z</time></trkpt><trkpt lat="44.302742" lon="8.3027544"><ele>446.0</ele><time>2026-04-23T14:11:29.141Z</time></trkpt><trkpt lat="44.3027662" lon="8.3026646"><ele>446.0</ele><time>2026-04-23T14:11:30.142Z</time></trkpt><trkpt lat="44.3028038" lon="8.3025099"><ele>446.0</ele><time>2026-04-23T14:11:32.142Z</time></trkpt><trkpt lat="44.3028605" lon="8.30236"><ele>446.0</ele><time>2026-04-23T14:11:34.142Z</time></trkpt><trkpt lat="44.3029218" lon="8.3022036"><ele>446.0</ele><time>2026-04-23T14:11:36.142Z</time></trkpt><trkpt lat="44.3029773" lon="8.3020486"><ele>446.4</ele><time>2026-04-23T14:11:38.143Z</time></trkpt><trkpt lat="44.3030189" lon="8.3018934"><ele>446.8</ele><time>2026-04-23T14:11:40.142Z</time></trkpt><trkpt lat="44.3030725" lon="8.3017426"><ele>447.19999999999993</ele><time>2026-04-23T14:11:42.142Z</time></trkpt><trkpt lat="44.3030947" lon="8.30166"><ele>447.59999999999997</ele><time>2026-04-23T14:11:43.143Z</time></trkpt><trkpt lat="44.3031223" lon="8.3015719"><ele>448.0</ele><time>2026-04-23T14:11:44.143Z</time></trkpt><trkpt lat="44.3032046" lon="8.3014402"><ele>446.75</ele><time>2026-04-23T14:11:46.142Z</time></trkpt><trkpt lat="44.3033159" lon="8.3013793"><ele>445.5</ele><time>2026-04-23T14:11:48.142Z</time></trkpt><trkpt lat="44.3034275" lon="8.3013895"><ele>444.25</ele><time>2026-04-23T14:11:50.141Z</time></trkpt><trkpt lat="44.3035452" lon="8.3014324"><ele>443.0</ele><time>2026-04-23T14:11:52.143Z</time></trkpt><trkpt lat="44.303653" lon="8.3014539"><ele>445.75</ele><time>2026-04-23T14:11:54.143Z</time></trkpt><trkpt lat="44.3037632" lon="8.3014873"><ele>448.5</ele><time>2026-04-23T14:11:56.142Z</time></trkpt><trkpt lat="44.3038752" lon="8.3015257"><ele>451.25</ele><time>2026-04-23T14:11:58.141Z</time></trkpt><trkpt lat="44.3039864" lon="8.3015402"><ele>454.0</ele><time>2026-04-23T14:12:00.142Z</time></trkpt><trkpt lat="44.3041031" lon="8.3015549"><ele>454.83333333333337</ele><time>2026-04-23T14:12:02.143Z</time></trkpt><trkpt lat="44.3042252" lon="8.3015731"><ele>455.6666666666667</ele><time>2026-04-23T14:12:04.143Z</time></trkpt><trkpt lat="44.3043471" lon="8.3016159"><ele>456.5</ele><time>2026-04-23T14:12:06.143Z</time></trkpt><trkpt lat="44.3044059" lon="8.3016497"><ele>457.33333333333337</ele><time>2026-04-23T14:12:07.142Z</time></trkpt><trkpt lat="44.3044619" lon="8.3016914"><ele>458.1666666666667</ele><time>2026-04-23T14:12:08.142Z</time></trkpt><trkpt lat="44.3045131" lon="8.3017453"><ele>459.0</ele><time>2026-04-23T14:12:09.143Z</time></trkpt><trkpt lat="44.3045585" lon="8.301815"><ele>459.0</ele><time>2026-04-23T14:12:10.142Z</time></trkpt><trkpt lat="44.3045922" lon="8.3018914"><ele>459.0</ele><time>2026-04-23T14:12:11.143Z</time></trkpt><trkpt lat="44.3046259" lon="8.3019783"><ele>459.0</ele><time>2026-04-23T14:12:12.142Z</time></trkpt><trkpt lat="44.3046707" lon="8.3020575"><ele>459.0</ele><time>2026-04-23T14:12:13.142Z</time></trkpt><trkpt lat="44.304707" lon="8.3021425"><ele>459.0</ele><time>2026-04-23T14:12:14.143Z</time></trkpt><trkpt lat="44.3047421" lon="8.3022198"><ele>459.0</ele><time>2026-04-23T14:12:15.143Z</time></trkpt><trkpt lat="44.3047818" lon="8.302294"><ele>459.0</ele><time>2026-04-23T14:12:16.142Z</time></trkpt><trkpt lat="44.3048276" lon="8.3023675"><ele>458.3333333333333</ele><time>2026-04-23T14:12:17.142Z</time></trkpt><trkpt lat="44.3048744" lon="8.3024412"><ele>457.66666666666663</ele><time>2026-04-23T14:12:18.142Z</time></trkpt><trkpt lat="44.304925" lon="8.3025149"><ele>457.0</ele><time>2026-04-23T14:12:19.142Z</time></trkpt><trkpt lat="44.3049774" lon="8.3025801"><ele>456.3333333333333</ele><time>2026-04-23T14:12:20.141Z</time></trkpt><trkpt lat="44.3050279" lon="8.3026422"><ele>455.66666666666663</ele><time>2026-04-23T14:12:21.143Z</time></trkpt><trkpt lat="44.3050771" lon="8.3027038"><ele>455.0</ele><time>2026-04-23T14:12:22.141Z</time></trkpt><trkpt lat="44.3051627" lon="8.3028278"><ele>455.0</ele><time>2026-04-23T14:12:24.141Z</time></trkpt><trkpt lat="44.3052131" lon="8.3028966"><ele>455.0</ele><time>2026-04-23T14:12:25.143Z</time></trkpt><trkpt lat="44.3053026" lon="8.3030171"><ele>455.0</ele><time>2026-04-23T14:12:27.141Z</time></trkpt><trkpt lat="44.3053496" lon="8.3030836"><ele>455.0</ele><time>2026-04-23T14:12:28.143Z</time></trkpt><trkpt lat="44.305434" lon="8.3032111"><ele>455.0</ele><time>2026-04-23T14:12:30.142Z</time></trkpt><trkpt lat="44.3055189" lon="8.3033277"><ele>454.8</ele><time>2026-04-23T14:12:32.142Z</time></trkpt><trkpt lat="44.3055648" lon="8.303393"><ele>454.6</ele><time>2026-04-23T14:12:33.142Z</time></trkpt><trkpt lat="44.3056023" lon="8.3035444"><ele>454.4</ele><time>2026-04-23T14:12:35.142Z</time></trkpt><trkpt lat="44.3056872" lon="8.3036481"><ele>454.2</ele><time>2026-04-23T14:12:37.142Z</time></trkpt><trkpt lat="44.3057397" lon="8.3037062"><ele>454.0</ele><time>2026-04-23T14:12:38.143Z</time></trkpt><trkpt lat="44.3058171" lon="8.3038168"><ele>454.00000000000006</ele><time>2026-04-23T14:12:40.142Z</time></trkpt><trkpt lat="44.3058651" lon="8.3038774"><ele>454.0</ele><time>2026-04-23T14:12:41.142Z</time></trkpt><trkpt lat="44.3059364" lon="8.3040005"><ele>454.0</ele><time>2026-04-23T14:12:43.143Z</time></trkpt><trkpt lat="44.3059777" lon="8.3040693"><ele>454.0</ele><time>2026-04-23T14:12:44.142Z</time></trkpt><trkpt lat="44.306006" lon="8.3041499"><ele>454.00000000000006</ele><time>2026-04-23T14:12:45.143Z</time></trkpt><trkpt lat="44.3060624" lon="8.304304"><ele>454.0</ele><time>2026-04-23T14:12:47.142Z</time></trkpt><trkpt lat="44.3060962" lon="8.3043784"><ele>457.33333333333337</ele><time>2026-04-23T14:12:48.143Z</time></trkpt><trkpt lat="44.3061292" lon="8.304542"><ele>460.6666666666667</ele><time>2026-04-23T14:12:50.142Z</time></trkpt><trkpt lat="44.3061609" lon="8.3046284"><ele>464.0</ele><time>2026-04-23T14:12:51.142Z</time></trkpt><trkpt lat="44.3061925" lon="8.3047246"><ele>467.33333333333337</ele><time>2026-04-23T14:12:52.142Z</time></trkpt><trkpt lat="44.3062105" lon="8.3048106"><ele>470.6666666666667</ele><time>2026-04-23T14:12:53.142Z</time></trkpt><trkpt lat="44.3062463" lon="8.3049111"><ele>474.0</ele><time>2026-04-23T14:12:54.143Z</time></trkpt><trkpt lat="44.3062628" lon="8.3049968"><ele>475.5</ele><time>2026-04-23T14:12:55.142Z</time></trkpt><trkpt lat="44.3062711" lon="8.3050847"><ele>477.0</ele><time>2026-04-23T14:12:56.14Z</time></trkpt><trkpt lat="44.3062798" lon="8.3051749"><ele>478.5</ele><time>2026-04-23T14:12:57.142Z</time></trkpt><trkpt lat="44.3062894" lon="8.3052656"><ele>480.0</ele><time>2026-04-23T14:12:58.14Z</time></trkpt><trkpt lat="44.3062963" lon="8.3053647"><ele>481.5</ele><time>2026-04-23T14:12:59.142Z</time></trkpt><trkpt lat="44.3063126" lon="8.3054567"><ele>483.0</ele><time>2026-04-23T14:13:00.142Z</time></trkpt><trkpt lat="44.3063155" lon="8.3056449"><ele>483.1428571428571</ele><time>2026-04-23T14:13:02.141Z</time></trkpt><trkpt lat="44.3063152" lon="8.305735"><ele>483.2857142857143</ele><time>2026-04-23T14:13:03.142Z</time></trkpt><trkpt lat="44.3063181" lon="8.3058307"><ele>483.42857142857144</ele><time>2026-04-23T14:13:04.142Z</time></trkpt><trkpt lat="44.3063179" lon="8.3059234"><ele>483.57142857142856</ele><time>2026-04-23T14:13:05.142Z</time></trkpt><trkpt lat="44.306318" lon="8.3060244"><ele>483.71428571428567</ele><time>2026-04-23T14:13:06.141Z</time></trkpt><trkpt lat="44.306321" lon="8.3061227"><ele>483.85714285714283</ele><time>2026-04-23T14:13:07.143Z</time></trkpt><trkpt lat="44.3063207" lon="8.3062201"><ele>484.0</ele><time>2026-04-23T14:13:08.142Z</time></trkpt><trkpt lat="44.3063198" lon="8.3063121"><ele>484.0</ele><time>2026-04-23T14:13:09.142Z</time></trkpt><trkpt lat="44.3063254" lon="8.3064003"><ele>483.99999999999994</ele><time>2026-04-23T14:13:10.142Z</time></trkpt><trkpt lat="44.3063221" lon="8.3064905"><ele>484.0</ele><time>2026-04-23T14:13:11.141Z</time></trkpt><trkpt lat="44.3063296" lon="8.306588"><ele>484.0</ele><time>2026-04-23T14:13:12.143Z</time></trkpt><trkpt lat="44.3063299" lon="8.306679"><ele>483.99999999999994</ele><time>2026-04-23T14:13:13.141Z</time></trkpt><trkpt lat="44.3063361" lon="8.3067753"><ele>484.0</ele><time>2026-04-23T14:13:14.143Z</time></trkpt><trkpt lat="44.3063321" lon="8.3068706"><ele>484.0</ele><time>2026-04-23T14:13:15.143Z</time></trkpt><trkpt lat="44.3063349" lon="8.3069661"><ele>484.00000000000006</ele><time>2026-04-23T14:13:16.143Z</time></trkpt><trkpt lat="44.3063358" lon="8.3070633"><ele>484.0</ele><time>2026-04-23T14:13:17.141Z</time></trkpt><trkpt lat="44.3063379" lon="8.3071546"><ele>484.0</ele><time>2026-04-23T14:13:18.14Z</time></trkpt><trkpt lat="44.3063419" lon="8.3072568"><ele>484.0</ele><time>2026-04-23T14:13:19.142Z</time></trkpt><trkpt lat="44.3063399" lon="8.3073501"><ele>484.00000000000006</ele><time>2026-04-23T14:13:20.142Z</time></trkpt><trkpt lat="44.306339" lon="8.3074386"><ele>484.0</ele><time>2026-04-23T14:13:21.142Z</time></trkpt><trkpt lat="44.3063472" lon="8.307607"><ele>483.79999999999995</ele><time>2026-04-23T14:13:23.142Z</time></trkpt><trkpt lat="44.3063543" lon="8.3076964"><ele>483.59999999999997</ele><time>2026-04-23T14:13:24.143Z</time></trkpt><trkpt lat="44.3063802" lon="8.3078658"><ele>483.4</ele><time>2026-04-23T14:13:26.143Z</time></trkpt><trkpt lat="44.3064122" lon="8.3080413"><ele>483.2</ele><time>2026-04-23T14:13:28.141Z</time></trkpt><trkpt lat="44.3064486" lon="8.3081222"><ele>483.0</ele><time>2026-04-23T14:13:29.143Z</time></trkpt><trkpt lat="44.306496" lon="8.308193"><ele>479.42857142857144</ele><time>2026-04-23T14:13:30.141Z</time></trkpt><trkpt lat="44.3065521" lon="8.3082534"><ele>475.8571428571429</ele><time>2026-04-23T14:13:31.141Z</time></trkpt><trkpt lat="44.3066121" lon="8.3083043"><ele>472.2857142857143</ele><time>2026-04-23T14:13:32.141Z</time></trkpt><trkpt lat="44.3066708" lon="8.3083424"><ele>468.7142857142857</ele><time>2026-04-23T14:13:33.142Z</time></trkpt><trkpt lat="44.3067377" lon="8.3083767"><ele>465.14285714285717</ele><time>2026-04-23T14:13:34.142Z</time></trkpt><trkpt lat="44.3068041" lon="8.3084059"><ele>461.57142857142856</ele><time>2026-04-23T14:13:35.142Z</time></trkpt><trkpt lat="44.3068735" lon="8.3084354"><ele>458.0</ele><time>2026-04-23T14:13:36.142Z</time></trkpt><trkpt lat="44.3069423" lon="8.3084689"><ele>457.99999999999994</ele><time>2026-04-23T14:13:37.143Z</time></trkpt><trkpt lat="44.3070096" lon="8.3084988"><ele>458.0</ele><time>2026-04-23T14:13:38.141Z</time></trkpt><trkpt lat="44.3070755" lon="8.3085274"><ele>458.0</ele><time>2026-04-23T14:13:39.141Z</time></trkpt><trkpt lat="44.3071458" lon="8.3085663"><ele>458.0</ele><time>2026-04-23T14:13:40.142Z</time></trkpt><trkpt lat="44.307217" lon="8.3086117"><ele>457.99999999999994</ele><time>2026-04-23T14:13:41.142Z</time></trkpt><trkpt lat="44.3072859" lon="8.3086593"><ele>458.0</ele><time>2026-04-23T14:13:42.142Z</time></trkpt><trkpt lat="44.3073588" lon="8.3087322"><ele>458.16666666666663</ele><time>2026-04-23T14:13:43.142Z</time></trkpt><trkpt lat="44.3074307" lon="8.3087768"><ele>458.3333333333333</ele><time>2026-04-23T14:13:44.143Z</time></trkpt><trkpt lat="44.3074827" lon="8.3088398"><ele>458.5</ele><time>2026-04-23T14:13:45.142Z</time></trkpt><trkpt lat="44.3075627" lon="8.3088886"><ele>458.66666666666663</ele><time>2026-04-23T14:13:46.143Z</time></trkpt><trkpt lat="44.3076336" lon="8.3089404"><ele>458.8333333333333</ele><time>2026-04-23T14:13:47.142Z</time></trkpt><trkpt lat="44.3077144" lon="8.3089888"><ele>459.0</ele><time>2026-04-23T14:13:48.142Z</time></trkpt><trkpt lat="44.3077956" lon="8.3090408"><ele>459.0</ele><time>2026-04-23T14:13:49.142Z</time></trkpt><trkpt lat="44.3078786" lon="8.3090928"><ele>459.0</ele><time>2026-04-23T14:13:50.141Z</time></trkpt><trkpt lat="44.3079628" lon="8.3091487"><ele>459.0</ele><time>2026-04-23T14:13:51.142Z</time></trkpt><trkpt lat="44.3080536" lon="8.3091936"><ele>459.0</ele><time>2026-04-23T14:13:52.14Z</time></trkpt><trkpt lat="44.3081416" lon="8.3092432"><ele>459.0</ele><time>2026-04-23T14:13:53.141Z</time></trkpt><trkpt lat="44.3082299" lon="8.3092928"><ele>455.79999999999995</ele><time>2026-04-23T14:13:54.141Z</time></trkpt><trkpt lat="44.3083197" lon="8.3093431"><ele>452.59999999999997</ele><time>2026-04-23T14:13:55.142Z</time></trkpt><trkpt lat="44.3084175" lon="8.3094144"><ele>449.4</ele><time>2026-04-23T14:13:56.143Z</time></trkpt><trkpt lat="44.3085001" lon="8.3094868"><ele>446.2</ele><time>2026-04-23T14:13:57.143Z</time></trkpt><trkpt lat="44.3085873" lon="8.3095682"><ele>443.0</ele><time>2026-04-23T14:13:58.142Z</time></trkpt><trkpt lat="44.3086622" lon="8.3096475"><ele>443.0</ele><time>2026-04-23T14:13:59.142Z</time></trkpt><trkpt lat="44.3087293" lon="8.3097382"><ele>442.99999999999994</ele><time>2026-04-23T14:14:00.141Z</time></trkpt><trkpt lat="44.3088064" lon="8.3098289"><ele>442.99999999999994</ele><time>2026-04-23T14:14:01.142Z</time></trkpt><trkpt lat="44.3088823" lon="8.3099108"><ele>443.0</ele><time>2026-04-23T14:14:02.142Z</time></trkpt><trkpt lat="44.308946" lon="8.3099983"><ele>443.0</ele><time>2026-04-23T14:14:03.142Z</time></trkpt><trkpt lat="44.3090176" lon="8.3100813"><ele>442.16666666666663</ele><time>2026-04-23T14:14:04.142Z</time></trkpt><trkpt lat="44.3090853" lon="8.3101544"><ele>441.3333333333333</ele><time>2026-04-23T14:14:05.142Z</time></trkpt><trkpt lat="44.3091456" lon="8.3102344"><ele>440.5</ele><time>2026-04-23T14:14:06.143Z</time></trkpt><trkpt lat="44.3092069" lon="8.3103082"><ele>439.66666666666663</ele><time>2026-04-23T14:14:07.142Z</time></trkpt><trkpt lat="44.3092586" lon="8.3103807"><ele>438.8333333333333</ele><time>2026-04-23T14:14:08.142Z</time></trkpt><trkpt lat="44.3093162" lon="8.3104487"><ele>438.0</ele><time>2026-04-23T14:14:09.142Z</time></trkpt><trkpt lat="44.3093589" lon="8.3105175"><ele>439.8571428571429</ele><time>2026-04-23T14:14:10.142Z</time></trkpt><trkpt lat="44.3094073" lon="8.3105952"><ele>441.71428571428567</ele><time>2026-04-23T14:14:11.142Z</time></trkpt><trkpt lat="44.3094645" lon="8.3106744"><ele>443.57142857142856</ele><time>2026-04-23T14:14:12.141Z</time></trkpt><trkpt lat="44.3095201" lon="8.3107456"><ele>445.42857142857144</ele><time>2026-04-23T14:14:13.143Z</time></trkpt><trkpt lat="44.3095606" lon="8.3108133"><ele>447.28571428571433</ele><time>2026-04-23T14:14:14.141Z</time></trkpt><trkpt lat="44.3096092" lon="8.3108769"><ele>449.1428571428571</ele><time>2026-04-23T14:14:15.141Z</time></trkpt><trkpt lat="44.3096658" lon="8.3109561"><ele>451.0</ele><time>2026-04-23T14:14:16.142Z</time></trkpt><trkpt lat="44.3097229" lon="8.311037"><ele>451.83333333333337</ele><time>2026-04-23T14:14:17.142Z</time></trkpt><trkpt lat="44.3097664" lon="8.3111279"><ele>452.6666666666667</ele><time>2026-04-23T14:14:18.142Z</time></trkpt><trkpt lat="44.3097795" lon="8.3112372"><ele>453.5</ele><time>2026-04-23T14:14:19.143Z</time></trkpt><trkpt lat="44.3097982" lon="8.3113493"><ele>454.33333333333337</ele><time>2026-04-23T14:14:20.142Z</time></trkpt><trkpt lat="44.3098106" lon="8.3114641"><ele>455.1666666666667</ele><time>2026-04-23T14:14:21.142Z</time></trkpt><trkpt lat="44.3097753" lon="8.3115727"><ele>456.0</ele><time>2026-04-23T14:14:22.142Z</time></trkpt><trkpt lat="44.3097361" lon="8.3116849"><ele>456.0</ele><time>2026-04-23T14:14:23.141Z</time></trkpt><trkpt lat="44.309709" lon="8.3117934"><ele>456.0</ele><time>2026-04-23T14:14:24.141Z</time></trkpt><trkpt lat="44.3096756" lon="8.3119118"><ele>456.0</ele><time>2026-04-23T14:14:25.141Z</time></trkpt><trkpt lat="44.3096454" lon="8.3120222"><ele>456.0</ele><time>2026-04-23T14:14:26.143Z</time></trkpt><trkpt lat="44.3096362" lon="8.3121451"><ele>456.0</ele><time>2026-04-23T14:14:27.14Z</time></trkpt><trkpt lat="44.3096281" lon="8.3122551"><ele>456.0</ele><time>2026-04-23T14:14:28.142Z</time></trkpt><trkpt lat="44.3096411" lon="8.3123691"><ele>457.0</ele><time>2026-04-23T14:14:29.143Z</time></trkpt><trkpt lat="44.3096714" lon="8.3125175"><ele>458.0</ele><time>2026-04-23T14:14:30.14Z</time></trkpt><trkpt lat="44.3097042" lon="8.3126327"><ele>459.0</ele><time>2026-04-23T14:14:31.141Z</time></trkpt><trkpt lat="44.3097411" lon="8.3127472"><ele>460.0</ele><time>2026-04-23T14:14:32.142Z</time></trkpt><trkpt lat="44.3097945" lon="8.3128675"><ele>461.0</ele><time>2026-04-23T14:14:33.141Z</time></trkpt><trkpt lat="44.3098423" lon="8.312983"><ele>456.66666666666663</ele><time>2026-04-23T14:14:34.141Z</time></trkpt><trkpt lat="44.3098935" lon="8.3130891"><ele>452.3333333333333</ele><time>2026-04-23T14:14:35.142Z</time></trkpt><trkpt lat="44.3099385" lon="8.3132158"><ele>448.0</ele><time>2026-04-23T14:14:36.143Z</time></trkpt><trkpt lat="44.3100056" lon="8.3132902"><ele>443.66666666666663</ele><time>2026-04-23T14:14:37.142Z</time></trkpt><trkpt lat="44.3100676" lon="8.3133549"><ele>439.3333333333333</ele><time>2026-04-23T14:14:38.142Z</time></trkpt><trkpt lat="44.3101549" lon="8.3133906"><ele>435.0</ele><time>2026-04-23T14:14:39.142Z</time></trkpt><trkpt lat="44.3102423" lon="8.3134149"><ele>435.0</ele><time>2026-04-23T14:14:40.142Z</time></trkpt><trkpt lat="44.3103319" lon="8.3134306"><ele>435.0</ele><time>2026-04-23T14:14:41.142Z</time></trkpt><trkpt lat="44.3104216" lon="8.3134202"><ele>435.0</ele><time>2026-04-23T14:14:42.143Z</time></trkpt><trkpt lat="44.310508" lon="8.3134231"><ele>435.0</ele><time>2026-04-23T14:14:43.141Z</time></trkpt><trkpt lat="44.3105901" lon="8.3134248"><ele>435.0</ele><time>2026-04-23T14:14:44.142Z</time></trkpt><trkpt lat="44.3106798" lon="8.3134416"><ele>435.0</ele><time>2026-04-23T14:14:45.142Z</time></trkpt><trkpt lat="44.3107707" lon="8.313446"><ele>434.2</ele><time>2026-04-23T14:14:46.141Z</time></trkpt><trkpt lat="44.3108649" lon="8.3134453"><ele>433.4</ele><time>2026-04-23T14:14:47.142Z</time></trkpt><trkpt lat="44.3109503" lon="8.3134461"><ele>432.6</ele><time>2026-04-23T14:14:48.141Z</time></trkpt><trkpt lat="44.3110374" lon="8.3134518"><ele>431.8</ele><time>2026-04-23T14:14:49.14Z</time></trkpt><trkpt lat="44.3111348" lon="8.3134616"><ele>431.0</ele><time>2026-04-23T14:14:50.14Z</time></trkpt><trkpt lat="44.3112373" lon="8.3134458"><ele>430.99999999999994</ele><time>2026-04-23T14:14:51.141Z</time></trkpt><trkpt lat="44.3113202" lon="8.3134204"><ele>431.0</ele><time>2026-04-23T14:14:52.141Z</time></trkpt><trkpt lat="44.3114131" lon="8.313394"><ele>431.0</ele><time>2026-04-23T14:14:53.141Z</time></trkpt><trkpt lat="44.3115189" lon="8.3134008"><ele>431.0</ele><time>2026-04-23T14:14:54.143Z</time></trkpt><trkpt lat="44.3115659" lon="8.313334"><ele>430.99999999999994</ele><time>2026-04-23T14:14:55.142Z</time></trkpt><trkpt lat="44.3116346" lon="8.3132881"><ele>431.0</ele><time>2026-04-23T14:14:56.142Z</time></trkpt><trkpt lat="44.3117134" lon="8.3132535"><ele>429.66666666666663</ele><time>2026-04-23T14:14:57.141Z</time></trkpt><trkpt lat="44.3117796" lon="8.3131892"><ele>428.3333333333333</ele><time>2026-04-23T14:14:58.142Z</time></trkpt><trkpt lat="44.3118495" lon="8.3131141"><ele>427.0</ele><time>2026-04-23T14:14:59.141Z</time></trkpt><trkpt lat="44.311911" lon="8.3130656"><ele>425.66666666666663</ele><time>2026-04-23T14:15:00.141Z</time></trkpt><trkpt lat="44.3120236" lon="8.3129747"><ele>424.3333333333333</ele><time>2026-04-23T14:15:02.141Z</time></trkpt><trkpt lat="44.3120781" lon="8.3129211"><ele>423.0</ele><time>2026-04-23T14:15:03.143Z</time></trkpt><trkpt lat="44.3121303" lon="8.3128654"><ele>423.0</ele><time>2026-04-23T14:15:04.14Z</time></trkpt><trkpt lat="44.3121822" lon="8.3128109"><ele>423.0</ele><time>2026-04-23T14:15:05.142Z</time></trkpt><trkpt lat="44.3122422" lon="8.3127654"><ele>423.0</ele><time>2026-04-23T14:15:06.142Z</time></trkpt><trkpt lat="44.312295" lon="8.3126758"><ele>423.0</ele><time>2026-04-23T14:15:07.142Z</time></trkpt><trkpt lat="44.3123514" lon="8.312633"><ele>423.0</ele><time>2026-04-23T14:15:08.142Z</time></trkpt><trkpt lat="44.3124087" lon="8.3125851"><ele>423.0</ele><time>2026-04-23T14:15:09.142Z</time></trkpt><trkpt lat="44.3124744" lon="8.3125499"><ele>423.0</ele><time>2026-04-23T14:15:10.142Z</time></trkpt><trkpt lat="44.3125365" lon="8.3125134"><ele>423.8333333333333</ele><time>2026-04-23T14:15:11.14Z</time></trkpt><trkpt lat="44.312602" lon="8.3124923"><ele>424.66666666666663</ele><time>2026-04-23T14:15:12.141Z</time></trkpt><trkpt lat="44.3126673" lon="8.3124896"><ele>425.5</ele><time>2026-04-23T14:15:13.141Z</time></trkpt><trkpt lat="44.3127314" lon="8.3125083"><ele>426.3333333333333</ele><time>2026-04-23T14:15:14.142Z</time></trkpt><trkpt lat="44.3128388" lon="8.3125844"><ele>427.16666666666663</ele><time>2026-04-23T14:15:16.141Z</time></trkpt><trkpt lat="44.3128878" lon="8.3126408"><ele>428.0</ele><time>2026-04-23T14:15:17.143Z</time></trkpt><trkpt lat="44.3129629" lon="8.3127527"><ele>428.0</ele><time>2026-04-23T14:15:19.141Z</time></trkpt><trkpt lat="44.3130148" lon="8.3128635"><ele>427.99999999999994</ele><time>2026-04-23T14:15:20.141Z</time></trkpt><trkpt lat="44.3130932" lon="8.312995"><ele>427.99999999999994</ele><time>2026-04-23T14:15:22.143Z</time></trkpt><trkpt lat="44.3131539" lon="8.3131413"><ele>428.0</ele><time>2026-04-23T14:15:24.141Z</time></trkpt><trkpt lat="44.3131959" lon="8.3132083"><ele>428.0</ele><time>2026-04-23T14:15:25.142Z</time></trkpt><trkpt lat="44.3132505" lon="8.3133586"><ele>429.79999999999995</ele><time>2026-04-23T14:15:27.142Z</time></trkpt><trkpt lat="44.3132886" lon="8.3134387"><ele>431.59999999999997</ele><time>2026-04-23T14:15:28.143Z</time></trkpt><trkpt lat="44.3133515" lon="8.313583"><ele>433.40000000000003</ele><time>2026-04-23T14:15:30.142Z</time></trkpt><trkpt lat="44.3134336" lon="8.3137058"><ele>435.20000000000005</ele><time>2026-04-23T14:15:32.142Z</time></trkpt><trkpt lat="44.3134826" lon="8.3137617"><ele>437.0</ele><time>2026-04-23T14:15:33.14Z</time></trkpt><trkpt lat="44.3135431" lon="8.3138317"><ele>437.0</ele><time>2026-04-23T14:15:34.14Z</time></trkpt><trkpt lat="44.3136049" lon="8.3138782"><ele>437.0</ele><time>2026-04-23T14:15:35.141Z</time></trkpt><trkpt lat="44.3136751" lon="8.3139026"><ele>437.0</ele><time>2026-04-23T14:15:36.142Z</time></trkpt><trkpt lat="44.313738" lon="8.3139219"><ele>437.0</ele><time>2026-04-23T14:15:37.142Z</time></trkpt><trkpt lat="44.3138036" lon="8.3139298"><ele>437.0</ele><time>2026-04-23T14:15:38.141Z</time></trkpt><trkpt lat="44.3138802" lon="8.313934"><ele>437.0</ele><time>2026-04-23T14:15:39.142Z</time></trkpt><trkpt lat="44.3139606" lon="8.3139203"><ele>437.0</ele><time>2026-04-23T14:15:40.143Z</time></trkpt><trkpt lat="44.3140354" lon="8.3139033"><ele>438.49999999999994</ele><time>2026-04-23T14:15:41.141Z</time></trkpt><trkpt lat="44.3141132" lon="8.3138856"><ele>440.0</ele><time>2026-04-23T14:15:42.142Z</time></trkpt><trkpt lat="44.3141827" lon="8.313873"><ele>441.5</ele><time>2026-04-23T14:15:43.143Z</time></trkpt><trkpt lat="44.3143166" lon="8.3138587"><ele>443.0</ele><time>2026-04-23T14:15:45.142Z</time></trkpt><trkpt lat="44.3143805" lon="8.3138621"><ele>444.49999999999994</ele><time>2026-04-23T14:15:46.142Z</time></trkpt><trkpt lat="44.3144423" lon="8.3138831"><ele>446.0</ele><time>2026-04-23T14:15:47.143Z</time></trkpt><trkpt lat="44.3145021" lon="8.3139139"><ele>446.0</ele><time>2026-04-23T14:15:48.143Z</time></trkpt><trkpt lat="44.3146197" lon="8.3139627"><ele>446.0</ele><time>2026-04-23T14:15:50.141Z</time></trkpt><trkpt lat="44.3147424" lon="8.3139776"><ele>446.0</ele><time>2026-04-23T14:15:52.141Z</time></trkpt><trkpt lat="44.3148086" lon="8.3139617"><ele>446.0</ele><time>2026-04-23T14:15:53.143Z</time></trkpt><trkpt lat="44.3149193" lon="8.3139395"><ele>446.0</ele><time>2026-04-23T14:15:55.14Z</time></trkpt><trkpt lat="44.3149853" lon="8.3139152"><ele>442.49999999999994</ele><time>2026-04-23T14:15:56.142Z</time></trkpt><trkpt lat="44.3150475" lon="8.3138818"><ele>439.0</ele><time>2026-04-23T14:15:57.141Z</time></trkpt><trkpt lat="44.3151653" lon="8.3138361"><ele>435.5</ele><time>2026-04-23T14:15:59.142Z</time></trkpt><trkpt lat="44.3152867" lon="8.3137901"><ele>432.0</ele><time>2026-04-23T14:16:01.141Z</time></trkpt><trkpt lat="44.3153493" lon="8.3137693"><ele>428.49999999999994</ele><time>2026-04-23T14:16:02.141Z</time></trkpt><trkpt lat="44.3154119" lon="8.3137479"><ele>425.0</ele><time>2026-04-23T14:16:03.143Z</time></trkpt><trkpt lat="44.315535" lon="8.3137148"><ele>425.42857142857144</ele><time>2026-04-23T14:16:05.141Z</time></trkpt><trkpt lat="44.3156008" lon="8.313702"><ele>425.85714285714283</ele><time>2026-04-23T14:16:06.142Z</time></trkpt><trkpt lat="44.315665" lon="8.3136977"><ele>426.28571428571433</ele><time>2026-04-23T14:16:07.142Z</time></trkpt><trkpt lat="44.3157286" lon="8.3136842"><ele>426.7142857142857</ele><time>2026-04-23T14:16:08.143Z</time></trkpt><trkpt lat="44.315796" lon="8.3136874"><ele>427.14285714285717</ele><time>2026-04-23T14:16:09.141Z</time></trkpt><trkpt lat="44.3158605" lon="8.3136841"><ele>427.5714285714286</ele><time>2026-04-23T14:16:10.141Z</time></trkpt><trkpt lat="44.3159283" lon="8.3136773"><ele>428.0</ele><time>2026-04-23T14:16:11.142Z</time></trkpt><trkpt lat="44.3159954" lon="8.3136611"><ele>428.0</ele><time>2026-04-23T14:16:12.142Z</time></trkpt><trkpt lat="44.3161128" lon="8.3136703"><ele>427.99999999999994</ele><time>2026-04-23T14:16:14.143Z</time></trkpt><trkpt lat="44.3161768" lon="8.3136961"><ele>427.99999999999994</ele><time>2026-04-23T14:16:15.142Z</time></trkpt><trkpt lat="44.3162417" lon="8.31374"><ele>428.0</ele><time>2026-04-23T14:16:16.142Z</time></trkpt><trkpt lat="44.3163113" lon="8.3138323"><ele>428.0</ele><time>2026-04-23T14:16:17.14Z</time></trkpt><trkpt lat="44.3163816" lon="8.3139292"><ele>428.16666666666663</ele><time>2026-04-23T14:16:18.141Z</time></trkpt><trkpt lat="44.3164233" lon="8.314003"><ele>428.3333333333333</ele><time>2026-04-23T14:16:19.141Z</time></trkpt><trkpt lat="44.3164276" lon="8.3140942"><ele>428.5</ele><time>2026-04-23T14:16:20.142Z</time></trkpt><trkpt lat="44.3164706" lon="8.3142503"><ele>428.66666666666663</ele><time>2026-04-23T14:16:22.14Z</time></trkpt><trkpt lat="44.3164887" lon="8.3143379"><ele>428.8333333333333</ele><time>2026-04-23T14:16:23.143Z</time></trkpt><trkpt lat="44.3164946" lon="8.3144356"><ele>429.0</ele><time>2026-04-23T14:16:24.142Z</time></trkpt><trkpt lat="44.3165045" lon="8.3145287"><ele>429.0</ele><time>2026-04-23T14:16:25.142Z</time></trkpt><trkpt lat="44.3165158" lon="8.3146239"><ele>429.0</ele><time>2026-04-23T14:16:26.141Z</time></trkpt><trkpt lat="44.316536" lon="8.3147216"><ele>429.0</ele><time>2026-04-23T14:16:27.142Z</time></trkpt><trkpt lat="44.3165422" lon="8.314817"><ele>429.0</ele><time>2026-04-23T14:16:28.141Z</time></trkpt><trkpt lat="44.3165468" lon="8.314922"><ele>429.0</ele><time>2026-04-23T14:16:29.141Z</time></trkpt><trkpt lat="44.3165517" lon="8.3150314"><ele>429.0</ele><time>2026-04-23T14:16:30.14Z</time></trkpt><trkpt lat="44.316557" lon="8.3151327"><ele>429.0</ele><time>2026-04-23T14:16:31.141Z</time></trkpt><trkpt lat="44.3165538" lon="8.3152371"><ele>429.0</ele><time>2026-04-23T14:16:32.141Z</time></trkpt><trkpt lat="44.3165678" lon="8.3153374"><ele>429.0</ele><time>2026-04-23T14:16:33.141Z</time></trkpt><trkpt lat="44.3165666" lon="8.3154417"><ele>429.0</ele><time>2026-04-23T14:16:34.141Z</time></trkpt><trkpt lat="44.3165638" lon="8.3155394"><ele>429.0</ele><time>2026-04-23T14:16:35.142Z</time></trkpt><trkpt lat="44.3165745" lon="8.315639"><ele>429.0</ele><time>2026-04-23T14:16:36.141Z</time></trkpt><trkpt lat="44.3165742" lon="8.3157347"><ele>429.0</ele><time>2026-04-23T14:16:37.142Z</time></trkpt><trkpt lat="44.3165811" lon="8.315838"><ele>429.0</ele><time>2026-04-23T14:16:38.143Z</time></trkpt><trkpt lat="44.3165862" lon="8.3159387"><ele>429.0</ele><time>2026-04-23T14:16:39.141Z</time></trkpt><trkpt lat="44.3165997" lon="8.3160429"><ele>429.0</ele><time>2026-04-23T14:16:40.141Z</time></trkpt><trkpt lat="44.3166009" lon="8.3161368"><ele>429.0</ele><time>2026-04-23T14:16:41.142Z</time></trkpt><trkpt lat="44.3166006" lon="8.3162329"><ele>429.0</ele><time>2026-04-23T14:16:42.142Z</time></trkpt><trkpt lat="44.3166024" lon="8.3163374"><ele>429.0</ele><time>2026-04-23T14:16:43.141Z</time></trkpt><trkpt lat="44.316587" lon="8.3164377"><ele>429.0</ele><time>2026-04-23T14:16:44.141Z</time></trkpt><trkpt lat="44.3165537" lon="8.316521"><ele>429.0</ele><time>2026-04-23T14:16:45.142Z</time></trkpt><trkpt lat="44.3165453" lon="8.3166149"><ele>428.42857142857144</ele><time>2026-04-23T14:16:46.14Z</time></trkpt><trkpt lat="44.3165344" lon="8.3167127"><ele>427.8571428571429</ele><time>2026-04-23T14:16:47.143Z</time></trkpt><trkpt lat="44.3165153" lon="8.3168099"><ele>427.2857142857143</ele><time>2026-04-23T14:16:48.142Z</time></trkpt><trkpt lat="44.3164867" lon="8.3168993"><ele>426.7142857142857</ele><time>2026-04-23T14:16:49.14Z</time></trkpt><trkpt lat="44.3164729" lon="8.3169924"><ele>426.1428571428571</ele><time>2026-04-23T14:16:50.142Z</time></trkpt><trkpt lat="44.3164553" lon="8.3170965"><ele>425.57142857142856</ele><time>2026-04-23T14:16:51.141Z</time></trkpt><trkpt lat="44.3164567" lon="8.3171931"><ele>425.0</ele><time>2026-04-23T14:16:52.141Z</time></trkpt><trkpt lat="44.3164321" lon="8.3173717"><ele>429.49999999999994</ele><time>2026-04-23T14:16:54.142Z</time></trkpt><trkpt lat="44.3163994" lon="8.3175468"><ele>434.0</ele><time>2026-04-23T14:16:56.141Z</time></trkpt><trkpt lat="44.3163791" lon="8.3176493"><ele>438.5</ele><time>2026-04-23T14:16:57.141Z</time></trkpt><trkpt lat="44.3163563" lon="8.3177501"><ele>443.0</ele><time>2026-04-23T14:16:58.143Z</time></trkpt><trkpt lat="44.316336" lon="8.3178482"><ele>447.49999999999994</ele><time>2026-04-23T14:16:59.142Z</time></trkpt><trkpt lat="44.3163224" lon="8.3179434"><ele>452.0</ele><time>2026-04-23T14:17:00.14Z</time></trkpt><trkpt lat="44.3163067" lon="8.3180434"><ele>450.66666666666663</ele><time>2026-04-23T14:17:01.141Z</time></trkpt><trkpt lat="44.3162921" lon="8.3181537"><ele>449.3333333333333</ele><time>2026-04-23T14:17:02.141Z</time></trkpt><trkpt lat="44.3162931" lon="8.3182539"><ele>448.0</ele><time>2026-04-23T14:17:03.142Z</time></trkpt><trkpt lat="44.3163104" lon="8.3183473"><ele>446.66666666666663</ele><time>2026-04-23T14:17:04.143Z</time></trkpt><trkpt lat="44.3163438" lon="8.3184405"><ele>445.3333333333333</ele><time>2026-04-23T14:17:05.141Z</time></trkpt><trkpt lat="44.316395" lon="8.3185422"><ele>444.0</ele><time>2026-04-23T14:17:06.142Z</time></trkpt><trkpt lat="44.3164478" lon="8.3186415"><ele>441.1666666666667</ele><time>2026-04-23T14:17:07.142Z</time></trkpt><trkpt lat="44.3165019" lon="8.3187288"><ele>438.33333333333337</ele><time>2026-04-23T14:17:08.142Z</time></trkpt><trkpt lat="44.3165567" lon="8.3188168"><ele>435.5</ele><time>2026-04-23T14:17:09.141Z</time></trkpt><trkpt lat="44.3166098" lon="8.3189061"><ele>432.6666666666667</ele><time>2026-04-23T14:17:10.141Z</time></trkpt><trkpt lat="44.3166652" lon="8.3189943"><ele>429.83333333333337</ele><time>2026-04-23T14:17:11.142Z</time></trkpt><trkpt lat="44.3167188" lon="8.3190911"><ele>427.0</ele><time>2026-04-23T14:17:12.142Z</time></trkpt><trkpt lat="44.316774" lon="8.3191834"><ele>427.00000000000006</ele><time>2026-04-23T14:17:13.141Z</time></trkpt><trkpt lat="44.3168271" lon="8.3192831"><ele>427.0</ele><time>2026-04-23T14:17:14.142Z</time></trkpt><trkpt lat="44.316889" lon="8.3193761"><ele>427.0</ele><time>2026-04-23T14:17:15.141Z</time></trkpt><trkpt lat="44.3169339" lon="8.3194602"><ele>427.0</ele><time>2026-04-23T14:17:16.141Z</time></trkpt><trkpt lat="44.3169775" lon="8.3195583"><ele>427.00000000000006</ele><time>2026-04-23T14:17:17.142Z</time></trkpt><trkpt lat="44.3170471" lon="8.3196518"><ele>427.0</ele><time>2026-04-23T14:17:18.141Z</time></trkpt><trkpt lat="44.3171027" lon="8.3197421"><ele>425.6</ele><time>2026-04-23T14:17:19.142Z</time></trkpt><trkpt lat="44.3171662" lon="8.319836"><ele>424.20000000000005</ele><time>2026-04-23T14:17:20.142Z</time></trkpt><trkpt lat="44.3172218" lon="8.3199312"><ele>422.8</ele><time>2026-04-23T14:17:21.14Z</time></trkpt><trkpt lat="44.3172882" lon="8.320023"><ele>421.4</ele><time>2026-04-23T14:17:22.141Z</time></trkpt><trkpt lat="44.3173653" lon="8.3201004"><ele>420.0</ele><time>2026-04-23T14:17:23.142Z</time></trkpt><trkpt lat="44.317445" lon="8.3201502"><ele>420.0</ele><time>2026-04-23T14:17:24.141Z</time></trkpt><trkpt lat="44.3175253" lon="8.3202184"><ele>420.0</ele><time>2026-04-23T14:17:25.141Z</time></trkpt><trkpt lat="44.3176029" lon="8.3202152"><ele>420.0</ele><time>2026-04-23T14:17:26.141Z</time></trkpt><trkpt lat="44.3176837" lon="8.3202272"><ele>420.0</ele><time>2026-04-23T14:17:27.142Z</time></trkpt><trkpt lat="44.3177668" lon="8.3202667"><ele>420.0</ele><time>2026-04-23T14:17:28.142Z</time></trkpt><trkpt lat="44.3178447" lon="8.3202661"><ele>420.0</ele><time>2026-04-23T14:17:29.142Z</time></trkpt><trkpt lat="44.3179214" lon="8.3202652"><ele>420.0</ele><time>2026-04-23T14:17:30.14Z</time></trkpt><trkpt lat="44.3179902" lon="8.3202665"><ele>420.0</ele><time>2026-04-23T14:17:31.141Z</time></trkpt><trkpt lat="44.3180615" lon="8.3202683"><ele>420.0</ele><time>2026-04-23T14:17:32.141Z</time></trkpt><trkpt lat="44.3181264" lon="8.3202755"><ele>420.0</ele><time>2026-04-23T14:17:33.141Z</time></trkpt><trkpt lat="44.318194" lon="8.3203088"><ele>420.0</ele><time>2026-04-23T14:17:34.142Z</time></trkpt><trkpt lat="44.3182884" lon="8.320438"><ele>420.0</ele><time>2026-04-23T14:17:36.142Z</time></trkpt><trkpt lat="44.3183367" lon="8.3205278"><ele>419.6</ele><time>2026-04-23T14:17:37.14Z</time></trkpt><trkpt lat="44.3184074" lon="8.3206716"><ele>419.2</ele><time>2026-04-23T14:17:39.141Z</time></trkpt><trkpt lat="44.3184699" lon="8.3208075"><ele>418.79999999999995</ele><time>2026-04-23T14:17:41.141Z</time></trkpt><trkpt lat="44.3185083" lon="8.3208987"><ele>418.4</ele><time>2026-04-23T14:17:42.141Z</time></trkpt><trkpt lat="44.3185424" lon="8.320975"><ele>418.0</ele><time>2026-04-23T14:17:43.141Z</time></trkpt><trkpt lat="44.3185989" lon="8.3211288"><ele>418.0</ele><time>2026-04-23T14:17:45.141Z</time></trkpt><trkpt lat="44.3186661" lon="8.3212743"><ele>418.0</ele><time>2026-04-23T14:17:47.141Z</time></trkpt><trkpt lat="44.3187003" lon="8.3213509"><ele>418.0</ele><time>2026-04-23T14:17:48.14Z</time></trkpt><trkpt lat="44.3187467" lon="8.3215039"><ele>418.0</ele><time>2026-04-23T14:17:50.14Z</time></trkpt><trkpt lat="44.3188017" lon="8.3216378"><ele>418.0</ele><time>2026-04-23T14:17:52.14Z</time></trkpt><trkpt lat="44.3188615" lon="8.3217536"><ele>417.1666666666667</ele><time>2026-04-23T14:17:54.141Z</time></trkpt><trkpt lat="44.3189465" lon="8.3218831"><ele>416.33333333333337</ele><time>2026-04-23T14:17:56.141Z</time></trkpt><trkpt lat="44.3189928" lon="8.3219476"><ele>415.5</ele><time>2026-04-23T14:17:57.141Z</time></trkpt><trkpt lat="44.319038" lon="8.3220172"><ele>414.66666666666663</ele><time>2026-04-23T14:17:58.141Z</time></trkpt><trkpt lat="44.3190824" lon="8.3220868"><ele>413.8333333333333</ele><time>2026-04-23T14:17:59.141Z</time></trkpt><trkpt lat="44.3191316" lon="8.3221467"><ele>413.0</ele><time>2026-04-23T14:18:00.141Z</time></trkpt><trkpt lat="44.319177" lon="8.3222274"><ele>413.66666666666663</ele><time>2026-04-23T14:18:01.141Z</time></trkpt><trkpt lat="44.3192299" lon="8.3222983"><ele>414.3333333333333</ele><time>2026-04-23T14:18:02.141Z</time></trkpt><trkpt lat="44.3192804" lon="8.3223586"><ele>415.0</ele><time>2026-04-23T14:18:03.142Z</time></trkpt><trkpt lat="44.3193309" lon="8.3224195"><ele>415.66666666666663</ele><time>2026-04-23T14:18:04.141Z</time></trkpt><trkpt lat="44.3193855" lon="8.3224838"><ele>416.3333333333333</ele><time>2026-04-23T14:18:05.14Z</time></trkpt><trkpt lat="44.319437" lon="8.3225473"><ele>417.0</ele><time>2026-04-23T14:18:06.141Z</time></trkpt><trkpt lat="44.3195394" lon="8.3226658"><ele>417.0</ele><time>2026-04-23T14:18:08.141Z</time></trkpt><trkpt lat="44.3195908" lon="8.3227195"><ele>417.0</ele><time>2026-04-23T14:18:09.142Z</time></trkpt><trkpt lat="44.3196459" lon="8.3227686"><ele>417.0</ele><time>2026-04-23T14:18:10.141Z</time></trkpt><trkpt lat="44.3197002" lon="8.3228227"><ele>417.0</ele><time>2026-04-23T14:18:11.142Z</time></trkpt><trkpt lat="44.3198008" lon="8.3228963"><ele>417.0</ele><time>2026-04-23T14:18:13.141Z</time></trkpt><trkpt lat="44.3199006" lon="8.3229612"><ele>417.0</ele><time>2026-04-23T14:18:15.14Z</time></trkpt><trkpt lat="44.3199603" lon="8.3229929"><ele>416.8333333333333</ele><time>2026-04-23T14:18:16.141Z</time></trkpt><trkpt lat="44.3200198" lon="8.3230244"><ele>416.66666666666663</ele><time>2026-04-23T14:18:17.141Z</time></trkpt><trkpt lat="44.3200852" lon="8.32306"><ele>416.5</ele><time>2026-04-23T14:18:18.141Z</time></trkpt><trkpt lat="44.3201498" lon="8.3230929"><ele>416.3333333333333</ele><time>2026-04-23T14:18:19.139Z</time></trkpt><trkpt lat="44.3202769" lon="8.3231662"><ele>416.16666666666663</ele><time>2026-04-23T14:18:21.14Z</time></trkpt><trkpt lat="44.3203409" lon="8.3232008"><ele>416.0</ele><time>2026-04-23T14:18:22.141Z</time></trkpt><trkpt lat="44.3204095" lon="8.3232326"><ele>415.99999999999994</ele><time>2026-04-23T14:18:23.142Z</time></trkpt><trkpt lat="44.3204791" lon="8.3232592"><ele>416.0</ele><time>2026-04-23T14:18:24.141Z</time></trkpt><trkpt lat="44.3205405" lon="8.3232893"><ele>416.0</ele><time>2026-04-23T14:18:25.141Z</time></trkpt><trkpt lat="44.320604" lon="8.3233439"><ele>416.0</ele><time>2026-04-23T14:18:26.141Z</time></trkpt><trkpt lat="44.320715" lon="8.3234145"><ele>415.99999999999994</ele><time>2026-04-23T14:18:28.142Z</time></trkpt><trkpt lat="44.3207779" lon="8.3234411"><ele>416.0</ele><time>2026-04-23T14:18:29.141Z</time></trkpt><trkpt lat="44.3208981" lon="8.3235047"><ele>414.99999999999994</ele><time>2026-04-23T14:18:31.142Z</time></trkpt><trkpt lat="44.3209589" lon="8.3235305"><ele>414.0</ele><time>2026-04-23T14:18:32.14Z</time></trkpt><trkpt lat="44.3210192" lon="8.323556"><ele>413.0</ele><time>2026-04-23T14:18:33.141Z</time></trkpt><trkpt lat="44.3210793" lon="8.3235849"><ele>412.0</ele><time>2026-04-23T14:18:34.141Z</time></trkpt><trkpt lat="44.321183" lon="8.3236474"><ele>410.99999999999994</ele><time>2026-04-23T14:18:36.142Z</time></trkpt><trkpt lat="44.3212832" lon="8.3236847"><ele>410.0</ele><time>2026-04-23T14:18:38.141Z</time></trkpt><trkpt lat="44.3213789" lon="8.3237294"><ele>409.8333333333333</ele><time>2026-04-23T14:18:40.141Z</time></trkpt><trkpt lat="44.3214794" lon="8.3237635"><ele>409.66666666666663</ele><time>2026-04-23T14:18:42.141Z</time></trkpt><trkpt lat="44.3215638" lon="8.3238074"><ele>409.5</ele><time>2026-04-23T14:18:44.141Z</time></trkpt><trkpt lat="44.3216545" lon="8.3238551"><ele>409.33333333333337</ele><time>2026-04-23T14:18:46.141Z</time></trkpt><trkpt lat="44.32172" lon="8.3238939"><ele>409.1666666666667</ele><time>2026-04-23T14:18:48.14Z</time></trkpt><trkpt lat="44.32174" lon="8.3239849"><ele>409.0</ele><time>2026-04-23T14:18:51.141Z</time></trkpt><trkpt lat="44.3217091" lon="8.3240856"><ele>409.0</ele><time>2026-04-23T14:19:03.142Z</time></trkpt><trkpt lat="44.3216716" lon="8.324164"><ele>409.0</ele><time>2026-04-23T14:19:30.14Z</time></trkpt></trkseg></trk></gpx>